<?xml version="1.0" encoding="UTF-8" standalone="no" ?>
<gpx xmlns="http://www.topografix.com/GPX/1/1" xmlns:xsi="http://www.w3.org/2001/XMLSchema-instance" xsi:schemaLocation="http://www.topografix.com/GPX/1/1 http://www.topografix.com/GPX/1/1/gpx.xsd" version="1.1" creator="VisuGPX - https://www.visugpx.com">
  <metadata>
    <name>LTH-Banvou, sous la neige</name>
    <desc><![CDATA[Rando de 32 km sous la neige]]></desc>
  </metadata>
  <trk>
    <name><![CDATA[LTH-Banvou, sous la neige_1]]></name>
    <trkseg>
      <trkpt lat="48.66142" lon="-0.5456">
        <ele>234.199996</ele>
        <time>2012-02-11T13:04:57Z</time>
      </trkpt>
      <trkpt lat="48.66166" lon="-0.54584">
        <ele>207</ele>
        <time>2012-02-11T13:05:21Z</time>
      </trkpt>
      <trkpt lat="48.66176" lon="-0.54593">
        <ele>180.36502</ele>
        <time>2012-02-11T13:05:27Z</time>
      </trkpt>
      <trkpt lat="48.66172" lon="-0.54582">
        <ele>189.5</ele>
        <time>2012-02-11T13:06:00Z</time>
      </trkpt>
      <trkpt lat="48.66166" lon="-0.5458">
        <ele>189.5</ele>
        <time>2012-02-11T13:06:03Z</time>
      </trkpt>
      <trkpt lat="48.66155" lon="-0.54578">
        <ele>190</ele>
        <time>2012-02-11T13:06:06Z</time>
      </trkpt>
      <trkpt lat="48.66143" lon="-0.54579">
        <ele>190</ele>
        <time>2012-02-11T13:06:10Z</time>
      </trkpt>
      <trkpt lat="48.66134" lon="-0.54581">
        <ele>190</ele>
        <time>2012-02-11T13:06:14Z</time>
      </trkpt>
      <trkpt lat="48.66122" lon="-0.54582">
        <ele>189</ele>
        <time>2012-02-11T13:06:18Z</time>
      </trkpt>
      <trkpt lat="48.66108" lon="-0.54589">
        <ele>189</ele>
        <time>2012-02-11T13:06:22Z</time>
      </trkpt>
      <trkpt lat="48.66093" lon="-0.54606">
        <ele>189</ele>
        <time>2012-02-11T13:06:26Z</time>
      </trkpt>
      <trkpt lat="48.66088" lon="-0.54613">
        <ele>189.2</ele>
        <time>2012-02-11T13:06:28Z</time>
      </trkpt>
      <trkpt lat="48.66086" lon="-0.54618">
        <ele>189.3</ele>
        <time>2012-02-11T13:06:29Z</time>
      </trkpt>
      <trkpt lat="48.66081" lon="-0.54635">
        <ele>189.7</ele>
        <time>2012-02-11T13:06:33Z</time>
      </trkpt>
      <trkpt lat="48.66078" lon="-0.54645">
        <ele>189.8</ele>
        <time>2012-02-11T13:06:35Z</time>
      </trkpt>
      <trkpt lat="48.66075" lon="-0.54655">
        <ele>189.9</ele>
        <time>2012-02-11T13:06:37Z</time>
      </trkpt>
      <trkpt lat="48.66071" lon="-0.54665">
        <ele>190.2</ele>
        <time>2012-02-11T13:06:39Z</time>
      </trkpt>
      <trkpt lat="48.66066" lon="-0.54673">
        <ele>190.5</ele>
        <time>2012-02-11T13:06:41Z</time>
      </trkpt>
      <trkpt lat="48.66063" lon="-0.5468">
        <ele>190.8</ele>
        <time>2012-02-11T13:06:43Z</time>
      </trkpt>
      <trkpt lat="48.66059" lon="-0.54688">
        <ele>191.1</ele>
        <time>2012-02-11T13:06:45Z</time>
      </trkpt>
      <trkpt lat="48.66056" lon="-0.54697">
        <ele>191.4</ele>
        <time>2012-02-11T13:06:47Z</time>
      </trkpt>
      <trkpt lat="48.66053" lon="-0.54707">
        <ele>191.8</ele>
        <time>2012-02-11T13:06:49Z</time>
      </trkpt>
      <trkpt lat="48.66051" lon="-0.54717">
        <ele>192</ele>
        <time>2012-02-11T13:06:51Z</time>
      </trkpt>
      <trkpt lat="48.66049" lon="-0.54727">
        <ele>192.2</ele>
        <time>2012-02-11T13:06:53Z</time>
      </trkpt>
      <trkpt lat="48.66049" lon="-0.54738">
        <ele>192.4</ele>
        <time>2012-02-11T13:06:55Z</time>
      </trkpt>
      <trkpt lat="48.66048" lon="-0.54749">
        <ele>192.7</ele>
        <time>2012-02-11T13:06:57Z</time>
      </trkpt>
      <trkpt lat="48.66048" lon="-0.54759">
        <ele>193.1</ele>
        <time>2012-02-11T13:06:59Z</time>
      </trkpt>
      <trkpt lat="48.66048" lon="-0.5477">
        <ele>193.6</ele>
        <time>2012-02-11T13:07:01Z</time>
      </trkpt>
      <trkpt lat="48.66048" lon="-0.54781">
        <ele>194</ele>
        <time>2012-02-11T13:07:03Z</time>
      </trkpt>
      <trkpt lat="48.66049" lon="-0.54791">
        <ele>194.2</ele>
        <time>2012-02-11T13:07:05Z</time>
      </trkpt>
      <trkpt lat="48.66049" lon="-0.548">
        <ele>194.4</ele>
        <time>2012-02-11T13:07:07Z</time>
      </trkpt>
      <trkpt lat="48.66051" lon="-0.54813">
        <ele>194.7</ele>
        <time>2012-02-11T13:07:10Z</time>
      </trkpt>
      <trkpt lat="48.66052" lon="-0.54826">
        <ele>194.9</ele>
        <time>2012-02-11T13:07:14Z</time>
      </trkpt>
      <trkpt lat="48.66048" lon="-0.54833">
        <ele>195.3</ele>
        <time>2012-02-11T13:07:19Z</time>
      </trkpt>
      <trkpt lat="48.66041" lon="-0.54834">
        <ele>195.4</ele>
        <time>2012-02-11T13:07:21Z</time>
      </trkpt>
      <trkpt lat="48.66034" lon="-0.54833">
        <ele>195.4</ele>
        <time>2012-02-11T13:07:23Z</time>
      </trkpt>
      <trkpt lat="48.66027" lon="-0.5483">
        <ele>195.5</ele>
        <time>2012-02-11T13:07:25Z</time>
      </trkpt>
      <trkpt lat="48.66019" lon="-0.54826">
        <ele>195.6</ele>
        <time>2012-02-11T13:07:27Z</time>
      </trkpt>
      <trkpt lat="48.66012" lon="-0.54822">
        <ele>195.5</ele>
        <time>2012-02-11T13:07:29Z</time>
      </trkpt>
      <trkpt lat="48.66008" lon="-0.5482">
        <ele>195.5</ele>
        <time>2012-02-11T13:07:30Z</time>
      </trkpt>
      <trkpt lat="48.65996" lon="-0.54813">
        <ele>195.4</ele>
        <time>2012-02-11T13:07:33Z</time>
      </trkpt>
      <trkpt lat="48.65987" lon="-0.54807">
        <ele>195.3</ele>
        <time>2012-02-11T13:07:35Z</time>
      </trkpt>
      <trkpt lat="48.65983" lon="-0.54804">
        <ele>195.2</ele>
        <time>2012-02-11T13:07:36Z</time>
      </trkpt>
      <trkpt lat="48.65979" lon="-0.54801">
        <ele>195.1</ele>
        <time>2012-02-11T13:07:37Z</time>
      </trkpt>
      <trkpt lat="48.65975" lon="-0.54798">
        <ele>195.1</ele>
        <time>2012-02-11T13:07:38Z</time>
      </trkpt>
      <trkpt lat="48.65971" lon="-0.54794">
        <ele>195</ele>
        <time>2012-02-11T13:07:39Z</time>
      </trkpt>
      <trkpt lat="48.65966" lon="-0.54791">
        <ele>194.9</ele>
        <time>2012-02-11T13:07:40Z</time>
      </trkpt>
      <trkpt lat="48.65962" lon="-0.54788">
        <ele>194.8</ele>
        <time>2012-02-11T13:07:41Z</time>
      </trkpt>
      <trkpt lat="48.65958" lon="-0.54784">
        <ele>194.7</ele>
        <time>2012-02-11T13:07:42Z</time>
      </trkpt>
      <trkpt lat="48.65954" lon="-0.54781">
        <ele>194.6</ele>
        <time>2012-02-11T13:07:43Z</time>
      </trkpt>
      <trkpt lat="48.6595" lon="-0.54777">
        <ele>194.5</ele>
        <time>2012-02-11T13:07:44Z</time>
      </trkpt>
      <trkpt lat="48.65945" lon="-0.54774">
        <ele>194.4</ele>
        <time>2012-02-11T13:07:45Z</time>
      </trkpt>
      <trkpt lat="48.65941" lon="-0.54771">
        <ele>194.3</ele>
        <time>2012-02-11T13:07:46Z</time>
      </trkpt>
      <trkpt lat="48.65937" lon="-0.54767">
        <ele>194.1</ele>
        <time>2012-02-11T13:07:47Z</time>
      </trkpt>
      <trkpt lat="48.65932" lon="-0.54764">
        <ele>194</ele>
        <time>2012-02-11T13:07:48Z</time>
      </trkpt>
      <trkpt lat="48.65927" lon="-0.54761">
        <ele>193.9</ele>
        <time>2012-02-11T13:07:49Z</time>
      </trkpt>
      <trkpt lat="48.65922" lon="-0.54758">
        <ele>193.7</ele>
        <time>2012-02-11T13:07:50Z</time>
      </trkpt>
      <trkpt lat="48.65917" lon="-0.54755">
        <ele>193.6</ele>
        <time>2012-02-11T13:07:51Z</time>
      </trkpt>
      <trkpt lat="48.65912" lon="-0.54753">
        <ele>193.4</ele>
        <time>2012-02-11T13:07:52Z</time>
      </trkpt>
      <trkpt lat="48.65906" lon="-0.54751">
        <ele>193.3</ele>
        <time>2012-02-11T13:07:53Z</time>
      </trkpt>
      <trkpt lat="48.65901" lon="-0.54749">
        <ele>193.1</ele>
        <time>2012-02-11T13:07:54Z</time>
      </trkpt>
      <trkpt lat="48.65895" lon="-0.54747">
        <ele>192.9</ele>
        <time>2012-02-11T13:07:55Z</time>
      </trkpt>
      <trkpt lat="48.6589" lon="-0.54745">
        <ele>192.8</ele>
        <time>2012-02-11T13:07:56Z</time>
      </trkpt>
      <trkpt lat="48.65884" lon="-0.54744">
        <ele>192.6</ele>
        <time>2012-02-11T13:07:57Z</time>
      </trkpt>
      <trkpt lat="48.65878" lon="-0.54742">
        <ele>192.4</ele>
        <time>2012-02-11T13:07:58Z</time>
      </trkpt>
      <trkpt lat="48.65872" lon="-0.5474">
        <ele>192.3</ele>
        <time>2012-02-11T13:07:59Z</time>
      </trkpt>
      <trkpt lat="48.65867" lon="-0.54739">
        <ele>192.1</ele>
        <time>2012-02-11T13:08:00Z</time>
      </trkpt>
      <trkpt lat="48.65861" lon="-0.54737">
        <ele>191.9</ele>
        <time>2012-02-11T13:08:01Z</time>
      </trkpt>
      <trkpt lat="48.65855" lon="-0.54735">
        <ele>191.8</ele>
        <time>2012-02-11T13:08:02Z</time>
      </trkpt>
      <trkpt lat="48.6585" lon="-0.54733">
        <ele>191.6</ele>
        <time>2012-02-11T13:08:03Z</time>
      </trkpt>
      <trkpt lat="48.65844" lon="-0.54732">
        <ele>191.4</ele>
        <time>2012-02-11T13:08:04Z</time>
      </trkpt>
      <trkpt lat="48.65838" lon="-0.5473">
        <ele>191.3</ele>
        <time>2012-02-11T13:08:05Z</time>
      </trkpt>
      <trkpt lat="48.65832" lon="-0.54728">
        <ele>191.2</ele>
        <time>2012-02-11T13:08:06Z</time>
      </trkpt>
      <trkpt lat="48.65826" lon="-0.54727">
        <ele>191</ele>
        <time>2012-02-11T13:08:07Z</time>
      </trkpt>
      <trkpt lat="48.65821" lon="-0.54725">
        <ele>190.9</ele>
        <time>2012-02-11T13:08:08Z</time>
      </trkpt>
      <trkpt lat="48.65815" lon="-0.54723">
        <ele>190.7</ele>
        <time>2012-02-11T13:08:09Z</time>
      </trkpt>
      <trkpt lat="48.65809" lon="-0.54721">
        <ele>190.6</ele>
        <time>2012-02-11T13:08:10Z</time>
      </trkpt>
      <trkpt lat="48.65803" lon="-0.54719">
        <ele>190.5</ele>
        <time>2012-02-11T13:08:11Z</time>
      </trkpt>
      <trkpt lat="48.65797" lon="-0.54717">
        <ele>190.4</ele>
        <time>2012-02-11T13:08:12Z</time>
      </trkpt>
      <trkpt lat="48.65791" lon="-0.54714">
        <ele>190.4</ele>
        <time>2012-02-11T13:08:13Z</time>
      </trkpt>
      <trkpt lat="48.65786" lon="-0.54712">
        <ele>190.3</ele>
        <time>2012-02-11T13:08:14Z</time>
      </trkpt>
      <trkpt lat="48.65781" lon="-0.54708">
        <ele>190.2</ele>
        <time>2012-02-11T13:08:15Z</time>
      </trkpt>
      <trkpt lat="48.65776" lon="-0.54704">
        <ele>190.2</ele>
        <time>2012-02-11T13:08:16Z</time>
      </trkpt>
      <trkpt lat="48.65772" lon="-0.54699">
        <ele>190.2</ele>
        <time>2012-02-11T13:08:17Z</time>
      </trkpt>
      <trkpt lat="48.65767" lon="-0.54693">
        <ele>190.2</ele>
        <time>2012-02-11T13:08:18Z</time>
      </trkpt>
      <trkpt lat="48.65764" lon="-0.54687">
        <ele>190.2</ele>
        <time>2012-02-11T13:08:19Z</time>
      </trkpt>
      <trkpt lat="48.65761" lon="-0.5468">
        <ele>190.2</ele>
        <time>2012-02-11T13:08:20Z</time>
      </trkpt>
      <trkpt lat="48.65758" lon="-0.54673">
        <ele>190.2</ele>
        <time>2012-02-11T13:08:21Z</time>
      </trkpt>
      <trkpt lat="48.65756" lon="-0.54665">
        <ele>190.2</ele>
        <time>2012-02-11T13:08:22Z</time>
      </trkpt>
      <trkpt lat="48.65754" lon="-0.54657">
        <ele>190.2</ele>
        <time>2012-02-11T13:08:23Z</time>
      </trkpt>
      <trkpt lat="48.65753" lon="-0.5465">
        <ele>190.2</ele>
        <time>2012-02-11T13:08:24Z</time>
      </trkpt>
      <trkpt lat="48.65751" lon="-0.54642">
        <ele>190.2</ele>
        <time>2012-02-11T13:08:25Z</time>
      </trkpt>
      <trkpt lat="48.6575" lon="-0.54634">
        <ele>190.3</ele>
        <time>2012-02-11T13:08:26Z</time>
      </trkpt>
      <trkpt lat="48.65748" lon="-0.54626">
        <ele>190.4</ele>
        <time>2012-02-11T13:08:27Z</time>
      </trkpt>
      <trkpt lat="48.65747" lon="-0.54618">
        <ele>190.5</ele>
        <time>2012-02-11T13:08:28Z</time>
      </trkpt>
      <trkpt lat="48.65745" lon="-0.5461">
        <ele>190.6</ele>
        <time>2012-02-11T13:08:29Z</time>
      </trkpt>
      <trkpt lat="48.65744" lon="-0.54602">
        <ele>190.7</ele>
        <time>2012-02-11T13:08:30Z</time>
      </trkpt>
      <trkpt lat="48.65742" lon="-0.54594">
        <ele>190.8</ele>
        <time>2012-02-11T13:08:31Z</time>
      </trkpt>
      <trkpt lat="48.65741" lon="-0.54587">
        <ele>191</ele>
        <time>2012-02-11T13:08:32Z</time>
      </trkpt>
      <trkpt lat="48.6574" lon="-0.5458">
        <ele>191.1</ele>
        <time>2012-02-11T13:08:33Z</time>
      </trkpt>
      <trkpt lat="48.65738" lon="-0.54573">
        <ele>191.2</ele>
        <time>2012-02-11T13:08:34Z</time>
      </trkpt>
      <trkpt lat="48.65737" lon="-0.54566">
        <ele>191.4</ele>
        <time>2012-02-11T13:08:35Z</time>
      </trkpt>
      <trkpt lat="48.65736" lon="-0.54559">
        <ele>191.5</ele>
        <time>2012-02-11T13:08:36Z</time>
      </trkpt>
      <trkpt lat="48.65734" lon="-0.54552">
        <ele>191.6</ele>
        <time>2012-02-11T13:08:37Z</time>
      </trkpt>
      <trkpt lat="48.65733" lon="-0.54545">
        <ele>191.8</ele>
        <time>2012-02-11T13:08:38Z</time>
      </trkpt>
      <trkpt lat="48.65732" lon="-0.54538">
        <ele>191.9</ele>
        <time>2012-02-11T13:08:39Z</time>
      </trkpt>
      <trkpt lat="48.6573" lon="-0.54531">
        <ele>192.1</ele>
        <time>2012-02-11T13:08:40Z</time>
      </trkpt>
      <trkpt lat="48.65729" lon="-0.54524">
        <ele>192.2</ele>
        <time>2012-02-11T13:08:41Z</time>
      </trkpt>
      <trkpt lat="48.65728" lon="-0.54517">
        <ele>192.3</ele>
        <time>2012-02-11T13:08:42Z</time>
      </trkpt>
      <trkpt lat="48.65727" lon="-0.5451">
        <ele>192.5</ele>
        <time>2012-02-11T13:08:43Z</time>
      </trkpt>
      <trkpt lat="48.65726" lon="-0.54504">
        <ele>192.7</ele>
        <time>2012-02-11T13:08:44Z</time>
      </trkpt>
      <trkpt lat="48.65724" lon="-0.54497">
        <ele>192.9</ele>
        <time>2012-02-11T13:08:45Z</time>
      </trkpt>
      <trkpt lat="48.65723" lon="-0.5449">
        <ele>193.1</ele>
        <time>2012-02-11T13:08:46Z</time>
      </trkpt>
      <trkpt lat="48.65722" lon="-0.54484">
        <ele>193.3</ele>
        <time>2012-02-11T13:08:47Z</time>
      </trkpt>
      <trkpt lat="48.6572" lon="-0.54477">
        <ele>193.5</ele>
        <time>2012-02-11T13:08:48Z</time>
      </trkpt>
      <trkpt lat="48.65718" lon="-0.54464">
        <ele>194.1</ele>
        <time>2012-02-11T13:08:50Z</time>
      </trkpt>
      <trkpt lat="48.65716" lon="-0.54452">
        <ele>194.7</ele>
        <time>2012-02-11T13:08:52Z</time>
      </trkpt>
      <trkpt lat="48.65713" lon="-0.5444">
        <ele>195.3</ele>
        <time>2012-02-11T13:08:54Z</time>
      </trkpt>
      <trkpt lat="48.65711" lon="-0.54428">
        <ele>195.9</ele>
        <time>2012-02-11T13:08:56Z</time>
      </trkpt>
      <trkpt lat="48.65709" lon="-0.54417">
        <ele>196.4</ele>
        <time>2012-02-11T13:08:58Z</time>
      </trkpt>
      <trkpt lat="48.65707" lon="-0.54407">
        <ele>197</ele>
        <time>2012-02-11T13:09:00Z</time>
      </trkpt>
      <trkpt lat="48.65705" lon="-0.54397">
        <ele>197.6</ele>
        <time>2012-02-11T13:09:02Z</time>
      </trkpt>
      <trkpt lat="48.65703" lon="-0.54386">
        <ele>198</ele>
        <time>2012-02-11T13:09:04Z</time>
      </trkpt>
      <trkpt lat="48.65701" lon="-0.54378">
        <ele>198.4</ele>
        <time>2012-02-11T13:09:06Z</time>
      </trkpt>
      <trkpt lat="48.65699" lon="-0.54367">
        <ele>198.7</ele>
        <time>2012-02-11T13:09:08Z</time>
      </trkpt>
      <trkpt lat="48.65697" lon="-0.54356">
        <ele>199</ele>
        <time>2012-02-11T13:09:10Z</time>
      </trkpt>
      <trkpt lat="48.65695" lon="-0.54345">
        <ele>199.4</ele>
        <time>2012-02-11T13:09:12Z</time>
      </trkpt>
      <trkpt lat="48.65693" lon="-0.54334">
        <ele>199.6</ele>
        <time>2012-02-11T13:09:14Z</time>
      </trkpt>
      <trkpt lat="48.65691" lon="-0.54321">
        <ele>199.9</ele>
        <time>2012-02-11T13:09:16Z</time>
      </trkpt>
      <trkpt lat="48.65688" lon="-0.5431">
        <ele>199.7</ele>
        <time>2012-02-11T13:09:18Z</time>
      </trkpt>
      <trkpt lat="48.65686" lon="-0.54297">
        <ele>199.8</ele>
        <time>2012-02-11T13:09:20Z</time>
      </trkpt>
      <trkpt lat="48.65683" lon="-0.54285">
        <ele>200.1</ele>
        <time>2012-02-11T13:09:22Z</time>
      </trkpt>
      <trkpt lat="48.65681" lon="-0.54273">
        <ele>200.4</ele>
        <time>2012-02-11T13:09:24Z</time>
      </trkpt>
      <trkpt lat="48.65679" lon="-0.54261">
        <ele>200.7</ele>
        <time>2012-02-11T13:09:26Z</time>
      </trkpt>
      <trkpt lat="48.65676" lon="-0.54249">
        <ele>201</ele>
        <time>2012-02-11T13:09:28Z</time>
      </trkpt>
      <trkpt lat="48.65674" lon="-0.54236">
        <ele>201.4</ele>
        <time>2012-02-11T13:09:30Z</time>
      </trkpt>
      <trkpt lat="48.65671" lon="-0.54224">
        <ele>201.7</ele>
        <time>2012-02-11T13:09:32Z</time>
      </trkpt>
      <trkpt lat="48.6567" lon="-0.54218">
        <ele>201.7</ele>
        <time>2012-02-11T13:09:33Z</time>
      </trkpt>
      <trkpt lat="48.65666" lon="-0.54205">
        <ele>201.9</ele>
        <time>2012-02-11T13:09:35Z</time>
      </trkpt>
      <trkpt lat="48.65665" lon="-0.54198">
        <ele>202.1</ele>
        <time>2012-02-11T13:09:36Z</time>
      </trkpt>
      <trkpt lat="48.65663" lon="-0.54192">
        <ele>202.2</ele>
        <time>2012-02-11T13:09:37Z</time>
      </trkpt>
      <trkpt lat="48.65661" lon="-0.54185">
        <ele>202.3</ele>
        <time>2012-02-11T13:09:38Z</time>
      </trkpt>
      <trkpt lat="48.65659" lon="-0.54179">
        <ele>202.4</ele>
        <time>2012-02-11T13:09:39Z</time>
      </trkpt>
      <trkpt lat="48.65657" lon="-0.54172">
        <ele>202.5</ele>
        <time>2012-02-11T13:09:40Z</time>
      </trkpt>
      <trkpt lat="48.65655" lon="-0.54166">
        <ele>202.7</ele>
        <time>2012-02-11T13:09:41Z</time>
      </trkpt>
      <trkpt lat="48.65654" lon="-0.54159">
        <ele>202.8</ele>
        <time>2012-02-11T13:09:42Z</time>
      </trkpt>
      <trkpt lat="48.65652" lon="-0.54153">
        <ele>202.9</ele>
        <time>2012-02-11T13:09:43Z</time>
      </trkpt>
      <trkpt lat="48.6565" lon="-0.54146">
        <ele>203.1</ele>
        <time>2012-02-11T13:09:44Z</time>
      </trkpt>
      <trkpt lat="48.65648" lon="-0.54139">
        <ele>203.2</ele>
        <time>2012-02-11T13:09:45Z</time>
      </trkpt>
      <trkpt lat="48.65646" lon="-0.54133">
        <ele>203.3</ele>
        <time>2012-02-11T13:09:46Z</time>
      </trkpt>
      <trkpt lat="48.65644" lon="-0.54126">
        <ele>203.5</ele>
        <time>2012-02-11T13:09:47Z</time>
      </trkpt>
      <trkpt lat="48.65643" lon="-0.54119">
        <ele>203.6</ele>
        <time>2012-02-11T13:09:48Z</time>
      </trkpt>
      <trkpt lat="48.65641" lon="-0.54112">
        <ele>203.7</ele>
        <time>2012-02-11T13:09:49Z</time>
      </trkpt>
      <trkpt lat="48.65639" lon="-0.54106">
        <ele>203.8</ele>
        <time>2012-02-11T13:09:50Z</time>
      </trkpt>
      <trkpt lat="48.65638" lon="-0.54099">
        <ele>203.9</ele>
        <time>2012-02-11T13:09:51Z</time>
      </trkpt>
      <trkpt lat="48.65637" lon="-0.54092">
        <ele>203.9</ele>
        <time>2012-02-11T13:09:52Z</time>
      </trkpt>
      <trkpt lat="48.65636" lon="-0.54085">
        <ele>204</ele>
        <time>2012-02-11T13:09:53Z</time>
      </trkpt>
      <trkpt lat="48.65634" lon="-0.54078">
        <ele>204</ele>
        <time>2012-02-11T13:09:54Z</time>
      </trkpt>
      <trkpt lat="48.65634" lon="-0.54071">
        <ele>204.1</ele>
        <time>2012-02-11T13:09:55Z</time>
      </trkpt>
      <trkpt lat="48.65633" lon="-0.54064">
        <ele>204.1</ele>
        <time>2012-02-11T13:09:56Z</time>
      </trkpt>
      <trkpt lat="48.65632" lon="-0.54057">
        <ele>204.2</ele>
        <time>2012-02-11T13:09:57Z</time>
      </trkpt>
      <trkpt lat="48.65632" lon="-0.5405">
        <ele>204.3</ele>
        <time>2012-02-11T13:09:58Z</time>
      </trkpt>
      <trkpt lat="48.65631" lon="-0.54043">
        <ele>204.4</ele>
        <time>2012-02-11T13:09:59Z</time>
      </trkpt>
      <trkpt lat="48.65631" lon="-0.54036">
        <ele>204.5</ele>
        <time>2012-02-11T13:10:00Z</time>
      </trkpt>
      <trkpt lat="48.65631" lon="-0.54028">
        <ele>204.5</ele>
        <time>2012-02-11T13:10:01Z</time>
      </trkpt>
      <trkpt lat="48.6563" lon="-0.54021">
        <ele>204.6</ele>
        <time>2012-02-11T13:10:02Z</time>
      </trkpt>
      <trkpt lat="48.6563" lon="-0.54014">
        <ele>204.7</ele>
        <time>2012-02-11T13:10:03Z</time>
      </trkpt>
      <trkpt lat="48.6563" lon="-0.54007">
        <ele>204.7</ele>
        <time>2012-02-11T13:10:04Z</time>
      </trkpt>
      <trkpt lat="48.65629" lon="-0.53994">
        <ele>204.9</ele>
        <time>2012-02-11T13:10:06Z</time>
      </trkpt>
      <trkpt lat="48.65628" lon="-0.5398">
        <ele>204.9</ele>
        <time>2012-02-11T13:10:08Z</time>
      </trkpt>
      <trkpt lat="48.65628" lon="-0.53973">
        <ele>204.8</ele>
        <time>2012-02-11T13:10:09Z</time>
      </trkpt>
      <trkpt lat="48.65627" lon="-0.53966">
        <ele>204.8</ele>
        <time>2012-02-11T13:10:10Z</time>
      </trkpt>
      <trkpt lat="48.65627" lon="-0.53959">
        <ele>204.9</ele>
        <time>2012-02-11T13:10:11Z</time>
      </trkpt>
      <trkpt lat="48.65626" lon="-0.53951">
        <ele>204.9</ele>
        <time>2012-02-11T13:10:12Z</time>
      </trkpt>
      <trkpt lat="48.65626" lon="-0.53944">
        <ele>205</ele>
        <time>2012-02-11T13:10:13Z</time>
      </trkpt>
      <trkpt lat="48.65626" lon="-0.53937">
        <ele>205.1</ele>
        <time>2012-02-11T13:10:14Z</time>
      </trkpt>
      <trkpt lat="48.65626" lon="-0.5393">
        <ele>205.2</ele>
        <time>2012-02-11T13:10:15Z</time>
      </trkpt>
      <trkpt lat="48.65625" lon="-0.53923">
        <ele>205.3</ele>
        <time>2012-02-11T13:10:16Z</time>
      </trkpt>
      <trkpt lat="48.65625" lon="-0.53916">
        <ele>205.4</ele>
        <time>2012-02-11T13:10:17Z</time>
      </trkpt>
      <trkpt lat="48.65625" lon="-0.53908">
        <ele>205.6</ele>
        <time>2012-02-11T13:10:18Z</time>
      </trkpt>
      <trkpt lat="48.65624" lon="-0.53901">
        <ele>205.7</ele>
        <time>2012-02-11T13:10:19Z</time>
      </trkpt>
      <trkpt lat="48.65624" lon="-0.53888">
        <ele>206</ele>
        <time>2012-02-11T13:10:21Z</time>
      </trkpt>
      <trkpt lat="48.65623" lon="-0.53875">
        <ele>206.2</ele>
        <time>2012-02-11T13:10:23Z</time>
      </trkpt>
      <trkpt lat="48.65622" lon="-0.53861">
        <ele>206.5</ele>
        <time>2012-02-11T13:10:25Z</time>
      </trkpt>
      <trkpt lat="48.65621" lon="-0.53849">
        <ele>206.7</ele>
        <time>2012-02-11T13:10:27Z</time>
      </trkpt>
      <trkpt lat="48.6562" lon="-0.53836">
        <ele>206.9</ele>
        <time>2012-02-11T13:10:29Z</time>
      </trkpt>
      <trkpt lat="48.65618" lon="-0.53824">
        <ele>207.1</ele>
        <time>2012-02-11T13:10:31Z</time>
      </trkpt>
      <trkpt lat="48.65617" lon="-0.53814">
        <ele>207.2</ele>
        <time>2012-02-11T13:10:33Z</time>
      </trkpt>
      <trkpt lat="48.65616" lon="-0.53808">
        <ele>207.3</ele>
        <time>2012-02-11T13:10:34Z</time>
      </trkpt>
      <trkpt lat="48.65611" lon="-0.53792">
        <ele>207.5</ele>
        <time>2012-02-11T13:10:37Z</time>
      </trkpt>
      <trkpt lat="48.65607" lon="-0.53782">
        <ele>207.5</ele>
        <time>2012-02-11T13:10:39Z</time>
      </trkpt>
      <trkpt lat="48.65603" lon="-0.53772">
        <ele>207.5</ele>
        <time>2012-02-11T13:10:41Z</time>
      </trkpt>
      <trkpt lat="48.65598" lon="-0.53762">
        <ele>207.3</ele>
        <time>2012-02-11T13:10:43Z</time>
      </trkpt>
      <trkpt lat="48.65592" lon="-0.53752">
        <ele>206.9</ele>
        <time>2012-02-11T13:10:45Z</time>
      </trkpt>
      <trkpt lat="48.65587" lon="-0.53742">
        <ele>206.5</ele>
        <time>2012-02-11T13:10:47Z</time>
      </trkpt>
      <trkpt lat="48.65584" lon="-0.53736">
        <ele>206.3</ele>
        <time>2012-02-11T13:10:48Z</time>
      </trkpt>
      <trkpt lat="48.65579" lon="-0.53725">
        <ele>205.8</ele>
        <time>2012-02-11T13:10:50Z</time>
      </trkpt>
      <trkpt lat="48.65577" lon="-0.53719">
        <ele>205.6</ele>
        <time>2012-02-11T13:10:51Z</time>
      </trkpt>
      <trkpt lat="48.65575" lon="-0.53712">
        <ele>205.4</ele>
        <time>2012-02-11T13:10:52Z</time>
      </trkpt>
      <trkpt lat="48.65574" lon="-0.53706">
        <ele>205.3</ele>
        <time>2012-02-11T13:10:53Z</time>
      </trkpt>
      <trkpt lat="48.65572" lon="-0.53699">
        <ele>205.1</ele>
        <time>2012-02-11T13:10:54Z</time>
      </trkpt>
      <trkpt lat="48.65571" lon="-0.53692">
        <ele>205</ele>
        <time>2012-02-11T13:10:55Z</time>
      </trkpt>
      <trkpt lat="48.65569" lon="-0.53685">
        <ele>205</ele>
        <time>2012-02-11T13:10:56Z</time>
      </trkpt>
      <trkpt lat="48.65568" lon="-0.53678">
        <ele>204.9</ele>
        <time>2012-02-11T13:10:57Z</time>
      </trkpt>
      <trkpt lat="48.65567" lon="-0.53671">
        <ele>204.8</ele>
        <time>2012-02-11T13:10:58Z</time>
      </trkpt>
      <trkpt lat="48.65566" lon="-0.53664">
        <ele>204.7</ele>
        <time>2012-02-11T13:10:59Z</time>
      </trkpt>
      <trkpt lat="48.65565" lon="-0.53657">
        <ele>204.5</ele>
        <time>2012-02-11T13:11:00Z</time>
      </trkpt>
      <trkpt lat="48.65564" lon="-0.5365">
        <ele>204.4</ele>
        <time>2012-02-11T13:11:01Z</time>
      </trkpt>
      <trkpt lat="48.65562" lon="-0.53643">
        <ele>204.2</ele>
        <time>2012-02-11T13:11:02Z</time>
      </trkpt>
      <trkpt lat="48.65561" lon="-0.53636">
        <ele>204.1</ele>
        <time>2012-02-11T13:11:03Z</time>
      </trkpt>
      <trkpt lat="48.6556" lon="-0.53628">
        <ele>204</ele>
        <time>2012-02-11T13:11:04Z</time>
      </trkpt>
      <trkpt lat="48.65559" lon="-0.53621">
        <ele>203.8</ele>
        <time>2012-02-11T13:11:05Z</time>
      </trkpt>
      <trkpt lat="48.65558" lon="-0.53613">
        <ele>203.7</ele>
        <time>2012-02-11T13:11:06Z</time>
      </trkpt>
      <trkpt lat="48.65556" lon="-0.53606">
        <ele>203.6</ele>
        <time>2012-02-11T13:11:07Z</time>
      </trkpt>
      <trkpt lat="48.65555" lon="-0.53599">
        <ele>203.5</ele>
        <time>2012-02-11T13:11:08Z</time>
      </trkpt>
      <trkpt lat="48.65554" lon="-0.53592">
        <ele>203.4</ele>
        <time>2012-02-11T13:11:09Z</time>
      </trkpt>
      <trkpt lat="48.65553" lon="-0.53585">
        <ele>203.3</ele>
        <time>2012-02-11T13:11:10Z</time>
      </trkpt>
      <trkpt lat="48.65551" lon="-0.53577">
        <ele>203.3</ele>
        <time>2012-02-11T13:11:11Z</time>
      </trkpt>
      <trkpt lat="48.6555" lon="-0.5357">
        <ele>203.2</ele>
        <time>2012-02-11T13:11:12Z</time>
      </trkpt>
      <trkpt lat="48.65549" lon="-0.53563">
        <ele>203.2</ele>
        <time>2012-02-11T13:11:13Z</time>
      </trkpt>
      <trkpt lat="48.65548" lon="-0.53555">
        <ele>203.2</ele>
        <time>2012-02-11T13:11:14Z</time>
      </trkpt>
      <trkpt lat="48.65547" lon="-0.53548">
        <ele>203.2</ele>
        <time>2012-02-11T13:11:15Z</time>
      </trkpt>
      <trkpt lat="48.65545" lon="-0.53541">
        <ele>203.3</ele>
        <time>2012-02-11T13:11:16Z</time>
      </trkpt>
      <trkpt lat="48.65544" lon="-0.53534">
        <ele>203.3</ele>
        <time>2012-02-11T13:11:17Z</time>
      </trkpt>
      <trkpt lat="48.65543" lon="-0.53527">
        <ele>203.3</ele>
        <time>2012-02-11T13:11:18Z</time>
      </trkpt>
      <trkpt lat="48.65542" lon="-0.5352">
        <ele>203.4</ele>
        <time>2012-02-11T13:11:19Z</time>
      </trkpt>
      <trkpt lat="48.6554" lon="-0.53512">
        <ele>203.4</ele>
        <time>2012-02-11T13:11:20Z</time>
      </trkpt>
      <trkpt lat="48.65539" lon="-0.53506">
        <ele>203.5</ele>
        <time>2012-02-11T13:11:21Z</time>
      </trkpt>
      <trkpt lat="48.65536" lon="-0.53493">
        <ele>203.6</ele>
        <time>2012-02-11T13:11:23Z</time>
      </trkpt>
      <trkpt lat="48.65534" lon="-0.53482">
        <ele>203.8</ele>
        <time>2012-02-11T13:11:25Z</time>
      </trkpt>
      <trkpt lat="48.65531" lon="-0.5347">
        <ele>204</ele>
        <time>2012-02-11T13:11:27Z</time>
      </trkpt>
      <trkpt lat="48.6553" lon="-0.53463">
        <ele>204</ele>
        <time>2012-02-11T13:11:28Z</time>
      </trkpt>
      <trkpt lat="48.65528" lon="-0.53457">
        <ele>204.1</ele>
        <time>2012-02-11T13:11:29Z</time>
      </trkpt>
      <trkpt lat="48.65526" lon="-0.5345">
        <ele>204.1</ele>
        <time>2012-02-11T13:11:30Z</time>
      </trkpt>
      <trkpt lat="48.65524" lon="-0.53443">
        <ele>204.2</ele>
        <time>2012-02-11T13:11:31Z</time>
      </trkpt>
      <trkpt lat="48.65522" lon="-0.53437">
        <ele>204.3</ele>
        <time>2012-02-11T13:11:32Z</time>
      </trkpt>
      <trkpt lat="48.6552" lon="-0.5343">
        <ele>204.4</ele>
        <time>2012-02-11T13:11:33Z</time>
      </trkpt>
      <trkpt lat="48.65518" lon="-0.53423">
        <ele>204.5</ele>
        <time>2012-02-11T13:11:34Z</time>
      </trkpt>
      <trkpt lat="48.65516" lon="-0.53417">
        <ele>204.5</ele>
        <time>2012-02-11T13:11:35Z</time>
      </trkpt>
      <trkpt lat="48.65514" lon="-0.53411">
        <ele>204.6</ele>
        <time>2012-02-11T13:11:36Z</time>
      </trkpt>
      <trkpt lat="48.65512" lon="-0.53404">
        <ele>204.7</ele>
        <time>2012-02-11T13:11:37Z</time>
      </trkpt>
      <trkpt lat="48.6551" lon="-0.53398">
        <ele>204.8</ele>
        <time>2012-02-11T13:11:38Z</time>
      </trkpt>
      <trkpt lat="48.65509" lon="-0.53392">
        <ele>204.8</ele>
        <time>2012-02-11T13:11:39Z</time>
      </trkpt>
      <trkpt lat="48.65506" lon="-0.53385">
        <ele>204.9</ele>
        <time>2012-02-11T13:11:40Z</time>
      </trkpt>
      <trkpt lat="48.65504" lon="-0.53379">
        <ele>205</ele>
        <time>2012-02-11T13:11:41Z</time>
      </trkpt>
      <trkpt lat="48.65502" lon="-0.53373">
        <ele>205</ele>
        <time>2012-02-11T13:11:42Z</time>
      </trkpt>
      <trkpt lat="48.65501" lon="-0.53367">
        <ele>205.1</ele>
        <time>2012-02-11T13:11:43Z</time>
      </trkpt>
      <trkpt lat="48.65499" lon="-0.5336">
        <ele>205.2</ele>
        <time>2012-02-11T13:11:44Z</time>
      </trkpt>
      <trkpt lat="48.65497" lon="-0.53354">
        <ele>205.4</ele>
        <time>2012-02-11T13:11:45Z</time>
      </trkpt>
      <trkpt lat="48.65494" lon="-0.53342">
        <ele>205.7</ele>
        <time>2012-02-11T13:11:47Z</time>
      </trkpt>
      <trkpt lat="48.6549" lon="-0.5333">
        <ele>206.1</ele>
        <time>2012-02-11T13:11:49Z</time>
      </trkpt>
      <trkpt lat="48.65487" lon="-0.53318">
        <ele>206.5</ele>
        <time>2012-02-11T13:11:51Z</time>
      </trkpt>
      <trkpt lat="48.65483" lon="-0.53308">
        <ele>206.8</ele>
        <time>2012-02-11T13:11:53Z</time>
      </trkpt>
      <trkpt lat="48.6548" lon="-0.53297">
        <ele>207.1</ele>
        <time>2012-02-11T13:11:55Z</time>
      </trkpt>
      <trkpt lat="48.65477" lon="-0.53287">
        <ele>207.3</ele>
        <time>2012-02-11T13:11:57Z</time>
      </trkpt>
      <trkpt lat="48.65474" lon="-0.53277">
        <ele>207.4</ele>
        <time>2012-02-11T13:11:59Z</time>
      </trkpt>
      <trkpt lat="48.65471" lon="-0.53267">
        <ele>208.7</ele>
        <time>2012-02-11T13:12:01Z</time>
      </trkpt>
      <trkpt lat="48.65468" lon="-0.53256">
        <ele>210.2</ele>
        <time>2012-02-11T13:12:03Z</time>
      </trkpt>
      <trkpt lat="48.65466" lon="-0.53246">
        <ele>211.1</ele>
        <time>2012-02-11T13:12:05Z</time>
      </trkpt>
      <trkpt lat="48.65462" lon="-0.53235">
        <ele>211.6</ele>
        <time>2012-02-11T13:12:07Z</time>
      </trkpt>
      <trkpt lat="48.65459" lon="-0.53224">
        <ele>211.9</ele>
        <time>2012-02-11T13:12:09Z</time>
      </trkpt>
      <trkpt lat="48.65456" lon="-0.53213">
        <ele>212.8</ele>
        <time>2012-02-11T13:12:11Z</time>
      </trkpt>
      <trkpt lat="48.65453" lon="-0.53202">
        <ele>213.5</ele>
        <time>2012-02-11T13:12:13Z</time>
      </trkpt>
      <trkpt lat="48.65449" lon="-0.53191">
        <ele>214.1</ele>
        <time>2012-02-11T13:12:15Z</time>
      </trkpt>
      <trkpt lat="48.65446" lon="-0.5318">
        <ele>214.8</ele>
        <time>2012-02-11T13:12:17Z</time>
      </trkpt>
      <trkpt lat="48.65443" lon="-0.53169">
        <ele>215.2</ele>
        <time>2012-02-11T13:12:19Z</time>
      </trkpt>
      <trkpt lat="48.65439" lon="-0.53158">
        <ele>215.2</ele>
        <time>2012-02-11T13:12:21Z</time>
      </trkpt>
      <trkpt lat="48.65435" lon="-0.53147">
        <ele>215.7</ele>
        <time>2012-02-11T13:12:23Z</time>
      </trkpt>
      <trkpt lat="48.65431" lon="-0.53137">
        <ele>216.1</ele>
        <time>2012-02-11T13:12:25Z</time>
      </trkpt>
      <trkpt lat="48.65425" lon="-0.53127">
        <ele>216.9</ele>
        <time>2012-02-11T13:12:27Z</time>
      </trkpt>
      <trkpt lat="48.6542" lon="-0.53118">
        <ele>217.1</ele>
        <time>2012-02-11T13:12:29Z</time>
      </trkpt>
      <trkpt lat="48.65415" lon="-0.5311">
        <ele>217.2</ele>
        <time>2012-02-11T13:12:31Z</time>
      </trkpt>
      <trkpt lat="48.6541" lon="-0.53102">
        <ele>217.6</ele>
        <time>2012-02-11T13:12:33Z</time>
      </trkpt>
      <trkpt lat="48.65403" lon="-0.53094">
        <ele>218.1</ele>
        <time>2012-02-11T13:12:35Z</time>
      </trkpt>
      <trkpt lat="48.65397" lon="-0.53086">
        <ele>218.2</ele>
        <time>2012-02-11T13:12:37Z</time>
      </trkpt>
      <trkpt lat="48.65394" lon="-0.53082">
        <ele>218.3</ele>
        <time>2012-02-11T13:12:38Z</time>
      </trkpt>
      <trkpt lat="48.65384" lon="-0.5307">
        <ele>218.6</ele>
        <time>2012-02-11T13:12:41Z</time>
      </trkpt>
      <trkpt lat="48.65377" lon="-0.53062">
        <ele>218.8</ele>
        <time>2012-02-11T13:12:43Z</time>
      </trkpt>
      <trkpt lat="48.6537" lon="-0.53054">
        <ele>218.9</ele>
        <time>2012-02-11T13:12:45Z</time>
      </trkpt>
      <trkpt lat="48.65364" lon="-0.53046">
        <ele>219.1</ele>
        <time>2012-02-11T13:12:47Z</time>
      </trkpt>
      <trkpt lat="48.65357" lon="-0.53038">
        <ele>219.1</ele>
        <time>2012-02-11T13:12:49Z</time>
      </trkpt>
      <trkpt lat="48.65351" lon="-0.53032">
        <ele>219.7</ele>
        <time>2012-02-11T13:12:51Z</time>
      </trkpt>
      <trkpt lat="48.65345" lon="-0.53025">
        <ele>220</ele>
        <time>2012-02-11T13:12:53Z</time>
      </trkpt>
      <trkpt lat="48.65337" lon="-0.53021">
        <ele>220.4</ele>
        <time>2012-02-11T13:12:56Z</time>
      </trkpt>
      <trkpt lat="48.65331" lon="-0.53025">
        <ele>220.5</ele>
        <time>2012-02-11T13:12:58Z</time>
      </trkpt>
      <trkpt lat="48.65324" lon="-0.53033">
        <ele>220.3</ele>
        <time>2012-02-11T13:13:00Z</time>
      </trkpt>
      <trkpt lat="48.6532" lon="-0.53037">
        <ele>220.2</ele>
        <time>2012-02-11T13:13:01Z</time>
      </trkpt>
      <trkpt lat="48.65316" lon="-0.53042">
        <ele>219.9</ele>
        <time>2012-02-11T13:13:02Z</time>
      </trkpt>
      <trkpt lat="48.65311" lon="-0.53046">
        <ele>219.8</ele>
        <time>2012-02-11T13:13:03Z</time>
      </trkpt>
      <trkpt lat="48.65307" lon="-0.53052">
        <ele>219.7</ele>
        <time>2012-02-11T13:13:04Z</time>
      </trkpt>
      <trkpt lat="48.65302" lon="-0.53057">
        <ele>219.6</ele>
        <time>2012-02-11T13:13:05Z</time>
      </trkpt>
      <trkpt lat="48.65297" lon="-0.53062">
        <ele>219.5</ele>
        <time>2012-02-11T13:13:06Z</time>
      </trkpt>
      <trkpt lat="48.65291" lon="-0.53068">
        <ele>219.1</ele>
        <time>2012-02-11T13:13:07Z</time>
      </trkpt>
      <trkpt lat="48.65286" lon="-0.53074">
        <ele>218.9</ele>
        <time>2012-02-11T13:13:08Z</time>
      </trkpt>
      <trkpt lat="48.6528" lon="-0.53081">
        <ele>218.5</ele>
        <time>2012-02-11T13:13:09Z</time>
      </trkpt>
      <trkpt lat="48.65275" lon="-0.53087">
        <ele>218.3</ele>
        <time>2012-02-11T13:13:10Z</time>
      </trkpt>
      <trkpt lat="48.65269" lon="-0.53094">
        <ele>218.1</ele>
        <time>2012-02-11T13:13:11Z</time>
      </trkpt>
      <trkpt lat="48.65263" lon="-0.531">
        <ele>217.6</ele>
        <time>2012-02-11T13:13:12Z</time>
      </trkpt>
      <trkpt lat="48.65256" lon="-0.53107">
        <ele>217.3</ele>
        <time>2012-02-11T13:13:13Z</time>
      </trkpt>
      <trkpt lat="48.6525" lon="-0.53114">
        <ele>216.9</ele>
        <time>2012-02-11T13:13:14Z</time>
      </trkpt>
      <trkpt lat="48.65244" lon="-0.53121">
        <ele>216.7</ele>
        <time>2012-02-11T13:13:15Z</time>
      </trkpt>
      <trkpt lat="48.65237" lon="-0.53128">
        <ele>216.4</ele>
        <time>2012-02-11T13:13:16Z</time>
      </trkpt>
      <trkpt lat="48.65231" lon="-0.53136">
        <ele>216.3</ele>
        <time>2012-02-11T13:13:17Z</time>
      </trkpt>
      <trkpt lat="48.65224" lon="-0.53144">
        <ele>216.2</ele>
        <time>2012-02-11T13:13:18Z</time>
      </trkpt>
      <trkpt lat="48.65218" lon="-0.53152">
        <ele>216</ele>
        <time>2012-02-11T13:13:19Z</time>
      </trkpt>
      <trkpt lat="48.65211" lon="-0.5316">
        <ele>215.8</ele>
        <time>2012-02-11T13:13:20Z</time>
      </trkpt>
      <trkpt lat="48.65204" lon="-0.53168">
        <ele>215.1</ele>
        <time>2012-02-11T13:13:21Z</time>
      </trkpt>
      <trkpt lat="48.65197" lon="-0.53176">
        <ele>214.6</ele>
        <time>2012-02-11T13:13:22Z</time>
      </trkpt>
      <trkpt lat="48.6519" lon="-0.53184">
        <ele>214</ele>
        <time>2012-02-11T13:13:23Z</time>
      </trkpt>
      <trkpt lat="48.65183" lon="-0.53192">
        <ele>213.6</ele>
        <time>2012-02-11T13:13:24Z</time>
      </trkpt>
      <trkpt lat="48.65176" lon="-0.532">
        <ele>213.3</ele>
        <time>2012-02-11T13:13:25Z</time>
      </trkpt>
      <trkpt lat="48.65169" lon="-0.53209">
        <ele>212.9</ele>
        <time>2012-02-11T13:13:26Z</time>
      </trkpt>
      <trkpt lat="48.65162" lon="-0.53217">
        <ele>212.5</ele>
        <time>2012-02-11T13:13:27Z</time>
      </trkpt>
      <trkpt lat="48.65155" lon="-0.53225">
        <ele>211.8</ele>
        <time>2012-02-11T13:13:28Z</time>
      </trkpt>
      <trkpt lat="48.65147" lon="-0.53234">
        <ele>211.3</ele>
        <time>2012-02-11T13:13:29Z</time>
      </trkpt>
      <trkpt lat="48.6514" lon="-0.53242">
        <ele>210.9</ele>
        <time>2012-02-11T13:13:30Z</time>
      </trkpt>
      <trkpt lat="48.65134" lon="-0.53251">
        <ele>210.7</ele>
        <time>2012-02-11T13:13:31Z</time>
      </trkpt>
      <trkpt lat="48.65127" lon="-0.53259">
        <ele>210.5</ele>
        <time>2012-02-11T13:13:32Z</time>
      </trkpt>
      <trkpt lat="48.6512" lon="-0.53266">
        <ele>210.5</ele>
        <time>2012-02-11T13:13:33Z</time>
      </trkpt>
      <trkpt lat="48.65114" lon="-0.53274">
        <ele>210.5</ele>
        <time>2012-02-11T13:13:34Z</time>
      </trkpt>
      <trkpt lat="48.65107" lon="-0.53281">
        <ele>210.3</ele>
        <time>2012-02-11T13:13:35Z</time>
      </trkpt>
      <trkpt lat="48.65101" lon="-0.53289">
        <ele>210.1</ele>
        <time>2012-02-11T13:13:36Z</time>
      </trkpt>
      <trkpt lat="48.65094" lon="-0.53296">
        <ele>209.9</ele>
        <time>2012-02-11T13:13:37Z</time>
      </trkpt>
      <trkpt lat="48.65088" lon="-0.53303">
        <ele>209.2</ele>
        <time>2012-02-11T13:13:38Z</time>
      </trkpt>
      <trkpt lat="48.65082" lon="-0.5331">
        <ele>208.7</ele>
        <time>2012-02-11T13:13:39Z</time>
      </trkpt>
      <trkpt lat="48.65076" lon="-0.53317">
        <ele>208.5</ele>
        <time>2012-02-11T13:13:40Z</time>
      </trkpt>
      <trkpt lat="48.6507" lon="-0.53324">
        <ele>208.4</ele>
        <time>2012-02-11T13:13:41Z</time>
      </trkpt>
      <trkpt lat="48.65063" lon="-0.53332">
        <ele>208</ele>
        <time>2012-02-11T13:13:42Z</time>
      </trkpt>
      <trkpt lat="48.65056" lon="-0.53339">
        <ele>207.6</ele>
        <time>2012-02-11T13:13:43Z</time>
      </trkpt>
      <trkpt lat="48.6505" lon="-0.53346">
        <ele>207.4</ele>
        <time>2012-02-11T13:13:44Z</time>
      </trkpt>
      <trkpt lat="48.65044" lon="-0.53353">
        <ele>207.3</ele>
        <time>2012-02-11T13:13:45Z</time>
      </trkpt>
      <trkpt lat="48.65038" lon="-0.5336">
        <ele>207.1</ele>
        <time>2012-02-11T13:13:46Z</time>
      </trkpt>
      <trkpt lat="48.65032" lon="-0.53367">
        <ele>206.8</ele>
        <time>2012-02-11T13:13:47Z</time>
      </trkpt>
      <trkpt lat="48.65026" lon="-0.53375">
        <ele>206.6</ele>
        <time>2012-02-11T13:13:48Z</time>
      </trkpt>
      <trkpt lat="48.6502" lon="-0.53382">
        <ele>206.4</ele>
        <time>2012-02-11T13:13:49Z</time>
      </trkpt>
      <trkpt lat="48.65013" lon="-0.53389">
        <ele>206.1</ele>
        <time>2012-02-11T13:13:50Z</time>
      </trkpt>
      <trkpt lat="48.65007" lon="-0.53396">
        <ele>205.9</ele>
        <time>2012-02-11T13:13:51Z</time>
      </trkpt>
      <trkpt lat="48.65001" lon="-0.53403">
        <ele>205.7</ele>
        <time>2012-02-11T13:13:52Z</time>
      </trkpt>
      <trkpt lat="48.64995" lon="-0.5341">
        <ele>205.5</ele>
        <time>2012-02-11T13:13:53Z</time>
      </trkpt>
      <trkpt lat="48.64988" lon="-0.53418">
        <ele>205.4</ele>
        <time>2012-02-11T13:13:54Z</time>
      </trkpt>
      <trkpt lat="48.64982" lon="-0.53425">
        <ele>205.4</ele>
        <time>2012-02-11T13:13:55Z</time>
      </trkpt>
      <trkpt lat="48.64975" lon="-0.53432">
        <ele>205.3</ele>
        <time>2012-02-11T13:13:56Z</time>
      </trkpt>
      <trkpt lat="48.64969" lon="-0.53439">
        <ele>205</ele>
        <time>2012-02-11T13:13:57Z</time>
      </trkpt>
      <trkpt lat="48.64963" lon="-0.53447">
        <ele>204.8</ele>
        <time>2012-02-11T13:13:58Z</time>
      </trkpt>
      <trkpt lat="48.64956" lon="-0.53455">
        <ele>204.7</ele>
        <time>2012-02-11T13:13:59Z</time>
      </trkpt>
      <trkpt lat="48.64949" lon="-0.53463">
        <ele>204.6</ele>
        <time>2012-02-11T13:14:00Z</time>
      </trkpt>
      <trkpt lat="48.64943" lon="-0.5347">
        <ele>204</ele>
        <time>2012-02-11T13:14:01Z</time>
      </trkpt>
      <trkpt lat="48.64936" lon="-0.53478">
        <ele>203.6</ele>
        <time>2012-02-11T13:14:02Z</time>
      </trkpt>
      <trkpt lat="48.64929" lon="-0.53486">
        <ele>203.2</ele>
        <time>2012-02-11T13:14:03Z</time>
      </trkpt>
      <trkpt lat="48.64922" lon="-0.53494">
        <ele>202.9</ele>
        <time>2012-02-11T13:14:04Z</time>
      </trkpt>
      <trkpt lat="48.64915" lon="-0.53502">
        <ele>202.7</ele>
        <time>2012-02-11T13:14:05Z</time>
      </trkpt>
      <trkpt lat="48.64908" lon="-0.53511">
        <ele>202.2</ele>
        <time>2012-02-11T13:14:06Z</time>
      </trkpt>
      <trkpt lat="48.64901" lon="-0.53519">
        <ele>201.7</ele>
        <time>2012-02-11T13:14:07Z</time>
      </trkpt>
      <trkpt lat="48.64894" lon="-0.53527">
        <ele>201.1</ele>
        <time>2012-02-11T13:14:08Z</time>
      </trkpt>
      <trkpt lat="48.64887" lon="-0.53535">
        <ele>200.6</ele>
        <time>2012-02-11T13:14:09Z</time>
      </trkpt>
      <trkpt lat="48.64879" lon="-0.53544">
        <ele>200.2</ele>
        <time>2012-02-11T13:14:10Z</time>
      </trkpt>
      <trkpt lat="48.64872" lon="-0.53552">
        <ele>199.8</ele>
        <time>2012-02-11T13:14:11Z</time>
      </trkpt>
      <trkpt lat="48.64864" lon="-0.53561">
        <ele>199.6</ele>
        <time>2012-02-11T13:14:12Z</time>
      </trkpt>
      <trkpt lat="48.64857" lon="-0.53569">
        <ele>199</ele>
        <time>2012-02-11T13:14:13Z</time>
      </trkpt>
      <trkpt lat="48.6485" lon="-0.53578">
        <ele>198.6</ele>
        <time>2012-02-11T13:14:14Z</time>
      </trkpt>
      <trkpt lat="48.64843" lon="-0.53587">
        <ele>198.4</ele>
        <time>2012-02-11T13:14:15Z</time>
      </trkpt>
      <trkpt lat="48.64835" lon="-0.53595">
        <ele>197.9</ele>
        <time>2012-02-11T13:14:16Z</time>
      </trkpt>
      <trkpt lat="48.64828" lon="-0.53604">
        <ele>197.5</ele>
        <time>2012-02-11T13:14:17Z</time>
      </trkpt>
      <trkpt lat="48.64821" lon="-0.53613">
        <ele>197.3</ele>
        <time>2012-02-11T13:14:18Z</time>
      </trkpt>
      <trkpt lat="48.64814" lon="-0.53621">
        <ele>197.2</ele>
        <time>2012-02-11T13:14:19Z</time>
      </trkpt>
      <trkpt lat="48.64806" lon="-0.53629">
        <ele>197</ele>
        <time>2012-02-11T13:14:20Z</time>
      </trkpt>
      <trkpt lat="48.64799" lon="-0.53637">
        <ele>196.8</ele>
        <time>2012-02-11T13:14:21Z</time>
      </trkpt>
      <trkpt lat="48.64792" lon="-0.53645">
        <ele>196.7</ele>
        <time>2012-02-11T13:14:22Z</time>
      </trkpt>
      <trkpt lat="48.64785" lon="-0.53653">
        <ele>196.6</ele>
        <time>2012-02-11T13:14:23Z</time>
      </trkpt>
      <trkpt lat="48.64779" lon="-0.53661">
        <ele>196.6</ele>
        <time>2012-02-11T13:14:24Z</time>
      </trkpt>
      <trkpt lat="48.64772" lon="-0.53669">
        <ele>196.3</ele>
        <time>2012-02-11T13:14:25Z</time>
      </trkpt>
      <trkpt lat="48.64765" lon="-0.53677">
        <ele>196</ele>
        <time>2012-02-11T13:14:26Z</time>
      </trkpt>
      <trkpt lat="48.64759" lon="-0.53684">
        <ele>195.8</ele>
        <time>2012-02-11T13:14:27Z</time>
      </trkpt>
      <trkpt lat="48.64753" lon="-0.53691">
        <ele>195.6</ele>
        <time>2012-02-11T13:14:28Z</time>
      </trkpt>
      <trkpt lat="48.64746" lon="-0.53699">
        <ele>195.4</ele>
        <time>2012-02-11T13:14:29Z</time>
      </trkpt>
      <trkpt lat="48.6474" lon="-0.53706">
        <ele>195.2</ele>
        <time>2012-02-11T13:14:30Z</time>
      </trkpt>
      <trkpt lat="48.64734" lon="-0.53714">
        <ele>195.1</ele>
        <time>2012-02-11T13:14:31Z</time>
      </trkpt>
      <trkpt lat="48.64728" lon="-0.5372">
        <ele>195</ele>
        <time>2012-02-11T13:14:32Z</time>
      </trkpt>
      <trkpt lat="48.64722" lon="-0.53727">
        <ele>194.9</ele>
        <time>2012-02-11T13:14:33Z</time>
      </trkpt>
      <trkpt lat="48.64716" lon="-0.53734">
        <ele>194.8</ele>
        <time>2012-02-11T13:14:34Z</time>
      </trkpt>
      <trkpt lat="48.6471" lon="-0.53741">
        <ele>194.4</ele>
        <time>2012-02-11T13:14:35Z</time>
      </trkpt>
      <trkpt lat="48.64705" lon="-0.53747">
        <ele>194.2</ele>
        <time>2012-02-11T13:14:36Z</time>
      </trkpt>
      <trkpt lat="48.64699" lon="-0.53755">
        <ele>194.1</ele>
        <time>2012-02-11T13:14:37Z</time>
      </trkpt>
      <trkpt lat="48.64693" lon="-0.53761">
        <ele>194</ele>
        <time>2012-02-11T13:14:38Z</time>
      </trkpt>
      <trkpt lat="48.64687" lon="-0.53768">
        <ele>193.9</ele>
        <time>2012-02-11T13:14:39Z</time>
      </trkpt>
      <trkpt lat="48.64682" lon="-0.53774">
        <ele>193.9</ele>
        <time>2012-02-11T13:14:40Z</time>
      </trkpt>
      <trkpt lat="48.64676" lon="-0.5378">
        <ele>193.9</ele>
        <time>2012-02-11T13:14:41Z</time>
      </trkpt>
      <trkpt lat="48.6467" lon="-0.53787">
        <ele>193.7</ele>
        <time>2012-02-11T13:14:42Z</time>
      </trkpt>
      <trkpt lat="48.64665" lon="-0.53793">
        <ele>193.5</ele>
        <time>2012-02-11T13:14:43Z</time>
      </trkpt>
      <trkpt lat="48.64659" lon="-0.538">
        <ele>193.9</ele>
        <time>2012-02-11T13:14:44Z</time>
      </trkpt>
      <trkpt lat="48.64654" lon="-0.53806">
        <ele>194.1</ele>
        <time>2012-02-11T13:14:45Z</time>
      </trkpt>
      <trkpt lat="48.64648" lon="-0.53813">
        <ele>194.3</ele>
        <time>2012-02-11T13:14:46Z</time>
      </trkpt>
      <trkpt lat="48.64643" lon="-0.53819">
        <ele>194.2</ele>
        <time>2012-02-11T13:14:47Z</time>
      </trkpt>
      <trkpt lat="48.64638" lon="-0.53825">
        <ele>194.2</ele>
        <time>2012-02-11T13:14:48Z</time>
      </trkpt>
      <trkpt lat="48.64632" lon="-0.53832">
        <ele>194.3</ele>
        <time>2012-02-11T13:14:49Z</time>
      </trkpt>
      <trkpt lat="48.64627" lon="-0.53838">
        <ele>194.4</ele>
        <time>2012-02-11T13:14:50Z</time>
      </trkpt>
      <trkpt lat="48.64622" lon="-0.53844">
        <ele>194.6</ele>
        <time>2012-02-11T13:14:51Z</time>
      </trkpt>
      <trkpt lat="48.64616" lon="-0.5385">
        <ele>194.7</ele>
        <time>2012-02-11T13:14:52Z</time>
      </trkpt>
      <trkpt lat="48.64611" lon="-0.53856">
        <ele>194.8</ele>
        <time>2012-02-11T13:14:53Z</time>
      </trkpt>
      <trkpt lat="48.64606" lon="-0.53862">
        <ele>194.7</ele>
        <time>2012-02-11T13:14:54Z</time>
      </trkpt>
      <trkpt lat="48.64601" lon="-0.53868">
        <ele>194.7</ele>
        <time>2012-02-11T13:14:55Z</time>
      </trkpt>
      <trkpt lat="48.64596" lon="-0.53874">
        <ele>194.5</ele>
        <time>2012-02-11T13:14:56Z</time>
      </trkpt>
      <trkpt lat="48.64591" lon="-0.5388">
        <ele>194.3</ele>
        <time>2012-02-11T13:14:57Z</time>
      </trkpt>
      <trkpt lat="48.64586" lon="-0.53885">
        <ele>194.7</ele>
        <time>2012-02-11T13:14:58Z</time>
      </trkpt>
      <trkpt lat="48.64581" lon="-0.53891">
        <ele>194.9</ele>
        <time>2012-02-11T13:14:59Z</time>
      </trkpt>
      <trkpt lat="48.64576" lon="-0.53897">
        <ele>195.1</ele>
        <time>2012-02-11T13:15:00Z</time>
      </trkpt>
      <trkpt lat="48.64571" lon="-0.53902">
        <ele>195.2</ele>
        <time>2012-02-11T13:15:01Z</time>
      </trkpt>
      <trkpt lat="48.64566" lon="-0.53908">
        <ele>195.2</ele>
        <time>2012-02-11T13:15:02Z</time>
      </trkpt>
      <trkpt lat="48.64561" lon="-0.53914">
        <ele>195.3</ele>
        <time>2012-02-11T13:15:03Z</time>
      </trkpt>
      <trkpt lat="48.64557" lon="-0.53919">
        <ele>195.4</ele>
        <time>2012-02-11T13:15:04Z</time>
      </trkpt>
      <trkpt lat="48.64552" lon="-0.53925">
        <ele>195</ele>
        <time>2012-02-11T13:15:05Z</time>
      </trkpt>
      <trkpt lat="48.64547" lon="-0.5393">
        <ele>194.7</ele>
        <time>2012-02-11T13:15:06Z</time>
      </trkpt>
      <trkpt lat="48.64542" lon="-0.53936">
        <ele>194.5</ele>
        <time>2012-02-11T13:15:07Z</time>
      </trkpt>
      <trkpt lat="48.64537" lon="-0.53942">
        <ele>194.6</ele>
        <time>2012-02-11T13:15:08Z</time>
      </trkpt>
      <trkpt lat="48.64532" lon="-0.53947">
        <ele>194.7</ele>
        <time>2012-02-11T13:15:09Z</time>
      </trkpt>
      <trkpt lat="48.64528" lon="-0.53953">
        <ele>194.6</ele>
        <time>2012-02-11T13:15:10Z</time>
      </trkpt>
      <trkpt lat="48.64523" lon="-0.53959">
        <ele>194.6</ele>
        <time>2012-02-11T13:15:11Z</time>
      </trkpt>
      <trkpt lat="48.64518" lon="-0.53965">
        <ele>194.6</ele>
        <time>2012-02-11T13:15:12Z</time>
      </trkpt>
      <trkpt lat="48.64513" lon="-0.53971">
        <ele>194.9</ele>
        <time>2012-02-11T13:15:13Z</time>
      </trkpt>
      <trkpt lat="48.64508" lon="-0.53977">
        <ele>195.2</ele>
        <time>2012-02-11T13:15:14Z</time>
      </trkpt>
      <trkpt lat="48.64503" lon="-0.53983">
        <ele>195.2</ele>
        <time>2012-02-11T13:15:15Z</time>
      </trkpt>
      <trkpt lat="48.64498" lon="-0.53988">
        <ele>195.2</ele>
        <time>2012-02-11T13:15:16Z</time>
      </trkpt>
      <trkpt lat="48.64493" lon="-0.53994">
        <ele>195</ele>
        <time>2012-02-11T13:15:17Z</time>
      </trkpt>
      <trkpt lat="48.64488" lon="-0.54">
        <ele>194.9</ele>
        <time>2012-02-11T13:15:18Z</time>
      </trkpt>
      <trkpt lat="48.64483" lon="-0.54006">
        <ele>194.8</ele>
        <time>2012-02-11T13:15:19Z</time>
      </trkpt>
      <trkpt lat="48.64478" lon="-0.54012">
        <ele>195.1</ele>
        <time>2012-02-11T13:15:20Z</time>
      </trkpt>
      <trkpt lat="48.64473" lon="-0.54018">
        <ele>195.3</ele>
        <time>2012-02-11T13:15:21Z</time>
      </trkpt>
      <trkpt lat="48.64468" lon="-0.54024">
        <ele>195.3</ele>
        <time>2012-02-11T13:15:22Z</time>
      </trkpt>
      <trkpt lat="48.64463" lon="-0.5403">
        <ele>195.3</ele>
        <time>2012-02-11T13:15:23Z</time>
      </trkpt>
      <trkpt lat="48.64458" lon="-0.54036">
        <ele>195.3</ele>
        <time>2012-02-11T13:15:24Z</time>
      </trkpt>
      <trkpt lat="48.64453" lon="-0.54042">
        <ele>195.5</ele>
        <time>2012-02-11T13:15:25Z</time>
      </trkpt>
      <trkpt lat="48.64448" lon="-0.54048">
        <ele>195.6</ele>
        <time>2012-02-11T13:15:26Z</time>
      </trkpt>
      <trkpt lat="48.64443" lon="-0.54054">
        <ele>195.8</ele>
        <time>2012-02-11T13:15:27Z</time>
      </trkpt>
      <trkpt lat="48.64438" lon="-0.54059">
        <ele>196</ele>
        <time>2012-02-11T13:15:28Z</time>
      </trkpt>
      <trkpt lat="48.64433" lon="-0.54065">
        <ele>195.9</ele>
        <time>2012-02-11T13:15:29Z</time>
      </trkpt>
      <trkpt lat="48.64428" lon="-0.54071">
        <ele>195.9</ele>
        <time>2012-02-11T13:15:30Z</time>
      </trkpt>
      <trkpt lat="48.64424" lon="-0.54076">
        <ele>195.8</ele>
        <time>2012-02-11T13:15:31Z</time>
      </trkpt>
      <trkpt lat="48.64419" lon="-0.54082">
        <ele>195.8</ele>
        <time>2012-02-11T13:15:32Z</time>
      </trkpt>
      <trkpt lat="48.64415" lon="-0.54087">
        <ele>195.8</ele>
        <time>2012-02-11T13:15:33Z</time>
      </trkpt>
      <trkpt lat="48.64411" lon="-0.54091">
        <ele>196</ele>
        <time>2012-02-11T13:15:34Z</time>
      </trkpt>
      <trkpt lat="48.64403" lon="-0.54099">
        <ele>196.3</ele>
        <time>2012-02-11T13:15:36Z</time>
      </trkpt>
      <trkpt lat="48.64397" lon="-0.54103">
        <ele>196.5</ele>
        <time>2012-02-11T13:15:38Z</time>
      </trkpt>
      <trkpt lat="48.64389" lon="-0.54104">
        <ele>197.5</ele>
        <time>2012-02-11T13:15:41Z</time>
      </trkpt>
      <trkpt lat="48.64387" lon="-0.54102">
        <ele>198</ele>
        <time>2012-02-11T13:15:42Z</time>
      </trkpt>
      <trkpt lat="48.6438" lon="-0.54088">
        <ele>197.9</ele>
        <time>2012-02-11T13:15:46Z</time>
      </trkpt>
      <trkpt lat="48.64378" lon="-0.54077">
        <ele>197.7</ele>
        <time>2012-02-11T13:15:48Z</time>
      </trkpt>
      <trkpt lat="48.64375" lon="-0.54066">
        <ele>197.4</ele>
        <time>2012-02-11T13:15:50Z</time>
      </trkpt>
      <trkpt lat="48.64371" lon="-0.54056">
        <ele>197.3</ele>
        <time>2012-02-11T13:15:52Z</time>
      </trkpt>
      <trkpt lat="48.64366" lon="-0.54045">
        <ele>197.3</ele>
        <time>2012-02-11T13:15:54Z</time>
      </trkpt>
      <trkpt lat="48.64361" lon="-0.54034">
        <ele>197.1</ele>
        <time>2012-02-11T13:15:56Z</time>
      </trkpt>
      <trkpt lat="48.64356" lon="-0.54024">
        <ele>197.2</ele>
        <time>2012-02-11T13:15:58Z</time>
      </trkpt>
      <trkpt lat="48.6435" lon="-0.54015">
        <ele>197.3</ele>
        <time>2012-02-11T13:16:00Z</time>
      </trkpt>
      <trkpt lat="48.64344" lon="-0.54006">
        <ele>197.3</ele>
        <time>2012-02-11T13:16:02Z</time>
      </trkpt>
      <trkpt lat="48.64338" lon="-0.53997">
        <ele>197.6</ele>
        <time>2012-02-11T13:16:04Z</time>
      </trkpt>
      <trkpt lat="48.64332" lon="-0.53988">
        <ele>198</ele>
        <time>2012-02-11T13:16:06Z</time>
      </trkpt>
      <trkpt lat="48.64328" lon="-0.53985">
        <ele>197.9</ele>
        <time>2012-02-11T13:16:07Z</time>
      </trkpt>
      <trkpt lat="48.64324" lon="-0.53981">
        <ele>197.9</ele>
        <time>2012-02-11T13:16:08Z</time>
      </trkpt>
      <trkpt lat="48.6432" lon="-0.53978">
        <ele>197.9</ele>
        <time>2012-02-11T13:16:09Z</time>
      </trkpt>
      <trkpt lat="48.64316" lon="-0.53975">
        <ele>197.9</ele>
        <time>2012-02-11T13:16:10Z</time>
      </trkpt>
      <trkpt lat="48.64307" lon="-0.53971">
        <ele>198.3</ele>
        <time>2012-02-11T13:16:12Z</time>
      </trkpt>
      <trkpt lat="48.643" lon="-0.53969">
        <ele>199.2</ele>
        <time>2012-02-11T13:16:14Z</time>
      </trkpt>
      <trkpt lat="48.64293" lon="-0.53967">
        <ele>200</ele>
        <time>2012-02-11T13:16:16Z</time>
      </trkpt>
      <trkpt lat="48.64286" lon="-0.53965">
        <ele>200.7</ele>
        <time>2012-02-11T13:16:18Z</time>
      </trkpt>
      <trkpt lat="48.6428" lon="-0.53964">
        <ele>202.2</ele>
        <time>2012-02-11T13:16:20Z</time>
      </trkpt>
      <trkpt lat="48.64274" lon="-0.53961">
        <ele>203.3</ele>
        <time>2012-02-11T13:16:22Z</time>
      </trkpt>
      <trkpt lat="48.64266" lon="-0.53959">
        <ele>204.8</ele>
        <time>2012-02-11T13:16:25Z</time>
      </trkpt>
      <trkpt lat="48.64258" lon="-0.53956">
        <ele>205.8</ele>
        <time>2012-02-11T13:16:28Z</time>
      </trkpt>
      <trkpt lat="48.6425" lon="-0.53953">
        <ele>207.4</ele>
        <time>2012-02-11T13:16:32Z</time>
      </trkpt>
      <trkpt lat="48.64242" lon="-0.5395">
        <ele>209</ele>
        <time>2012-02-11T13:16:36Z</time>
      </trkpt>
      <trkpt lat="48.64235" lon="-0.53949">
        <ele>211</ele>
        <time>2012-02-11T13:16:41Z</time>
      </trkpt>
      <trkpt lat="48.64228" lon="-0.53947">
        <ele>212.5</ele>
        <time>2012-02-11T13:16:45Z</time>
      </trkpt>
      <trkpt lat="48.64226" lon="-0.53946">
        <ele>212.8</ele>
        <time>2012-02-11T13:16:46Z</time>
      </trkpt>
      <trkpt lat="48.64212" lon="-0.53943">
        <ele>215.2</ele>
        <time>2012-02-11T13:16:55Z</time>
      </trkpt>
      <trkpt lat="48.64204" lon="-0.5394">
        <ele>216.3</ele>
        <time>2012-02-11T13:16:59Z</time>
      </trkpt>
      <trkpt lat="48.64196" lon="-0.53936">
        <ele>217.4</ele>
        <time>2012-02-11T13:17:04Z</time>
      </trkpt>
      <trkpt lat="48.64189" lon="-0.53934">
        <ele>219</ele>
        <time>2012-02-11T13:17:08Z</time>
      </trkpt>
      <trkpt lat="48.64181" lon="-0.53931">
        <ele>220.3</ele>
        <time>2012-02-11T13:17:13Z</time>
      </trkpt>
      <trkpt lat="48.64173" lon="-0.5393">
        <ele>221.6</ele>
        <time>2012-02-11T13:17:18Z</time>
      </trkpt>
      <trkpt lat="48.64165" lon="-0.53925">
        <ele>222</ele>
        <time>2012-02-11T13:17:24Z</time>
      </trkpt>
      <trkpt lat="48.6416" lon="-0.53915">
        <ele>222.4</ele>
        <time>2012-02-11T13:17:31Z</time>
      </trkpt>
      <trkpt lat="48.64156" lon="-0.53903">
        <ele>222.7</ele>
        <time>2012-02-11T13:17:37Z</time>
      </trkpt>
      <trkpt lat="48.64152" lon="-0.53893">
        <ele>222.7</ele>
        <time>2012-02-11T13:17:41Z</time>
      </trkpt>
      <trkpt lat="48.64149" lon="-0.53882">
        <ele>222.2</ele>
        <time>2012-02-11T13:17:45Z</time>
      </trkpt>
      <trkpt lat="48.64146" lon="-0.5387">
        <ele>222.7</ele>
        <time>2012-02-11T13:17:49Z</time>
      </trkpt>
      <trkpt lat="48.64145" lon="-0.53867">
        <ele>222.8</ele>
        <time>2012-02-11T13:17:50Z</time>
      </trkpt>
      <trkpt lat="48.64142" lon="-0.53846">
        <ele>222.8</ele>
        <time>2012-02-11T13:17:57Z</time>
      </trkpt>
      <trkpt lat="48.6414" lon="-0.53833">
        <ele>222.9</ele>
        <time>2012-02-11T13:18:03Z</time>
      </trkpt>
      <trkpt lat="48.64136" lon="-0.53822">
        <ele>222.4</ele>
        <time>2012-02-11T13:18:16Z</time>
      </trkpt>
      <trkpt lat="48.64138" lon="-0.53811">
        <ele>222.6</ele>
        <time>2012-02-11T13:18:22Z</time>
      </trkpt>
      <trkpt lat="48.64141" lon="-0.53799">
        <ele>223.4</ele>
        <time>2012-02-11T13:18:27Z</time>
      </trkpt>
      <trkpt lat="48.64143" lon="-0.53786">
        <ele>223.2</ele>
        <time>2012-02-11T13:18:33Z</time>
      </trkpt>
      <trkpt lat="48.64145" lon="-0.53774">
        <ele>222.5</ele>
        <time>2012-02-11T13:18:40Z</time>
      </trkpt>
      <trkpt lat="48.64148" lon="-0.53762">
        <ele>222.5</ele>
        <time>2012-02-11T13:18:45Z</time>
      </trkpt>
      <trkpt lat="48.6415" lon="-0.53748">
        <ele>223.5</ele>
        <time>2012-02-11T13:18:52Z</time>
      </trkpt>
      <trkpt lat="48.6415" lon="-0.53748">
        <ele>223.4</ele>
        <time>2012-02-11T13:18:53Z</time>
      </trkpt>
      <trkpt lat="48.64153" lon="-0.53723">
        <ele>223.3</ele>
        <time>2012-02-11T13:19:14Z</time>
      </trkpt>
      <trkpt lat="48.64155" lon="-0.53712">
        <ele>223.7</ele>
        <time>2012-02-11T13:19:19Z</time>
      </trkpt>
      <trkpt lat="48.64156" lon="-0.53701">
        <ele>224.2</ele>
        <time>2012-02-11T13:19:23Z</time>
      </trkpt>
      <trkpt lat="48.64159" lon="-0.53692">
        <ele>223.4</ele>
        <time>2012-02-11T13:19:26Z</time>
      </trkpt>
      <trkpt lat="48.64161" lon="-0.5368">
        <ele>223.2</ele>
        <time>2012-02-11T13:19:29Z</time>
      </trkpt>
      <trkpt lat="48.64163" lon="-0.53667">
        <ele>223.1</ele>
        <time>2012-02-11T13:19:33Z</time>
      </trkpt>
      <trkpt lat="48.64165" lon="-0.53656">
        <ele>223.3</ele>
        <time>2012-02-11T13:19:36Z</time>
      </trkpt>
      <trkpt lat="48.64167" lon="-0.53646">
        <ele>223.7</ele>
        <time>2012-02-11T13:19:39Z</time>
      </trkpt>
      <trkpt lat="48.6417" lon="-0.53634">
        <ele>223.7</ele>
        <time>2012-02-11T13:19:42Z</time>
      </trkpt>
      <trkpt lat="48.64171" lon="-0.53624">
        <ele>223.8</ele>
        <time>2012-02-11T13:19:45Z</time>
      </trkpt>
      <trkpt lat="48.64173" lon="-0.53613">
        <ele>223.6</ele>
        <time>2012-02-11T13:19:48Z</time>
      </trkpt>
      <trkpt lat="48.64176" lon="-0.53604">
        <ele>223.6</ele>
        <time>2012-02-11T13:19:51Z</time>
      </trkpt>
      <trkpt lat="48.64178" lon="-0.53593">
        <ele>223.6</ele>
        <time>2012-02-11T13:19:54Z</time>
      </trkpt>
      <trkpt lat="48.64179" lon="-0.53589">
        <ele>223.7</ele>
        <time>2012-02-11T13:19:55Z</time>
      </trkpt>
      <trkpt lat="48.64181" lon="-0.53571">
        <ele>224.1</ele>
        <time>2012-02-11T13:20:00Z</time>
      </trkpt>
      <trkpt lat="48.64184" lon="-0.5356">
        <ele>223.7</ele>
        <time>2012-02-11T13:20:03Z</time>
      </trkpt>
      <trkpt lat="48.64186" lon="-0.53547">
        <ele>223.4</ele>
        <time>2012-02-11T13:20:06Z</time>
      </trkpt>
      <trkpt lat="48.64189" lon="-0.53536">
        <ele>223.6</ele>
        <time>2012-02-11T13:20:09Z</time>
      </trkpt>
      <trkpt lat="48.64191" lon="-0.53524">
        <ele>223.5</ele>
        <time>2012-02-11T13:20:12Z</time>
      </trkpt>
      <trkpt lat="48.64193" lon="-0.53513">
        <ele>223.8</ele>
        <time>2012-02-11T13:20:15Z</time>
      </trkpt>
      <trkpt lat="48.64195" lon="-0.53501">
        <ele>224</ele>
        <time>2012-02-11T13:20:18Z</time>
      </trkpt>
      <trkpt lat="48.64197" lon="-0.53489">
        <ele>223.8</ele>
        <time>2012-02-11T13:20:21Z</time>
      </trkpt>
      <trkpt lat="48.642" lon="-0.53477">
        <ele>223.7</ele>
        <time>2012-02-11T13:20:24Z</time>
      </trkpt>
      <trkpt lat="48.64204" lon="-0.53466">
        <ele>223.3</ele>
        <time>2012-02-11T13:20:27Z</time>
      </trkpt>
      <trkpt lat="48.64206" lon="-0.53453">
        <ele>224.1</ele>
        <time>2012-02-11T13:20:30Z</time>
      </trkpt>
      <trkpt lat="48.64208" lon="-0.53445">
        <ele>224.3</ele>
        <time>2012-02-11T13:20:32Z</time>
      </trkpt>
      <trkpt lat="48.6421" lon="-0.53436">
        <ele>224.1</ele>
        <time>2012-02-11T13:20:34Z</time>
      </trkpt>
      <trkpt lat="48.64213" lon="-0.53423">
        <ele>224.2</ele>
        <time>2012-02-11T13:20:37Z</time>
      </trkpt>
      <trkpt lat="48.64214" lon="-0.53414">
        <ele>224.4</ele>
        <time>2012-02-11T13:20:39Z</time>
      </trkpt>
      <trkpt lat="48.64217" lon="-0.53402">
        <ele>224.7</ele>
        <time>2012-02-11T13:20:42Z</time>
      </trkpt>
      <trkpt lat="48.64219" lon="-0.53394">
        <ele>224.9</ele>
        <time>2012-02-11T13:20:44Z</time>
      </trkpt>
      <trkpt lat="48.64221" lon="-0.53384">
        <ele>224.7</ele>
        <time>2012-02-11T13:20:46Z</time>
      </trkpt>
      <trkpt lat="48.64223" lon="-0.53375">
        <ele>224.7</ele>
        <time>2012-02-11T13:20:48Z</time>
      </trkpt>
      <trkpt lat="48.64225" lon="-0.53366">
        <ele>224.9</ele>
        <time>2012-02-11T13:20:50Z</time>
      </trkpt>
      <trkpt lat="48.64227" lon="-0.53357">
        <ele>225</ele>
        <time>2012-02-11T13:20:52Z</time>
      </trkpt>
      <trkpt lat="48.64228" lon="-0.53348">
        <ele>224.8</ele>
        <time>2012-02-11T13:20:54Z</time>
      </trkpt>
      <trkpt lat="48.6423" lon="-0.53339">
        <ele>224.7</ele>
        <time>2012-02-11T13:20:56Z</time>
      </trkpt>
      <trkpt lat="48.64231" lon="-0.53334">
        <ele>224.7</ele>
        <time>2012-02-11T13:20:57Z</time>
      </trkpt>
      <trkpt lat="48.64234" lon="-0.53319">
        <ele>224.4</ele>
        <time>2012-02-11T13:21:00Z</time>
      </trkpt>
      <trkpt lat="48.64236" lon="-0.53309">
        <ele>224.5</ele>
        <time>2012-02-11T13:21:02Z</time>
      </trkpt>
      <trkpt lat="48.64238" lon="-0.533">
        <ele>224.7</ele>
        <time>2012-02-11T13:21:04Z</time>
      </trkpt>
      <trkpt lat="48.6424" lon="-0.53291">
        <ele>224.9</ele>
        <time>2012-02-11T13:21:06Z</time>
      </trkpt>
      <trkpt lat="48.64242" lon="-0.53282">
        <ele>224.9</ele>
        <time>2012-02-11T13:21:08Z</time>
      </trkpt>
      <trkpt lat="48.64244" lon="-0.53272">
        <ele>225.1</ele>
        <time>2012-02-11T13:21:10Z</time>
      </trkpt>
      <trkpt lat="48.64246" lon="-0.53262">
        <ele>225</ele>
        <time>2012-02-11T13:21:12Z</time>
      </trkpt>
      <trkpt lat="48.64247" lon="-0.53253">
        <ele>224.6</ele>
        <time>2012-02-11T13:21:14Z</time>
      </trkpt>
      <trkpt lat="48.6425" lon="-0.53243">
        <ele>224.6</ele>
        <time>2012-02-11T13:21:16Z</time>
      </trkpt>
      <trkpt lat="48.64252" lon="-0.53233">
        <ele>224.9</ele>
        <time>2012-02-11T13:21:18Z</time>
      </trkpt>
      <trkpt lat="48.64254" lon="-0.53223">
        <ele>225</ele>
        <time>2012-02-11T13:21:20Z</time>
      </trkpt>
      <trkpt lat="48.64257" lon="-0.53213">
        <ele>224.9</ele>
        <time>2012-02-11T13:21:22Z</time>
      </trkpt>
      <trkpt lat="48.64259" lon="-0.53204">
        <ele>224.9</ele>
        <time>2012-02-11T13:21:24Z</time>
      </trkpt>
      <trkpt lat="48.64261" lon="-0.53195">
        <ele>224.7</ele>
        <time>2012-02-11T13:21:26Z</time>
      </trkpt>
      <trkpt lat="48.64263" lon="-0.53186">
        <ele>224.9</ele>
        <time>2012-02-11T13:21:28Z</time>
      </trkpt>
      <trkpt lat="48.64266" lon="-0.53177">
        <ele>225.1</ele>
        <time>2012-02-11T13:21:30Z</time>
      </trkpt>
      <trkpt lat="48.64268" lon="-0.53167">
        <ele>225.4</ele>
        <time>2012-02-11T13:21:32Z</time>
      </trkpt>
      <trkpt lat="48.6427" lon="-0.53158">
        <ele>225.7</ele>
        <time>2012-02-11T13:21:34Z</time>
      </trkpt>
      <trkpt lat="48.64271" lon="-0.53148">
        <ele>225.5</ele>
        <time>2012-02-11T13:21:36Z</time>
      </trkpt>
      <trkpt lat="48.64272" lon="-0.53139">
        <ele>225.5</ele>
        <time>2012-02-11T13:21:38Z</time>
      </trkpt>
      <trkpt lat="48.64274" lon="-0.5313">
        <ele>225.5</ele>
        <time>2012-02-11T13:21:40Z</time>
      </trkpt>
      <trkpt lat="48.64276" lon="-0.53118">
        <ele>225.1</ele>
        <time>2012-02-11T13:21:43Z</time>
      </trkpt>
      <trkpt lat="48.64279" lon="-0.53106">
        <ele>225.6</ele>
        <time>2012-02-11T13:21:47Z</time>
      </trkpt>
      <trkpt lat="48.64281" lon="-0.53094">
        <ele>225.4</ele>
        <time>2012-02-11T13:21:51Z</time>
      </trkpt>
      <trkpt lat="48.64283" lon="-0.53084">
        <ele>225.5</ele>
        <time>2012-02-11T13:21:55Z</time>
      </trkpt>
      <trkpt lat="48.64285" lon="-0.53073">
        <ele>225.8</ele>
        <time>2012-02-11T13:21:59Z</time>
      </trkpt>
      <trkpt lat="48.64285" lon="-0.5307">
        <ele>225.9</ele>
        <time>2012-02-11T13:22:00Z</time>
      </trkpt>
      <trkpt lat="48.6429" lon="-0.53051">
        <ele>225.5</ele>
        <time>2012-02-11T13:22:07Z</time>
      </trkpt>
      <trkpt lat="48.64293" lon="-0.53039">
        <ele>225.6</ele>
        <time>2012-02-11T13:22:11Z</time>
      </trkpt>
      <trkpt lat="48.64295" lon="-0.53027">
        <ele>226.4</ele>
        <time>2012-02-11T13:22:15Z</time>
      </trkpt>
      <trkpt lat="48.64298" lon="-0.53016">
        <ele>225.5</ele>
        <time>2012-02-11T13:22:19Z</time>
      </trkpt>
      <trkpt lat="48.643" lon="-0.53004">
        <ele>225.6</ele>
        <time>2012-02-11T13:22:23Z</time>
      </trkpt>
      <trkpt lat="48.64303" lon="-0.52993">
        <ele>226.1</ele>
        <time>2012-02-11T13:22:27Z</time>
      </trkpt>
      <trkpt lat="48.64305" lon="-0.52981">
        <ele>226.5</ele>
        <time>2012-02-11T13:22:31Z</time>
      </trkpt>
      <trkpt lat="48.64307" lon="-0.5297">
        <ele>226.7</ele>
        <time>2012-02-11T13:22:35Z</time>
      </trkpt>
      <trkpt lat="48.6431" lon="-0.52958">
        <ele>226.6</ele>
        <time>2012-02-11T13:22:39Z</time>
      </trkpt>
      <trkpt lat="48.64312" lon="-0.52946">
        <ele>226.4</ele>
        <time>2012-02-11T13:22:43Z</time>
      </trkpt>
      <trkpt lat="48.64313" lon="-0.52933">
        <ele>226.2</ele>
        <time>2012-02-11T13:22:47Z</time>
      </trkpt>
      <trkpt lat="48.64314" lon="-0.52919">
        <ele>226.3</ele>
        <time>2012-02-11T13:22:51Z</time>
      </trkpt>
      <trkpt lat="48.64315" lon="-0.52907">
        <ele>226.4</ele>
        <time>2012-02-11T13:22:55Z</time>
      </trkpt>
      <trkpt lat="48.64316" lon="-0.52894">
        <ele>226.5</ele>
        <time>2012-02-11T13:22:59Z</time>
      </trkpt>
      <trkpt lat="48.64317" lon="-0.52882">
        <ele>226.5</ele>
        <time>2012-02-11T13:23:03Z</time>
      </trkpt>
      <trkpt lat="48.64318" lon="-0.52878">
        <ele>226.5</ele>
        <time>2012-02-11T13:23:04Z</time>
      </trkpt>
      <trkpt lat="48.64321" lon="-0.52861">
        <ele>226.9</ele>
        <time>2012-02-11T13:23:09Z</time>
      </trkpt>
      <trkpt lat="48.64323" lon="-0.52851">
        <ele>227.4</ele>
        <time>2012-02-11T13:23:12Z</time>
      </trkpt>
      <trkpt lat="48.64325" lon="-0.5284">
        <ele>227.5</ele>
        <time>2012-02-11T13:23:15Z</time>
      </trkpt>
      <trkpt lat="48.64326" lon="-0.52827">
        <ele>226.9</ele>
        <time>2012-02-11T13:23:19Z</time>
      </trkpt>
      <trkpt lat="48.64328" lon="-0.52814">
        <ele>226.3</ele>
        <time>2012-02-11T13:23:23Z</time>
      </trkpt>
      <trkpt lat="48.6433" lon="-0.52804">
        <ele>226.5</ele>
        <time>2012-02-11T13:23:26Z</time>
      </trkpt>
      <trkpt lat="48.64332" lon="-0.52792">
        <ele>226.7</ele>
        <time>2012-02-11T13:23:29Z</time>
      </trkpt>
      <trkpt lat="48.64334" lon="-0.52781">
        <ele>226.9</ele>
        <time>2012-02-11T13:23:32Z</time>
      </trkpt>
      <trkpt lat="48.64336" lon="-0.5277">
        <ele>227.7</ele>
        <time>2012-02-11T13:23:35Z</time>
      </trkpt>
      <trkpt lat="48.64339" lon="-0.52759">
        <ele>227.1</ele>
        <time>2012-02-11T13:23:38Z</time>
      </trkpt>
      <trkpt lat="48.64342" lon="-0.52747">
        <ele>227.1</ele>
        <time>2012-02-11T13:23:41Z</time>
      </trkpt>
      <trkpt lat="48.64343" lon="-0.52738">
        <ele>227</ele>
        <time>2012-02-11T13:23:43Z</time>
      </trkpt>
      <trkpt lat="48.64345" lon="-0.52729">
        <ele>227.1</ele>
        <time>2012-02-11T13:23:45Z</time>
      </trkpt>
      <trkpt lat="48.64347" lon="-0.5272">
        <ele>227.4</ele>
        <time>2012-02-11T13:23:47Z</time>
      </trkpt>
      <trkpt lat="48.64348" lon="-0.52711">
        <ele>227.4</ele>
        <time>2012-02-11T13:23:49Z</time>
      </trkpt>
      <trkpt lat="48.6435" lon="-0.52702">
        <ele>227.3</ele>
        <time>2012-02-11T13:23:51Z</time>
      </trkpt>
      <trkpt lat="48.64351" lon="-0.52693">
        <ele>227.1</ele>
        <time>2012-02-11T13:23:53Z</time>
      </trkpt>
      <trkpt lat="48.64353" lon="-0.52684">
        <ele>227.3</ele>
        <time>2012-02-11T13:23:55Z</time>
      </trkpt>
      <trkpt lat="48.64355" lon="-0.52672">
        <ele>227.6</ele>
        <time>2012-02-11T13:23:58Z</time>
      </trkpt>
      <trkpt lat="48.64358" lon="-0.5266">
        <ele>227.9</ele>
        <time>2012-02-11T13:24:01Z</time>
      </trkpt>
      <trkpt lat="48.64363" lon="-0.5265">
        <ele>227.3</ele>
        <time>2012-02-11T13:24:04Z</time>
      </trkpt>
      <trkpt lat="48.6437" lon="-0.52643">
        <ele>226.9</ele>
        <time>2012-02-11T13:24:07Z</time>
      </trkpt>
      <trkpt lat="48.64372" lon="-0.52641">
        <ele>226.7</ele>
        <time>2012-02-11T13:24:08Z</time>
      </trkpt>
      <trkpt lat="48.64385" lon="-0.52634">
        <ele>227.5</ele>
        <time>2012-02-11T13:24:13Z</time>
      </trkpt>
      <trkpt lat="48.64392" lon="-0.52628">
        <ele>226.8</ele>
        <time>2012-02-11T13:24:16Z</time>
      </trkpt>
      <trkpt lat="48.64398" lon="-0.5262">
        <ele>227.1</ele>
        <time>2012-02-11T13:24:19Z</time>
      </trkpt>
      <trkpt lat="48.64405" lon="-0.52612">
        <ele>227.9</ele>
        <time>2012-02-11T13:24:22Z</time>
      </trkpt>
      <trkpt lat="48.64411" lon="-0.52603">
        <ele>227.3</ele>
        <time>2012-02-11T13:24:25Z</time>
      </trkpt>
      <trkpt lat="48.64416" lon="-0.52594">
        <ele>227.8</ele>
        <time>2012-02-11T13:24:28Z</time>
      </trkpt>
      <trkpt lat="48.64421" lon="-0.52585">
        <ele>228.6</ele>
        <time>2012-02-11T13:24:31Z</time>
      </trkpt>
      <trkpt lat="48.64426" lon="-0.52577">
        <ele>228.3</ele>
        <time>2012-02-11T13:24:34Z</time>
      </trkpt>
      <trkpt lat="48.64431" lon="-0.52568">
        <ele>228.2</ele>
        <time>2012-02-11T13:24:37Z</time>
      </trkpt>
      <trkpt lat="48.64436" lon="-0.5256">
        <ele>228.1</ele>
        <time>2012-02-11T13:24:40Z</time>
      </trkpt>
      <trkpt lat="48.64442" lon="-0.52552">
        <ele>227.8</ele>
        <time>2012-02-11T13:24:43Z</time>
      </trkpt>
      <trkpt lat="48.64447" lon="-0.52543">
        <ele>227.8</ele>
        <time>2012-02-11T13:24:46Z</time>
      </trkpt>
      <trkpt lat="48.64452" lon="-0.52534">
        <ele>228.2</ele>
        <time>2012-02-11T13:24:49Z</time>
      </trkpt>
      <trkpt lat="48.64456" lon="-0.52526">
        <ele>228.3</ele>
        <time>2012-02-11T13:24:52Z</time>
      </trkpt>
      <trkpt lat="48.64462" lon="-0.52517">
        <ele>229.6</ele>
        <time>2012-02-11T13:24:55Z</time>
      </trkpt>
      <trkpt lat="48.64467" lon="-0.52509">
        <ele>230.1</ele>
        <time>2012-02-11T13:24:58Z</time>
      </trkpt>
      <trkpt lat="48.64472" lon="-0.52501">
        <ele>230.2</ele>
        <time>2012-02-11T13:25:01Z</time>
      </trkpt>
      <trkpt lat="48.64478" lon="-0.52491">
        <ele>230.4</ele>
        <time>2012-02-11T13:25:04Z</time>
      </trkpt>
      <trkpt lat="48.64484" lon="-0.52482">
        <ele>231</ele>
        <time>2012-02-11T13:25:07Z</time>
      </trkpt>
      <trkpt lat="48.64489" lon="-0.52473">
        <ele>230.8</ele>
        <time>2012-02-11T13:25:10Z</time>
      </trkpt>
      <trkpt lat="48.64491" lon="-0.52469">
        <ele>230.5</ele>
        <time>2012-02-11T13:25:11Z</time>
      </trkpt>
      <trkpt lat="48.645" lon="-0.52453">
        <ele>230.1</ele>
        <time>2012-02-11T13:25:16Z</time>
      </trkpt>
      <trkpt lat="48.64504" lon="-0.52445">
        <ele>230.4</ele>
        <time>2012-02-11T13:25:18Z</time>
      </trkpt>
      <trkpt lat="48.64509" lon="-0.52437">
        <ele>231</ele>
        <time>2012-02-11T13:25:20Z</time>
      </trkpt>
      <trkpt lat="48.64513" lon="-0.5243">
        <ele>231.5</ele>
        <time>2012-02-11T13:25:22Z</time>
      </trkpt>
      <trkpt lat="48.64518" lon="-0.52423">
        <ele>231.6</ele>
        <time>2012-02-11T13:25:24Z</time>
      </trkpt>
      <trkpt lat="48.64523" lon="-0.52415">
        <ele>231.3</ele>
        <time>2012-02-11T13:25:26Z</time>
      </trkpt>
      <trkpt lat="48.64527" lon="-0.52407">
        <ele>231.6</ele>
        <time>2012-02-11T13:25:28Z</time>
      </trkpt>
      <trkpt lat="48.64532" lon="-0.52399">
        <ele>232.2</ele>
        <time>2012-02-11T13:25:30Z</time>
      </trkpt>
      <trkpt lat="48.64536" lon="-0.52392">
        <ele>232.5</ele>
        <time>2012-02-11T13:25:32Z</time>
      </trkpt>
      <trkpt lat="48.64541" lon="-0.52385">
        <ele>232.4</ele>
        <time>2012-02-11T13:25:34Z</time>
      </trkpt>
      <trkpt lat="48.64549" lon="-0.52385">
        <ele>232.4</ele>
        <time>2012-02-11T13:25:38Z</time>
      </trkpt>
      <trkpt lat="48.64553" lon="-0.52392">
        <ele>232.4</ele>
        <time>2012-02-11T13:25:40Z</time>
      </trkpt>
      <trkpt lat="48.64559" lon="-0.524">
        <ele>231.7</ele>
        <time>2012-02-11T13:25:42Z</time>
      </trkpt>
      <trkpt lat="48.64565" lon="-0.52409">
        <ele>231.3</ele>
        <time>2012-02-11T13:25:44Z</time>
      </trkpt>
      <trkpt lat="48.64572" lon="-0.52418">
        <ele>231</ele>
        <time>2012-02-11T13:25:46Z</time>
      </trkpt>
      <trkpt lat="48.64576" lon="-0.52422">
        <ele>230.8</ele>
        <time>2012-02-11T13:25:47Z</time>
      </trkpt>
      <trkpt lat="48.6458" lon="-0.52428">
        <ele>230.7</ele>
        <time>2012-02-11T13:25:48Z</time>
      </trkpt>
      <trkpt lat="48.64583" lon="-0.52433">
        <ele>230.7</ele>
        <time>2012-02-11T13:25:49Z</time>
      </trkpt>
      <trkpt lat="48.64587" lon="-0.52438">
        <ele>230.7</ele>
        <time>2012-02-11T13:25:50Z</time>
      </trkpt>
      <trkpt lat="48.6459" lon="-0.52444">
        <ele>230</ele>
        <time>2012-02-11T13:25:51Z</time>
      </trkpt>
      <trkpt lat="48.64594" lon="-0.5245">
        <ele>229.4</ele>
        <time>2012-02-11T13:25:52Z</time>
      </trkpt>
      <trkpt lat="48.64598" lon="-0.52455">
        <ele>228.8</ele>
        <time>2012-02-11T13:25:53Z</time>
      </trkpt>
      <trkpt lat="48.64602" lon="-0.5246">
        <ele>228.2</ele>
        <time>2012-02-11T13:25:54Z</time>
      </trkpt>
      <trkpt lat="48.64609" lon="-0.52467">
        <ele>227.4</ele>
        <time>2012-02-11T13:25:56Z</time>
      </trkpt>
      <trkpt lat="48.64616" lon="-0.52472">
        <ele>226.9</ele>
        <time>2012-02-11T13:25:58Z</time>
      </trkpt>
      <trkpt lat="48.64622" lon="-0.52477">
        <ele>226.7</ele>
        <time>2012-02-11T13:26:00Z</time>
      </trkpt>
      <trkpt lat="48.64629" lon="-0.52483">
        <ele>226.5</ele>
        <time>2012-02-11T13:26:02Z</time>
      </trkpt>
      <trkpt lat="48.64636" lon="-0.52489">
        <ele>226</ele>
        <time>2012-02-11T13:26:04Z</time>
      </trkpt>
      <trkpt lat="48.64643" lon="-0.52496">
        <ele>225.4</ele>
        <time>2012-02-11T13:26:06Z</time>
      </trkpt>
      <trkpt lat="48.6465" lon="-0.52502">
        <ele>224.9</ele>
        <time>2012-02-11T13:26:08Z</time>
      </trkpt>
      <trkpt lat="48.64658" lon="-0.52509">
        <ele>224.7</ele>
        <time>2012-02-11T13:26:10Z</time>
      </trkpt>
      <trkpt lat="48.64664" lon="-0.52514">
        <ele>224.1</ele>
        <time>2012-02-11T13:26:12Z</time>
      </trkpt>
      <trkpt lat="48.64667" lon="-0.52516">
        <ele>223.7</ele>
        <time>2012-02-11T13:26:13Z</time>
      </trkpt>
      <trkpt lat="48.64681" lon="-0.52516">
        <ele>221.4</ele>
        <time>2012-02-11T13:26:27Z</time>
      </trkpt>
      <trkpt lat="48.64687" lon="-0.52508">
        <ele>221.8</ele>
        <time>2012-02-11T13:26:30Z</time>
      </trkpt>
      <trkpt lat="48.64694" lon="-0.525">
        <ele>221.5</ele>
        <time>2012-02-11T13:26:33Z</time>
      </trkpt>
      <trkpt lat="48.64698" lon="-0.52494">
        <ele>221.1</ele>
        <time>2012-02-11T13:26:35Z</time>
      </trkpt>
      <trkpt lat="48.64703" lon="-0.52482">
        <ele>220.9</ele>
        <time>2012-02-11T13:26:38Z</time>
      </trkpt>
      <trkpt lat="48.64705" lon="-0.52469">
        <ele>221.4</ele>
        <time>2012-02-11T13:26:41Z</time>
      </trkpt>
      <trkpt lat="48.64709" lon="-0.52457">
        <ele>222.1</ele>
        <time>2012-02-11T13:26:44Z</time>
      </trkpt>
      <trkpt lat="48.64712" lon="-0.52446">
        <ele>222.5</ele>
        <time>2012-02-11T13:26:47Z</time>
      </trkpt>
      <trkpt lat="48.64716" lon="-0.52434">
        <ele>222.8</ele>
        <time>2012-02-11T13:26:50Z</time>
      </trkpt>
      <trkpt lat="48.64718" lon="-0.52422">
        <ele>223.5</ele>
        <time>2012-02-11T13:26:53Z</time>
      </trkpt>
      <trkpt lat="48.64718" lon="-0.52412">
        <ele>223.4</ele>
        <time>2012-02-11T13:26:55Z</time>
      </trkpt>
      <trkpt lat="48.64719" lon="-0.524">
        <ele>223.5</ele>
        <time>2012-02-11T13:26:58Z</time>
      </trkpt>
      <trkpt lat="48.64727" lon="-0.52395">
        <ele>224.1</ele>
        <time>2012-02-11T13:27:02Z</time>
      </trkpt>
      <trkpt lat="48.64735" lon="-0.52392">
        <ele>224.4</ele>
        <time>2012-02-11T13:27:05Z</time>
      </trkpt>
      <trkpt lat="48.64743" lon="-0.52392">
        <ele>224.9</ele>
        <time>2012-02-11T13:27:08Z</time>
      </trkpt>
      <trkpt lat="48.64749" lon="-0.5239">
        <ele>224.8</ele>
        <time>2012-02-11T13:27:11Z</time>
      </trkpt>
      <trkpt lat="48.64755" lon="-0.52383">
        <ele>224.3</ele>
        <time>2012-02-11T13:27:14Z</time>
      </trkpt>
      <trkpt lat="48.64758" lon="-0.52382">
        <ele>224.1</ele>
        <time>2012-02-11T13:27:15Z</time>
      </trkpt>
      <trkpt lat="48.6477" lon="-0.52377">
        <ele>223.2</ele>
        <time>2012-02-11T13:27:21Z</time>
      </trkpt>
      <trkpt lat="48.64773" lon="-0.52366">
        <ele>223.1</ele>
        <time>2012-02-11T13:27:24Z</time>
      </trkpt>
      <trkpt lat="48.64775" lon="-0.52357">
        <ele>223.3</ele>
        <time>2012-02-11T13:27:26Z</time>
      </trkpt>
      <trkpt lat="48.64776" lon="-0.52344">
        <ele>224.2</ele>
        <time>2012-02-11T13:27:29Z</time>
      </trkpt>
      <trkpt lat="48.64779" lon="-0.52335">
        <ele>224.7</ele>
        <time>2012-02-11T13:27:31Z</time>
      </trkpt>
      <trkpt lat="48.6478" lon="-0.52322">
        <ele>224.9</ele>
        <time>2012-02-11T13:27:34Z</time>
      </trkpt>
      <trkpt lat="48.64784" lon="-0.5231">
        <ele>226.1</ele>
        <time>2012-02-11T13:27:38Z</time>
      </trkpt>
      <trkpt lat="48.64786" lon="-0.523">
        <ele>225.5</ele>
        <time>2012-02-11T13:27:43Z</time>
      </trkpt>
      <trkpt lat="48.64789" lon="-0.52292">
        <ele>225.6</ele>
        <time>2012-02-11T13:27:45Z</time>
      </trkpt>
      <trkpt lat="48.64791" lon="-0.52282">
        <ele>225.5</ele>
        <time>2012-02-11T13:27:47Z</time>
      </trkpt>
      <trkpt lat="48.64792" lon="-0.52272">
        <ele>225.4</ele>
        <time>2012-02-11T13:27:49Z</time>
      </trkpt>
      <trkpt lat="48.64793" lon="-0.52262">
        <ele>226.2</ele>
        <time>2012-02-11T13:27:51Z</time>
      </trkpt>
      <trkpt lat="48.64794" lon="-0.52249">
        <ele>227.6</ele>
        <time>2012-02-11T13:27:55Z</time>
      </trkpt>
      <trkpt lat="48.64793" lon="-0.52238">
        <ele>228</ele>
        <time>2012-02-11T13:27:58Z</time>
      </trkpt>
      <trkpt lat="48.64793" lon="-0.52225">
        <ele>228.2</ele>
        <time>2012-02-11T13:28:01Z</time>
      </trkpt>
      <trkpt lat="48.64794" lon="-0.52216">
        <ele>228.5</ele>
        <time>2012-02-11T13:28:03Z</time>
      </trkpt>
      <trkpt lat="48.64796" lon="-0.52207">
        <ele>228.8</ele>
        <time>2012-02-11T13:28:05Z</time>
      </trkpt>
      <trkpt lat="48.64798" lon="-0.52194">
        <ele>229.1</ele>
        <time>2012-02-11T13:28:08Z</time>
      </trkpt>
      <trkpt lat="48.64799" lon="-0.52181">
        <ele>229.5</ele>
        <time>2012-02-11T13:28:11Z</time>
      </trkpt>
      <trkpt lat="48.648" lon="-0.52169">
        <ele>229.6</ele>
        <time>2012-02-11T13:28:14Z</time>
      </trkpt>
      <trkpt lat="48.64801" lon="-0.52156">
        <ele>230</ele>
        <time>2012-02-11T13:28:17Z</time>
      </trkpt>
      <trkpt lat="48.64801" lon="-0.52151">
        <ele>230.5</ele>
        <time>2012-02-11T13:28:18Z</time>
      </trkpt>
      <trkpt lat="48.64803" lon="-0.5213">
        <ele>231.8</ele>
        <time>2012-02-11T13:28:23Z</time>
      </trkpt>
      <trkpt lat="48.64804" lon="-0.52118">
        <ele>232.1</ele>
        <time>2012-02-11T13:28:26Z</time>
      </trkpt>
      <trkpt lat="48.64804" lon="-0.52106">
        <ele>232.7</ele>
        <time>2012-02-11T13:28:29Z</time>
      </trkpt>
      <trkpt lat="48.64805" lon="-0.52094">
        <ele>233.2</ele>
        <time>2012-02-11T13:28:32Z</time>
      </trkpt>
      <trkpt lat="48.64806" lon="-0.52082">
        <ele>233.7</ele>
        <time>2012-02-11T13:28:35Z</time>
      </trkpt>
      <trkpt lat="48.64807" lon="-0.52069">
        <ele>233.6</ele>
        <time>2012-02-11T13:28:38Z</time>
      </trkpt>
      <trkpt lat="48.64808" lon="-0.52057">
        <ele>234.5</ele>
        <time>2012-02-11T13:28:41Z</time>
      </trkpt>
      <trkpt lat="48.64809" lon="-0.52044">
        <ele>234.7</ele>
        <time>2012-02-11T13:28:44Z</time>
      </trkpt>
      <trkpt lat="48.6481" lon="-0.52031">
        <ele>235.5</ele>
        <time>2012-02-11T13:28:47Z</time>
      </trkpt>
      <trkpt lat="48.64811" lon="-0.52018">
        <ele>235.7</ele>
        <time>2012-02-11T13:28:50Z</time>
      </trkpt>
      <trkpt lat="48.64813" lon="-0.52005">
        <ele>236.2</ele>
        <time>2012-02-11T13:28:53Z</time>
      </trkpt>
      <trkpt lat="48.64813" lon="-0.51993">
        <ele>236.8</ele>
        <time>2012-02-11T13:28:56Z</time>
      </trkpt>
      <trkpt lat="48.64814" lon="-0.5198">
        <ele>237.1</ele>
        <time>2012-02-11T13:28:59Z</time>
      </trkpt>
      <trkpt lat="48.64815" lon="-0.51968">
        <ele>237.5</ele>
        <time>2012-02-11T13:29:02Z</time>
      </trkpt>
      <trkpt lat="48.64815" lon="-0.51955">
        <ele>237.9</ele>
        <time>2012-02-11T13:29:05Z</time>
      </trkpt>
      <trkpt lat="48.64815" lon="-0.51943">
        <ele>238.5</ele>
        <time>2012-02-11T13:29:08Z</time>
      </trkpt>
      <trkpt lat="48.64816" lon="-0.51931">
        <ele>239.1</ele>
        <time>2012-02-11T13:29:11Z</time>
      </trkpt>
      <trkpt lat="48.64816" lon="-0.51919">
        <ele>239.6</ele>
        <time>2012-02-11T13:29:14Z</time>
      </trkpt>
      <trkpt lat="48.64817" lon="-0.51907">
        <ele>239.8</ele>
        <time>2012-02-11T13:29:17Z</time>
      </trkpt>
      <trkpt lat="48.64818" lon="-0.51894">
        <ele>240.3</ele>
        <time>2012-02-11T13:29:20Z</time>
      </trkpt>
      <trkpt lat="48.64818" lon="-0.5189">
        <ele>240.8</ele>
        <time>2012-02-11T13:29:21Z</time>
      </trkpt>
      <trkpt lat="48.64819" lon="-0.51869">
        <ele>243.2</ele>
        <time>2012-02-11T13:29:27Z</time>
      </trkpt>
      <trkpt lat="48.64817" lon="-0.51857">
        <ele>243.9</ele>
        <time>2012-02-11T13:29:32Z</time>
      </trkpt>
      <trkpt lat="48.64808" lon="-0.51855">
        <ele>244.1</ele>
        <time>2012-02-11T13:29:36Z</time>
      </trkpt>
      <trkpt lat="48.64801" lon="-0.51853">
        <ele>243.8</ele>
        <time>2012-02-11T13:29:39Z</time>
      </trkpt>
      <trkpt lat="48.64792" lon="-0.51852">
        <ele>243.7</ele>
        <time>2012-02-11T13:29:42Z</time>
      </trkpt>
      <trkpt lat="48.64784" lon="-0.51851">
        <ele>243.4</ele>
        <time>2012-02-11T13:29:45Z</time>
      </trkpt>
      <trkpt lat="48.64776" lon="-0.51851">
        <ele>243.2</ele>
        <time>2012-02-11T13:29:48Z</time>
      </trkpt>
      <trkpt lat="48.64769" lon="-0.51853">
        <ele>243.3</ele>
        <time>2012-02-11T13:29:51Z</time>
      </trkpt>
      <trkpt lat="48.64761" lon="-0.51857">
        <ele>242.6</ele>
        <time>2012-02-11T13:29:59Z</time>
      </trkpt>
      <trkpt lat="48.64755" lon="-0.51865">
        <ele>242.8</ele>
        <time>2012-02-11T13:30:07Z</time>
      </trkpt>
      <trkpt lat="48.64748" lon="-0.51858">
        <ele>243.8</ele>
        <time>2012-02-11T13:30:18Z</time>
      </trkpt>
      <trkpt lat="48.64748" lon="-0.51844">
        <ele>244.2</ele>
        <time>2012-02-11T13:30:24Z</time>
      </trkpt>
      <trkpt lat="48.64748" lon="-0.51842">
        <ele>244.2</ele>
        <time>2012-02-11T13:30:25Z</time>
      </trkpt>
      <trkpt lat="48.64748" lon="-0.51843">
        <ele>244.5</ele>
        <time>2012-02-11T13:30:47Z</time>
      </trkpt>
      <trkpt lat="48.64749" lon="-0.51833">
        <ele>243.9</ele>
        <time>2012-02-11T13:31:02Z</time>
      </trkpt>
      <trkpt lat="48.6475" lon="-0.51822">
        <ele>244.6</ele>
        <time>2012-02-11T13:31:05Z</time>
      </trkpt>
      <trkpt lat="48.6475" lon="-0.51812">
        <ele>245</ele>
        <time>2012-02-11T13:31:08Z</time>
      </trkpt>
      <trkpt lat="48.64751" lon="-0.51801">
        <ele>245</ele>
        <time>2012-02-11T13:31:11Z</time>
      </trkpt>
      <trkpt lat="48.64751" lon="-0.51789">
        <ele>244.9</ele>
        <time>2012-02-11T13:31:14Z</time>
      </trkpt>
      <trkpt lat="48.64749" lon="-0.51778">
        <ele>245.6</ele>
        <time>2012-02-11T13:31:17Z</time>
      </trkpt>
      <trkpt lat="48.64746" lon="-0.51768">
        <ele>246</ele>
        <time>2012-02-11T13:31:20Z</time>
      </trkpt>
      <trkpt lat="48.6474" lon="-0.51762">
        <ele>246.1</ele>
        <time>2012-02-11T13:31:23Z</time>
      </trkpt>
      <trkpt lat="48.64734" lon="-0.51756">
        <ele>246.8</ele>
        <time>2012-02-11T13:31:26Z</time>
      </trkpt>
      <trkpt lat="48.64732" lon="-0.51755">
        <ele>247.1</ele>
        <time>2012-02-11T13:31:27Z</time>
      </trkpt>
      <trkpt lat="48.64717" lon="-0.51753">
        <ele>248.3</ele>
        <time>2012-02-11T13:31:34Z</time>
      </trkpt>
      <trkpt lat="48.6471" lon="-0.51756">
        <ele>248.1</ele>
        <time>2012-02-11T13:31:37Z</time>
      </trkpt>
      <trkpt lat="48.64703" lon="-0.5176">
        <ele>248.2</ele>
        <time>2012-02-11T13:31:40Z</time>
      </trkpt>
      <trkpt lat="48.64695" lon="-0.51755">
        <ele>249</ele>
        <time>2012-02-11T13:31:44Z</time>
      </trkpt>
      <trkpt lat="48.64695" lon="-0.51742">
        <ele>249.2</ele>
        <time>2012-02-11T13:31:48Z</time>
      </trkpt>
      <trkpt lat="48.64696" lon="-0.51729">
        <ele>250.2</ele>
        <time>2012-02-11T13:31:52Z</time>
      </trkpt>
      <trkpt lat="48.64697" lon="-0.51718">
        <ele>250.5</ele>
        <time>2012-02-11T13:31:55Z</time>
      </trkpt>
      <trkpt lat="48.64697" lon="-0.51706">
        <ele>251.3</ele>
        <time>2012-02-11T13:31:58Z</time>
      </trkpt>
      <trkpt lat="48.64698" lon="-0.51693">
        <ele>251.7</ele>
        <time>2012-02-11T13:32:01Z</time>
      </trkpt>
      <trkpt lat="48.64699" lon="-0.5168">
        <ele>252.1</ele>
        <time>2012-02-11T13:32:04Z</time>
      </trkpt>
      <trkpt lat="48.647" lon="-0.51667">
        <ele>252.6</ele>
        <time>2012-02-11T13:32:07Z</time>
      </trkpt>
      <trkpt lat="48.647" lon="-0.51654">
        <ele>252.4</ele>
        <time>2012-02-11T13:32:10Z</time>
      </trkpt>
      <trkpt lat="48.647" lon="-0.51641">
        <ele>253.4</ele>
        <time>2012-02-11T13:32:13Z</time>
      </trkpt>
      <trkpt lat="48.64701" lon="-0.51628">
        <ele>254.4</ele>
        <time>2012-02-11T13:32:16Z</time>
      </trkpt>
      <trkpt lat="48.64701" lon="-0.51616">
        <ele>255.2</ele>
        <time>2012-02-11T13:32:19Z</time>
      </trkpt>
      <trkpt lat="48.64702" lon="-0.51604">
        <ele>255.2</ele>
        <time>2012-02-11T13:32:22Z</time>
      </trkpt>
      <trkpt lat="48.64703" lon="-0.51592">
        <ele>256.5</ele>
        <time>2012-02-11T13:32:25Z</time>
      </trkpt>
      <trkpt lat="48.64703" lon="-0.5158">
        <ele>256.7</ele>
        <time>2012-02-11T13:32:28Z</time>
      </trkpt>
      <trkpt lat="48.64704" lon="-0.51576">
        <ele>256.7</ele>
        <time>2012-02-11T13:32:29Z</time>
      </trkpt>
      <trkpt lat="48.64705" lon="-0.51556">
        <ele>258.1</ele>
        <time>2012-02-11T13:32:34Z</time>
      </trkpt>
      <trkpt lat="48.64706" lon="-0.51544">
        <ele>258.7</ele>
        <time>2012-02-11T13:32:37Z</time>
      </trkpt>
      <trkpt lat="48.64706" lon="-0.51532">
        <ele>258.8</ele>
        <time>2012-02-11T13:32:40Z</time>
      </trkpt>
      <trkpt lat="48.64706" lon="-0.5152">
        <ele>259.2</ele>
        <time>2012-02-11T13:32:43Z</time>
      </trkpt>
      <trkpt lat="48.64707" lon="-0.51508">
        <ele>259.5</ele>
        <time>2012-02-11T13:32:46Z</time>
      </trkpt>
      <trkpt lat="48.64708" lon="-0.51497">
        <ele>260.1</ele>
        <time>2012-02-11T13:32:49Z</time>
      </trkpt>
      <trkpt lat="48.6471" lon="-0.51486">
        <ele>260.8</ele>
        <time>2012-02-11T13:32:52Z</time>
      </trkpt>
      <trkpt lat="48.64711" lon="-0.51474">
        <ele>261.3</ele>
        <time>2012-02-11T13:32:55Z</time>
      </trkpt>
      <trkpt lat="48.64712" lon="-0.51461">
        <ele>261.9</ele>
        <time>2012-02-11T13:32:58Z</time>
      </trkpt>
      <trkpt lat="48.64713" lon="-0.51449">
        <ele>262.3</ele>
        <time>2012-02-11T13:33:01Z</time>
      </trkpt>
      <trkpt lat="48.64714" lon="-0.51436">
        <ele>262.7</ele>
        <time>2012-02-11T13:33:04Z</time>
      </trkpt>
      <trkpt lat="48.64714" lon="-0.51424">
        <ele>263.6</ele>
        <time>2012-02-11T13:33:07Z</time>
      </trkpt>
      <trkpt lat="48.64716" lon="-0.51412">
        <ele>264.5</ele>
        <time>2012-02-11T13:33:10Z</time>
      </trkpt>
      <trkpt lat="48.64717" lon="-0.514">
        <ele>264.7</ele>
        <time>2012-02-11T13:33:13Z</time>
      </trkpt>
      <trkpt lat="48.64718" lon="-0.51388">
        <ele>265</ele>
        <time>2012-02-11T13:33:16Z</time>
      </trkpt>
      <trkpt lat="48.64719" lon="-0.51375">
        <ele>264.5</ele>
        <time>2012-02-11T13:33:19Z</time>
      </trkpt>
      <trkpt lat="48.6472" lon="-0.51366">
        <ele>264.8</ele>
        <time>2012-02-11T13:33:21Z</time>
      </trkpt>
      <trkpt lat="48.6472" lon="-0.51356">
        <ele>265.5</ele>
        <time>2012-02-11T13:33:23Z</time>
      </trkpt>
      <trkpt lat="48.64721" lon="-0.51343">
        <ele>266.8</ele>
        <time>2012-02-11T13:33:26Z</time>
      </trkpt>
      <trkpt lat="48.64722" lon="-0.5133">
        <ele>267.6</ele>
        <time>2012-02-11T13:33:29Z</time>
      </trkpt>
      <trkpt lat="48.64724" lon="-0.51317">
        <ele>267.7</ele>
        <time>2012-02-11T13:33:32Z</time>
      </trkpt>
      <trkpt lat="48.64725" lon="-0.51313">
        <ele>267.7</ele>
        <time>2012-02-11T13:33:33Z</time>
      </trkpt>
      <trkpt lat="48.64729" lon="-0.51294">
        <ele>269.3</ele>
        <time>2012-02-11T13:33:38Z</time>
      </trkpt>
      <trkpt lat="48.64732" lon="-0.51283">
        <ele>269.9</ele>
        <time>2012-02-11T13:33:41Z</time>
      </trkpt>
      <trkpt lat="48.64735" lon="-0.51273">
        <ele>270.3</ele>
        <time>2012-02-11T13:33:44Z</time>
      </trkpt>
      <trkpt lat="48.64739" lon="-0.51262">
        <ele>270.8</ele>
        <time>2012-02-11T13:33:48Z</time>
      </trkpt>
      <trkpt lat="48.64748" lon="-0.51259">
        <ele>271.5</ele>
        <time>2012-02-11T13:34:02Z</time>
      </trkpt>
      <trkpt lat="48.64755" lon="-0.51264">
        <ele>272</ele>
        <time>2012-02-11T13:34:07Z</time>
      </trkpt>
      <trkpt lat="48.64762" lon="-0.5127">
        <ele>272.7</ele>
        <time>2012-02-11T13:34:11Z</time>
      </trkpt>
      <trkpt lat="48.64769" lon="-0.51277">
        <ele>273.1</ele>
        <time>2012-02-11T13:34:15Z</time>
      </trkpt>
      <trkpt lat="48.64776" lon="-0.51284">
        <ele>273.4</ele>
        <time>2012-02-11T13:34:19Z</time>
      </trkpt>
      <trkpt lat="48.64782" lon="-0.51289">
        <ele>273.5</ele>
        <time>2012-02-11T13:34:22Z</time>
      </trkpt>
      <trkpt lat="48.64788" lon="-0.51295">
        <ele>274.1</ele>
        <time>2012-02-11T13:34:25Z</time>
      </trkpt>
      <trkpt lat="48.64794" lon="-0.51301">
        <ele>274.5</ele>
        <time>2012-02-11T13:34:28Z</time>
      </trkpt>
      <trkpt lat="48.64799" lon="-0.51307">
        <ele>274.8</ele>
        <time>2012-02-11T13:34:31Z</time>
      </trkpt>
      <trkpt lat="48.64806" lon="-0.51315">
        <ele>275.7</ele>
        <time>2012-02-11T13:34:35Z</time>
      </trkpt>
      <trkpt lat="48.64807" lon="-0.51316">
        <ele>276.1</ele>
        <time>2012-02-11T13:34:36Z</time>
      </trkpt>
      <trkpt lat="48.64821" lon="-0.51327">
        <ele>277.3</ele>
        <time>2012-02-11T13:34:46Z</time>
      </trkpt>
      <trkpt lat="48.64828" lon="-0.51335">
        <ele>277.9</ele>
        <time>2012-02-11T13:35:00Z</time>
      </trkpt>
      <trkpt lat="48.64835" lon="-0.5134">
        <ele>278.4</ele>
        <time>2012-02-11T13:35:08Z</time>
      </trkpt>
      <trkpt lat="48.64842" lon="-0.51347">
        <ele>279.5</ele>
        <time>2012-02-11T13:35:12Z</time>
      </trkpt>
      <trkpt lat="48.64849" lon="-0.51351">
        <ele>279.7</ele>
        <time>2012-02-11T13:35:16Z</time>
      </trkpt>
      <trkpt lat="48.64857" lon="-0.51357">
        <ele>280.7</ele>
        <time>2012-02-11T13:35:20Z</time>
      </trkpt>
      <trkpt lat="48.64863" lon="-0.51363">
        <ele>281.5</ele>
        <time>2012-02-11T13:35:23Z</time>
      </trkpt>
      <trkpt lat="48.6487" lon="-0.51366">
        <ele>282.1</ele>
        <time>2012-02-11T13:35:26Z</time>
      </trkpt>
      <trkpt lat="48.64877" lon="-0.51368">
        <ele>282.4</ele>
        <time>2012-02-11T13:35:29Z</time>
      </trkpt>
      <trkpt lat="48.64884" lon="-0.51371">
        <ele>282.3</ele>
        <time>2012-02-11T13:35:32Z</time>
      </trkpt>
      <trkpt lat="48.64893" lon="-0.51374">
        <ele>283.6</ele>
        <time>2012-02-11T13:35:37Z</time>
      </trkpt>
      <trkpt lat="48.64894" lon="-0.51375">
        <ele>283.8</ele>
        <time>2012-02-11T13:35:38Z</time>
      </trkpt>
      <trkpt lat="48.64907" lon="-0.51383">
        <ele>285.3</ele>
        <time>2012-02-11T13:35:46Z</time>
      </trkpt>
      <trkpt lat="48.64915" lon="-0.51385">
        <ele>286.7</ele>
        <time>2012-02-11T13:35:50Z</time>
      </trkpt>
      <trkpt lat="48.64922" lon="-0.51386">
        <ele>287.5</ele>
        <time>2012-02-11T13:35:53Z</time>
      </trkpt>
      <trkpt lat="48.6493" lon="-0.5139">
        <ele>288.2</ele>
        <time>2012-02-11T13:35:56Z</time>
      </trkpt>
      <trkpt lat="48.64938" lon="-0.51394">
        <ele>288.8</ele>
        <time>2012-02-11T13:35:59Z</time>
      </trkpt>
      <trkpt lat="48.64945" lon="-0.51398">
        <ele>289.1</ele>
        <time>2012-02-11T13:36:02Z</time>
      </trkpt>
      <trkpt lat="48.64952" lon="-0.51403">
        <ele>289.5</ele>
        <time>2012-02-11T13:36:05Z</time>
      </trkpt>
      <trkpt lat="48.64959" lon="-0.51409">
        <ele>289.9</ele>
        <time>2012-02-11T13:36:08Z</time>
      </trkpt>
      <trkpt lat="48.64965" lon="-0.51417">
        <ele>290.6</ele>
        <time>2012-02-11T13:36:11Z</time>
      </trkpt>
      <trkpt lat="48.6497" lon="-0.51426">
        <ele>291.2</ele>
        <time>2012-02-11T13:36:14Z</time>
      </trkpt>
      <trkpt lat="48.64977" lon="-0.51435">
        <ele>291.6</ele>
        <time>2012-02-11T13:36:17Z</time>
      </trkpt>
      <trkpt lat="48.64981" lon="-0.51442">
        <ele>291.9</ele>
        <time>2012-02-11T13:36:19Z</time>
      </trkpt>
      <trkpt lat="48.64986" lon="-0.51453">
        <ele>292.2</ele>
        <time>2012-02-11T13:36:22Z</time>
      </trkpt>
      <trkpt lat="48.64992" lon="-0.51462">
        <ele>292.3</ele>
        <time>2012-02-11T13:36:25Z</time>
      </trkpt>
      <trkpt lat="48.64998" lon="-0.51472">
        <ele>292.6</ele>
        <time>2012-02-11T13:36:28Z</time>
      </trkpt>
      <trkpt lat="48.65004" lon="-0.5148">
        <ele>294</ele>
        <time>2012-02-11T13:36:31Z</time>
      </trkpt>
      <trkpt lat="48.6501" lon="-0.51488">
        <ele>294</ele>
        <time>2012-02-11T13:36:34Z</time>
      </trkpt>
      <trkpt lat="48.65016" lon="-0.51494">
        <ele>294.5</ele>
        <time>2012-02-11T13:36:37Z</time>
      </trkpt>
      <trkpt lat="48.65024" lon="-0.51499">
        <ele>295</ele>
        <time>2012-02-11T13:36:40Z</time>
      </trkpt>
      <trkpt lat="48.65026" lon="-0.515">
        <ele>295.5</ele>
        <time>2012-02-11T13:36:41Z</time>
      </trkpt>
      <trkpt lat="48.65038" lon="-0.51503">
        <ele>296.2</ele>
        <time>2012-02-11T13:36:45Z</time>
      </trkpt>
      <trkpt lat="48.65044" lon="-0.51504">
        <ele>296.7</ele>
        <time>2012-02-11T13:36:47Z</time>
      </trkpt>
      <trkpt lat="48.65053" lon="-0.51506">
        <ele>296.9</ele>
        <time>2012-02-11T13:36:50Z</time>
      </trkpt>
      <trkpt lat="48.65061" lon="-0.51508">
        <ele>297.3</ele>
        <time>2012-02-11T13:36:53Z</time>
      </trkpt>
      <trkpt lat="48.6507" lon="-0.5151">
        <ele>297.5</ele>
        <time>2012-02-11T13:36:56Z</time>
      </trkpt>
      <trkpt lat="48.65075" lon="-0.51511">
        <ele>297.6</ele>
        <time>2012-02-11T13:36:58Z</time>
      </trkpt>
      <trkpt lat="48.65082" lon="-0.51512">
        <ele>297.5</ele>
        <time>2012-02-11T13:37:00Z</time>
      </trkpt>
      <trkpt lat="48.65088" lon="-0.51513">
        <ele>297.3</ele>
        <time>2012-02-11T13:37:02Z</time>
      </trkpt>
      <trkpt lat="48.65095" lon="-0.51514">
        <ele>297.4</ele>
        <time>2012-02-11T13:37:04Z</time>
      </trkpt>
      <trkpt lat="48.65102" lon="-0.51516">
        <ele>297.4</ele>
        <time>2012-02-11T13:37:06Z</time>
      </trkpt>
      <trkpt lat="48.6511" lon="-0.51517">
        <ele>297</ele>
        <time>2012-02-11T13:37:08Z</time>
      </trkpt>
      <trkpt lat="48.65119" lon="-0.51519">
        <ele>296.8</ele>
        <time>2012-02-11T13:37:10Z</time>
      </trkpt>
      <trkpt lat="48.65127" lon="-0.5152">
        <ele>296.5</ele>
        <time>2012-02-11T13:37:12Z</time>
      </trkpt>
      <trkpt lat="48.65136" lon="-0.51522">
        <ele>296.3</ele>
        <time>2012-02-11T13:37:14Z</time>
      </trkpt>
      <trkpt lat="48.6514" lon="-0.51523">
        <ele>296.4</ele>
        <time>2012-02-11T13:37:15Z</time>
      </trkpt>
      <trkpt lat="48.65145" lon="-0.51524">
        <ele>296.4</ele>
        <time>2012-02-11T13:37:16Z</time>
      </trkpt>
      <trkpt lat="48.65149" lon="-0.51525">
        <ele>296.3</ele>
        <time>2012-02-11T13:37:17Z</time>
      </trkpt>
      <trkpt lat="48.65154" lon="-0.51526">
        <ele>296.2</ele>
        <time>2012-02-11T13:37:18Z</time>
      </trkpt>
      <trkpt lat="48.65159" lon="-0.51527">
        <ele>296.3</ele>
        <time>2012-02-11T13:37:19Z</time>
      </trkpt>
      <trkpt lat="48.65167" lon="-0.51529">
        <ele>296.4</ele>
        <time>2012-02-11T13:37:21Z</time>
      </trkpt>
      <trkpt lat="48.65176" lon="-0.5153">
        <ele>295.8</ele>
        <time>2012-02-11T13:37:23Z</time>
      </trkpt>
      <trkpt lat="48.65184" lon="-0.51532">
        <ele>295.3</ele>
        <time>2012-02-11T13:37:25Z</time>
      </trkpt>
      <trkpt lat="48.65193" lon="-0.51534">
        <ele>294.9</ele>
        <time>2012-02-11T13:37:27Z</time>
      </trkpt>
      <trkpt lat="48.65201" lon="-0.51536">
        <ele>295</ele>
        <time>2012-02-11T13:37:29Z</time>
      </trkpt>
      <trkpt lat="48.65209" lon="-0.51538">
        <ele>295.1</ele>
        <time>2012-02-11T13:37:31Z</time>
      </trkpt>
      <trkpt lat="48.65216" lon="-0.51539">
        <ele>294.9</ele>
        <time>2012-02-11T13:37:33Z</time>
      </trkpt>
      <trkpt lat="48.65223" lon="-0.5154">
        <ele>294.7</ele>
        <time>2012-02-11T13:37:35Z</time>
      </trkpt>
      <trkpt lat="48.65231" lon="-0.51542">
        <ele>295.4</ele>
        <time>2012-02-11T13:37:38Z</time>
      </trkpt>
      <trkpt lat="48.65239" lon="-0.51539">
        <ele>296.1</ele>
        <time>2012-02-11T13:37:42Z</time>
      </trkpt>
      <trkpt lat="48.65241" lon="-0.51539">
        <ele>296.4</ele>
        <time>2012-02-11T13:37:43Z</time>
      </trkpt>
      <trkpt lat="48.65257" lon="-0.51537">
        <ele>298.1</ele>
        <time>2012-02-11T13:37:50Z</time>
      </trkpt>
      <trkpt lat="48.65263" lon="-0.51535">
        <ele>298.7</ele>
        <time>2012-02-11T13:37:53Z</time>
      </trkpt>
      <trkpt lat="48.65271" lon="-0.51532">
        <ele>299.2</ele>
        <time>2012-02-11T13:37:56Z</time>
      </trkpt>
      <trkpt lat="48.65279" lon="-0.5153">
        <ele>299.5</ele>
        <time>2012-02-11T13:37:59Z</time>
      </trkpt>
      <trkpt lat="48.65286" lon="-0.51526">
        <ele>299.4</ele>
        <time>2012-02-11T13:38:02Z</time>
      </trkpt>
      <trkpt lat="48.65292" lon="-0.51523">
        <ele>300.5</ele>
        <time>2012-02-11T13:38:05Z</time>
      </trkpt>
      <trkpt lat="48.65301" lon="-0.51521">
        <ele>300.7</ele>
        <time>2012-02-11T13:38:08Z</time>
      </trkpt>
      <trkpt lat="48.65309" lon="-0.51518">
        <ele>300.3</ele>
        <time>2012-02-11T13:38:11Z</time>
      </trkpt>
      <trkpt lat="48.65316" lon="-0.51515">
        <ele>299.8</ele>
        <time>2012-02-11T13:38:14Z</time>
      </trkpt>
      <trkpt lat="48.65324" lon="-0.51512">
        <ele>299.6</ele>
        <time>2012-02-11T13:38:17Z</time>
      </trkpt>
      <trkpt lat="48.65332" lon="-0.5151">
        <ele>298.3</ele>
        <time>2012-02-11T13:38:19Z</time>
      </trkpt>
      <trkpt lat="48.6534" lon="-0.51511">
        <ele>297.4</ele>
        <time>2012-02-11T13:38:21Z</time>
      </trkpt>
      <trkpt lat="48.65349" lon="-0.51513">
        <ele>296.4</ele>
        <time>2012-02-11T13:38:23Z</time>
      </trkpt>
      <trkpt lat="48.65357" lon="-0.51518">
        <ele>295.7</ele>
        <time>2012-02-11T13:38:25Z</time>
      </trkpt>
      <trkpt lat="48.65363" lon="-0.51522">
        <ele>294.7</ele>
        <time>2012-02-11T13:38:27Z</time>
      </trkpt>
      <trkpt lat="48.65368" lon="-0.51527">
        <ele>293.6</ele>
        <time>2012-02-11T13:38:29Z</time>
      </trkpt>
      <trkpt lat="48.65374" lon="-0.51533">
        <ele>292.6</ele>
        <time>2012-02-11T13:38:31Z</time>
      </trkpt>
      <trkpt lat="48.65381" lon="-0.51539">
        <ele>292.2</ele>
        <time>2012-02-11T13:38:33Z</time>
      </trkpt>
      <trkpt lat="48.65388" lon="-0.51544">
        <ele>292.1</ele>
        <time>2012-02-11T13:38:35Z</time>
      </trkpt>
      <trkpt lat="48.65396" lon="-0.5155">
        <ele>292.2</ele>
        <time>2012-02-11T13:38:37Z</time>
      </trkpt>
      <trkpt lat="48.654" lon="-0.51552">
        <ele>292.3</ele>
        <time>2012-02-11T13:38:38Z</time>
      </trkpt>
      <trkpt lat="48.65408" lon="-0.51557">
        <ele>292.2</ele>
        <time>2012-02-11T13:38:40Z</time>
      </trkpt>
      <trkpt lat="48.65416" lon="-0.51561">
        <ele>292</ele>
        <time>2012-02-11T13:38:42Z</time>
      </trkpt>
      <trkpt lat="48.65422" lon="-0.51564">
        <ele>291.9</ele>
        <time>2012-02-11T13:38:44Z</time>
      </trkpt>
      <trkpt lat="48.65426" lon="-0.51566">
        <ele>291.7</ele>
        <time>2012-02-11T13:38:45Z</time>
      </trkpt>
      <trkpt lat="48.65437" lon="-0.51571">
        <ele>291.4</ele>
        <time>2012-02-11T13:38:48Z</time>
      </trkpt>
      <trkpt lat="48.65443" lon="-0.51575">
        <ele>291.1</ele>
        <time>2012-02-11T13:38:50Z</time>
      </trkpt>
      <trkpt lat="48.6545" lon="-0.51578">
        <ele>291</ele>
        <time>2012-02-11T13:38:52Z</time>
      </trkpt>
      <trkpt lat="48.65456" lon="-0.51581">
        <ele>291.1</ele>
        <time>2012-02-11T13:38:54Z</time>
      </trkpt>
      <trkpt lat="48.65463" lon="-0.51587">
        <ele>291</ele>
        <time>2012-02-11T13:38:57Z</time>
      </trkpt>
      <trkpt lat="48.65469" lon="-0.51593">
        <ele>290.7</ele>
        <time>2012-02-11T13:39:00Z</time>
      </trkpt>
      <trkpt lat="48.65475" lon="-0.51599">
        <ele>290.8</ele>
        <time>2012-02-11T13:39:02Z</time>
      </trkpt>
      <trkpt lat="48.6548" lon="-0.51606">
        <ele>290.9</ele>
        <time>2012-02-11T13:39:04Z</time>
      </trkpt>
      <trkpt lat="48.65485" lon="-0.51613">
        <ele>290.9</ele>
        <time>2012-02-11T13:39:06Z</time>
      </trkpt>
      <trkpt lat="48.65489" lon="-0.5162">
        <ele>291</ele>
        <time>2012-02-11T13:39:08Z</time>
      </trkpt>
      <trkpt lat="48.65495" lon="-0.51629">
        <ele>291.1</ele>
        <time>2012-02-11T13:39:11Z</time>
      </trkpt>
      <trkpt lat="48.65501" lon="-0.51638">
        <ele>291.5</ele>
        <time>2012-02-11T13:39:14Z</time>
      </trkpt>
      <trkpt lat="48.65505" lon="-0.51645">
        <ele>291.2</ele>
        <time>2012-02-11T13:39:16Z</time>
      </trkpt>
      <trkpt lat="48.65509" lon="-0.51652">
        <ele>291.2</ele>
        <time>2012-02-11T13:39:18Z</time>
      </trkpt>
      <trkpt lat="48.65514" lon="-0.51662">
        <ele>291.5</ele>
        <time>2012-02-11T13:39:20Z</time>
      </trkpt>
      <trkpt lat="48.65519" lon="-0.51671">
        <ele>291.7</ele>
        <time>2012-02-11T13:39:22Z</time>
      </trkpt>
      <trkpt lat="48.65524" lon="-0.51679">
        <ele>291.7</ele>
        <time>2012-02-11T13:39:24Z</time>
      </trkpt>
      <trkpt lat="48.65528" lon="-0.51686">
        <ele>292.4</ele>
        <time>2012-02-11T13:39:26Z</time>
      </trkpt>
      <trkpt lat="48.65533" lon="-0.51692">
        <ele>292.6</ele>
        <time>2012-02-11T13:39:28Z</time>
      </trkpt>
      <trkpt lat="48.6554" lon="-0.51699">
        <ele>292.5</ele>
        <time>2012-02-11T13:39:30Z</time>
      </trkpt>
      <trkpt lat="48.65544" lon="-0.51703">
        <ele>292.5</ele>
        <time>2012-02-11T13:39:31Z</time>
      </trkpt>
      <trkpt lat="48.65548" lon="-0.51707">
        <ele>292.3</ele>
        <time>2012-02-11T13:39:32Z</time>
      </trkpt>
      <trkpt lat="48.65552" lon="-0.51712">
        <ele>292.2</ele>
        <time>2012-02-11T13:39:33Z</time>
      </trkpt>
      <trkpt lat="48.65556" lon="-0.51716">
        <ele>292.3</ele>
        <time>2012-02-11T13:39:34Z</time>
      </trkpt>
      <trkpt lat="48.65561" lon="-0.5172">
        <ele>292.4</ele>
        <time>2012-02-11T13:39:35Z</time>
      </trkpt>
      <trkpt lat="48.65565" lon="-0.51723">
        <ele>292.5</ele>
        <time>2012-02-11T13:39:36Z</time>
      </trkpt>
      <trkpt lat="48.65569" lon="-0.51727">
        <ele>292</ele>
        <time>2012-02-11T13:39:37Z</time>
      </trkpt>
      <trkpt lat="48.65577" lon="-0.51735">
        <ele>291.7</ele>
        <time>2012-02-11T13:39:39Z</time>
      </trkpt>
      <trkpt lat="48.65584" lon="-0.51742">
        <ele>291.9</ele>
        <time>2012-02-11T13:39:41Z</time>
      </trkpt>
      <trkpt lat="48.65588" lon="-0.51745">
        <ele>291.7</ele>
        <time>2012-02-11T13:39:42Z</time>
      </trkpt>
      <trkpt lat="48.65592" lon="-0.51749">
        <ele>291.5</ele>
        <time>2012-02-11T13:39:43Z</time>
      </trkpt>
      <trkpt lat="48.65596" lon="-0.51752">
        <ele>291.2</ele>
        <time>2012-02-11T13:39:44Z</time>
      </trkpt>
      <trkpt lat="48.65601" lon="-0.51755">
        <ele>290.9</ele>
        <time>2012-02-11T13:39:45Z</time>
      </trkpt>
      <trkpt lat="48.65605" lon="-0.51759">
        <ele>290.8</ele>
        <time>2012-02-11T13:39:46Z</time>
      </trkpt>
      <trkpt lat="48.6561" lon="-0.51762">
        <ele>290.7</ele>
        <time>2012-02-11T13:39:47Z</time>
      </trkpt>
      <trkpt lat="48.65614" lon="-0.51765">
        <ele>290.6</ele>
        <time>2012-02-11T13:39:48Z</time>
      </trkpt>
      <trkpt lat="48.65619" lon="-0.51768">
        <ele>290.4</ele>
        <time>2012-02-11T13:39:49Z</time>
      </trkpt>
      <trkpt lat="48.65624" lon="-0.51772">
        <ele>290.3</ele>
        <time>2012-02-11T13:39:50Z</time>
      </trkpt>
      <trkpt lat="48.65628" lon="-0.51775">
        <ele>290.6</ele>
        <time>2012-02-11T13:39:51Z</time>
      </trkpt>
      <trkpt lat="48.65633" lon="-0.51778">
        <ele>290.9</ele>
        <time>2012-02-11T13:39:52Z</time>
      </trkpt>
      <trkpt lat="48.65638" lon="-0.51781">
        <ele>290.9</ele>
        <time>2012-02-11T13:39:53Z</time>
      </trkpt>
      <trkpt lat="48.65642" lon="-0.51785">
        <ele>291</ele>
        <time>2012-02-11T13:39:54Z</time>
      </trkpt>
      <trkpt lat="48.65647" lon="-0.51788">
        <ele>291</ele>
        <time>2012-02-11T13:39:55Z</time>
      </trkpt>
      <trkpt lat="48.65651" lon="-0.51791">
        <ele>290.7</ele>
        <time>2012-02-11T13:39:56Z</time>
      </trkpt>
      <trkpt lat="48.65656" lon="-0.51794">
        <ele>290.5</ele>
        <time>2012-02-11T13:39:57Z</time>
      </trkpt>
      <trkpt lat="48.65661" lon="-0.51797">
        <ele>290.6</ele>
        <time>2012-02-11T13:39:58Z</time>
      </trkpt>
      <trkpt lat="48.65665" lon="-0.51799">
        <ele>290.7</ele>
        <time>2012-02-11T13:39:59Z</time>
      </trkpt>
      <trkpt lat="48.6567" lon="-0.51802">
        <ele>290.8</ele>
        <time>2012-02-11T13:40:00Z</time>
      </trkpt>
      <trkpt lat="48.65675" lon="-0.51805">
        <ele>290.6</ele>
        <time>2012-02-11T13:40:01Z</time>
      </trkpt>
      <trkpt lat="48.6568" lon="-0.51808">
        <ele>290.4</ele>
        <time>2012-02-11T13:40:02Z</time>
      </trkpt>
      <trkpt lat="48.65685" lon="-0.5181">
        <ele>290.2</ele>
        <time>2012-02-11T13:40:03Z</time>
      </trkpt>
      <trkpt lat="48.65689" lon="-0.51813">
        <ele>290.1</ele>
        <time>2012-02-11T13:40:04Z</time>
      </trkpt>
      <trkpt lat="48.65694" lon="-0.51816">
        <ele>289.9</ele>
        <time>2012-02-11T13:40:05Z</time>
      </trkpt>
      <trkpt lat="48.65699" lon="-0.51819">
        <ele>289.8</ele>
        <time>2012-02-11T13:40:06Z</time>
      </trkpt>
      <trkpt lat="48.65704" lon="-0.51821">
        <ele>289.7</ele>
        <time>2012-02-11T13:40:07Z</time>
      </trkpt>
      <trkpt lat="48.65708" lon="-0.51824">
        <ele>289.4</ele>
        <time>2012-02-11T13:40:08Z</time>
      </trkpt>
      <trkpt lat="48.65713" lon="-0.51826">
        <ele>289.3</ele>
        <time>2012-02-11T13:40:09Z</time>
      </trkpt>
      <trkpt lat="48.65719" lon="-0.51829">
        <ele>288.9</ele>
        <time>2012-02-11T13:40:10Z</time>
      </trkpt>
      <trkpt lat="48.65724" lon="-0.51831">
        <ele>288.7</ele>
        <time>2012-02-11T13:40:11Z</time>
      </trkpt>
      <trkpt lat="48.65729" lon="-0.51832">
        <ele>288.5</ele>
        <time>2012-02-11T13:40:12Z</time>
      </trkpt>
      <trkpt lat="48.65734" lon="-0.51833">
        <ele>288.5</ele>
        <time>2012-02-11T13:40:13Z</time>
      </trkpt>
      <trkpt lat="48.65741" lon="-0.51834">
        <ele>288.1</ele>
        <time>2012-02-11T13:40:15Z</time>
      </trkpt>
      <trkpt lat="48.65748" lon="-0.51831">
        <ele>287.6</ele>
        <time>2012-02-11T13:40:17Z</time>
      </trkpt>
      <trkpt lat="48.65756" lon="-0.51835">
        <ele>286.6</ele>
        <time>2012-02-11T13:40:21Z</time>
      </trkpt>
      <trkpt lat="48.65761" lon="-0.51841">
        <ele>286</ele>
        <time>2012-02-11T13:40:23Z</time>
      </trkpt>
      <trkpt lat="48.65767" lon="-0.51845">
        <ele>286.2</ele>
        <time>2012-02-11T13:40:25Z</time>
      </trkpt>
      <trkpt lat="48.65774" lon="-0.51848">
        <ele>286.1</ele>
        <time>2012-02-11T13:40:27Z</time>
      </trkpt>
      <trkpt lat="48.65782" lon="-0.51851">
        <ele>286</ele>
        <time>2012-02-11T13:40:29Z</time>
      </trkpt>
      <trkpt lat="48.6579" lon="-0.51854">
        <ele>286</ele>
        <time>2012-02-11T13:40:31Z</time>
      </trkpt>
      <trkpt lat="48.65798" lon="-0.51857">
        <ele>286.1</ele>
        <time>2012-02-11T13:40:33Z</time>
      </trkpt>
      <trkpt lat="48.65807" lon="-0.51861">
        <ele>285.7</ele>
        <time>2012-02-11T13:40:35Z</time>
      </trkpt>
      <trkpt lat="48.65811" lon="-0.51863">
        <ele>285.3</ele>
        <time>2012-02-11T13:40:36Z</time>
      </trkpt>
      <trkpt lat="48.6582" lon="-0.51864">
        <ele>284.7</ele>
        <time>2012-02-11T13:40:38Z</time>
      </trkpt>
      <trkpt lat="48.65829" lon="-0.51864">
        <ele>283.7</ele>
        <time>2012-02-11T13:40:41Z</time>
      </trkpt>
      <trkpt lat="48.65837" lon="-0.51865">
        <ele>283</ele>
        <time>2012-02-11T13:40:45Z</time>
      </trkpt>
      <trkpt lat="48.65843" lon="-0.51866">
        <ele>281.9</ele>
        <time>2012-02-11T13:40:47Z</time>
      </trkpt>
      <trkpt lat="48.65846" lon="-0.51866">
        <ele>281.8</ele>
        <time>2012-02-11T13:40:48Z</time>
      </trkpt>
      <trkpt lat="48.65857" lon="-0.51868">
        <ele>281</ele>
        <time>2012-02-11T13:40:51Z</time>
      </trkpt>
      <trkpt lat="48.65865" lon="-0.51869">
        <ele>280.4</ele>
        <time>2012-02-11T13:40:53Z</time>
      </trkpt>
      <trkpt lat="48.65872" lon="-0.51871">
        <ele>279.9</ele>
        <time>2012-02-11T13:40:55Z</time>
      </trkpt>
      <trkpt lat="48.65879" lon="-0.51872">
        <ele>279.4</ele>
        <time>2012-02-11T13:40:57Z</time>
      </trkpt>
      <trkpt lat="48.65887" lon="-0.51874">
        <ele>278.8</ele>
        <time>2012-02-11T13:40:59Z</time>
      </trkpt>
      <trkpt lat="48.65894" lon="-0.51875">
        <ele>277.6</ele>
        <time>2012-02-11T13:41:01Z</time>
      </trkpt>
      <trkpt lat="48.65902" lon="-0.51876">
        <ele>275.5</ele>
        <time>2012-02-11T13:41:03Z</time>
      </trkpt>
      <trkpt lat="48.6591" lon="-0.51877">
        <ele>274.3</ele>
        <time>2012-02-11T13:41:05Z</time>
      </trkpt>
      <trkpt lat="48.65916" lon="-0.51878">
        <ele>273.1</ele>
        <time>2012-02-11T13:41:07Z</time>
      </trkpt>
      <trkpt lat="48.65925" lon="-0.5188">
        <ele>271.1</ele>
        <time>2012-02-11T13:41:10Z</time>
      </trkpt>
      <trkpt lat="48.65931" lon="-0.51881">
        <ele>270.1</ele>
        <time>2012-02-11T13:41:12Z</time>
      </trkpt>
      <trkpt lat="48.65937" lon="-0.51883">
        <ele>269.1</ele>
        <time>2012-02-11T13:41:14Z</time>
      </trkpt>
      <trkpt lat="48.65944" lon="-0.51885">
        <ele>268.4</ele>
        <time>2012-02-11T13:41:16Z</time>
      </trkpt>
      <trkpt lat="48.6595" lon="-0.51887">
        <ele>267.7</ele>
        <time>2012-02-11T13:41:18Z</time>
      </trkpt>
      <trkpt lat="48.65957" lon="-0.51888">
        <ele>266.7</ele>
        <time>2012-02-11T13:41:20Z</time>
      </trkpt>
      <trkpt lat="48.65965" lon="-0.5189">
        <ele>265.4</ele>
        <time>2012-02-11T13:41:23Z</time>
      </trkpt>
      <trkpt lat="48.65973" lon="-0.51897">
        <ele>265.1</ele>
        <time>2012-02-11T13:41:26Z</time>
      </trkpt>
      <trkpt lat="48.65977" lon="-0.51907">
        <ele>264.8</ele>
        <time>2012-02-11T13:41:28Z</time>
      </trkpt>
      <trkpt lat="48.6598" lon="-0.51912">
        <ele>264.9</ele>
        <time>2012-02-11T13:41:29Z</time>
      </trkpt>
      <trkpt lat="48.65983" lon="-0.51917">
        <ele>264.9</ele>
        <time>2012-02-11T13:41:30Z</time>
      </trkpt>
      <trkpt lat="48.65987" lon="-0.51922">
        <ele>264.6</ele>
        <time>2012-02-11T13:41:31Z</time>
      </trkpt>
      <trkpt lat="48.65991" lon="-0.51926">
        <ele>264.4</ele>
        <time>2012-02-11T13:41:32Z</time>
      </trkpt>
      <trkpt lat="48.65996" lon="-0.51929">
        <ele>264.4</ele>
        <time>2012-02-11T13:41:33Z</time>
      </trkpt>
      <trkpt lat="48.66" lon="-0.51931">
        <ele>264.3</ele>
        <time>2012-02-11T13:41:34Z</time>
      </trkpt>
      <trkpt lat="48.66005" lon="-0.51932">
        <ele>264.1</ele>
        <time>2012-02-11T13:41:35Z</time>
      </trkpt>
      <trkpt lat="48.6601" lon="-0.51933">
        <ele>264</ele>
        <time>2012-02-11T13:41:36Z</time>
      </trkpt>
      <trkpt lat="48.66014" lon="-0.51934">
        <ele>263.9</ele>
        <time>2012-02-11T13:41:37Z</time>
      </trkpt>
      <trkpt lat="48.66019" lon="-0.51934">
        <ele>263.7</ele>
        <time>2012-02-11T13:41:38Z</time>
      </trkpt>
      <trkpt lat="48.66028" lon="-0.51935">
        <ele>263.8</ele>
        <time>2012-02-11T13:41:40Z</time>
      </trkpt>
      <trkpt lat="48.66036" lon="-0.51935">
        <ele>264.1</ele>
        <time>2012-02-11T13:41:42Z</time>
      </trkpt>
      <trkpt lat="48.66043" lon="-0.51935">
        <ele>263.6</ele>
        <time>2012-02-11T13:41:44Z</time>
      </trkpt>
      <trkpt lat="48.66052" lon="-0.51934">
        <ele>263.8</ele>
        <time>2012-02-11T13:41:47Z</time>
      </trkpt>
      <trkpt lat="48.6606" lon="-0.51932">
        <ele>264.9</ele>
        <time>2012-02-11T13:41:50Z</time>
      </trkpt>
      <trkpt lat="48.66063" lon="-0.5193">
        <ele>265.3</ele>
        <time>2012-02-11T13:41:51Z</time>
      </trkpt>
      <trkpt lat="48.66075" lon="-0.51924">
        <ele>266.1</ele>
        <time>2012-02-11T13:41:56Z</time>
      </trkpt>
      <trkpt lat="48.66083" lon="-0.5192">
        <ele>267.2</ele>
        <time>2012-02-11T13:41:59Z</time>
      </trkpt>
      <trkpt lat="48.6609" lon="-0.51915">
        <ele>267.9</ele>
        <time>2012-02-11T13:42:02Z</time>
      </trkpt>
      <trkpt lat="48.66099" lon="-0.51912">
        <ele>268.6</ele>
        <time>2012-02-11T13:42:05Z</time>
      </trkpt>
      <trkpt lat="48.66107" lon="-0.51908">
        <ele>268.4</ele>
        <time>2012-02-11T13:42:08Z</time>
      </trkpt>
      <trkpt lat="48.66115" lon="-0.51905">
        <ele>269.5</ele>
        <time>2012-02-11T13:42:11Z</time>
      </trkpt>
      <trkpt lat="48.66123" lon="-0.51903">
        <ele>270.1</ele>
        <time>2012-02-11T13:42:14Z</time>
      </trkpt>
      <trkpt lat="48.66132" lon="-0.51902">
        <ele>270.7</ele>
        <time>2012-02-11T13:42:17Z</time>
      </trkpt>
      <trkpt lat="48.66141" lon="-0.51902">
        <ele>271.4</ele>
        <time>2012-02-11T13:42:20Z</time>
      </trkpt>
      <trkpt lat="48.66148" lon="-0.51905">
        <ele>272.2</ele>
        <time>2012-02-11T13:42:23Z</time>
      </trkpt>
      <trkpt lat="48.66156" lon="-0.51909">
        <ele>272.5</ele>
        <time>2012-02-11T13:42:26Z</time>
      </trkpt>
      <trkpt lat="48.66163" lon="-0.51912">
        <ele>272.7</ele>
        <time>2012-02-11T13:42:29Z</time>
      </trkpt>
      <trkpt lat="48.66171" lon="-0.51916">
        <ele>273.6</ele>
        <time>2012-02-11T13:42:32Z</time>
      </trkpt>
      <trkpt lat="48.66179" lon="-0.51921">
        <ele>274.5</ele>
        <time>2012-02-11T13:42:36Z</time>
      </trkpt>
      <trkpt lat="48.66185" lon="-0.51924">
        <ele>275</ele>
        <time>2012-02-11T13:42:39Z</time>
      </trkpt>
      <trkpt lat="48.66192" lon="-0.51927">
        <ele>275.6</ele>
        <time>2012-02-11T13:42:42Z</time>
      </trkpt>
      <trkpt lat="48.66199" lon="-0.51928">
        <ele>276.4</ele>
        <time>2012-02-11T13:42:45Z</time>
      </trkpt>
      <trkpt lat="48.66206" lon="-0.51928">
        <ele>277</ele>
        <time>2012-02-11T13:42:48Z</time>
      </trkpt>
      <trkpt lat="48.66213" lon="-0.51936">
        <ele>277.1</ele>
        <time>2012-02-11T13:42:52Z</time>
      </trkpt>
      <trkpt lat="48.66214" lon="-0.51939">
        <ele>277.1</ele>
        <time>2012-02-11T13:42:53Z</time>
      </trkpt>
      <trkpt lat="48.66217" lon="-0.51958">
        <ele>278</ele>
        <time>2012-02-11T13:42:58Z</time>
      </trkpt>
      <trkpt lat="48.66218" lon="-0.51971">
        <ele>278.6</ele>
        <time>2012-02-11T13:43:01Z</time>
      </trkpt>
      <trkpt lat="48.66217" lon="-0.51981">
        <ele>279.2</ele>
        <time>2012-02-11T13:43:03Z</time>
      </trkpt>
      <trkpt lat="48.66217" lon="-0.51994">
        <ele>279.7</ele>
        <time>2012-02-11T13:43:06Z</time>
      </trkpt>
      <trkpt lat="48.66217" lon="-0.52003">
        <ele>280</ele>
        <time>2012-02-11T13:43:08Z</time>
      </trkpt>
      <trkpt lat="48.66218" lon="-0.52013">
        <ele>280.4</ele>
        <time>2012-02-11T13:43:10Z</time>
      </trkpt>
      <trkpt lat="48.66219" lon="-0.52024">
        <ele>280.7</ele>
        <time>2012-02-11T13:43:12Z</time>
      </trkpt>
      <trkpt lat="48.66219" lon="-0.52035">
        <ele>281</ele>
        <time>2012-02-11T13:43:14Z</time>
      </trkpt>
      <trkpt lat="48.6622" lon="-0.52046">
        <ele>281.7</ele>
        <time>2012-02-11T13:43:16Z</time>
      </trkpt>
      <trkpt lat="48.66221" lon="-0.52056">
        <ele>282.1</ele>
        <time>2012-02-11T13:43:18Z</time>
      </trkpt>
      <trkpt lat="48.66222" lon="-0.52067">
        <ele>282.6</ele>
        <time>2012-02-11T13:43:20Z</time>
      </trkpt>
      <trkpt lat="48.66223" lon="-0.52078">
        <ele>283.1</ele>
        <time>2012-02-11T13:43:22Z</time>
      </trkpt>
      <trkpt lat="48.66225" lon="-0.52089">
        <ele>283.5</ele>
        <time>2012-02-11T13:43:24Z</time>
      </trkpt>
      <trkpt lat="48.66226" lon="-0.521">
        <ele>283.6</ele>
        <time>2012-02-11T13:43:26Z</time>
      </trkpt>
      <trkpt lat="48.66228" lon="-0.52111">
        <ele>283.9</ele>
        <time>2012-02-11T13:43:28Z</time>
      </trkpt>
      <trkpt lat="48.66231" lon="-0.52121">
        <ele>284.2</ele>
        <time>2012-02-11T13:43:30Z</time>
      </trkpt>
      <trkpt lat="48.66235" lon="-0.52131">
        <ele>283.9</ele>
        <time>2012-02-11T13:43:32Z</time>
      </trkpt>
      <trkpt lat="48.6624" lon="-0.52141">
        <ele>283.7</ele>
        <time>2012-02-11T13:43:34Z</time>
      </trkpt>
      <trkpt lat="48.66245" lon="-0.52149">
        <ele>283.8</ele>
        <time>2012-02-11T13:43:36Z</time>
      </trkpt>
      <trkpt lat="48.66251" lon="-0.52157">
        <ele>283.8</ele>
        <time>2012-02-11T13:43:38Z</time>
      </trkpt>
      <trkpt lat="48.66257" lon="-0.52164">
        <ele>283.8</ele>
        <time>2012-02-11T13:43:40Z</time>
      </trkpt>
      <trkpt lat="48.66264" lon="-0.5217">
        <ele>283.5</ele>
        <time>2012-02-11T13:43:42Z</time>
      </trkpt>
      <trkpt lat="48.6627" lon="-0.52175">
        <ele>283.4</ele>
        <time>2012-02-11T13:43:44Z</time>
      </trkpt>
      <trkpt lat="48.66276" lon="-0.5218">
        <ele>283.1</ele>
        <time>2012-02-11T13:43:46Z</time>
      </trkpt>
      <trkpt lat="48.66282" lon="-0.52186">
        <ele>282.7</ele>
        <time>2012-02-11T13:43:48Z</time>
      </trkpt>
      <trkpt lat="48.66288" lon="-0.52192">
        <ele>282.3</ele>
        <time>2012-02-11T13:43:50Z</time>
      </trkpt>
      <trkpt lat="48.66295" lon="-0.52197">
        <ele>282.7</ele>
        <time>2012-02-11T13:43:52Z</time>
      </trkpt>
      <trkpt lat="48.66302" lon="-0.52202">
        <ele>283.3</ele>
        <time>2012-02-11T13:43:54Z</time>
      </trkpt>
      <trkpt lat="48.66305" lon="-0.52204">
        <ele>283.5</ele>
        <time>2012-02-11T13:43:55Z</time>
      </trkpt>
      <trkpt lat="48.66315" lon="-0.52212">
        <ele>283.2</ele>
        <time>2012-02-11T13:43:58Z</time>
      </trkpt>
      <trkpt lat="48.66321" lon="-0.52217">
        <ele>282.6</ele>
        <time>2012-02-11T13:44:00Z</time>
      </trkpt>
      <trkpt lat="48.66327" lon="-0.52222">
        <ele>282.6</ele>
        <time>2012-02-11T13:44:02Z</time>
      </trkpt>
      <trkpt lat="48.66333" lon="-0.52227">
        <ele>282.6</ele>
        <time>2012-02-11T13:44:04Z</time>
      </trkpt>
      <trkpt lat="48.6634" lon="-0.52233">
        <ele>282.2</ele>
        <time>2012-02-11T13:44:06Z</time>
      </trkpt>
      <trkpt lat="48.66347" lon="-0.52237">
        <ele>281.8</ele>
        <time>2012-02-11T13:44:08Z</time>
      </trkpt>
      <trkpt lat="48.66353" lon="-0.52243">
        <ele>281.4</ele>
        <time>2012-02-11T13:44:10Z</time>
      </trkpt>
      <trkpt lat="48.6636" lon="-0.52247">
        <ele>281.6</ele>
        <time>2012-02-11T13:44:12Z</time>
      </trkpt>
      <trkpt lat="48.66367" lon="-0.52251">
        <ele>281.8</ele>
        <time>2012-02-11T13:44:14Z</time>
      </trkpt>
      <trkpt lat="48.66373" lon="-0.52256">
        <ele>281.8</ele>
        <time>2012-02-11T13:44:16Z</time>
      </trkpt>
      <trkpt lat="48.6638" lon="-0.52262">
        <ele>281</ele>
        <time>2012-02-11T13:44:18Z</time>
      </trkpt>
      <trkpt lat="48.66386" lon="-0.52268">
        <ele>281.3</ele>
        <time>2012-02-11T13:44:20Z</time>
      </trkpt>
      <trkpt lat="48.66392" lon="-0.52274">
        <ele>281.4</ele>
        <time>2012-02-11T13:44:22Z</time>
      </trkpt>
      <trkpt lat="48.66398" lon="-0.52281">
        <ele>281.1</ele>
        <time>2012-02-11T13:44:24Z</time>
      </trkpt>
      <trkpt lat="48.66405" lon="-0.5229">
        <ele>280.6</ele>
        <time>2012-02-11T13:44:26Z</time>
      </trkpt>
      <trkpt lat="48.66412" lon="-0.52297">
        <ele>280.2</ele>
        <time>2012-02-11T13:44:28Z</time>
      </trkpt>
      <trkpt lat="48.66419" lon="-0.52304">
        <ele>279.8</ele>
        <time>2012-02-11T13:44:30Z</time>
      </trkpt>
      <trkpt lat="48.66427" lon="-0.52311">
        <ele>280</ele>
        <time>2012-02-11T13:44:32Z</time>
      </trkpt>
      <trkpt lat="48.66434" lon="-0.52317">
        <ele>279.6</ele>
        <time>2012-02-11T13:44:34Z</time>
      </trkpt>
      <trkpt lat="48.66441" lon="-0.52324">
        <ele>279.3</ele>
        <time>2012-02-11T13:44:36Z</time>
      </trkpt>
      <trkpt lat="48.66448" lon="-0.5233">
        <ele>279.1</ele>
        <time>2012-02-11T13:44:38Z</time>
      </trkpt>
      <trkpt lat="48.66455" lon="-0.52336">
        <ele>279</ele>
        <time>2012-02-11T13:44:40Z</time>
      </trkpt>
      <trkpt lat="48.66461" lon="-0.52342">
        <ele>278.7</ele>
        <time>2012-02-11T13:44:42Z</time>
      </trkpt>
      <trkpt lat="48.66468" lon="-0.52347">
        <ele>278.6</ele>
        <time>2012-02-11T13:44:44Z</time>
      </trkpt>
      <trkpt lat="48.66474" lon="-0.52353">
        <ele>279.4</ele>
        <time>2012-02-11T13:44:46Z</time>
      </trkpt>
      <trkpt lat="48.66481" lon="-0.52359">
        <ele>279.9</ele>
        <time>2012-02-11T13:44:48Z</time>
      </trkpt>
      <trkpt lat="48.66487" lon="-0.52364">
        <ele>279.7</ele>
        <time>2012-02-11T13:44:50Z</time>
      </trkpt>
      <trkpt lat="48.66493" lon="-0.5237">
        <ele>279.6</ele>
        <time>2012-02-11T13:44:52Z</time>
      </trkpt>
      <trkpt lat="48.66499" lon="-0.52375">
        <ele>279.7</ele>
        <time>2012-02-11T13:44:54Z</time>
      </trkpt>
      <trkpt lat="48.66505" lon="-0.52381">
        <ele>279.8</ele>
        <time>2012-02-11T13:44:56Z</time>
      </trkpt>
      <trkpt lat="48.66507" lon="-0.52383">
        <ele>279.9</ele>
        <time>2012-02-11T13:44:57Z</time>
      </trkpt>
      <trkpt lat="48.66517" lon="-0.52393">
        <ele>280.4</ele>
        <time>2012-02-11T13:45:01Z</time>
      </trkpt>
      <trkpt lat="48.66523" lon="-0.52398">
        <ele>280.3</ele>
        <time>2012-02-11T13:45:03Z</time>
      </trkpt>
      <trkpt lat="48.66528" lon="-0.52403">
        <ele>281</ele>
        <time>2012-02-11T13:45:05Z</time>
      </trkpt>
      <trkpt lat="48.66533" lon="-0.52408">
        <ele>281.2</ele>
        <time>2012-02-11T13:45:07Z</time>
      </trkpt>
      <trkpt lat="48.66541" lon="-0.52414">
        <ele>281.9</ele>
        <time>2012-02-11T13:45:10Z</time>
      </trkpt>
      <trkpt lat="48.66546" lon="-0.52419">
        <ele>282.1</ele>
        <time>2012-02-11T13:45:12Z</time>
      </trkpt>
      <trkpt lat="48.66551" lon="-0.52424">
        <ele>282.5</ele>
        <time>2012-02-11T13:45:14Z</time>
      </trkpt>
      <trkpt lat="48.66556" lon="-0.52429">
        <ele>282.8</ele>
        <time>2012-02-11T13:45:16Z</time>
      </trkpt>
      <trkpt lat="48.66561" lon="-0.52434">
        <ele>283.1</ele>
        <time>2012-02-11T13:45:18Z</time>
      </trkpt>
      <trkpt lat="48.66567" lon="-0.52439">
        <ele>283.3</ele>
        <time>2012-02-11T13:45:20Z</time>
      </trkpt>
      <trkpt lat="48.66572" lon="-0.52444">
        <ele>283.3</ele>
        <time>2012-02-11T13:45:22Z</time>
      </trkpt>
      <trkpt lat="48.66577" lon="-0.52449">
        <ele>283.8</ele>
        <time>2012-02-11T13:45:24Z</time>
      </trkpt>
      <trkpt lat="48.66582" lon="-0.52455">
        <ele>284.2</ele>
        <time>2012-02-11T13:45:26Z</time>
      </trkpt>
      <trkpt lat="48.66587" lon="-0.52461">
        <ele>284.2</ele>
        <time>2012-02-11T13:45:28Z</time>
      </trkpt>
      <trkpt lat="48.66592" lon="-0.52468">
        <ele>284.1</ele>
        <time>2012-02-11T13:45:30Z</time>
      </trkpt>
      <trkpt lat="48.66599" lon="-0.52475">
        <ele>284.4</ele>
        <time>2012-02-11T13:45:33Z</time>
      </trkpt>
      <trkpt lat="48.66605" lon="-0.52481">
        <ele>284.7</ele>
        <time>2012-02-11T13:45:35Z</time>
      </trkpt>
      <trkpt lat="48.66611" lon="-0.52488">
        <ele>284.9</ele>
        <time>2012-02-11T13:45:37Z</time>
      </trkpt>
      <trkpt lat="48.66616" lon="-0.52496">
        <ele>285.2</ele>
        <time>2012-02-11T13:45:39Z</time>
      </trkpt>
      <trkpt lat="48.66621" lon="-0.52503">
        <ele>285.4</ele>
        <time>2012-02-11T13:45:41Z</time>
      </trkpt>
      <trkpt lat="48.66627" lon="-0.52511">
        <ele>284.9</ele>
        <time>2012-02-11T13:45:43Z</time>
      </trkpt>
      <trkpt lat="48.66632" lon="-0.52518">
        <ele>284.9</ele>
        <time>2012-02-11T13:45:45Z</time>
      </trkpt>
      <trkpt lat="48.66637" lon="-0.52525">
        <ele>284.9</ele>
        <time>2012-02-11T13:45:47Z</time>
      </trkpt>
      <trkpt lat="48.66643" lon="-0.52532">
        <ele>285</ele>
        <time>2012-02-11T13:45:49Z</time>
      </trkpt>
      <trkpt lat="48.66648" lon="-0.52539">
        <ele>285.2</ele>
        <time>2012-02-11T13:45:51Z</time>
      </trkpt>
      <trkpt lat="48.66654" lon="-0.52546">
        <ele>284.8</ele>
        <time>2012-02-11T13:45:53Z</time>
      </trkpt>
      <trkpt lat="48.66659" lon="-0.52552">
        <ele>285.5</ele>
        <time>2012-02-11T13:45:55Z</time>
      </trkpt>
      <trkpt lat="48.66664" lon="-0.52559">
        <ele>285.1</ele>
        <time>2012-02-11T13:45:57Z</time>
      </trkpt>
      <trkpt lat="48.66667" lon="-0.52562">
        <ele>285</ele>
        <time>2012-02-11T13:45:58Z</time>
      </trkpt>
      <trkpt lat="48.66675" lon="-0.52572">
        <ele>285.5</ele>
        <time>2012-02-11T13:46:01Z</time>
      </trkpt>
      <trkpt lat="48.6668" lon="-0.52579">
        <ele>285.3</ele>
        <time>2012-02-11T13:46:03Z</time>
      </trkpt>
      <trkpt lat="48.66686" lon="-0.52585">
        <ele>285.5</ele>
        <time>2012-02-11T13:46:05Z</time>
      </trkpt>
      <trkpt lat="48.66691" lon="-0.52591">
        <ele>285.7</ele>
        <time>2012-02-11T13:46:07Z</time>
      </trkpt>
      <trkpt lat="48.66697" lon="-0.52597">
        <ele>286</ele>
        <time>2012-02-11T13:46:09Z</time>
      </trkpt>
      <trkpt lat="48.66701" lon="-0.52603">
        <ele>286.1</ele>
        <time>2012-02-11T13:46:11Z</time>
      </trkpt>
      <trkpt lat="48.66706" lon="-0.5261">
        <ele>286.1</ele>
        <time>2012-02-11T13:46:13Z</time>
      </trkpt>
      <trkpt lat="48.66713" lon="-0.52617">
        <ele>285.8</ele>
        <time>2012-02-11T13:46:16Z</time>
      </trkpt>
      <trkpt lat="48.66721" lon="-0.52623">
        <ele>285.8</ele>
        <time>2012-02-11T13:46:19Z</time>
      </trkpt>
      <trkpt lat="48.66728" lon="-0.52627">
        <ele>285.8</ele>
        <time>2012-02-11T13:46:22Z</time>
      </trkpt>
      <trkpt lat="48.66733" lon="-0.52632">
        <ele>285.4</ele>
        <time>2012-02-11T13:46:24Z</time>
      </trkpt>
      <trkpt lat="48.66739" lon="-0.52638">
        <ele>285.2</ele>
        <time>2012-02-11T13:46:26Z</time>
      </trkpt>
      <trkpt lat="48.66746" lon="-0.52645">
        <ele>285.2</ele>
        <time>2012-02-11T13:46:28Z</time>
      </trkpt>
      <trkpt lat="48.66752" lon="-0.52652">
        <ele>284.5</ele>
        <time>2012-02-11T13:46:30Z</time>
      </trkpt>
      <trkpt lat="48.66757" lon="-0.52661">
        <ele>283.8</ele>
        <time>2012-02-11T13:46:32Z</time>
      </trkpt>
      <trkpt lat="48.66762" lon="-0.52672">
        <ele>283</ele>
        <time>2012-02-11T13:46:34Z</time>
      </trkpt>
      <trkpt lat="48.66764" lon="-0.52678">
        <ele>282.6</ele>
        <time>2012-02-11T13:46:35Z</time>
      </trkpt>
      <trkpt lat="48.66769" lon="-0.52689">
        <ele>282.4</ele>
        <time>2012-02-11T13:46:37Z</time>
      </trkpt>
      <trkpt lat="48.66774" lon="-0.527">
        <ele>282.2</ele>
        <time>2012-02-11T13:46:39Z</time>
      </trkpt>
      <trkpt lat="48.66776" lon="-0.52706">
        <ele>282</ele>
        <time>2012-02-11T13:46:40Z</time>
      </trkpt>
      <trkpt lat="48.66779" lon="-0.52712">
        <ele>281.9</ele>
        <time>2012-02-11T13:46:41Z</time>
      </trkpt>
      <trkpt lat="48.66781" lon="-0.52718">
        <ele>281.6</ele>
        <time>2012-02-11T13:46:42Z</time>
      </trkpt>
      <trkpt lat="48.66784" lon="-0.52723">
        <ele>281.4</ele>
        <time>2012-02-11T13:46:43Z</time>
      </trkpt>
      <trkpt lat="48.66787" lon="-0.52729">
        <ele>281.1</ele>
        <time>2012-02-11T13:46:44Z</time>
      </trkpt>
      <trkpt lat="48.6679" lon="-0.52735">
        <ele>280.9</ele>
        <time>2012-02-11T13:46:45Z</time>
      </trkpt>
      <trkpt lat="48.66793" lon="-0.5274">
        <ele>280.5</ele>
        <time>2012-02-11T13:46:46Z</time>
      </trkpt>
      <trkpt lat="48.66796" lon="-0.52745">
        <ele>280.2</ele>
        <time>2012-02-11T13:46:47Z</time>
      </trkpt>
      <trkpt lat="48.66802" lon="-0.52754">
        <ele>280</ele>
        <time>2012-02-11T13:46:49Z</time>
      </trkpt>
      <trkpt lat="48.66808" lon="-0.52763">
        <ele>280.1</ele>
        <time>2012-02-11T13:46:51Z</time>
      </trkpt>
      <trkpt lat="48.66815" lon="-0.5277">
        <ele>280.5</ele>
        <time>2012-02-11T13:46:53Z</time>
      </trkpt>
      <trkpt lat="48.66821" lon="-0.52779">
        <ele>281</ele>
        <time>2012-02-11T13:46:55Z</time>
      </trkpt>
      <trkpt lat="48.66827" lon="-0.52789">
        <ele>280.5</ele>
        <time>2012-02-11T13:46:57Z</time>
      </trkpt>
      <trkpt lat="48.66834" lon="-0.52797">
        <ele>279.9</ele>
        <time>2012-02-11T13:46:59Z</time>
      </trkpt>
      <trkpt lat="48.66837" lon="-0.52802">
        <ele>279.7</ele>
        <time>2012-02-11T13:47:00Z</time>
      </trkpt>
      <trkpt lat="48.66847" lon="-0.52815">
        <ele>279.5</ele>
        <time>2012-02-11T13:47:03Z</time>
      </trkpt>
      <trkpt lat="48.66853" lon="-0.52823">
        <ele>279.5</ele>
        <time>2012-02-11T13:47:05Z</time>
      </trkpt>
      <trkpt lat="48.6686" lon="-0.52831">
        <ele>279.6</ele>
        <time>2012-02-11T13:47:07Z</time>
      </trkpt>
      <trkpt lat="48.66866" lon="-0.5284">
        <ele>279.5</ele>
        <time>2012-02-11T13:47:09Z</time>
      </trkpt>
      <trkpt lat="48.66869" lon="-0.52845">
        <ele>279.3</ele>
        <time>2012-02-11T13:47:10Z</time>
      </trkpt>
      <trkpt lat="48.66872" lon="-0.52851">
        <ele>279.2</ele>
        <time>2012-02-11T13:47:11Z</time>
      </trkpt>
      <trkpt lat="48.66875" lon="-0.52856">
        <ele>278.7</ele>
        <time>2012-02-11T13:47:12Z</time>
      </trkpt>
      <trkpt lat="48.66877" lon="-0.52863">
        <ele>278.4</ele>
        <time>2012-02-11T13:47:13Z</time>
      </trkpt>
      <trkpt lat="48.66881" lon="-0.52869">
        <ele>278.2</ele>
        <time>2012-02-11T13:47:14Z</time>
      </trkpt>
      <trkpt lat="48.66884" lon="-0.52875">
        <ele>277.7</ele>
        <time>2012-02-11T13:47:15Z</time>
      </trkpt>
      <trkpt lat="48.66888" lon="-0.52882">
        <ele>277.4</ele>
        <time>2012-02-11T13:47:16Z</time>
      </trkpt>
      <trkpt lat="48.66891" lon="-0.52888">
        <ele>277</ele>
        <time>2012-02-11T13:47:17Z</time>
      </trkpt>
      <trkpt lat="48.66895" lon="-0.52894">
        <ele>276.8</ele>
        <time>2012-02-11T13:47:18Z</time>
      </trkpt>
      <trkpt lat="48.66899" lon="-0.529">
        <ele>276.6</ele>
        <time>2012-02-11T13:47:19Z</time>
      </trkpt>
      <trkpt lat="48.66903" lon="-0.52905">
        <ele>276.3</ele>
        <time>2012-02-11T13:47:20Z</time>
      </trkpt>
      <trkpt lat="48.66907" lon="-0.5291">
        <ele>276.1</ele>
        <time>2012-02-11T13:47:21Z</time>
      </trkpt>
      <trkpt lat="48.66911" lon="-0.52915">
        <ele>275.8</ele>
        <time>2012-02-11T13:47:22Z</time>
      </trkpt>
      <trkpt lat="48.66915" lon="-0.5292">
        <ele>275.6</ele>
        <time>2012-02-11T13:47:23Z</time>
      </trkpt>
      <trkpt lat="48.66919" lon="-0.52925">
        <ele>275.7</ele>
        <time>2012-02-11T13:47:24Z</time>
      </trkpt>
      <trkpt lat="48.66922" lon="-0.52931">
        <ele>275.8</ele>
        <time>2012-02-11T13:47:25Z</time>
      </trkpt>
      <trkpt lat="48.66926" lon="-0.52936">
        <ele>275.8</ele>
        <time>2012-02-11T13:47:26Z</time>
      </trkpt>
      <trkpt lat="48.66929" lon="-0.52941">
        <ele>275.6</ele>
        <time>2012-02-11T13:47:27Z</time>
      </trkpt>
      <trkpt lat="48.66933" lon="-0.52945">
        <ele>275.5</ele>
        <time>2012-02-11T13:47:28Z</time>
      </trkpt>
      <trkpt lat="48.66937" lon="-0.5295">
        <ele>275</ele>
        <time>2012-02-11T13:47:29Z</time>
      </trkpt>
      <trkpt lat="48.6694" lon="-0.52954">
        <ele>274.7</ele>
        <time>2012-02-11T13:47:30Z</time>
      </trkpt>
      <trkpt lat="48.66944" lon="-0.52959">
        <ele>274.3</ele>
        <time>2012-02-11T13:47:31Z</time>
      </trkpt>
      <trkpt lat="48.66948" lon="-0.52963">
        <ele>274</ele>
        <time>2012-02-11T13:47:32Z</time>
      </trkpt>
      <trkpt lat="48.66952" lon="-0.52968">
        <ele>273.8</ele>
        <time>2012-02-11T13:47:33Z</time>
      </trkpt>
      <trkpt lat="48.66955" lon="-0.52973">
        <ele>273.6</ele>
        <time>2012-02-11T13:47:34Z</time>
      </trkpt>
      <trkpt lat="48.66959" lon="-0.52977">
        <ele>273.4</ele>
        <time>2012-02-11T13:47:35Z</time>
      </trkpt>
      <trkpt lat="48.66963" lon="-0.52982">
        <ele>273</ele>
        <time>2012-02-11T13:47:36Z</time>
      </trkpt>
      <trkpt lat="48.66967" lon="-0.52987">
        <ele>272.6</ele>
        <time>2012-02-11T13:47:37Z</time>
      </trkpt>
      <trkpt lat="48.66971" lon="-0.52993">
        <ele>272.2</ele>
        <time>2012-02-11T13:47:38Z</time>
      </trkpt>
      <trkpt lat="48.66975" lon="-0.52999">
        <ele>271.9</ele>
        <time>2012-02-11T13:47:39Z</time>
      </trkpt>
      <trkpt lat="48.66978" lon="-0.53005">
        <ele>271.6</ele>
        <time>2012-02-11T13:47:40Z</time>
      </trkpt>
      <trkpt lat="48.66982" lon="-0.53011">
        <ele>271.1</ele>
        <time>2012-02-11T13:47:41Z</time>
      </trkpt>
      <trkpt lat="48.66986" lon="-0.53017">
        <ele>270.7</ele>
        <time>2012-02-11T13:47:42Z</time>
      </trkpt>
      <trkpt lat="48.6699" lon="-0.53024">
        <ele>270.6</ele>
        <time>2012-02-11T13:47:43Z</time>
      </trkpt>
      <trkpt lat="48.66995" lon="-0.5303">
        <ele>270.5</ele>
        <time>2012-02-11T13:47:44Z</time>
      </trkpt>
      <trkpt lat="48.66999" lon="-0.53036">
        <ele>270.4</ele>
        <time>2012-02-11T13:47:45Z</time>
      </trkpt>
      <trkpt lat="48.67002" lon="-0.53043">
        <ele>269.6</ele>
        <time>2012-02-11T13:47:46Z</time>
      </trkpt>
      <trkpt lat="48.67006" lon="-0.53049">
        <ele>269.1</ele>
        <time>2012-02-11T13:47:47Z</time>
      </trkpt>
      <trkpt lat="48.67011" lon="-0.53058">
        <ele>267.5</ele>
        <time>2012-02-11T13:47:49Z</time>
      </trkpt>
      <trkpt lat="48.67016" lon="-0.53067">
        <ele>266.5</ele>
        <time>2012-02-11T13:47:52Z</time>
      </trkpt>
      <trkpt lat="48.67022" lon="-0.53075">
        <ele>265.9</ele>
        <time>2012-02-11T13:47:55Z</time>
      </trkpt>
      <trkpt lat="48.67029" lon="-0.53082">
        <ele>265.4</ele>
        <time>2012-02-11T13:47:58Z</time>
      </trkpt>
      <trkpt lat="48.67034" lon="-0.53091">
        <ele>264.1</ele>
        <time>2012-02-11T13:48:02Z</time>
      </trkpt>
      <trkpt lat="48.67035" lon="-0.53093">
        <ele>263.9</ele>
        <time>2012-02-11T13:48:03Z</time>
      </trkpt>
      <trkpt lat="48.67046" lon="-0.53109">
        <ele>263.7</ele>
        <time>2012-02-11T13:48:32Z</time>
      </trkpt>
      <trkpt lat="48.67049" lon="-0.53118">
        <ele>263.9</ele>
        <time>2012-02-11T13:48:37Z</time>
      </trkpt>
      <trkpt lat="48.67054" lon="-0.53127">
        <ele>263</ele>
        <time>2012-02-11T13:48:40Z</time>
      </trkpt>
      <trkpt lat="48.67059" lon="-0.53133">
        <ele>262.4</ele>
        <time>2012-02-11T13:48:42Z</time>
      </trkpt>
      <trkpt lat="48.67064" lon="-0.53141">
        <ele>262.8</ele>
        <time>2012-02-11T13:48:44Z</time>
      </trkpt>
      <trkpt lat="48.67069" lon="-0.5315">
        <ele>262.3</ele>
        <time>2012-02-11T13:48:46Z</time>
      </trkpt>
      <trkpt lat="48.67075" lon="-0.53159">
        <ele>261.7</ele>
        <time>2012-02-11T13:48:48Z</time>
      </trkpt>
      <trkpt lat="48.6708" lon="-0.53167">
        <ele>261.7</ele>
        <time>2012-02-11T13:48:50Z</time>
      </trkpt>
      <trkpt lat="48.67086" lon="-0.53176">
        <ele>261.8</ele>
        <time>2012-02-11T13:48:52Z</time>
      </trkpt>
      <trkpt lat="48.67091" lon="-0.53186">
        <ele>261.7</ele>
        <time>2012-02-11T13:48:54Z</time>
      </trkpt>
      <trkpt lat="48.67096" lon="-0.53195">
        <ele>261.7</ele>
        <time>2012-02-11T13:48:56Z</time>
      </trkpt>
      <trkpt lat="48.67101" lon="-0.53206">
        <ele>261</ele>
        <time>2012-02-11T13:48:58Z</time>
      </trkpt>
      <trkpt lat="48.67106" lon="-0.53217">
        <ele>260.5</ele>
        <time>2012-02-11T13:49:00Z</time>
      </trkpt>
      <trkpt lat="48.6711" lon="-0.53227">
        <ele>260.2</ele>
        <time>2012-02-11T13:49:02Z</time>
      </trkpt>
      <trkpt lat="48.67115" lon="-0.53237">
        <ele>260.2</ele>
        <time>2012-02-11T13:49:04Z</time>
      </trkpt>
      <trkpt lat="48.67118" lon="-0.53242">
        <ele>260.3</ele>
        <time>2012-02-11T13:49:05Z</time>
      </trkpt>
      <trkpt lat="48.67125" lon="-0.53256">
        <ele>259.4</ele>
        <time>2012-02-11T13:49:08Z</time>
      </trkpt>
      <trkpt lat="48.6713" lon="-0.53266">
        <ele>259.4</ele>
        <time>2012-02-11T13:49:10Z</time>
      </trkpt>
      <trkpt lat="48.67135" lon="-0.53275">
        <ele>259.4</ele>
        <time>2012-02-11T13:49:12Z</time>
      </trkpt>
      <trkpt lat="48.67141" lon="-0.53284">
        <ele>258.5</ele>
        <time>2012-02-11T13:49:15Z</time>
      </trkpt>
      <trkpt lat="48.67145" lon="-0.53292">
        <ele>258</ele>
        <time>2012-02-11T13:49:18Z</time>
      </trkpt>
      <trkpt lat="48.6715" lon="-0.53301">
        <ele>257.4</ele>
        <time>2012-02-11T13:49:21Z</time>
      </trkpt>
      <trkpt lat="48.67155" lon="-0.5331">
        <ele>257.3</ele>
        <time>2012-02-11T13:49:24Z</time>
      </trkpt>
      <trkpt lat="48.67159" lon="-0.53318">
        <ele>257.1</ele>
        <time>2012-02-11T13:49:27Z</time>
      </trkpt>
      <trkpt lat="48.67164" lon="-0.53327">
        <ele>257.2</ele>
        <time>2012-02-11T13:49:30Z</time>
      </trkpt>
      <trkpt lat="48.67169" lon="-0.53336">
        <ele>256.6</ele>
        <time>2012-02-11T13:49:33Z</time>
      </trkpt>
      <trkpt lat="48.67174" lon="-0.53345">
        <ele>256.5</ele>
        <time>2012-02-11T13:49:36Z</time>
      </trkpt>
      <trkpt lat="48.67179" lon="-0.53356">
        <ele>255.8</ele>
        <time>2012-02-11T13:49:40Z</time>
      </trkpt>
      <trkpt lat="48.67182" lon="-0.53368">
        <ele>256.4</ele>
        <time>2012-02-11T13:49:43Z</time>
      </trkpt>
      <trkpt lat="48.67185" lon="-0.53376">
        <ele>256</ele>
        <time>2012-02-11T13:49:45Z</time>
      </trkpt>
      <trkpt lat="48.67188" lon="-0.53385">
        <ele>255.9</ele>
        <time>2012-02-11T13:49:47Z</time>
      </trkpt>
      <trkpt lat="48.67191" lon="-0.53394">
        <ele>256</ele>
        <time>2012-02-11T13:49:49Z</time>
      </trkpt>
      <trkpt lat="48.67194" lon="-0.53404">
        <ele>256.2</ele>
        <time>2012-02-11T13:49:51Z</time>
      </trkpt>
      <trkpt lat="48.67198" lon="-0.53414">
        <ele>256.1</ele>
        <time>2012-02-11T13:49:53Z</time>
      </trkpt>
      <trkpt lat="48.67203" lon="-0.53422">
        <ele>255.4</ele>
        <time>2012-02-11T13:49:55Z</time>
      </trkpt>
      <trkpt lat="48.6721" lon="-0.53428">
        <ele>254.9</ele>
        <time>2012-02-11T13:49:57Z</time>
      </trkpt>
      <trkpt lat="48.67217" lon="-0.53433">
        <ele>254.4</ele>
        <time>2012-02-11T13:49:59Z</time>
      </trkpt>
      <trkpt lat="48.67224" lon="-0.53439">
        <ele>254.2</ele>
        <time>2012-02-11T13:50:01Z</time>
      </trkpt>
      <trkpt lat="48.6723" lon="-0.53445">
        <ele>253.4</ele>
        <time>2012-02-11T13:50:04Z</time>
      </trkpt>
      <trkpt lat="48.67237" lon="-0.53453">
        <ele>252.5</ele>
        <time>2012-02-11T13:50:08Z</time>
      </trkpt>
      <trkpt lat="48.67239" lon="-0.53455">
        <ele>252.4</ele>
        <time>2012-02-11T13:50:09Z</time>
      </trkpt>
      <trkpt lat="48.67249" lon="-0.53469">
        <ele>252.3</ele>
        <time>2012-02-11T13:50:14Z</time>
      </trkpt>
      <trkpt lat="48.67253" lon="-0.53478">
        <ele>252.1</ele>
        <time>2012-02-11T13:50:18Z</time>
      </trkpt>
      <trkpt lat="48.67259" lon="-0.53487">
        <ele>252</ele>
        <time>2012-02-11T13:50:35Z</time>
      </trkpt>
      <trkpt lat="48.67265" lon="-0.53495">
        <ele>251.9</ele>
        <time>2012-02-11T13:50:41Z</time>
      </trkpt>
      <trkpt lat="48.6727" lon="-0.53503">
        <ele>251.6</ele>
        <time>2012-02-11T13:50:44Z</time>
      </trkpt>
      <trkpt lat="48.67275" lon="-0.5351">
        <ele>251.7</ele>
        <time>2012-02-11T13:50:47Z</time>
      </trkpt>
      <trkpt lat="48.67281" lon="-0.53519">
        <ele>252.7</ele>
        <time>2012-02-11T13:50:50Z</time>
      </trkpt>
      <trkpt lat="48.67287" lon="-0.53529">
        <ele>252.5</ele>
        <time>2012-02-11T13:50:53Z</time>
      </trkpt>
      <trkpt lat="48.67291" lon="-0.53536">
        <ele>252.7</ele>
        <time>2012-02-11T13:50:55Z</time>
      </trkpt>
      <trkpt lat="48.67295" lon="-0.53543">
        <ele>252.6</ele>
        <time>2012-02-11T13:50:57Z</time>
      </trkpt>
      <trkpt lat="48.673" lon="-0.53549">
        <ele>252.9</ele>
        <time>2012-02-11T13:50:59Z</time>
      </trkpt>
      <trkpt lat="48.67304" lon="-0.53556">
        <ele>252.3</ele>
        <time>2012-02-11T13:51:01Z</time>
      </trkpt>
      <trkpt lat="48.67309" lon="-0.53564">
        <ele>251.9</ele>
        <time>2012-02-11T13:51:03Z</time>
      </trkpt>
      <trkpt lat="48.67313" lon="-0.53572">
        <ele>251.6</ele>
        <time>2012-02-11T13:51:05Z</time>
      </trkpt>
      <trkpt lat="48.67317" lon="-0.5358">
        <ele>251.5</ele>
        <time>2012-02-11T13:51:07Z</time>
      </trkpt>
      <trkpt lat="48.67322" lon="-0.53589">
        <ele>251.5</ele>
        <time>2012-02-11T13:51:09Z</time>
      </trkpt>
      <trkpt lat="48.67323" lon="-0.53594">
        <ele>251.7</ele>
        <time>2012-02-11T13:51:10Z</time>
      </trkpt>
      <trkpt lat="48.67329" lon="-0.53607">
        <ele>251.9</ele>
        <time>2012-02-11T13:51:13Z</time>
      </trkpt>
      <trkpt lat="48.67333" lon="-0.53616">
        <ele>251.8</ele>
        <time>2012-02-11T13:51:15Z</time>
      </trkpt>
      <trkpt lat="48.67337" lon="-0.53625">
        <ele>251.9</ele>
        <time>2012-02-11T13:51:17Z</time>
      </trkpt>
      <trkpt lat="48.67341" lon="-0.53633">
        <ele>252</ele>
        <time>2012-02-11T13:51:19Z</time>
      </trkpt>
      <trkpt lat="48.67345" lon="-0.53642">
        <ele>252</ele>
        <time>2012-02-11T13:51:21Z</time>
      </trkpt>
      <trkpt lat="48.67349" lon="-0.53651">
        <ele>252.6</ele>
        <time>2012-02-11T13:51:23Z</time>
      </trkpt>
      <trkpt lat="48.67353" lon="-0.5366">
        <ele>252.6</ele>
        <time>2012-02-11T13:51:25Z</time>
      </trkpt>
      <trkpt lat="48.67357" lon="-0.53669">
        <ele>251.9</ele>
        <time>2012-02-11T13:51:27Z</time>
      </trkpt>
      <trkpt lat="48.67361" lon="-0.53677">
        <ele>252</ele>
        <time>2012-02-11T13:51:29Z</time>
      </trkpt>
      <trkpt lat="48.67364" lon="-0.53686">
        <ele>251.8</ele>
        <time>2012-02-11T13:51:31Z</time>
      </trkpt>
      <trkpt lat="48.67368" lon="-0.53694">
        <ele>251.9</ele>
        <time>2012-02-11T13:51:33Z</time>
      </trkpt>
      <trkpt lat="48.67372" lon="-0.53701">
        <ele>252.3</ele>
        <time>2012-02-11T13:51:35Z</time>
      </trkpt>
      <trkpt lat="48.67375" lon="-0.53709">
        <ele>252.4</ele>
        <time>2012-02-11T13:51:37Z</time>
      </trkpt>
      <trkpt lat="48.67379" lon="-0.53717">
        <ele>252.5</ele>
        <time>2012-02-11T13:51:39Z</time>
      </trkpt>
      <trkpt lat="48.67384" lon="-0.53727">
        <ele>252.2</ele>
        <time>2012-02-11T13:51:42Z</time>
      </trkpt>
      <trkpt lat="48.6739" lon="-0.53735">
        <ele>252.6</ele>
        <time>2012-02-11T13:51:44Z</time>
      </trkpt>
      <trkpt lat="48.67396" lon="-0.53744">
        <ele>253.1</ele>
        <time>2012-02-11T13:51:46Z</time>
      </trkpt>
      <trkpt lat="48.67401" lon="-0.53753">
        <ele>253.4</ele>
        <time>2012-02-11T13:51:48Z</time>
      </trkpt>
      <trkpt lat="48.67405" lon="-0.53761">
        <ele>253.4</ele>
        <time>2012-02-11T13:51:50Z</time>
      </trkpt>
      <trkpt lat="48.6741" lon="-0.5377">
        <ele>253.4</ele>
        <time>2012-02-11T13:51:52Z</time>
      </trkpt>
      <trkpt lat="48.67415" lon="-0.53779">
        <ele>253.5</ele>
        <time>2012-02-11T13:51:54Z</time>
      </trkpt>
      <trkpt lat="48.67418" lon="-0.53789">
        <ele>253.4</ele>
        <time>2012-02-11T13:51:56Z</time>
      </trkpt>
      <trkpt lat="48.67422" lon="-0.53798">
        <ele>254.1</ele>
        <time>2012-02-11T13:51:58Z</time>
      </trkpt>
      <trkpt lat="48.67426" lon="-0.53807">
        <ele>254.6</ele>
        <time>2012-02-11T13:52:00Z</time>
      </trkpt>
      <trkpt lat="48.67431" lon="-0.53815">
        <ele>254.9</ele>
        <time>2012-02-11T13:52:02Z</time>
      </trkpt>
      <trkpt lat="48.67435" lon="-0.53823">
        <ele>254.8</ele>
        <time>2012-02-11T13:52:04Z</time>
      </trkpt>
      <trkpt lat="48.6744" lon="-0.53831">
        <ele>254.7</ele>
        <time>2012-02-11T13:52:06Z</time>
      </trkpt>
      <trkpt lat="48.67444" lon="-0.53839">
        <ele>254.6</ele>
        <time>2012-02-11T13:52:08Z</time>
      </trkpt>
      <trkpt lat="48.67448" lon="-0.53846">
        <ele>255</ele>
        <time>2012-02-11T13:52:10Z</time>
      </trkpt>
      <trkpt lat="48.6745" lon="-0.53849">
        <ele>255.2</ele>
        <time>2012-02-11T13:52:11Z</time>
      </trkpt>
      <trkpt lat="48.67457" lon="-0.53859">
        <ele>255.8</ele>
        <time>2012-02-11T13:52:14Z</time>
      </trkpt>
      <trkpt lat="48.67461" lon="-0.53866">
        <ele>256.3</ele>
        <time>2012-02-11T13:52:16Z</time>
      </trkpt>
      <trkpt lat="48.67466" lon="-0.53874">
        <ele>256.6</ele>
        <time>2012-02-11T13:52:18Z</time>
      </trkpt>
      <trkpt lat="48.67471" lon="-0.53882">
        <ele>256.3</ele>
        <time>2012-02-11T13:52:20Z</time>
      </trkpt>
      <trkpt lat="48.67477" lon="-0.53892">
        <ele>256.8</ele>
        <time>2012-02-11T13:52:23Z</time>
      </trkpt>
      <trkpt lat="48.67482" lon="-0.53899">
        <ele>256.7</ele>
        <time>2012-02-11T13:52:25Z</time>
      </trkpt>
      <trkpt lat="48.67486" lon="-0.53906">
        <ele>256.4</ele>
        <time>2012-02-11T13:52:27Z</time>
      </trkpt>
      <trkpt lat="48.67491" lon="-0.53914">
        <ele>256.8</ele>
        <time>2012-02-11T13:52:29Z</time>
      </trkpt>
      <trkpt lat="48.67496" lon="-0.53922">
        <ele>257.3</ele>
        <time>2012-02-11T13:52:31Z</time>
      </trkpt>
      <trkpt lat="48.675" lon="-0.53931">
        <ele>257.4</ele>
        <time>2012-02-11T13:52:33Z</time>
      </trkpt>
      <trkpt lat="48.67504" lon="-0.53939">
        <ele>257.6</ele>
        <time>2012-02-11T13:52:35Z</time>
      </trkpt>
      <trkpt lat="48.67508" lon="-0.53947">
        <ele>257.8</ele>
        <time>2012-02-11T13:52:37Z</time>
      </trkpt>
      <trkpt lat="48.67512" lon="-0.53956">
        <ele>257.5</ele>
        <time>2012-02-11T13:52:39Z</time>
      </trkpt>
      <trkpt lat="48.67516" lon="-0.53965">
        <ele>257.7</ele>
        <time>2012-02-11T13:52:41Z</time>
      </trkpt>
      <trkpt lat="48.67521" lon="-0.53974">
        <ele>257.8</ele>
        <time>2012-02-11T13:52:43Z</time>
      </trkpt>
      <trkpt lat="48.67526" lon="-0.53983">
        <ele>257.8</ele>
        <time>2012-02-11T13:52:45Z</time>
      </trkpt>
      <trkpt lat="48.6753" lon="-0.53991">
        <ele>257.8</ele>
        <time>2012-02-11T13:52:47Z</time>
      </trkpt>
      <trkpt lat="48.67535" lon="-0.54">
        <ele>258.3</ele>
        <time>2012-02-11T13:52:50Z</time>
      </trkpt>
      <trkpt lat="48.67541" lon="-0.54011">
        <ele>256.8</ele>
        <time>2012-02-11T13:53:07Z</time>
      </trkpt>
      <trkpt lat="48.67545" lon="-0.54023">
        <ele>257.9</ele>
        <time>2012-02-11T13:55:33Z</time>
      </trkpt>
      <trkpt lat="48.67545" lon="-0.54023">
        <ele>257.7</ele>
        <time>2012-02-11T13:55:34Z</time>
      </trkpt>
      <trkpt lat="48.67555" lon="-0.5404">
        <ele>257.3</ele>
        <time>2012-02-11T13:56:28Z</time>
      </trkpt>
      <trkpt lat="48.67559" lon="-0.54047">
        <ele>257.2</ele>
        <time>2012-02-11T13:56:31Z</time>
      </trkpt>
      <trkpt lat="48.67564" lon="-0.54055">
        <ele>257.6</ele>
        <time>2012-02-11T13:56:34Z</time>
      </trkpt>
      <trkpt lat="48.67566" lon="-0.54057">
        <ele>257.3</ele>
        <time>2012-02-11T13:56:35Z</time>
      </trkpt>
      <trkpt lat="48.67573" lon="-0.54072">
        <ele>258.2</ele>
        <time>2012-02-11T13:56:40Z</time>
      </trkpt>
      <trkpt lat="48.67578" lon="-0.54081">
        <ele>258</ele>
        <time>2012-02-11T13:56:43Z</time>
      </trkpt>
      <trkpt lat="48.67582" lon="-0.54087">
        <ele>257.8</ele>
        <time>2012-02-11T13:56:45Z</time>
      </trkpt>
      <trkpt lat="48.67588" lon="-0.54098">
        <ele>257.4</ele>
        <time>2012-02-11T13:56:48Z</time>
      </trkpt>
      <trkpt lat="48.67594" lon="-0.54108">
        <ele>258.1</ele>
        <time>2012-02-11T13:56:51Z</time>
      </trkpt>
      <trkpt lat="48.67598" lon="-0.54116">
        <ele>258.4</ele>
        <time>2012-02-11T13:56:53Z</time>
      </trkpt>
      <trkpt lat="48.67602" lon="-0.54124">
        <ele>258.3</ele>
        <time>2012-02-11T13:56:55Z</time>
      </trkpt>
      <trkpt lat="48.67606" lon="-0.54131">
        <ele>259</ele>
        <time>2012-02-11T13:56:57Z</time>
      </trkpt>
      <trkpt lat="48.6761" lon="-0.54138">
        <ele>259.5</ele>
        <time>2012-02-11T13:56:59Z</time>
      </trkpt>
      <trkpt lat="48.67614" lon="-0.54146">
        <ele>259.6</ele>
        <time>2012-02-11T13:57:01Z</time>
      </trkpt>
      <trkpt lat="48.67619" lon="-0.54153">
        <ele>259.7</ele>
        <time>2012-02-11T13:57:03Z</time>
      </trkpt>
      <trkpt lat="48.67624" lon="-0.5416">
        <ele>259.8</ele>
        <time>2012-02-11T13:57:05Z</time>
      </trkpt>
      <trkpt lat="48.67628" lon="-0.54168">
        <ele>259.6</ele>
        <time>2012-02-11T13:57:07Z</time>
      </trkpt>
      <trkpt lat="48.67633" lon="-0.54176">
        <ele>259.6</ele>
        <time>2012-02-11T13:57:09Z</time>
      </trkpt>
      <trkpt lat="48.67638" lon="-0.54185">
        <ele>260</ele>
        <time>2012-02-11T13:57:11Z</time>
      </trkpt>
      <trkpt lat="48.67643" lon="-0.54193">
        <ele>260</ele>
        <time>2012-02-11T13:57:13Z</time>
      </trkpt>
      <trkpt lat="48.67647" lon="-0.542">
        <ele>259.7</ele>
        <time>2012-02-11T13:57:15Z</time>
      </trkpt>
      <trkpt lat="48.67652" lon="-0.54209">
        <ele>259.8</ele>
        <time>2012-02-11T13:57:17Z</time>
      </trkpt>
      <trkpt lat="48.67656" lon="-0.54217">
        <ele>260.1</ele>
        <time>2012-02-11T13:57:19Z</time>
      </trkpt>
      <trkpt lat="48.67661" lon="-0.54224">
        <ele>260.7</ele>
        <time>2012-02-11T13:57:21Z</time>
      </trkpt>
      <trkpt lat="48.67667" lon="-0.54233">
        <ele>260.8</ele>
        <time>2012-02-11T13:57:23Z</time>
      </trkpt>
      <trkpt lat="48.67672" lon="-0.54241">
        <ele>260.9</ele>
        <time>2012-02-11T13:57:25Z</time>
      </trkpt>
      <trkpt lat="48.67676" lon="-0.54249">
        <ele>260.8</ele>
        <time>2012-02-11T13:57:27Z</time>
      </trkpt>
      <trkpt lat="48.67681" lon="-0.54258">
        <ele>260.8</ele>
        <time>2012-02-11T13:57:29Z</time>
      </trkpt>
      <trkpt lat="48.67686" lon="-0.54267">
        <ele>261.1</ele>
        <time>2012-02-11T13:57:31Z</time>
      </trkpt>
      <trkpt lat="48.67691" lon="-0.54277">
        <ele>261.1</ele>
        <time>2012-02-11T13:57:33Z</time>
      </trkpt>
      <trkpt lat="48.67695" lon="-0.54285">
        <ele>261.5</ele>
        <time>2012-02-11T13:57:35Z</time>
      </trkpt>
      <trkpt lat="48.67697" lon="-0.54289">
        <ele>261</ele>
        <time>2012-02-11T13:57:36Z</time>
      </trkpt>
      <trkpt lat="48.67703" lon="-0.54304">
        <ele>260.8</ele>
        <time>2012-02-11T13:57:39Z</time>
      </trkpt>
      <trkpt lat="48.67708" lon="-0.54315">
        <ele>260.9</ele>
        <time>2012-02-11T13:57:41Z</time>
      </trkpt>
      <trkpt lat="48.67711" lon="-0.54326">
        <ele>260.7</ele>
        <time>2012-02-11T13:57:43Z</time>
      </trkpt>
      <trkpt lat="48.67715" lon="-0.54337">
        <ele>260.8</ele>
        <time>2012-02-11T13:57:45Z</time>
      </trkpt>
      <trkpt lat="48.67718" lon="-0.54348">
        <ele>260.9</ele>
        <time>2012-02-11T13:57:47Z</time>
      </trkpt>
      <trkpt lat="48.67722" lon="-0.5436">
        <ele>260.9</ele>
        <time>2012-02-11T13:57:49Z</time>
      </trkpt>
      <trkpt lat="48.67725" lon="-0.54371">
        <ele>260.5</ele>
        <time>2012-02-11T13:57:51Z</time>
      </trkpt>
      <trkpt lat="48.67729" lon="-0.54381">
        <ele>260.7</ele>
        <time>2012-02-11T13:57:53Z</time>
      </trkpt>
      <trkpt lat="48.67732" lon="-0.54391">
        <ele>260.6</ele>
        <time>2012-02-11T13:57:55Z</time>
      </trkpt>
      <trkpt lat="48.67736" lon="-0.54401">
        <ele>260.1</ele>
        <time>2012-02-11T13:57:57Z</time>
      </trkpt>
      <trkpt lat="48.6774" lon="-0.54409">
        <ele>260.4</ele>
        <time>2012-02-11T13:57:59Z</time>
      </trkpt>
      <trkpt lat="48.67744" lon="-0.54416">
        <ele>260.2</ele>
        <time>2012-02-11T13:58:01Z</time>
      </trkpt>
      <trkpt lat="48.67749" lon="-0.54423">
        <ele>260.2</ele>
        <time>2012-02-11T13:58:03Z</time>
      </trkpt>
      <trkpt lat="48.67753" lon="-0.5443">
        <ele>260.3</ele>
        <time>2012-02-11T13:58:05Z</time>
      </trkpt>
      <trkpt lat="48.67757" lon="-0.54436">
        <ele>260.2</ele>
        <time>2012-02-11T13:58:07Z</time>
      </trkpt>
      <trkpt lat="48.67762" lon="-0.54443">
        <ele>260.1</ele>
        <time>2012-02-11T13:58:09Z</time>
      </trkpt>
      <trkpt lat="48.67767" lon="-0.5445">
        <ele>260.1</ele>
        <time>2012-02-11T13:58:11Z</time>
      </trkpt>
      <trkpt lat="48.67771" lon="-0.54457">
        <ele>259.6</ele>
        <time>2012-02-11T13:58:13Z</time>
      </trkpt>
      <trkpt lat="48.67777" lon="-0.54464">
        <ele>260</ele>
        <time>2012-02-11T13:58:15Z</time>
      </trkpt>
      <trkpt lat="48.67781" lon="-0.5447">
        <ele>260.2</ele>
        <time>2012-02-11T13:58:17Z</time>
      </trkpt>
      <trkpt lat="48.67786" lon="-0.54477">
        <ele>260.3</ele>
        <time>2012-02-11T13:58:19Z</time>
      </trkpt>
      <trkpt lat="48.67791" lon="-0.54485">
        <ele>260.3</ele>
        <time>2012-02-11T13:58:21Z</time>
      </trkpt>
      <trkpt lat="48.67796" lon="-0.54493">
        <ele>260.3</ele>
        <time>2012-02-11T13:58:23Z</time>
      </trkpt>
      <trkpt lat="48.67801" lon="-0.54502">
        <ele>260.1</ele>
        <time>2012-02-11T13:58:25Z</time>
      </trkpt>
      <trkpt lat="48.67806" lon="-0.54509">
        <ele>259.3</ele>
        <time>2012-02-11T13:58:27Z</time>
      </trkpt>
      <trkpt lat="48.67812" lon="-0.54517">
        <ele>259.3</ele>
        <time>2012-02-11T13:58:29Z</time>
      </trkpt>
      <trkpt lat="48.67818" lon="-0.54523">
        <ele>259.2</ele>
        <time>2012-02-11T13:58:31Z</time>
      </trkpt>
      <trkpt lat="48.67825" lon="-0.54528">
        <ele>258.7</ele>
        <time>2012-02-11T13:58:33Z</time>
      </trkpt>
      <trkpt lat="48.67831" lon="-0.54533">
        <ele>258.2</ele>
        <time>2012-02-11T13:58:35Z</time>
      </trkpt>
      <trkpt lat="48.67837" lon="-0.5454">
        <ele>258</ele>
        <time>2012-02-11T13:58:37Z</time>
      </trkpt>
      <trkpt lat="48.6784" lon="-0.54545">
        <ele>257.9</ele>
        <time>2012-02-11T13:58:38Z</time>
      </trkpt>
      <trkpt lat="48.67849" lon="-0.5456">
        <ele>257.7</ele>
        <time>2012-02-11T13:58:41Z</time>
      </trkpt>
      <trkpt lat="48.67853" lon="-0.5457">
        <ele>257.5</ele>
        <time>2012-02-11T13:58:43Z</time>
      </trkpt>
      <trkpt lat="48.67856" lon="-0.54576">
        <ele>257.4</ele>
        <time>2012-02-11T13:58:44Z</time>
      </trkpt>
      <trkpt lat="48.6786" lon="-0.54581">
        <ele>257.2</ele>
        <time>2012-02-11T13:58:45Z</time>
      </trkpt>
      <trkpt lat="48.67863" lon="-0.54586">
        <ele>256.9</ele>
        <time>2012-02-11T13:58:46Z</time>
      </trkpt>
      <trkpt lat="48.67867" lon="-0.54591">
        <ele>256.8</ele>
        <time>2012-02-11T13:58:47Z</time>
      </trkpt>
      <trkpt lat="48.67871" lon="-0.54597">
        <ele>256.4</ele>
        <time>2012-02-11T13:58:48Z</time>
      </trkpt>
      <trkpt lat="48.67875" lon="-0.54602">
        <ele>256.1</ele>
        <time>2012-02-11T13:58:49Z</time>
      </trkpt>
      <trkpt lat="48.67879" lon="-0.54608">
        <ele>255.9</ele>
        <time>2012-02-11T13:58:50Z</time>
      </trkpt>
      <trkpt lat="48.67883" lon="-0.54612">
        <ele>255.7</ele>
        <time>2012-02-11T13:58:51Z</time>
      </trkpt>
      <trkpt lat="48.67887" lon="-0.54617">
        <ele>255.4</ele>
        <time>2012-02-11T13:58:52Z</time>
      </trkpt>
      <trkpt lat="48.67891" lon="-0.54622">
        <ele>255.1</ele>
        <time>2012-02-11T13:58:53Z</time>
      </trkpt>
      <trkpt lat="48.67895" lon="-0.54628">
        <ele>255</ele>
        <time>2012-02-11T13:58:54Z</time>
      </trkpt>
      <trkpt lat="48.67899" lon="-0.54633">
        <ele>254.6</ele>
        <time>2012-02-11T13:58:55Z</time>
      </trkpt>
      <trkpt lat="48.67905" lon="-0.54642">
        <ele>254.1</ele>
        <time>2012-02-11T13:58:57Z</time>
      </trkpt>
      <trkpt lat="48.6791" lon="-0.5465">
        <ele>253.7</ele>
        <time>2012-02-11T13:58:59Z</time>
      </trkpt>
      <trkpt lat="48.67914" lon="-0.54659">
        <ele>253.7</ele>
        <time>2012-02-11T13:59:01Z</time>
      </trkpt>
      <trkpt lat="48.67916" lon="-0.54666">
        <ele>253</ele>
        <time>2012-02-11T13:59:02Z</time>
      </trkpt>
      <trkpt lat="48.67919" lon="-0.54672">
        <ele>252.6</ele>
        <time>2012-02-11T13:59:03Z</time>
      </trkpt>
      <trkpt lat="48.67922" lon="-0.54679">
        <ele>252.7</ele>
        <time>2012-02-11T13:59:04Z</time>
      </trkpt>
      <trkpt lat="48.67926" lon="-0.54685">
        <ele>252.9</ele>
        <time>2012-02-11T13:59:05Z</time>
      </trkpt>
      <trkpt lat="48.6793" lon="-0.54692">
        <ele>253</ele>
        <time>2012-02-11T13:59:06Z</time>
      </trkpt>
      <trkpt lat="48.67933" lon="-0.54697">
        <ele>252.4</ele>
        <time>2012-02-11T13:59:07Z</time>
      </trkpt>
      <trkpt lat="48.67937" lon="-0.54702">
        <ele>251.9</ele>
        <time>2012-02-11T13:59:08Z</time>
      </trkpt>
      <trkpt lat="48.67941" lon="-0.54707">
        <ele>251.7</ele>
        <time>2012-02-11T13:59:09Z</time>
      </trkpt>
      <trkpt lat="48.67946" lon="-0.54712">
        <ele>251.5</ele>
        <time>2012-02-11T13:59:10Z</time>
      </trkpt>
      <trkpt lat="48.6795" lon="-0.54717">
        <ele>251.7</ele>
        <time>2012-02-11T13:59:11Z</time>
      </trkpt>
      <trkpt lat="48.67954" lon="-0.54722">
        <ele>251.8</ele>
        <time>2012-02-11T13:59:12Z</time>
      </trkpt>
      <trkpt lat="48.67959" lon="-0.54727">
        <ele>251.9</ele>
        <time>2012-02-11T13:59:13Z</time>
      </trkpt>
      <trkpt lat="48.67963" lon="-0.54732">
        <ele>251.6</ele>
        <time>2012-02-11T13:59:14Z</time>
      </trkpt>
      <trkpt lat="48.67968" lon="-0.54737">
        <ele>251.3</ele>
        <time>2012-02-11T13:59:15Z</time>
      </trkpt>
      <trkpt lat="48.67972" lon="-0.54742">
        <ele>251</ele>
        <time>2012-02-11T13:59:16Z</time>
      </trkpt>
      <trkpt lat="48.67976" lon="-0.54747">
        <ele>250.7</ele>
        <time>2012-02-11T13:59:17Z</time>
      </trkpt>
      <trkpt lat="48.67981" lon="-0.54752">
        <ele>250.6</ele>
        <time>2012-02-11T13:59:18Z</time>
      </trkpt>
      <trkpt lat="48.67985" lon="-0.54757">
        <ele>250.6</ele>
        <time>2012-02-11T13:59:19Z</time>
      </trkpt>
      <trkpt lat="48.6799" lon="-0.54763">
        <ele>250.5</ele>
        <time>2012-02-11T13:59:20Z</time>
      </trkpt>
      <trkpt lat="48.67994" lon="-0.54768">
        <ele>250.3</ele>
        <time>2012-02-11T13:59:21Z</time>
      </trkpt>
      <trkpt lat="48.67997" lon="-0.54774">
        <ele>250.2</ele>
        <time>2012-02-11T13:59:22Z</time>
      </trkpt>
      <trkpt lat="48.68002" lon="-0.54779">
        <ele>250.3</ele>
        <time>2012-02-11T13:59:23Z</time>
      </trkpt>
      <trkpt lat="48.68005" lon="-0.54785">
        <ele>250.4</ele>
        <time>2012-02-11T13:59:24Z</time>
      </trkpt>
      <trkpt lat="48.68009" lon="-0.54791">
        <ele>250.4</ele>
        <time>2012-02-11T13:59:25Z</time>
      </trkpt>
      <trkpt lat="48.68013" lon="-0.54797">
        <ele>250.2</ele>
        <time>2012-02-11T13:59:26Z</time>
      </trkpt>
      <trkpt lat="48.68017" lon="-0.54802">
        <ele>250.1</ele>
        <time>2012-02-11T13:59:27Z</time>
      </trkpt>
      <trkpt lat="48.68023" lon="-0.54812">
        <ele>249.8</ele>
        <time>2012-02-11T13:59:29Z</time>
      </trkpt>
      <trkpt lat="48.68029" lon="-0.54822">
        <ele>249.8</ele>
        <time>2012-02-11T13:59:31Z</time>
      </trkpt>
      <trkpt lat="48.68032" lon="-0.54827">
        <ele>249.8</ele>
        <time>2012-02-11T13:59:32Z</time>
      </trkpt>
      <trkpt lat="48.68035" lon="-0.54833">
        <ele>249.8</ele>
        <time>2012-02-11T13:59:33Z</time>
      </trkpt>
      <trkpt lat="48.68038" lon="-0.54839">
        <ele>249.8</ele>
        <time>2012-02-11T13:59:34Z</time>
      </trkpt>
      <trkpt lat="48.68041" lon="-0.54844">
        <ele>249.5</ele>
        <time>2012-02-11T13:59:35Z</time>
      </trkpt>
      <trkpt lat="48.68047" lon="-0.54854">
        <ele>249.5</ele>
        <time>2012-02-11T13:59:37Z</time>
      </trkpt>
      <trkpt lat="48.68052" lon="-0.54864">
        <ele>249.8</ele>
        <time>2012-02-11T13:59:39Z</time>
      </trkpt>
      <trkpt lat="48.68056" lon="-0.54869">
        <ele>249.8</ele>
        <time>2012-02-11T13:59:40Z</time>
      </trkpt>
      <trkpt lat="48.68059" lon="-0.54873">
        <ele>249.7</ele>
        <time>2012-02-11T13:59:41Z</time>
      </trkpt>
      <trkpt lat="48.68065" lon="-0.54883">
        <ele>249.7</ele>
        <time>2012-02-11T13:59:43Z</time>
      </trkpt>
      <trkpt lat="48.68072" lon="-0.54891">
        <ele>249.9</ele>
        <time>2012-02-11T13:59:45Z</time>
      </trkpt>
      <trkpt lat="48.68078" lon="-0.54899">
        <ele>250</ele>
        <time>2012-02-11T13:59:47Z</time>
      </trkpt>
      <trkpt lat="48.68084" lon="-0.54907">
        <ele>249.9</ele>
        <time>2012-02-11T13:59:49Z</time>
      </trkpt>
      <trkpt lat="48.68089" lon="-0.54915">
        <ele>249.7</ele>
        <time>2012-02-11T13:59:51Z</time>
      </trkpt>
      <trkpt lat="48.68095" lon="-0.54923">
        <ele>249.9</ele>
        <time>2012-02-11T13:59:53Z</time>
      </trkpt>
      <trkpt lat="48.68101" lon="-0.54931">
        <ele>250</ele>
        <time>2012-02-11T13:59:55Z</time>
      </trkpt>
      <trkpt lat="48.68106" lon="-0.54939">
        <ele>250.1</ele>
        <time>2012-02-11T13:59:57Z</time>
      </trkpt>
      <trkpt lat="48.68112" lon="-0.54947">
        <ele>250.5</ele>
        <time>2012-02-11T13:59:59Z</time>
      </trkpt>
      <trkpt lat="48.68118" lon="-0.54956">
        <ele>250.5</ele>
        <time>2012-02-11T14:00:01Z</time>
      </trkpt>
      <trkpt lat="48.68124" lon="-0.54964">
        <ele>250.2</ele>
        <time>2012-02-11T14:00:03Z</time>
      </trkpt>
      <trkpt lat="48.6813" lon="-0.54972">
        <ele>250.1</ele>
        <time>2012-02-11T14:00:05Z</time>
      </trkpt>
      <trkpt lat="48.68135" lon="-0.5498">
        <ele>250.6</ele>
        <time>2012-02-11T14:00:07Z</time>
      </trkpt>
      <trkpt lat="48.68141" lon="-0.54988">
        <ele>250.7</ele>
        <time>2012-02-11T14:00:09Z</time>
      </trkpt>
      <trkpt lat="48.68146" lon="-0.54996">
        <ele>250.7</ele>
        <time>2012-02-11T14:00:11Z</time>
      </trkpt>
      <trkpt lat="48.68152" lon="-0.55005">
        <ele>251.2</ele>
        <time>2012-02-11T14:00:13Z</time>
      </trkpt>
      <trkpt lat="48.68158" lon="-0.55014">
        <ele>251.6</ele>
        <time>2012-02-11T14:00:15Z</time>
      </trkpt>
      <trkpt lat="48.68162" lon="-0.55024">
        <ele>251.6</ele>
        <time>2012-02-11T14:00:17Z</time>
      </trkpt>
      <trkpt lat="48.68167" lon="-0.55034">
        <ele>252.1</ele>
        <time>2012-02-11T14:00:19Z</time>
      </trkpt>
      <trkpt lat="48.68171" lon="-0.55045">
        <ele>252.8</ele>
        <time>2012-02-11T14:00:21Z</time>
      </trkpt>
      <trkpt lat="48.68176" lon="-0.55055">
        <ele>253.2</ele>
        <time>2012-02-11T14:00:23Z</time>
      </trkpt>
      <trkpt lat="48.68181" lon="-0.55064">
        <ele>253.5</ele>
        <time>2012-02-11T14:00:25Z</time>
      </trkpt>
      <trkpt lat="48.68186" lon="-0.55074">
        <ele>253.9</ele>
        <time>2012-02-11T14:00:28Z</time>
      </trkpt>
      <trkpt lat="48.68191" lon="-0.55084">
        <ele>254.9</ele>
        <time>2012-02-11T14:00:32Z</time>
      </trkpt>
      <trkpt lat="48.68194" lon="-0.55091">
        <ele>255</ele>
        <time>2012-02-11T14:00:34Z</time>
      </trkpt>
      <trkpt lat="48.68198" lon="-0.55099">
        <ele>255.1</ele>
        <time>2012-02-11T14:00:36Z</time>
      </trkpt>
      <trkpt lat="48.68201" lon="-0.55106">
        <ele>255.3</ele>
        <time>2012-02-11T14:00:38Z</time>
      </trkpt>
      <trkpt lat="48.68205" lon="-0.55114">
        <ele>255.4</ele>
        <time>2012-02-11T14:00:40Z</time>
      </trkpt>
      <trkpt lat="48.68207" lon="-0.55118">
        <ele>255.5</ele>
        <time>2012-02-11T14:00:41Z</time>
      </trkpt>
      <trkpt lat="48.68213" lon="-0.5513">
        <ele>255.3</ele>
        <time>2012-02-11T14:00:44Z</time>
      </trkpt>
      <trkpt lat="48.68216" lon="-0.55138">
        <ele>255.4</ele>
        <time>2012-02-11T14:00:46Z</time>
      </trkpt>
      <trkpt lat="48.68221" lon="-0.55147">
        <ele>256</ele>
        <time>2012-02-11T14:00:48Z</time>
      </trkpt>
      <trkpt lat="48.68225" lon="-0.55155">
        <ele>255.8</ele>
        <time>2012-02-11T14:00:50Z</time>
      </trkpt>
      <trkpt lat="48.68229" lon="-0.55165">
        <ele>257.2</ele>
        <time>2012-02-11T14:00:53Z</time>
      </trkpt>
      <trkpt lat="48.68235" lon="-0.55175">
        <ele>257.9</ele>
        <time>2012-02-11T14:00:56Z</time>
      </trkpt>
      <trkpt lat="48.68239" lon="-0.55182">
        <ele>258.2</ele>
        <time>2012-02-11T14:00:58Z</time>
      </trkpt>
      <trkpt lat="48.68243" lon="-0.5519">
        <ele>258.8</ele>
        <time>2012-02-11T14:01:00Z</time>
      </trkpt>
      <trkpt lat="48.68246" lon="-0.55197">
        <ele>259.8</ele>
        <time>2012-02-11T14:01:02Z</time>
      </trkpt>
      <trkpt lat="48.6825" lon="-0.55205">
        <ele>259.8</ele>
        <time>2012-02-11T14:01:04Z</time>
      </trkpt>
      <trkpt lat="48.68253" lon="-0.55213">
        <ele>259.8</ele>
        <time>2012-02-11T14:01:06Z</time>
      </trkpt>
      <trkpt lat="48.68257" lon="-0.55222">
        <ele>260</ele>
        <time>2012-02-11T14:01:08Z</time>
      </trkpt>
      <trkpt lat="48.68259" lon="-0.55231">
        <ele>260.7</ele>
        <time>2012-02-11T14:01:10Z</time>
      </trkpt>
      <trkpt lat="48.68262" lon="-0.55241">
        <ele>261.3</ele>
        <time>2012-02-11T14:01:12Z</time>
      </trkpt>
      <trkpt lat="48.68265" lon="-0.55251">
        <ele>261.5</ele>
        <time>2012-02-11T14:01:14Z</time>
      </trkpt>
      <trkpt lat="48.68268" lon="-0.55259">
        <ele>261.7</ele>
        <time>2012-02-11T14:01:16Z</time>
      </trkpt>
      <trkpt lat="48.68272" lon="-0.55267">
        <ele>262</ele>
        <time>2012-02-11T14:01:18Z</time>
      </trkpt>
      <trkpt lat="48.68278" lon="-0.55278">
        <ele>262.7</ele>
        <time>2012-02-11T14:01:21Z</time>
      </trkpt>
      <trkpt lat="48.68281" lon="-0.55286">
        <ele>263.1</ele>
        <time>2012-02-11T14:01:23Z</time>
      </trkpt>
      <trkpt lat="48.68285" lon="-0.55294">
        <ele>263.5</ele>
        <time>2012-02-11T14:01:25Z</time>
      </trkpt>
      <trkpt lat="48.68289" lon="-0.55302">
        <ele>263.9</ele>
        <time>2012-02-11T14:01:27Z</time>
      </trkpt>
      <trkpt lat="48.68294" lon="-0.5531">
        <ele>264.2</ele>
        <time>2012-02-11T14:01:29Z</time>
      </trkpt>
      <trkpt lat="48.68298" lon="-0.55317">
        <ele>264.5</ele>
        <time>2012-02-11T14:01:31Z</time>
      </trkpt>
      <trkpt lat="48.68304" lon="-0.55326">
        <ele>264.9</ele>
        <time>2012-02-11T14:01:34Z</time>
      </trkpt>
      <trkpt lat="48.68309" lon="-0.55335">
        <ele>265.1</ele>
        <time>2012-02-11T14:01:40Z</time>
      </trkpt>
      <trkpt lat="48.68315" lon="-0.55344">
        <ele>265</ele>
        <time>2012-02-11T14:01:45Z</time>
      </trkpt>
      <trkpt lat="48.68317" lon="-0.55347">
        <ele>264.9</ele>
        <time>2012-02-11T14:01:46Z</time>
      </trkpt>
      <trkpt lat="48.68327" lon="-0.55364">
        <ele>265.5</ele>
        <time>2012-02-11T14:01:51Z</time>
      </trkpt>
      <trkpt lat="48.6833" lon="-0.55372">
        <ele>265.7</ele>
        <time>2012-02-11T14:01:53Z</time>
      </trkpt>
      <trkpt lat="48.68334" lon="-0.55382">
        <ele>266</ele>
        <time>2012-02-11T14:01:55Z</time>
      </trkpt>
      <trkpt lat="48.68337" lon="-0.55391">
        <ele>266.2</ele>
        <time>2012-02-11T14:01:57Z</time>
      </trkpt>
      <trkpt lat="48.6834" lon="-0.554">
        <ele>266.2</ele>
        <time>2012-02-11T14:01:59Z</time>
      </trkpt>
      <trkpt lat="48.68343" lon="-0.55409">
        <ele>266.1</ele>
        <time>2012-02-11T14:02:01Z</time>
      </trkpt>
      <trkpt lat="48.68346" lon="-0.55419">
        <ele>266.6</ele>
        <time>2012-02-11T14:02:03Z</time>
      </trkpt>
      <trkpt lat="48.6835" lon="-0.55429">
        <ele>266.7</ele>
        <time>2012-02-11T14:02:05Z</time>
      </trkpt>
      <trkpt lat="48.68353" lon="-0.55439">
        <ele>267.1</ele>
        <time>2012-02-11T14:02:07Z</time>
      </trkpt>
      <trkpt lat="48.68356" lon="-0.55449">
        <ele>267.6</ele>
        <time>2012-02-11T14:02:09Z</time>
      </trkpt>
      <trkpt lat="48.68359" lon="-0.55458">
        <ele>267.9</ele>
        <time>2012-02-11T14:02:11Z</time>
      </trkpt>
      <trkpt lat="48.68362" lon="-0.55467">
        <ele>268.5</ele>
        <time>2012-02-11T14:02:13Z</time>
      </trkpt>
      <trkpt lat="48.68366" lon="-0.55477">
        <ele>268.8</ele>
        <time>2012-02-11T14:02:15Z</time>
      </trkpt>
      <trkpt lat="48.68369" lon="-0.55487">
        <ele>268.8</ele>
        <time>2012-02-11T14:02:17Z</time>
      </trkpt>
      <trkpt lat="48.68371" lon="-0.55497">
        <ele>269</ele>
        <time>2012-02-11T14:02:19Z</time>
      </trkpt>
      <trkpt lat="48.68374" lon="-0.55507">
        <ele>269.1</ele>
        <time>2012-02-11T14:02:21Z</time>
      </trkpt>
      <trkpt lat="48.68377" lon="-0.55518">
        <ele>269</ele>
        <time>2012-02-11T14:02:23Z</time>
      </trkpt>
      <trkpt lat="48.68379" lon="-0.55528">
        <ele>268.2</ele>
        <time>2012-02-11T14:02:25Z</time>
      </trkpt>
      <trkpt lat="48.68382" lon="-0.55538">
        <ele>268.1</ele>
        <time>2012-02-11T14:02:27Z</time>
      </trkpt>
      <trkpt lat="48.68385" lon="-0.55548">
        <ele>268.3</ele>
        <time>2012-02-11T14:02:29Z</time>
      </trkpt>
      <trkpt lat="48.68389" lon="-0.55559">
        <ele>268.4</ele>
        <time>2012-02-11T14:02:31Z</time>
      </trkpt>
      <trkpt lat="48.68391" lon="-0.5557">
        <ele>268.2</ele>
        <time>2012-02-11T14:02:33Z</time>
      </trkpt>
      <trkpt lat="48.68393" lon="-0.55579">
        <ele>268</ele>
        <time>2012-02-11T14:02:35Z</time>
      </trkpt>
      <trkpt lat="48.68395" lon="-0.5559">
        <ele>267.9</ele>
        <time>2012-02-11T14:02:37Z</time>
      </trkpt>
      <trkpt lat="48.68397" lon="-0.55601">
        <ele>267.7</ele>
        <time>2012-02-11T14:02:39Z</time>
      </trkpt>
      <trkpt lat="48.68399" lon="-0.55612">
        <ele>267.6</ele>
        <time>2012-02-11T14:02:41Z</time>
      </trkpt>
      <trkpt lat="48.68403" lon="-0.55623">
        <ele>267.8</ele>
        <time>2012-02-11T14:02:43Z</time>
      </trkpt>
      <trkpt lat="48.68408" lon="-0.55632">
        <ele>268</ele>
        <time>2012-02-11T14:02:45Z</time>
      </trkpt>
      <trkpt lat="48.68412" lon="-0.5564">
        <ele>268.1</ele>
        <time>2012-02-11T14:02:47Z</time>
      </trkpt>
      <trkpt lat="48.68414" lon="-0.55643">
        <ele>268.2</ele>
        <time>2012-02-11T14:02:48Z</time>
      </trkpt>
      <trkpt lat="48.6842" lon="-0.55656">
        <ele>268.1</ele>
        <time>2012-02-11T14:02:51Z</time>
      </trkpt>
      <trkpt lat="48.68424" lon="-0.55664">
        <ele>268.3</ele>
        <time>2012-02-11T14:02:53Z</time>
      </trkpt>
      <trkpt lat="48.68428" lon="-0.55674">
        <ele>268</ele>
        <time>2012-02-11T14:02:55Z</time>
      </trkpt>
      <trkpt lat="48.68432" lon="-0.55683">
        <ele>267.8</ele>
        <time>2012-02-11T14:02:57Z</time>
      </trkpt>
      <trkpt lat="48.68435" lon="-0.55693">
        <ele>267.9</ele>
        <time>2012-02-11T14:02:59Z</time>
      </trkpt>
      <trkpt lat="48.68438" lon="-0.55704">
        <ele>268.2</ele>
        <time>2012-02-11T14:03:01Z</time>
      </trkpt>
      <trkpt lat="48.6844" lon="-0.55715">
        <ele>268.6</ele>
        <time>2012-02-11T14:03:03Z</time>
      </trkpt>
      <trkpt lat="48.68441" lon="-0.55726">
        <ele>268.9</ele>
        <time>2012-02-11T14:03:05Z</time>
      </trkpt>
      <trkpt lat="48.68442" lon="-0.55737">
        <ele>269.1</ele>
        <time>2012-02-11T14:03:07Z</time>
      </trkpt>
      <trkpt lat="48.68442" lon="-0.55747">
        <ele>269</ele>
        <time>2012-02-11T14:03:09Z</time>
      </trkpt>
      <trkpt lat="48.68443" lon="-0.55758">
        <ele>268.8</ele>
        <time>2012-02-11T14:03:11Z</time>
      </trkpt>
      <trkpt lat="48.68443" lon="-0.55768">
        <ele>268.6</ele>
        <time>2012-02-11T14:03:13Z</time>
      </trkpt>
      <trkpt lat="48.68443" lon="-0.55779">
        <ele>268.5</ele>
        <time>2012-02-11T14:03:15Z</time>
      </trkpt>
      <trkpt lat="48.68443" lon="-0.5579">
        <ele>268.2</ele>
        <time>2012-02-11T14:03:17Z</time>
      </trkpt>
      <trkpt lat="48.68444" lon="-0.558">
        <ele>268.2</ele>
        <time>2012-02-11T14:03:19Z</time>
      </trkpt>
      <trkpt lat="48.68443" lon="-0.55812">
        <ele>267.7</ele>
        <time>2012-02-11T14:03:21Z</time>
      </trkpt>
      <trkpt lat="48.68442" lon="-0.55822">
        <ele>266.9</ele>
        <time>2012-02-11T14:03:23Z</time>
      </trkpt>
      <trkpt lat="48.68439" lon="-0.55833">
        <ele>265.8</ele>
        <time>2012-02-11T14:03:25Z</time>
      </trkpt>
      <trkpt lat="48.68438" lon="-0.55843">
        <ele>265</ele>
        <time>2012-02-11T14:03:27Z</time>
      </trkpt>
      <trkpt lat="48.68437" lon="-0.55854">
        <ele>264.8</ele>
        <time>2012-02-11T14:03:29Z</time>
      </trkpt>
      <trkpt lat="48.68436" lon="-0.55863">
        <ele>263.9</ele>
        <time>2012-02-11T14:03:31Z</time>
      </trkpt>
      <trkpt lat="48.68434" lon="-0.55874">
        <ele>263.4</ele>
        <time>2012-02-11T14:03:33Z</time>
      </trkpt>
      <trkpt lat="48.68433" lon="-0.55886">
        <ele>262.6</ele>
        <time>2012-02-11T14:03:35Z</time>
      </trkpt>
      <trkpt lat="48.68431" lon="-0.55899">
        <ele>261.6</ele>
        <time>2012-02-11T14:03:37Z</time>
      </trkpt>
      <trkpt lat="48.68429" lon="-0.55912">
        <ele>260.8</ele>
        <time>2012-02-11T14:03:39Z</time>
      </trkpt>
      <trkpt lat="48.68426" lon="-0.55924">
        <ele>260.3</ele>
        <time>2012-02-11T14:03:41Z</time>
      </trkpt>
      <trkpt lat="48.68422" lon="-0.55935">
        <ele>259.6</ele>
        <time>2012-02-11T14:03:43Z</time>
      </trkpt>
      <trkpt lat="48.68417" lon="-0.55945">
        <ele>258.7</ele>
        <time>2012-02-11T14:03:45Z</time>
      </trkpt>
      <trkpt lat="48.68413" lon="-0.55954">
        <ele>258.1</ele>
        <time>2012-02-11T14:03:47Z</time>
      </trkpt>
      <trkpt lat="48.68409" lon="-0.55962">
        <ele>257.6</ele>
        <time>2012-02-11T14:03:49Z</time>
      </trkpt>
      <trkpt lat="48.68406" lon="-0.55965">
        <ele>257.4</ele>
        <time>2012-02-11T14:03:50Z</time>
      </trkpt>
      <trkpt lat="48.68398" lon="-0.55975">
        <ele>256.5</ele>
        <time>2012-02-11T14:03:53Z</time>
      </trkpt>
      <trkpt lat="48.68392" lon="-0.55983">
        <ele>256.8</ele>
        <time>2012-02-11T14:03:55Z</time>
      </trkpt>
      <trkpt lat="48.68385" lon="-0.55991">
        <ele>256.3</ele>
        <time>2012-02-11T14:03:57Z</time>
      </trkpt>
      <trkpt lat="48.68379" lon="-0.55999">
        <ele>255.8</ele>
        <time>2012-02-11T14:03:59Z</time>
      </trkpt>
      <trkpt lat="48.68372" lon="-0.56006">
        <ele>255.1</ele>
        <time>2012-02-11T14:04:01Z</time>
      </trkpt>
      <trkpt lat="48.68368" lon="-0.56011">
        <ele>254.7</ele>
        <time>2012-02-11T14:04:02Z</time>
      </trkpt>
      <trkpt lat="48.68365" lon="-0.56015">
        <ele>254.7</ele>
        <time>2012-02-11T14:04:03Z</time>
      </trkpt>
      <trkpt lat="48.68361" lon="-0.5602">
        <ele>254.7</ele>
        <time>2012-02-11T14:04:04Z</time>
      </trkpt>
      <trkpt lat="48.68357" lon="-0.56024">
        <ele>254.6</ele>
        <time>2012-02-11T14:04:05Z</time>
      </trkpt>
      <trkpt lat="48.68353" lon="-0.56029">
        <ele>254.2</ele>
        <time>2012-02-11T14:04:06Z</time>
      </trkpt>
      <trkpt lat="48.68349" lon="-0.56034">
        <ele>253.9</ele>
        <time>2012-02-11T14:04:07Z</time>
      </trkpt>
      <trkpt lat="48.68346" lon="-0.56039">
        <ele>253.5</ele>
        <time>2012-02-11T14:04:08Z</time>
      </trkpt>
      <trkpt lat="48.68343" lon="-0.56044">
        <ele>253.2</ele>
        <time>2012-02-11T14:04:09Z</time>
      </trkpt>
      <trkpt lat="48.6834" lon="-0.5605">
        <ele>252.7</ele>
        <time>2012-02-11T14:04:10Z</time>
      </trkpt>
      <trkpt lat="48.68337" lon="-0.56056">
        <ele>252.2</ele>
        <time>2012-02-11T14:04:11Z</time>
      </trkpt>
      <trkpt lat="48.68334" lon="-0.56061">
        <ele>251.9</ele>
        <time>2012-02-11T14:04:12Z</time>
      </trkpt>
      <trkpt lat="48.68327" lon="-0.56071">
        <ele>251.6</ele>
        <time>2012-02-11T14:04:14Z</time>
      </trkpt>
      <trkpt lat="48.68325" lon="-0.56077">
        <ele>251</ele>
        <time>2012-02-11T14:04:15Z</time>
      </trkpt>
      <trkpt lat="48.6832" lon="-0.56088">
        <ele>249.7</ele>
        <time>2012-02-11T14:04:17Z</time>
      </trkpt>
      <trkpt lat="48.68316" lon="-0.56098">
        <ele>248</ele>
        <time>2012-02-11T14:04:20Z</time>
      </trkpt>
      <trkpt lat="48.68312" lon="-0.56109">
        <ele>246</ele>
        <time>2012-02-11T14:04:25Z</time>
      </trkpt>
      <trkpt lat="48.68308" lon="-0.56118">
        <ele>245.5</ele>
        <time>2012-02-11T14:04:28Z</time>
      </trkpt>
      <trkpt lat="48.68303" lon="-0.56126">
        <ele>244.4</ele>
        <time>2012-02-11T14:04:30Z</time>
      </trkpt>
      <trkpt lat="48.68298" lon="-0.56136">
        <ele>242.9</ele>
        <time>2012-02-11T14:04:33Z</time>
      </trkpt>
      <trkpt lat="48.68293" lon="-0.56145">
        <ele>241.9</ele>
        <time>2012-02-11T14:04:37Z</time>
      </trkpt>
      <trkpt lat="48.68288" lon="-0.56155">
        <ele>241</ele>
        <time>2012-02-11T14:04:40Z</time>
      </trkpt>
      <trkpt lat="48.68282" lon="-0.56164">
        <ele>240.9</ele>
        <time>2012-02-11T14:04:43Z</time>
      </trkpt>
      <trkpt lat="48.68278" lon="-0.5617">
        <ele>239.4</ele>
        <time>2012-02-11T14:04:45Z</time>
      </trkpt>
      <trkpt lat="48.68272" lon="-0.56177">
        <ele>238.6</ele>
        <time>2012-02-11T14:04:47Z</time>
      </trkpt>
      <trkpt lat="48.68267" lon="-0.56185">
        <ele>237.4</ele>
        <time>2012-02-11T14:04:50Z</time>
      </trkpt>
      <trkpt lat="48.68265" lon="-0.56188">
        <ele>237</ele>
        <time>2012-02-11T14:04:51Z</time>
      </trkpt>
      <trkpt lat="48.68257" lon="-0.56203">
        <ele>234.6</ele>
        <time>2012-02-11T14:04:56Z</time>
      </trkpt>
      <trkpt lat="48.68255" lon="-0.56212">
        <ele>233.6</ele>
        <time>2012-02-11T14:04:59Z</time>
      </trkpt>
      <trkpt lat="48.68252" lon="-0.5622">
        <ele>232.9</ele>
        <time>2012-02-11T14:05:01Z</time>
      </trkpt>
      <trkpt lat="48.6825" lon="-0.56233">
        <ele>231.7</ele>
        <time>2012-02-11T14:05:04Z</time>
      </trkpt>
      <trkpt lat="48.68249" lon="-0.56245">
        <ele>229.9</ele>
        <time>2012-02-11T14:05:07Z</time>
      </trkpt>
      <trkpt lat="48.68248" lon="-0.56259">
        <ele>229.1</ele>
        <time>2012-02-11T14:05:09Z</time>
      </trkpt>
      <trkpt lat="48.68248" lon="-0.56271">
        <ele>228.2</ele>
        <time>2012-02-11T14:05:11Z</time>
      </trkpt>
      <trkpt lat="48.68247" lon="-0.56283">
        <ele>226.4</ele>
        <time>2012-02-11T14:05:14Z</time>
      </trkpt>
      <trkpt lat="48.68247" lon="-0.56295">
        <ele>225.7</ele>
        <time>2012-02-11T14:05:17Z</time>
      </trkpt>
      <trkpt lat="48.68247" lon="-0.56306">
        <ele>224.6</ele>
        <time>2012-02-11T14:05:20Z</time>
      </trkpt>
      <trkpt lat="48.68249" lon="-0.56316">
        <ele>223.8</ele>
        <time>2012-02-11T14:05:23Z</time>
      </trkpt>
      <trkpt lat="48.68251" lon="-0.56329">
        <ele>222.2</ele>
        <time>2012-02-11T14:05:26Z</time>
      </trkpt>
      <trkpt lat="48.68251" lon="-0.56342">
        <ele>221.3</ele>
        <time>2012-02-11T14:05:29Z</time>
      </trkpt>
      <trkpt lat="48.68248" lon="-0.56353">
        <ele>220.9</ele>
        <time>2012-02-11T14:05:32Z</time>
      </trkpt>
      <trkpt lat="48.68242" lon="-0.56362">
        <ele>219</ele>
        <time>2012-02-11T14:05:36Z</time>
      </trkpt>
      <trkpt lat="48.68235" lon="-0.56368">
        <ele>217.7</ele>
        <time>2012-02-11T14:05:39Z</time>
      </trkpt>
      <trkpt lat="48.68228" lon="-0.56376">
        <ele>217.1</ele>
        <time>2012-02-11T14:05:42Z</time>
      </trkpt>
      <trkpt lat="48.68223" lon="-0.56386">
        <ele>215.5</ele>
        <time>2012-02-11T14:05:55Z</time>
      </trkpt>
      <trkpt lat="48.68223" lon="-0.56387">
        <ele>215.3</ele>
        <time>2012-02-11T14:05:56Z</time>
      </trkpt>
      <trkpt lat="48.68217" lon="-0.56409">
        <ele>214.2</ele>
        <time>2012-02-11T14:06:12Z</time>
      </trkpt>
      <trkpt lat="48.68216" lon="-0.56422">
        <ele>213.8</ele>
        <time>2012-02-11T14:06:19Z</time>
      </trkpt>
      <trkpt lat="48.68217" lon="-0.56434">
        <ele>212.6</ele>
        <time>2012-02-11T14:06:26Z</time>
      </trkpt>
      <trkpt lat="48.68217" lon="-0.56446">
        <ele>212.2</ele>
        <time>2012-02-11T14:06:33Z</time>
      </trkpt>
      <trkpt lat="48.6822" lon="-0.56458">
        <ele>210.6</ele>
        <time>2012-02-11T14:06:40Z</time>
      </trkpt>
      <trkpt lat="48.68222" lon="-0.56469">
        <ele>209.8</ele>
        <time>2012-02-11T14:06:46Z</time>
      </trkpt>
      <trkpt lat="48.68225" lon="-0.56482">
        <ele>208.9</ele>
        <time>2012-02-11T14:06:52Z</time>
      </trkpt>
      <trkpt lat="48.68225" lon="-0.56495">
        <ele>208.2</ele>
        <time>2012-02-11T14:06:59Z</time>
      </trkpt>
      <trkpt lat="48.68224" lon="-0.56497">
        <ele>208.2</ele>
        <time>2012-02-11T14:07:00Z</time>
      </trkpt>
      <trkpt lat="48.6822" lon="-0.56519">
        <ele>206.6</ele>
        <time>2012-02-11T14:08:30Z</time>
      </trkpt>
      <trkpt lat="48.68219" lon="-0.5652">
        <ele>206.8</ele>
        <time>2012-02-11T14:08:31Z</time>
      </trkpt>
      <trkpt lat="48.6821" lon="-0.56533">
        <ele>207.3</ele>
        <time>2012-02-11T14:08:37Z</time>
      </trkpt>
      <trkpt lat="48.68205" lon="-0.5654">
        <ele>206.6</ele>
        <time>2012-02-11T14:08:41Z</time>
      </trkpt>
      <trkpt lat="48.68198" lon="-0.56547">
        <ele>205.8</ele>
        <time>2012-02-11T14:08:44Z</time>
      </trkpt>
      <trkpt lat="48.68193" lon="-0.56554">
        <ele>205.7</ele>
        <time>2012-02-11T14:08:47Z</time>
      </trkpt>
      <trkpt lat="48.68186" lon="-0.56562">
        <ele>205.4</ele>
        <time>2012-02-11T14:08:50Z</time>
      </trkpt>
      <trkpt lat="48.6818" lon="-0.56569">
        <ele>205.3</ele>
        <time>2012-02-11T14:08:53Z</time>
      </trkpt>
      <trkpt lat="48.68175" lon="-0.56576">
        <ele>205.7</ele>
        <time>2012-02-11T14:08:56Z</time>
      </trkpt>
      <trkpt lat="48.68168" lon="-0.56584">
        <ele>204.9</ele>
        <time>2012-02-11T14:09:02Z</time>
      </trkpt>
      <trkpt lat="48.68161" lon="-0.56592">
        <ele>205.4</ele>
        <time>2012-02-11T14:09:09Z</time>
      </trkpt>
      <trkpt lat="48.68155" lon="-0.56599">
        <ele>205.5</ele>
        <time>2012-02-11T14:09:13Z</time>
      </trkpt>
      <trkpt lat="48.68149" lon="-0.56607">
        <ele>205.2</ele>
        <time>2012-02-11T14:09:16Z</time>
      </trkpt>
      <trkpt lat="48.68144" lon="-0.56613">
        <ele>205.2</ele>
        <time>2012-02-11T14:09:18Z</time>
      </trkpt>
      <trkpt lat="48.68139" lon="-0.5662">
        <ele>205.1</ele>
        <time>2012-02-11T14:09:20Z</time>
      </trkpt>
      <trkpt lat="48.68133" lon="-0.56628">
        <ele>204.4</ele>
        <time>2012-02-11T14:09:22Z</time>
      </trkpt>
      <trkpt lat="48.68128" lon="-0.56638">
        <ele>204.2</ele>
        <time>2012-02-11T14:09:24Z</time>
      </trkpt>
      <trkpt lat="48.68126" lon="-0.56649">
        <ele>203.7</ele>
        <time>2012-02-11T14:09:26Z</time>
      </trkpt>
      <trkpt lat="48.68127" lon="-0.5666">
        <ele>203.3</ele>
        <time>2012-02-11T14:09:28Z</time>
      </trkpt>
      <trkpt lat="48.68131" lon="-0.56671">
        <ele>202.6</ele>
        <time>2012-02-11T14:09:31Z</time>
      </trkpt>
      <trkpt lat="48.68133" lon="-0.56675">
        <ele>202.1</ele>
        <time>2012-02-11T14:09:32Z</time>
      </trkpt>
      <trkpt lat="48.68143" lon="-0.5669">
        <ele>200.4</ele>
        <time>2012-02-11T14:10:14Z</time>
      </trkpt>
      <trkpt lat="48.68149" lon="-0.56698">
        <ele>199.1</ele>
        <time>2012-02-11T14:10:27Z</time>
      </trkpt>
      <trkpt lat="48.68156" lon="-0.56706">
        <ele>199.2</ele>
        <time>2012-02-11T14:10:31Z</time>
      </trkpt>
      <trkpt lat="48.68161" lon="-0.56714">
        <ele>199.3</ele>
        <time>2012-02-11T14:10:34Z</time>
      </trkpt>
      <trkpt lat="48.68163" lon="-0.56717">
        <ele>199.3</ele>
        <time>2012-02-11T14:10:35Z</time>
      </trkpt>
      <trkpt lat="48.68167" lon="-0.56737">
        <ele>199.6</ele>
        <time>2012-02-11T14:10:40Z</time>
      </trkpt>
      <trkpt lat="48.68167" lon="-0.56747">
        <ele>199.6</ele>
        <time>2012-02-11T14:10:42Z</time>
      </trkpt>
      <trkpt lat="48.68165" lon="-0.56758">
        <ele>199.6</ele>
        <time>2012-02-11T14:10:44Z</time>
      </trkpt>
      <trkpt lat="48.68161" lon="-0.56768">
        <ele>199.6</ele>
        <time>2012-02-11T14:10:46Z</time>
      </trkpt>
      <trkpt lat="48.68158" lon="-0.56779">
        <ele>199.7</ele>
        <time>2012-02-11T14:10:48Z</time>
      </trkpt>
      <trkpt lat="48.68156" lon="-0.56789">
        <ele>199.7</ele>
        <time>2012-02-11T14:10:50Z</time>
      </trkpt>
      <trkpt lat="48.68158" lon="-0.56801">
        <ele>200</ele>
        <time>2012-02-11T14:10:53Z</time>
      </trkpt>
      <trkpt lat="48.68162" lon="-0.56813">
        <ele>201.5</ele>
        <time>2012-02-11T14:10:58Z</time>
      </trkpt>
      <trkpt lat="48.68159" lon="-0.56825">
        <ele>201.9</ele>
        <time>2012-02-11T14:11:02Z</time>
      </trkpt>
      <trkpt lat="48.68155" lon="-0.56837">
        <ele>202.3</ele>
        <time>2012-02-11T14:11:05Z</time>
      </trkpt>
      <trkpt lat="48.68152" lon="-0.56845">
        <ele>202.6</ele>
        <time>2012-02-11T14:11:07Z</time>
      </trkpt>
      <trkpt lat="48.68148" lon="-0.56853">
        <ele>202.4</ele>
        <time>2012-02-11T14:11:09Z</time>
      </trkpt>
      <trkpt lat="48.68144" lon="-0.56862">
        <ele>201.7</ele>
        <time>2012-02-11T14:11:11Z</time>
      </trkpt>
      <trkpt lat="48.68141" lon="-0.56869">
        <ele>201.1</ele>
        <time>2012-02-11T14:11:13Z</time>
      </trkpt>
      <trkpt lat="48.68137" lon="-0.56877">
        <ele>200.8</ele>
        <time>2012-02-11T14:11:15Z</time>
      </trkpt>
      <trkpt lat="48.68133" lon="-0.56886">
        <ele>200.9</ele>
        <time>2012-02-11T14:11:17Z</time>
      </trkpt>
      <trkpt lat="48.68128" lon="-0.56896">
        <ele>200.8</ele>
        <time>2012-02-11T14:11:19Z</time>
      </trkpt>
      <trkpt lat="48.68125" lon="-0.56905">
        <ele>201.2</ele>
        <time>2012-02-11T14:11:21Z</time>
      </trkpt>
      <trkpt lat="48.6812" lon="-0.56914">
        <ele>200.8</ele>
        <time>2012-02-11T14:11:23Z</time>
      </trkpt>
      <trkpt lat="48.68116" lon="-0.56922">
        <ele>200.6</ele>
        <time>2012-02-11T14:11:25Z</time>
      </trkpt>
      <trkpt lat="48.68112" lon="-0.5693">
        <ele>200.6</ele>
        <time>2012-02-11T14:11:27Z</time>
      </trkpt>
      <trkpt lat="48.68108" lon="-0.56939">
        <ele>200.8</ele>
        <time>2012-02-11T14:11:29Z</time>
      </trkpt>
      <trkpt lat="48.68104" lon="-0.56947">
        <ele>201</ele>
        <time>2012-02-11T14:11:31Z</time>
      </trkpt>
      <trkpt lat="48.681" lon="-0.56956">
        <ele>201.6</ele>
        <time>2012-02-11T14:11:33Z</time>
      </trkpt>
      <trkpt lat="48.68095" lon="-0.56964">
        <ele>201.8</ele>
        <time>2012-02-11T14:11:35Z</time>
      </trkpt>
      <trkpt lat="48.68093" lon="-0.56969">
        <ele>201.6</ele>
        <time>2012-02-11T14:11:36Z</time>
      </trkpt>
      <trkpt lat="48.68087" lon="-0.56983">
        <ele>201.4</ele>
        <time>2012-02-11T14:11:39Z</time>
      </trkpt>
      <trkpt lat="48.68082" lon="-0.56991">
        <ele>201.6</ele>
        <time>2012-02-11T14:11:41Z</time>
      </trkpt>
      <trkpt lat="48.68078" lon="-0.57">
        <ele>201.8</ele>
        <time>2012-02-11T14:11:43Z</time>
      </trkpt>
      <trkpt lat="48.68074" lon="-0.57009">
        <ele>201.3</ele>
        <time>2012-02-11T14:11:45Z</time>
      </trkpt>
      <trkpt lat="48.6807" lon="-0.57018">
        <ele>200.6</ele>
        <time>2012-02-11T14:11:47Z</time>
      </trkpt>
      <trkpt lat="48.68065" lon="-0.57026">
        <ele>200.9</ele>
        <time>2012-02-11T14:11:49Z</time>
      </trkpt>
      <trkpt lat="48.68061" lon="-0.57035">
        <ele>200.9</ele>
        <time>2012-02-11T14:11:51Z</time>
      </trkpt>
      <trkpt lat="48.68057" lon="-0.57044">
        <ele>200.6</ele>
        <time>2012-02-11T14:11:53Z</time>
      </trkpt>
      <trkpt lat="48.68052" lon="-0.57053">
        <ele>200.4</ele>
        <time>2012-02-11T14:11:55Z</time>
      </trkpt>
      <trkpt lat="48.68048" lon="-0.57062">
        <ele>200.4</ele>
        <time>2012-02-11T14:11:57Z</time>
      </trkpt>
      <trkpt lat="48.68043" lon="-0.57071">
        <ele>200.5</ele>
        <time>2012-02-11T14:11:59Z</time>
      </trkpt>
      <trkpt lat="48.68039" lon="-0.57079">
        <ele>200.8</ele>
        <time>2012-02-11T14:12:01Z</time>
      </trkpt>
      <trkpt lat="48.68035" lon="-0.57088">
        <ele>200.7</ele>
        <time>2012-02-11T14:12:03Z</time>
      </trkpt>
      <trkpt lat="48.6803" lon="-0.57097">
        <ele>200.2</ele>
        <time>2012-02-11T14:12:05Z</time>
      </trkpt>
      <trkpt lat="48.68026" lon="-0.57106">
        <ele>200</ele>
        <time>2012-02-11T14:12:07Z</time>
      </trkpt>
      <trkpt lat="48.68021" lon="-0.57115">
        <ele>200.1</ele>
        <time>2012-02-11T14:12:09Z</time>
      </trkpt>
      <trkpt lat="48.68017" lon="-0.57124">
        <ele>200.4</ele>
        <time>2012-02-11T14:12:11Z</time>
      </trkpt>
      <trkpt lat="48.68013" lon="-0.57133">
        <ele>200.4</ele>
        <time>2012-02-11T14:12:13Z</time>
      </trkpt>
      <trkpt lat="48.68009" lon="-0.57142">
        <ele>200.2</ele>
        <time>2012-02-11T14:12:15Z</time>
      </trkpt>
      <trkpt lat="48.68005" lon="-0.57151">
        <ele>200.4</ele>
        <time>2012-02-11T14:12:17Z</time>
      </trkpt>
      <trkpt lat="48.68001" lon="-0.57161">
        <ele>200.2</ele>
        <time>2012-02-11T14:12:19Z</time>
      </trkpt>
      <trkpt lat="48.67996" lon="-0.5717">
        <ele>199.8</ele>
        <time>2012-02-11T14:12:21Z</time>
      </trkpt>
      <trkpt lat="48.67992" lon="-0.5718">
        <ele>199.5</ele>
        <time>2012-02-11T14:12:23Z</time>
      </trkpt>
      <trkpt lat="48.67988" lon="-0.5719">
        <ele>200</ele>
        <time>2012-02-11T14:12:25Z</time>
      </trkpt>
      <trkpt lat="48.67983" lon="-0.57199">
        <ele>199.4</ele>
        <time>2012-02-11T14:12:27Z</time>
      </trkpt>
      <trkpt lat="48.67979" lon="-0.57208">
        <ele>199.4</ele>
        <time>2012-02-11T14:12:29Z</time>
      </trkpt>
      <trkpt lat="48.67974" lon="-0.57218">
        <ele>199.7</ele>
        <time>2012-02-11T14:12:31Z</time>
      </trkpt>
      <trkpt lat="48.6797" lon="-0.57227">
        <ele>199.5</ele>
        <time>2012-02-11T14:12:33Z</time>
      </trkpt>
      <trkpt lat="48.67966" lon="-0.57236">
        <ele>199</ele>
        <time>2012-02-11T14:12:35Z</time>
      </trkpt>
      <trkpt lat="48.67961" lon="-0.57245">
        <ele>199.4</ele>
        <time>2012-02-11T14:12:37Z</time>
      </trkpt>
      <trkpt lat="48.67959" lon="-0.57249">
        <ele>199.1</ele>
        <time>2012-02-11T14:12:38Z</time>
      </trkpt>
      <trkpt lat="48.67953" lon="-0.57263">
        <ele>198.9</ele>
        <time>2012-02-11T14:12:41Z</time>
      </trkpt>
      <trkpt lat="48.67949" lon="-0.57272">
        <ele>199.1</ele>
        <time>2012-02-11T14:12:43Z</time>
      </trkpt>
      <trkpt lat="48.67945" lon="-0.57282">
        <ele>199.4</ele>
        <time>2012-02-11T14:12:45Z</time>
      </trkpt>
      <trkpt lat="48.67941" lon="-0.57291">
        <ele>199.5</ele>
        <time>2012-02-11T14:12:47Z</time>
      </trkpt>
      <trkpt lat="48.67937" lon="-0.57301">
        <ele>199.4</ele>
        <time>2012-02-11T14:12:49Z</time>
      </trkpt>
      <trkpt lat="48.67934" lon="-0.5731">
        <ele>199.6</ele>
        <time>2012-02-11T14:12:51Z</time>
      </trkpt>
      <trkpt lat="48.6793" lon="-0.5732">
        <ele>199.3</ele>
        <time>2012-02-11T14:12:53Z</time>
      </trkpt>
      <trkpt lat="48.67926" lon="-0.57329">
        <ele>199</ele>
        <time>2012-02-11T14:12:55Z</time>
      </trkpt>
      <trkpt lat="48.67922" lon="-0.57339">
        <ele>198.9</ele>
        <time>2012-02-11T14:12:57Z</time>
      </trkpt>
      <trkpt lat="48.67919" lon="-0.5735">
        <ele>198.8</ele>
        <time>2012-02-11T14:12:59Z</time>
      </trkpt>
      <trkpt lat="48.67916" lon="-0.5736">
        <ele>198.8</ele>
        <time>2012-02-11T14:13:01Z</time>
      </trkpt>
      <trkpt lat="48.67912" lon="-0.57371">
        <ele>198.5</ele>
        <time>2012-02-11T14:13:03Z</time>
      </trkpt>
      <trkpt lat="48.67909" lon="-0.57383">
        <ele>198.4</ele>
        <time>2012-02-11T14:13:05Z</time>
      </trkpt>
      <trkpt lat="48.67905" lon="-0.57395">
        <ele>198.7</ele>
        <time>2012-02-11T14:13:07Z</time>
      </trkpt>
      <trkpt lat="48.67901" lon="-0.57406">
        <ele>198.7</ele>
        <time>2012-02-11T14:13:09Z</time>
      </trkpt>
      <trkpt lat="48.67898" lon="-0.57417">
        <ele>198.8</ele>
        <time>2012-02-11T14:13:11Z</time>
      </trkpt>
      <trkpt lat="48.67894" lon="-0.57428">
        <ele>199.1</ele>
        <time>2012-02-11T14:13:13Z</time>
      </trkpt>
      <trkpt lat="48.6789" lon="-0.5744">
        <ele>199.3</ele>
        <time>2012-02-11T14:13:15Z</time>
      </trkpt>
      <trkpt lat="48.67887" lon="-0.57451">
        <ele>198.4</ele>
        <time>2012-02-11T14:13:17Z</time>
      </trkpt>
      <trkpt lat="48.67883" lon="-0.57462">
        <ele>198.3</ele>
        <time>2012-02-11T14:13:19Z</time>
      </trkpt>
      <trkpt lat="48.6788" lon="-0.57474">
        <ele>198.1</ele>
        <time>2012-02-11T14:13:21Z</time>
      </trkpt>
      <trkpt lat="48.67876" lon="-0.57485">
        <ele>197.9</ele>
        <time>2012-02-11T14:13:23Z</time>
      </trkpt>
      <trkpt lat="48.67873" lon="-0.57497">
        <ele>198</ele>
        <time>2012-02-11T14:13:25Z</time>
      </trkpt>
      <trkpt lat="48.67869" lon="-0.57508">
        <ele>198.2</ele>
        <time>2012-02-11T14:13:27Z</time>
      </trkpt>
      <trkpt lat="48.67866" lon="-0.5752">
        <ele>197.7</ele>
        <time>2012-02-11T14:13:29Z</time>
      </trkpt>
      <trkpt lat="48.67862" lon="-0.57531">
        <ele>197.8</ele>
        <time>2012-02-11T14:13:31Z</time>
      </trkpt>
      <trkpt lat="48.67859" lon="-0.57543">
        <ele>197.9</ele>
        <time>2012-02-11T14:13:33Z</time>
      </trkpt>
      <trkpt lat="48.67856" lon="-0.57554">
        <ele>197.7</ele>
        <time>2012-02-11T14:13:35Z</time>
      </trkpt>
      <trkpt lat="48.67852" lon="-0.57566">
        <ele>197.4</ele>
        <time>2012-02-11T14:13:37Z</time>
      </trkpt>
      <trkpt lat="48.67849" lon="-0.57578">
        <ele>197.3</ele>
        <time>2012-02-11T14:13:39Z</time>
      </trkpt>
      <trkpt lat="48.67847" lon="-0.57583">
        <ele>197.5</ele>
        <time>2012-02-11T14:13:40Z</time>
      </trkpt>
      <trkpt lat="48.67842" lon="-0.57601">
        <ele>198.1</ele>
        <time>2012-02-11T14:13:43Z</time>
      </trkpt>
      <trkpt lat="48.67839" lon="-0.57612">
        <ele>198.2</ele>
        <time>2012-02-11T14:13:45Z</time>
      </trkpt>
      <trkpt lat="48.67836" lon="-0.57623">
        <ele>198</ele>
        <time>2012-02-11T14:13:47Z</time>
      </trkpt>
      <trkpt lat="48.67832" lon="-0.57634">
        <ele>197.3</ele>
        <time>2012-02-11T14:13:49Z</time>
      </trkpt>
      <trkpt lat="48.67829" lon="-0.57645">
        <ele>196.5</ele>
        <time>2012-02-11T14:13:51Z</time>
      </trkpt>
      <trkpt lat="48.67825" lon="-0.57656">
        <ele>196.8</ele>
        <time>2012-02-11T14:13:53Z</time>
      </trkpt>
      <trkpt lat="48.67821" lon="-0.57668">
        <ele>197.2</ele>
        <time>2012-02-11T14:13:55Z</time>
      </trkpt>
      <trkpt lat="48.67819" lon="-0.57674">
        <ele>196.8</ele>
        <time>2012-02-11T14:13:56Z</time>
      </trkpt>
      <trkpt lat="48.67817" lon="-0.57681">
        <ele>196.6</ele>
        <time>2012-02-11T14:13:57Z</time>
      </trkpt>
      <trkpt lat="48.67815" lon="-0.57687">
        <ele>196.4</ele>
        <time>2012-02-11T14:13:58Z</time>
      </trkpt>
      <trkpt lat="48.67813" lon="-0.57694">
        <ele>196.3</ele>
        <time>2012-02-11T14:13:59Z</time>
      </trkpt>
      <trkpt lat="48.67809" lon="-0.57705">
        <ele>196.6</ele>
        <time>2012-02-11T14:14:01Z</time>
      </trkpt>
      <trkpt lat="48.67806" lon="-0.57711">
        <ele>197</ele>
        <time>2012-02-11T14:14:02Z</time>
      </trkpt>
      <trkpt lat="48.67802" lon="-0.57723">
        <ele>197.5</ele>
        <time>2012-02-11T14:14:04Z</time>
      </trkpt>
      <trkpt lat="48.67798" lon="-0.57735">
        <ele>197.7</ele>
        <time>2012-02-11T14:14:06Z</time>
      </trkpt>
      <trkpt lat="48.67796" lon="-0.57741">
        <ele>197.7</ele>
        <time>2012-02-11T14:14:07Z</time>
      </trkpt>
      <trkpt lat="48.67793" lon="-0.57747">
        <ele>197.4</ele>
        <time>2012-02-11T14:14:08Z</time>
      </trkpt>
      <trkpt lat="48.67789" lon="-0.57759">
        <ele>197</ele>
        <time>2012-02-11T14:14:10Z</time>
      </trkpt>
      <trkpt lat="48.67786" lon="-0.57765">
        <ele>197.1</ele>
        <time>2012-02-11T14:14:11Z</time>
      </trkpt>
      <trkpt lat="48.67784" lon="-0.57771">
        <ele>197.2</ele>
        <time>2012-02-11T14:14:12Z</time>
      </trkpt>
      <trkpt lat="48.67782" lon="-0.57777">
        <ele>197.3</ele>
        <time>2012-02-11T14:14:13Z</time>
      </trkpt>
      <trkpt lat="48.67777" lon="-0.57788">
        <ele>197.2</ele>
        <time>2012-02-11T14:14:15Z</time>
      </trkpt>
      <trkpt lat="48.67775" lon="-0.57794">
        <ele>197.1</ele>
        <time>2012-02-11T14:14:16Z</time>
      </trkpt>
      <trkpt lat="48.67772" lon="-0.57799">
        <ele>197.1</ele>
        <time>2012-02-11T14:14:17Z</time>
      </trkpt>
      <trkpt lat="48.6777" lon="-0.57805">
        <ele>197.1</ele>
        <time>2012-02-11T14:14:18Z</time>
      </trkpt>
      <trkpt lat="48.67767" lon="-0.57811">
        <ele>197.2</ele>
        <time>2012-02-11T14:14:19Z</time>
      </trkpt>
      <trkpt lat="48.67765" lon="-0.57817">
        <ele>197.1</ele>
        <time>2012-02-11T14:14:20Z</time>
      </trkpt>
      <trkpt lat="48.67762" lon="-0.57822">
        <ele>197.1</ele>
        <time>2012-02-11T14:14:21Z</time>
      </trkpt>
      <trkpt lat="48.67757" lon="-0.57834">
        <ele>197</ele>
        <time>2012-02-11T14:14:23Z</time>
      </trkpt>
      <trkpt lat="48.67753" lon="-0.57845">
        <ele>196.9</ele>
        <time>2012-02-11T14:14:25Z</time>
      </trkpt>
      <trkpt lat="48.67748" lon="-0.57856">
        <ele>196.4</ele>
        <time>2012-02-11T14:14:27Z</time>
      </trkpt>
      <trkpt lat="48.67743" lon="-0.57867">
        <ele>195.8</ele>
        <time>2012-02-11T14:14:29Z</time>
      </trkpt>
      <trkpt lat="48.67738" lon="-0.57876">
        <ele>196</ele>
        <time>2012-02-11T14:14:31Z</time>
      </trkpt>
      <trkpt lat="48.67733" lon="-0.57885">
        <ele>195.6</ele>
        <time>2012-02-11T14:14:33Z</time>
      </trkpt>
      <trkpt lat="48.67728" lon="-0.57894">
        <ele>195.1</ele>
        <time>2012-02-11T14:14:35Z</time>
      </trkpt>
      <trkpt lat="48.67722" lon="-0.57903">
        <ele>195</ele>
        <time>2012-02-11T14:14:37Z</time>
      </trkpt>
      <trkpt lat="48.67717" lon="-0.57912">
        <ele>195.1</ele>
        <time>2012-02-11T14:14:39Z</time>
      </trkpt>
      <trkpt lat="48.67714" lon="-0.57917">
        <ele>195.2</ele>
        <time>2012-02-11T14:14:40Z</time>
      </trkpt>
      <trkpt lat="48.67711" lon="-0.57922">
        <ele>195.2</ele>
        <time>2012-02-11T14:14:41Z</time>
      </trkpt>
      <trkpt lat="48.67707" lon="-0.57927">
        <ele>195.3</ele>
        <time>2012-02-11T14:14:42Z</time>
      </trkpt>
      <trkpt lat="48.67704" lon="-0.57932">
        <ele>195.4</ele>
        <time>2012-02-11T14:14:43Z</time>
      </trkpt>
      <trkpt lat="48.67698" lon="-0.57942">
        <ele>196</ele>
        <time>2012-02-11T14:14:45Z</time>
      </trkpt>
      <trkpt lat="48.67692" lon="-0.57952">
        <ele>196.1</ele>
        <time>2012-02-11T14:14:47Z</time>
      </trkpt>
      <trkpt lat="48.67686" lon="-0.57961">
        <ele>195.9</ele>
        <time>2012-02-11T14:14:49Z</time>
      </trkpt>
      <trkpt lat="48.67679" lon="-0.5797">
        <ele>195.4</ele>
        <time>2012-02-11T14:14:51Z</time>
      </trkpt>
      <trkpt lat="48.67673" lon="-0.57979">
        <ele>195.3</ele>
        <time>2012-02-11T14:14:53Z</time>
      </trkpt>
      <trkpt lat="48.67667" lon="-0.57987">
        <ele>195.4</ele>
        <time>2012-02-11T14:14:55Z</time>
      </trkpt>
      <trkpt lat="48.67661" lon="-0.57996">
        <ele>195.2</ele>
        <time>2012-02-11T14:14:57Z</time>
      </trkpt>
      <trkpt lat="48.67654" lon="-0.58004">
        <ele>195.4</ele>
        <time>2012-02-11T14:14:59Z</time>
      </trkpt>
      <trkpt lat="48.67647" lon="-0.58012">
        <ele>196</ele>
        <time>2012-02-11T14:15:01Z</time>
      </trkpt>
      <trkpt lat="48.67641" lon="-0.58019">
        <ele>196.2</ele>
        <time>2012-02-11T14:15:03Z</time>
      </trkpt>
      <trkpt lat="48.67634" lon="-0.58027">
        <ele>196.2</ele>
        <time>2012-02-11T14:15:05Z</time>
      </trkpt>
      <trkpt lat="48.67627" lon="-0.58034">
        <ele>196.1</ele>
        <time>2012-02-11T14:15:07Z</time>
      </trkpt>
      <trkpt lat="48.67621" lon="-0.58041">
        <ele>195.5</ele>
        <time>2012-02-11T14:15:09Z</time>
      </trkpt>
      <trkpt lat="48.67615" lon="-0.58047">
        <ele>195.3</ele>
        <time>2012-02-11T14:15:11Z</time>
      </trkpt>
      <trkpt lat="48.67608" lon="-0.58054">
        <ele>195.1</ele>
        <time>2012-02-11T14:15:13Z</time>
      </trkpt>
      <trkpt lat="48.67601" lon="-0.58061">
        <ele>195.1</ele>
        <time>2012-02-11T14:15:15Z</time>
      </trkpt>
      <trkpt lat="48.67594" lon="-0.58068">
        <ele>195.2</ele>
        <time>2012-02-11T14:15:17Z</time>
      </trkpt>
      <trkpt lat="48.67586" lon="-0.58074">
        <ele>195.3</ele>
        <time>2012-02-11T14:15:19Z</time>
      </trkpt>
      <trkpt lat="48.67579" lon="-0.58081">
        <ele>194.9</ele>
        <time>2012-02-11T14:15:21Z</time>
      </trkpt>
      <trkpt lat="48.67571" lon="-0.58087">
        <ele>195.1</ele>
        <time>2012-02-11T14:15:23Z</time>
      </trkpt>
      <trkpt lat="48.67564" lon="-0.58093">
        <ele>195.2</ele>
        <time>2012-02-11T14:15:25Z</time>
      </trkpt>
      <trkpt lat="48.67556" lon="-0.58099">
        <ele>195.3</ele>
        <time>2012-02-11T14:15:27Z</time>
      </trkpt>
      <trkpt lat="48.67549" lon="-0.58104">
        <ele>195.1</ele>
        <time>2012-02-11T14:15:29Z</time>
      </trkpt>
      <trkpt lat="48.67542" lon="-0.58109">
        <ele>194.9</ele>
        <time>2012-02-11T14:15:31Z</time>
      </trkpt>
      <trkpt lat="48.67536" lon="-0.58114">
        <ele>194.9</ele>
        <time>2012-02-11T14:15:33Z</time>
      </trkpt>
      <trkpt lat="48.6753" lon="-0.58118">
        <ele>194.7</ele>
        <time>2012-02-11T14:15:35Z</time>
      </trkpt>
      <trkpt lat="48.67523" lon="-0.58125">
        <ele>194.7</ele>
        <time>2012-02-11T14:15:38Z</time>
      </trkpt>
      <trkpt lat="48.67515" lon="-0.5813">
        <ele>194.7</ele>
        <time>2012-02-11T14:15:42Z</time>
      </trkpt>
      <trkpt lat="48.67513" lon="-0.58132">
        <ele>194.6</ele>
        <time>2012-02-11T14:15:43Z</time>
      </trkpt>
      <trkpt lat="48.675" lon="-0.58136">
        <ele>195.1</ele>
        <time>2012-02-11T14:15:48Z</time>
      </trkpt>
      <trkpt lat="48.67493" lon="-0.5814">
        <ele>194.9</ele>
        <time>2012-02-11T14:15:50Z</time>
      </trkpt>
      <trkpt lat="48.67486" lon="-0.58143">
        <ele>194.5</ele>
        <time>2012-02-11T14:15:52Z</time>
      </trkpt>
      <trkpt lat="48.67478" lon="-0.58146">
        <ele>194.6</ele>
        <time>2012-02-11T14:15:54Z</time>
      </trkpt>
      <trkpt lat="48.67471" lon="-0.5815">
        <ele>194</ele>
        <time>2012-02-11T14:15:56Z</time>
      </trkpt>
      <trkpt lat="48.67463" lon="-0.58153">
        <ele>194.1</ele>
        <time>2012-02-11T14:15:58Z</time>
      </trkpt>
      <trkpt lat="48.67455" lon="-0.58156">
        <ele>194.7</ele>
        <time>2012-02-11T14:16:00Z</time>
      </trkpt>
      <trkpt lat="48.67447" lon="-0.5816">
        <ele>195.2</ele>
        <time>2012-02-11T14:16:02Z</time>
      </trkpt>
      <trkpt lat="48.67439" lon="-0.58163">
        <ele>195.4</ele>
        <time>2012-02-11T14:16:04Z</time>
      </trkpt>
      <trkpt lat="48.67431" lon="-0.58167">
        <ele>194.9</ele>
        <time>2012-02-11T14:16:06Z</time>
      </trkpt>
      <trkpt lat="48.67423" lon="-0.58169">
        <ele>194.5</ele>
        <time>2012-02-11T14:16:08Z</time>
      </trkpt>
      <trkpt lat="48.67415" lon="-0.58172">
        <ele>194.8</ele>
        <time>2012-02-11T14:16:10Z</time>
      </trkpt>
      <trkpt lat="48.67409" lon="-0.58176">
        <ele>194.6</ele>
        <time>2012-02-11T14:16:12Z</time>
      </trkpt>
      <trkpt lat="48.67413" lon="-0.58188">
        <ele>193.9</ele>
        <time>2012-02-11T14:16:27Z</time>
      </trkpt>
      <trkpt lat="48.67421" lon="-0.58185">
        <ele>193.5</ele>
        <time>2012-02-11T14:24:23Z</time>
      </trkpt>
      <trkpt lat="48.67422" lon="-0.58186">
        <ele>193.5</ele>
        <time>2012-02-11T14:24:24Z</time>
      </trkpt>
      <trkpt lat="48.67405" lon="-0.58177">
        <ele>194</ele>
        <time>2012-02-11T14:24:54Z</time>
      </trkpt>
      <trkpt lat="48.67397" lon="-0.58173">
        <ele>194.3</ele>
        <time>2012-02-11T14:25:01Z</time>
      </trkpt>
      <trkpt lat="48.6739" lon="-0.58174">
        <ele>194.3</ele>
        <time>2012-02-11T14:25:05Z</time>
      </trkpt>
      <trkpt lat="48.67382" lon="-0.58176">
        <ele>194.4</ele>
        <time>2012-02-11T14:25:08Z</time>
      </trkpt>
      <trkpt lat="48.67376" lon="-0.58177">
        <ele>194.6</ele>
        <time>2012-02-11T14:25:10Z</time>
      </trkpt>
      <trkpt lat="48.6737" lon="-0.58179">
        <ele>194.6</ele>
        <time>2012-02-11T14:25:12Z</time>
      </trkpt>
      <trkpt lat="48.67363" lon="-0.5818">
        <ele>194.2</ele>
        <time>2012-02-11T14:25:14Z</time>
      </trkpt>
      <trkpt lat="48.67356" lon="-0.58181">
        <ele>193.9</ele>
        <time>2012-02-11T14:25:16Z</time>
      </trkpt>
      <trkpt lat="48.6735" lon="-0.58183">
        <ele>193.9</ele>
        <time>2012-02-11T14:25:18Z</time>
      </trkpt>
      <trkpt lat="48.67343" lon="-0.58185">
        <ele>193.9</ele>
        <time>2012-02-11T14:25:20Z</time>
      </trkpt>
      <trkpt lat="48.67337" lon="-0.58186">
        <ele>194.1</ele>
        <time>2012-02-11T14:25:22Z</time>
      </trkpt>
      <trkpt lat="48.6733" lon="-0.58188">
        <ele>194.4</ele>
        <time>2012-02-11T14:25:24Z</time>
      </trkpt>
      <trkpt lat="48.67326" lon="-0.58189">
        <ele>194</ele>
        <time>2012-02-11T14:25:25Z</time>
      </trkpt>
      <trkpt lat="48.67316" lon="-0.58191">
        <ele>194.3</ele>
        <time>2012-02-11T14:25:28Z</time>
      </trkpt>
      <trkpt lat="48.6731" lon="-0.58193">
        <ele>194.4</ele>
        <time>2012-02-11T14:25:30Z</time>
      </trkpt>
      <trkpt lat="48.67303" lon="-0.58194">
        <ele>194.3</ele>
        <time>2012-02-11T14:25:32Z</time>
      </trkpt>
      <trkpt lat="48.67296" lon="-0.58196">
        <ele>194.3</ele>
        <time>2012-02-11T14:25:34Z</time>
      </trkpt>
      <trkpt lat="48.6729" lon="-0.58197">
        <ele>194.3</ele>
        <time>2012-02-11T14:25:36Z</time>
      </trkpt>
      <trkpt lat="48.67282" lon="-0.58198">
        <ele>194.3</ele>
        <time>2012-02-11T14:25:38Z</time>
      </trkpt>
      <trkpt lat="48.67275" lon="-0.58198">
        <ele>194.6</ele>
        <time>2012-02-11T14:25:40Z</time>
      </trkpt>
      <trkpt lat="48.67268" lon="-0.58199">
        <ele>194</ele>
        <time>2012-02-11T14:25:42Z</time>
      </trkpt>
      <trkpt lat="48.67261" lon="-0.58199">
        <ele>193.7</ele>
        <time>2012-02-11T14:25:44Z</time>
      </trkpt>
      <trkpt lat="48.67254" lon="-0.58198">
        <ele>193.6</ele>
        <time>2012-02-11T14:25:46Z</time>
      </trkpt>
      <trkpt lat="48.67247" lon="-0.58198">
        <ele>193.6</ele>
        <time>2012-02-11T14:25:48Z</time>
      </trkpt>
      <trkpt lat="48.67239" lon="-0.58198">
        <ele>193.7</ele>
        <time>2012-02-11T14:25:50Z</time>
      </trkpt>
      <trkpt lat="48.67232" lon="-0.58199">
        <ele>193.7</ele>
        <time>2012-02-11T14:25:52Z</time>
      </trkpt>
      <trkpt lat="48.67225" lon="-0.58201">
        <ele>193.2</ele>
        <time>2012-02-11T14:25:54Z</time>
      </trkpt>
      <trkpt lat="48.67217" lon="-0.582">
        <ele>192.6</ele>
        <time>2012-02-11T14:25:57Z</time>
      </trkpt>
      <trkpt lat="48.67209" lon="-0.58208">
        <ele>192.6</ele>
        <time>2012-02-11T14:26:06Z</time>
      </trkpt>
      <trkpt lat="48.67201" lon="-0.58205">
        <ele>192.4</ele>
        <time>2012-02-11T14:26:12Z</time>
      </trkpt>
      <trkpt lat="48.67194" lon="-0.58207">
        <ele>192.3</ele>
        <time>2012-02-11T14:26:16Z</time>
      </trkpt>
      <trkpt lat="48.67186" lon="-0.58208">
        <ele>192.7</ele>
        <time>2012-02-11T14:26:20Z</time>
      </trkpt>
      <trkpt lat="48.67178" lon="-0.58209">
        <ele>193</ele>
        <time>2012-02-11T14:26:23Z</time>
      </trkpt>
      <trkpt lat="48.67172" lon="-0.58211">
        <ele>193</ele>
        <time>2012-02-11T14:26:25Z</time>
      </trkpt>
      <trkpt lat="48.67169" lon="-0.58212">
        <ele>192.9</ele>
        <time>2012-02-11T14:26:26Z</time>
      </trkpt>
      <trkpt lat="48.6716" lon="-0.58214">
        <ele>193.2</ele>
        <time>2012-02-11T14:26:29Z</time>
      </trkpt>
      <trkpt lat="48.67154" lon="-0.58215">
        <ele>193.7</ele>
        <time>2012-02-11T14:26:31Z</time>
      </trkpt>
      <trkpt lat="48.67147" lon="-0.58217">
        <ele>194.2</ele>
        <time>2012-02-11T14:26:33Z</time>
      </trkpt>
      <trkpt lat="48.67141" lon="-0.58217">
        <ele>194.7</ele>
        <time>2012-02-11T14:26:35Z</time>
      </trkpt>
      <trkpt lat="48.67134" lon="-0.58218">
        <ele>193.4</ele>
        <time>2012-02-11T14:26:37Z</time>
      </trkpt>
      <trkpt lat="48.67128" lon="-0.5822">
        <ele>192.9</ele>
        <time>2012-02-11T14:26:39Z</time>
      </trkpt>
      <trkpt lat="48.67121" lon="-0.58221">
        <ele>193.1</ele>
        <time>2012-02-11T14:26:41Z</time>
      </trkpt>
      <trkpt lat="48.67114" lon="-0.58222">
        <ele>193</ele>
        <time>2012-02-11T14:26:43Z</time>
      </trkpt>
      <trkpt lat="48.67107" lon="-0.58224">
        <ele>192.8</ele>
        <time>2012-02-11T14:26:45Z</time>
      </trkpt>
      <trkpt lat="48.671" lon="-0.58225">
        <ele>192.7</ele>
        <time>2012-02-11T14:26:47Z</time>
      </trkpt>
      <trkpt lat="48.67093" lon="-0.58227">
        <ele>193</ele>
        <time>2012-02-11T14:26:49Z</time>
      </trkpt>
      <trkpt lat="48.67086" lon="-0.58228">
        <ele>192.9</ele>
        <time>2012-02-11T14:26:51Z</time>
      </trkpt>
      <trkpt lat="48.67079" lon="-0.5823">
        <ele>193</ele>
        <time>2012-02-11T14:26:53Z</time>
      </trkpt>
      <trkpt lat="48.67071" lon="-0.58231">
        <ele>192.9</ele>
        <time>2012-02-11T14:26:55Z</time>
      </trkpt>
      <trkpt lat="48.67064" lon="-0.58233">
        <ele>192.9</ele>
        <time>2012-02-11T14:26:57Z</time>
      </trkpt>
      <trkpt lat="48.67056" lon="-0.58234">
        <ele>193</ele>
        <time>2012-02-11T14:26:59Z</time>
      </trkpt>
      <trkpt lat="48.67049" lon="-0.58236">
        <ele>192.8</ele>
        <time>2012-02-11T14:27:01Z</time>
      </trkpt>
      <trkpt lat="48.67041" lon="-0.58236">
        <ele>192.4</ele>
        <time>2012-02-11T14:27:03Z</time>
      </trkpt>
      <trkpt lat="48.67034" lon="-0.58237">
        <ele>191.9</ele>
        <time>2012-02-11T14:27:05Z</time>
      </trkpt>
      <trkpt lat="48.67026" lon="-0.58237">
        <ele>191.8</ele>
        <time>2012-02-11T14:27:07Z</time>
      </trkpt>
      <trkpt lat="48.67019" lon="-0.58237">
        <ele>191.8</ele>
        <time>2012-02-11T14:27:09Z</time>
      </trkpt>
      <trkpt lat="48.67011" lon="-0.58237">
        <ele>192.1</ele>
        <time>2012-02-11T14:27:11Z</time>
      </trkpt>
      <trkpt lat="48.67004" lon="-0.58237">
        <ele>192.4</ele>
        <time>2012-02-11T14:27:13Z</time>
      </trkpt>
      <trkpt lat="48.66996" lon="-0.58237">
        <ele>192.7</ele>
        <time>2012-02-11T14:27:15Z</time>
      </trkpt>
      <trkpt lat="48.66988" lon="-0.58237">
        <ele>192.2</ele>
        <time>2012-02-11T14:27:17Z</time>
      </trkpt>
      <trkpt lat="48.6698" lon="-0.58236">
        <ele>192.7</ele>
        <time>2012-02-11T14:27:19Z</time>
      </trkpt>
      <trkpt lat="48.66972" lon="-0.58236">
        <ele>193.1</ele>
        <time>2012-02-11T14:27:21Z</time>
      </trkpt>
      <trkpt lat="48.66964" lon="-0.58236">
        <ele>193</ele>
        <time>2012-02-11T14:27:23Z</time>
      </trkpt>
      <trkpt lat="48.66957" lon="-0.58236">
        <ele>192.7</ele>
        <time>2012-02-11T14:27:25Z</time>
      </trkpt>
      <trkpt lat="48.66948" lon="-0.58236">
        <ele>192.8</ele>
        <time>2012-02-11T14:27:27Z</time>
      </trkpt>
      <trkpt lat="48.66944" lon="-0.58236">
        <ele>192.9</ele>
        <time>2012-02-11T14:27:28Z</time>
      </trkpt>
      <trkpt lat="48.66933" lon="-0.58234">
        <ele>192.5</ele>
        <time>2012-02-11T14:27:31Z</time>
      </trkpt>
      <trkpt lat="48.66925" lon="-0.58233">
        <ele>192.4</ele>
        <time>2012-02-11T14:27:33Z</time>
      </trkpt>
      <trkpt lat="48.66917" lon="-0.58231">
        <ele>192.2</ele>
        <time>2012-02-11T14:27:35Z</time>
      </trkpt>
      <trkpt lat="48.66909" lon="-0.5823">
        <ele>192.2</ele>
        <time>2012-02-11T14:27:37Z</time>
      </trkpt>
      <trkpt lat="48.669" lon="-0.58227">
        <ele>192.2</ele>
        <time>2012-02-11T14:27:39Z</time>
      </trkpt>
      <trkpt lat="48.66892" lon="-0.58223">
        <ele>192.3</ele>
        <time>2012-02-11T14:27:41Z</time>
      </trkpt>
      <trkpt lat="48.66884" lon="-0.5822">
        <ele>192.1</ele>
        <time>2012-02-11T14:27:43Z</time>
      </trkpt>
      <trkpt lat="48.66877" lon="-0.58217">
        <ele>192.2</ele>
        <time>2012-02-11T14:27:45Z</time>
      </trkpt>
      <trkpt lat="48.66869" lon="-0.58213">
        <ele>192.2</ele>
        <time>2012-02-11T14:27:47Z</time>
      </trkpt>
      <trkpt lat="48.66862" lon="-0.5821">
        <ele>192</ele>
        <time>2012-02-11T14:27:49Z</time>
      </trkpt>
      <trkpt lat="48.66854" lon="-0.58207">
        <ele>191.8</ele>
        <time>2012-02-11T14:27:51Z</time>
      </trkpt>
      <trkpt lat="48.66847" lon="-0.58203">
        <ele>192</ele>
        <time>2012-02-11T14:27:53Z</time>
      </trkpt>
      <trkpt lat="48.66839" lon="-0.582">
        <ele>192</ele>
        <time>2012-02-11T14:27:55Z</time>
      </trkpt>
      <trkpt lat="48.66832" lon="-0.58196">
        <ele>191.4</ele>
        <time>2012-02-11T14:27:57Z</time>
      </trkpt>
      <trkpt lat="48.66825" lon="-0.58192">
        <ele>191.4</ele>
        <time>2012-02-11T14:27:59Z</time>
      </trkpt>
      <trkpt lat="48.66819" lon="-0.58189">
        <ele>191.6</ele>
        <time>2012-02-11T14:28:01Z</time>
      </trkpt>
      <trkpt lat="48.66812" lon="-0.58185">
        <ele>191.7</ele>
        <time>2012-02-11T14:28:03Z</time>
      </trkpt>
      <trkpt lat="48.66806" lon="-0.58182">
        <ele>191.2</ele>
        <time>2012-02-11T14:28:05Z</time>
      </trkpt>
      <trkpt lat="48.668" lon="-0.58178">
        <ele>191.5</ele>
        <time>2012-02-11T14:28:07Z</time>
      </trkpt>
      <trkpt lat="48.66794" lon="-0.58173">
        <ele>191.4</ele>
        <time>2012-02-11T14:28:09Z</time>
      </trkpt>
      <trkpt lat="48.66788" lon="-0.58169">
        <ele>191.3</ele>
        <time>2012-02-11T14:28:11Z</time>
      </trkpt>
      <trkpt lat="48.66782" lon="-0.58164">
        <ele>191.2</ele>
        <time>2012-02-11T14:28:13Z</time>
      </trkpt>
      <trkpt lat="48.66776" lon="-0.5816">
        <ele>191.4</ele>
        <time>2012-02-11T14:28:15Z</time>
      </trkpt>
      <trkpt lat="48.6677" lon="-0.58156">
        <ele>191.8</ele>
        <time>2012-02-11T14:28:17Z</time>
      </trkpt>
      <trkpt lat="48.66765" lon="-0.58151">
        <ele>191.7</ele>
        <time>2012-02-11T14:28:19Z</time>
      </trkpt>
      <trkpt lat="48.66759" lon="-0.58146">
        <ele>191.9</ele>
        <time>2012-02-11T14:28:21Z</time>
      </trkpt>
      <trkpt lat="48.66753" lon="-0.5814">
        <ele>192.1</ele>
        <time>2012-02-11T14:28:23Z</time>
      </trkpt>
      <trkpt lat="48.66747" lon="-0.58135">
        <ele>192.2</ele>
        <time>2012-02-11T14:28:25Z</time>
      </trkpt>
      <trkpt lat="48.66741" lon="-0.5813">
        <ele>191.9</ele>
        <time>2012-02-11T14:28:27Z</time>
      </trkpt>
      <trkpt lat="48.66735" lon="-0.58125">
        <ele>191.5</ele>
        <time>2012-02-11T14:28:29Z</time>
      </trkpt>
      <trkpt lat="48.66732" lon="-0.58122">
        <ele>191.6</ele>
        <time>2012-02-11T14:28:30Z</time>
      </trkpt>
      <trkpt lat="48.66722" lon="-0.58115">
        <ele>191.8</ele>
        <time>2012-02-11T14:28:33Z</time>
      </trkpt>
      <trkpt lat="48.66716" lon="-0.58111">
        <ele>191.5</ele>
        <time>2012-02-11T14:28:35Z</time>
      </trkpt>
      <trkpt lat="48.6671" lon="-0.58107">
        <ele>191.4</ele>
        <time>2012-02-11T14:28:37Z</time>
      </trkpt>
      <trkpt lat="48.66704" lon="-0.58102">
        <ele>191.3</ele>
        <time>2012-02-11T14:28:39Z</time>
      </trkpt>
      <trkpt lat="48.66698" lon="-0.58097">
        <ele>191</ele>
        <time>2012-02-11T14:28:41Z</time>
      </trkpt>
      <trkpt lat="48.66692" lon="-0.58092">
        <ele>190.3</ele>
        <time>2012-02-11T14:28:43Z</time>
      </trkpt>
      <trkpt lat="48.66686" lon="-0.58088">
        <ele>190.8</ele>
        <time>2012-02-11T14:28:45Z</time>
      </trkpt>
      <trkpt lat="48.6668" lon="-0.58083">
        <ele>191</ele>
        <time>2012-02-11T14:28:47Z</time>
      </trkpt>
      <trkpt lat="48.66674" lon="-0.58079">
        <ele>191.1</ele>
        <time>2012-02-11T14:28:49Z</time>
      </trkpt>
      <trkpt lat="48.66668" lon="-0.58074">
        <ele>191.1</ele>
        <time>2012-02-11T14:28:51Z</time>
      </trkpt>
      <trkpt lat="48.66662" lon="-0.58069">
        <ele>190.8</ele>
        <time>2012-02-11T14:28:53Z</time>
      </trkpt>
      <trkpt lat="48.66656" lon="-0.58064">
        <ele>190.5</ele>
        <time>2012-02-11T14:28:55Z</time>
      </trkpt>
      <trkpt lat="48.6665" lon="-0.5806">
        <ele>190.8</ele>
        <time>2012-02-11T14:28:57Z</time>
      </trkpt>
      <trkpt lat="48.66643" lon="-0.58055">
        <ele>191.7</ele>
        <time>2012-02-11T14:28:59Z</time>
      </trkpt>
      <trkpt lat="48.66637" lon="-0.5805">
        <ele>191.9</ele>
        <time>2012-02-11T14:29:01Z</time>
      </trkpt>
      <trkpt lat="48.66631" lon="-0.58045">
        <ele>192</ele>
        <time>2012-02-11T14:29:03Z</time>
      </trkpt>
      <trkpt lat="48.66625" lon="-0.5804">
        <ele>192</ele>
        <time>2012-02-11T14:29:05Z</time>
      </trkpt>
      <trkpt lat="48.66618" lon="-0.58037">
        <ele>192</ele>
        <time>2012-02-11T14:29:07Z</time>
      </trkpt>
      <trkpt lat="48.66612" lon="-0.58033">
        <ele>191.4</ele>
        <time>2012-02-11T14:29:09Z</time>
      </trkpt>
      <trkpt lat="48.66606" lon="-0.58029">
        <ele>191.1</ele>
        <time>2012-02-11T14:29:11Z</time>
      </trkpt>
      <trkpt lat="48.666" lon="-0.58024">
        <ele>190.9</ele>
        <time>2012-02-11T14:29:13Z</time>
      </trkpt>
      <trkpt lat="48.66592" lon="-0.5802">
        <ele>190.9</ele>
        <time>2012-02-11T14:29:15Z</time>
      </trkpt>
      <trkpt lat="48.66585" lon="-0.58016">
        <ele>190.8</ele>
        <time>2012-02-11T14:29:17Z</time>
      </trkpt>
      <trkpt lat="48.66578" lon="-0.58012">
        <ele>190.5</ele>
        <time>2012-02-11T14:29:19Z</time>
      </trkpt>
      <trkpt lat="48.6657" lon="-0.58008">
        <ele>190.3</ele>
        <time>2012-02-11T14:29:21Z</time>
      </trkpt>
      <trkpt lat="48.66563" lon="-0.58004">
        <ele>190.2</ele>
        <time>2012-02-11T14:29:23Z</time>
      </trkpt>
      <trkpt lat="48.66556" lon="-0.58">
        <ele>190.7</ele>
        <time>2012-02-11T14:29:25Z</time>
      </trkpt>
      <trkpt lat="48.66549" lon="-0.57997">
        <ele>190.7</ele>
        <time>2012-02-11T14:29:27Z</time>
      </trkpt>
      <trkpt lat="48.66542" lon="-0.57996">
        <ele>190.6</ele>
        <time>2012-02-11T14:29:29Z</time>
      </trkpt>
      <trkpt lat="48.66536" lon="-0.57994">
        <ele>190.9</ele>
        <time>2012-02-11T14:29:31Z</time>
      </trkpt>
      <trkpt lat="48.66533" lon="-0.57993">
        <ele>191.2</ele>
        <time>2012-02-11T14:29:32Z</time>
      </trkpt>
      <trkpt lat="48.66519" lon="-0.5799">
        <ele>190.2</ele>
        <time>2012-02-11T14:29:38Z</time>
      </trkpt>
      <trkpt lat="48.66512" lon="-0.57983">
        <ele>190.6</ele>
        <time>2012-02-11T14:29:42Z</time>
      </trkpt>
      <trkpt lat="48.66506" lon="-0.57984">
        <ele>191</ele>
        <time>2012-02-11T14:29:45Z</time>
      </trkpt>
      <trkpt lat="48.66498" lon="-0.57985">
        <ele>190.6</ele>
        <time>2012-02-11T14:29:48Z</time>
      </trkpt>
      <trkpt lat="48.6649" lon="-0.57984">
        <ele>190</ele>
        <time>2012-02-11T14:29:51Z</time>
      </trkpt>
      <trkpt lat="48.66484" lon="-0.57983">
        <ele>189.8</ele>
        <time>2012-02-11T14:29:53Z</time>
      </trkpt>
      <trkpt lat="48.66477" lon="-0.57983">
        <ele>189.8</ele>
        <time>2012-02-11T14:29:55Z</time>
      </trkpt>
      <trkpt lat="48.66471" lon="-0.57983">
        <ele>190</ele>
        <time>2012-02-11T14:29:57Z</time>
      </trkpt>
      <trkpt lat="48.66464" lon="-0.57982">
        <ele>190.4</ele>
        <time>2012-02-11T14:29:59Z</time>
      </trkpt>
      <trkpt lat="48.66456" lon="-0.57982">
        <ele>189.8</ele>
        <time>2012-02-11T14:30:01Z</time>
      </trkpt>
      <trkpt lat="48.6645" lon="-0.57981">
        <ele>190.5</ele>
        <time>2012-02-11T14:30:03Z</time>
      </trkpt>
      <trkpt lat="48.66443" lon="-0.57981">
        <ele>190.7</ele>
        <time>2012-02-11T14:30:05Z</time>
      </trkpt>
      <trkpt lat="48.66435" lon="-0.57981">
        <ele>190.5</ele>
        <time>2012-02-11T14:30:07Z</time>
      </trkpt>
      <trkpt lat="48.66427" lon="-0.57982">
        <ele>190.5</ele>
        <time>2012-02-11T14:30:09Z</time>
      </trkpt>
      <trkpt lat="48.66419" lon="-0.57982">
        <ele>190.5</ele>
        <time>2012-02-11T14:30:11Z</time>
      </trkpt>
      <trkpt lat="48.66412" lon="-0.57982">
        <ele>190.3</ele>
        <time>2012-02-11T14:30:13Z</time>
      </trkpt>
      <trkpt lat="48.66404" lon="-0.57982">
        <ele>190.1</ele>
        <time>2012-02-11T14:30:15Z</time>
      </trkpt>
      <trkpt lat="48.66397" lon="-0.57983">
        <ele>189.9</ele>
        <time>2012-02-11T14:30:17Z</time>
      </trkpt>
      <trkpt lat="48.6639" lon="-0.57984">
        <ele>190.2</ele>
        <time>2012-02-11T14:30:19Z</time>
      </trkpt>
      <trkpt lat="48.66382" lon="-0.57985">
        <ele>190.5</ele>
        <time>2012-02-11T14:30:21Z</time>
      </trkpt>
      <trkpt lat="48.66374" lon="-0.57986">
        <ele>190.7</ele>
        <time>2012-02-11T14:30:23Z</time>
      </trkpt>
      <trkpt lat="48.66369" lon="-0.57988">
        <ele>190.6</ele>
        <time>2012-02-11T14:30:24Z</time>
      </trkpt>
      <trkpt lat="48.66365" lon="-0.57988">
        <ele>190.5</ele>
        <time>2012-02-11T14:30:25Z</time>
      </trkpt>
      <trkpt lat="48.6636" lon="-0.57989">
        <ele>190.4</ele>
        <time>2012-02-11T14:30:26Z</time>
      </trkpt>
      <trkpt lat="48.66356" lon="-0.57989">
        <ele>190.3</ele>
        <time>2012-02-11T14:30:27Z</time>
      </trkpt>
      <trkpt lat="48.66351" lon="-0.57989">
        <ele>190.3</ele>
        <time>2012-02-11T14:30:28Z</time>
      </trkpt>
      <trkpt lat="48.66347" lon="-0.5799">
        <ele>190.4</ele>
        <time>2012-02-11T14:30:29Z</time>
      </trkpt>
      <trkpt lat="48.66338" lon="-0.5799">
        <ele>190.5</ele>
        <time>2012-02-11T14:30:31Z</time>
      </trkpt>
      <trkpt lat="48.66329" lon="-0.57991">
        <ele>190.6</ele>
        <time>2012-02-11T14:30:33Z</time>
      </trkpt>
      <trkpt lat="48.66325" lon="-0.57991">
        <ele>190.5</ele>
        <time>2012-02-11T14:30:34Z</time>
      </trkpt>
      <trkpt lat="48.66313" lon="-0.57991">
        <ele>190.4</ele>
        <time>2012-02-11T14:30:37Z</time>
      </trkpt>
      <trkpt lat="48.66306" lon="-0.57992">
        <ele>190.4</ele>
        <time>2012-02-11T14:30:39Z</time>
      </trkpt>
      <trkpt lat="48.66298" lon="-0.57992">
        <ele>190.4</ele>
        <time>2012-02-11T14:30:41Z</time>
      </trkpt>
      <trkpt lat="48.6629" lon="-0.57993">
        <ele>190.5</ele>
        <time>2012-02-11T14:30:43Z</time>
      </trkpt>
      <trkpt lat="48.66283" lon="-0.57993">
        <ele>190.4</ele>
        <time>2012-02-11T14:30:45Z</time>
      </trkpt>
      <trkpt lat="48.66275" lon="-0.57994">
        <ele>190.4</ele>
        <time>2012-02-11T14:30:47Z</time>
      </trkpt>
      <trkpt lat="48.66268" lon="-0.57995">
        <ele>190.4</ele>
        <time>2012-02-11T14:30:49Z</time>
      </trkpt>
      <trkpt lat="48.66262" lon="-0.57995">
        <ele>190.6</ele>
        <time>2012-02-11T14:30:51Z</time>
      </trkpt>
      <trkpt lat="48.66255" lon="-0.57995">
        <ele>190.5</ele>
        <time>2012-02-11T14:30:53Z</time>
      </trkpt>
      <trkpt lat="48.66247" lon="-0.57996">
        <ele>189.9</ele>
        <time>2012-02-11T14:30:55Z</time>
      </trkpt>
      <trkpt lat="48.6624" lon="-0.57997">
        <ele>190</ele>
        <time>2012-02-11T14:30:57Z</time>
      </trkpt>
      <trkpt lat="48.66233" lon="-0.57998">
        <ele>190.7</ele>
        <time>2012-02-11T14:30:59Z</time>
      </trkpt>
      <trkpt lat="48.66227" lon="-0.57998">
        <ele>191.4</ele>
        <time>2012-02-11T14:31:01Z</time>
      </trkpt>
      <trkpt lat="48.6622" lon="-0.57999">
        <ele>191</ele>
        <time>2012-02-11T14:31:03Z</time>
      </trkpt>
      <trkpt lat="48.66213" lon="-0.57999">
        <ele>190.1</ele>
        <time>2012-02-11T14:31:05Z</time>
      </trkpt>
      <trkpt lat="48.66207" lon="-0.57999">
        <ele>190</ele>
        <time>2012-02-11T14:31:07Z</time>
      </trkpt>
      <trkpt lat="48.662" lon="-0.58">
        <ele>189.7</ele>
        <time>2012-02-11T14:31:09Z</time>
      </trkpt>
      <trkpt lat="48.66193" lon="-0.58001">
        <ele>189.3</ele>
        <time>2012-02-11T14:31:11Z</time>
      </trkpt>
      <trkpt lat="48.66186" lon="-0.58001">
        <ele>189.1</ele>
        <time>2012-02-11T14:31:13Z</time>
      </trkpt>
      <trkpt lat="48.66179" lon="-0.58002">
        <ele>188.9</ele>
        <time>2012-02-11T14:31:15Z</time>
      </trkpt>
      <trkpt lat="48.66171" lon="-0.58003">
        <ele>189.7</ele>
        <time>2012-02-11T14:31:17Z</time>
      </trkpt>
      <trkpt lat="48.66163" lon="-0.58004">
        <ele>189.6</ele>
        <time>2012-02-11T14:31:19Z</time>
      </trkpt>
      <trkpt lat="48.66156" lon="-0.58004">
        <ele>189.3</ele>
        <time>2012-02-11T14:31:21Z</time>
      </trkpt>
      <trkpt lat="48.66148" lon="-0.58004">
        <ele>189.4</ele>
        <time>2012-02-11T14:31:23Z</time>
      </trkpt>
      <trkpt lat="48.66141" lon="-0.58005">
        <ele>189.4</ele>
        <time>2012-02-11T14:31:25Z</time>
      </trkpt>
      <trkpt lat="48.66133" lon="-0.58006">
        <ele>189.1</ele>
        <time>2012-02-11T14:31:27Z</time>
      </trkpt>
      <trkpt lat="48.66126" lon="-0.58006">
        <ele>188.9</ele>
        <time>2012-02-11T14:31:29Z</time>
      </trkpt>
      <trkpt lat="48.66119" lon="-0.58007">
        <ele>189.4</ele>
        <time>2012-02-11T14:31:31Z</time>
      </trkpt>
      <trkpt lat="48.66112" lon="-0.58008">
        <ele>189.5</ele>
        <time>2012-02-11T14:31:33Z</time>
      </trkpt>
      <trkpt lat="48.66105" lon="-0.58009">
        <ele>189.5</ele>
        <time>2012-02-11T14:31:35Z</time>
      </trkpt>
      <trkpt lat="48.66101" lon="-0.58009">
        <ele>189.5</ele>
        <time>2012-02-11T14:31:36Z</time>
      </trkpt>
      <trkpt lat="48.6609" lon="-0.5801">
        <ele>189.1</ele>
        <time>2012-02-11T14:31:39Z</time>
      </trkpt>
      <trkpt lat="48.66083" lon="-0.5801">
        <ele>188.7</ele>
        <time>2012-02-11T14:31:41Z</time>
      </trkpt>
      <trkpt lat="48.66076" lon="-0.5801">
        <ele>189.2</ele>
        <time>2012-02-11T14:31:43Z</time>
      </trkpt>
      <trkpt lat="48.6607" lon="-0.5801">
        <ele>189.2</ele>
        <time>2012-02-11T14:31:45Z</time>
      </trkpt>
      <trkpt lat="48.66063" lon="-0.58011">
        <ele>189</ele>
        <time>2012-02-11T14:31:47Z</time>
      </trkpt>
      <trkpt lat="48.66056" lon="-0.58011">
        <ele>188.6</ele>
        <time>2012-02-11T14:31:49Z</time>
      </trkpt>
      <trkpt lat="48.6605" lon="-0.58011">
        <ele>188.4</ele>
        <time>2012-02-11T14:31:51Z</time>
      </trkpt>
      <trkpt lat="48.66043" lon="-0.58012">
        <ele>188.4</ele>
        <time>2012-02-11T14:31:53Z</time>
      </trkpt>
      <trkpt lat="48.66036" lon="-0.58013">
        <ele>189.3</ele>
        <time>2012-02-11T14:31:55Z</time>
      </trkpt>
      <trkpt lat="48.6603" lon="-0.58013">
        <ele>188.8</ele>
        <time>2012-02-11T14:31:57Z</time>
      </trkpt>
      <trkpt lat="48.66024" lon="-0.58014">
        <ele>188.9</ele>
        <time>2012-02-11T14:31:59Z</time>
      </trkpt>
      <trkpt lat="48.66015" lon="-0.58014">
        <ele>188.8</ele>
        <time>2012-02-11T14:32:02Z</time>
      </trkpt>
      <trkpt lat="48.66007" lon="-0.58014">
        <ele>188.6</ele>
        <time>2012-02-11T14:32:05Z</time>
      </trkpt>
      <trkpt lat="48.66001" lon="-0.58014">
        <ele>188.9</ele>
        <time>2012-02-11T14:32:07Z</time>
      </trkpt>
      <trkpt lat="48.65994" lon="-0.58015">
        <ele>188.8</ele>
        <time>2012-02-11T14:32:09Z</time>
      </trkpt>
      <trkpt lat="48.65987" lon="-0.58016">
        <ele>188.5</ele>
        <time>2012-02-11T14:32:11Z</time>
      </trkpt>
      <trkpt lat="48.6598" lon="-0.58016">
        <ele>188.5</ele>
        <time>2012-02-11T14:32:13Z</time>
      </trkpt>
      <trkpt lat="48.65971" lon="-0.58017">
        <ele>188.4</ele>
        <time>2012-02-11T14:32:15Z</time>
      </trkpt>
      <trkpt lat="48.65963" lon="-0.58017">
        <ele>188.3</ele>
        <time>2012-02-11T14:32:17Z</time>
      </trkpt>
      <trkpt lat="48.65956" lon="-0.58018">
        <ele>188.2</ele>
        <time>2012-02-11T14:32:19Z</time>
      </trkpt>
      <trkpt lat="48.65948" lon="-0.58018">
        <ele>188.9</ele>
        <time>2012-02-11T14:32:21Z</time>
      </trkpt>
      <trkpt lat="48.65941" lon="-0.58018">
        <ele>188.3</ele>
        <time>2012-02-11T14:32:23Z</time>
      </trkpt>
      <trkpt lat="48.65933" lon="-0.58019">
        <ele>188.4</ele>
        <time>2012-02-11T14:32:25Z</time>
      </trkpt>
      <trkpt lat="48.65925" lon="-0.58019">
        <ele>188.6</ele>
        <time>2012-02-11T14:32:27Z</time>
      </trkpt>
      <trkpt lat="48.65917" lon="-0.58019">
        <ele>188.2</ele>
        <time>2012-02-11T14:32:29Z</time>
      </trkpt>
      <trkpt lat="48.65909" lon="-0.5802">
        <ele>187.8</ele>
        <time>2012-02-11T14:32:31Z</time>
      </trkpt>
      <trkpt lat="48.65902" lon="-0.58021">
        <ele>188.2</ele>
        <time>2012-02-11T14:32:33Z</time>
      </trkpt>
      <trkpt lat="48.65894" lon="-0.58021">
        <ele>188.5</ele>
        <time>2012-02-11T14:32:35Z</time>
      </trkpt>
      <trkpt lat="48.65886" lon="-0.58021">
        <ele>188.3</ele>
        <time>2012-02-11T14:32:38Z</time>
      </trkpt>
      <trkpt lat="48.65883" lon="-0.58022">
        <ele>188</ele>
        <time>2012-02-11T14:32:39Z</time>
      </trkpt>
      <trkpt lat="48.65873" lon="-0.58022">
        <ele>187.9</ele>
        <time>2012-02-11T14:32:42Z</time>
      </trkpt>
      <trkpt lat="48.65867" lon="-0.58022">
        <ele>187.9</ele>
        <time>2012-02-11T14:32:44Z</time>
      </trkpt>
      <trkpt lat="48.6586" lon="-0.58022">
        <ele>187.9</ele>
        <time>2012-02-11T14:32:46Z</time>
      </trkpt>
      <trkpt lat="48.65853" lon="-0.58022">
        <ele>187.9</ele>
        <time>2012-02-11T14:32:48Z</time>
      </trkpt>
      <trkpt lat="48.65846" lon="-0.58022">
        <ele>187.8</ele>
        <time>2012-02-11T14:32:50Z</time>
      </trkpt>
      <trkpt lat="48.65839" lon="-0.58023">
        <ele>188.2</ele>
        <time>2012-02-11T14:32:52Z</time>
      </trkpt>
      <trkpt lat="48.65833" lon="-0.58023">
        <ele>187.9</ele>
        <time>2012-02-11T14:32:54Z</time>
      </trkpt>
      <trkpt lat="48.65827" lon="-0.58023">
        <ele>187.6</ele>
        <time>2012-02-11T14:32:56Z</time>
      </trkpt>
      <trkpt lat="48.6582" lon="-0.58024">
        <ele>187.5</ele>
        <time>2012-02-11T14:32:58Z</time>
      </trkpt>
      <trkpt lat="48.65814" lon="-0.58024">
        <ele>187.7</ele>
        <time>2012-02-11T14:33:00Z</time>
      </trkpt>
      <trkpt lat="48.65808" lon="-0.58025">
        <ele>187.8</ele>
        <time>2012-02-11T14:33:02Z</time>
      </trkpt>
      <trkpt lat="48.65801" lon="-0.58026">
        <ele>187.6</ele>
        <time>2012-02-11T14:33:04Z</time>
      </trkpt>
      <trkpt lat="48.65793" lon="-0.58025">
        <ele>188</ele>
        <time>2012-02-11T14:33:07Z</time>
      </trkpt>
      <trkpt lat="48.65784" lon="-0.58026">
        <ele>188.1</ele>
        <time>2012-02-11T14:33:10Z</time>
      </trkpt>
      <trkpt lat="48.65778" lon="-0.58027">
        <ele>188</ele>
        <time>2012-02-11T14:33:12Z</time>
      </trkpt>
      <trkpt lat="48.65769" lon="-0.58029">
        <ele>187.7</ele>
        <time>2012-02-11T14:33:15Z</time>
      </trkpt>
      <trkpt lat="48.65762" lon="-0.58029">
        <ele>187.7</ele>
        <time>2012-02-11T14:33:17Z</time>
      </trkpt>
      <trkpt lat="48.65756" lon="-0.58031">
        <ele>187.5</ele>
        <time>2012-02-11T14:33:19Z</time>
      </trkpt>
      <trkpt lat="48.6575" lon="-0.58032">
        <ele>187.7</ele>
        <time>2012-02-11T14:33:21Z</time>
      </trkpt>
      <trkpt lat="48.65743" lon="-0.58032">
        <ele>188</ele>
        <time>2012-02-11T14:33:23Z</time>
      </trkpt>
      <trkpt lat="48.65737" lon="-0.58032">
        <ele>187.7</ele>
        <time>2012-02-11T14:33:25Z</time>
      </trkpt>
      <trkpt lat="48.6573" lon="-0.58032">
        <ele>187.6</ele>
        <time>2012-02-11T14:33:27Z</time>
      </trkpt>
      <trkpt lat="48.65723" lon="-0.58033">
        <ele>187.4</ele>
        <time>2012-02-11T14:33:29Z</time>
      </trkpt>
      <trkpt lat="48.65716" lon="-0.58034">
        <ele>187.4</ele>
        <time>2012-02-11T14:33:31Z</time>
      </trkpt>
      <trkpt lat="48.6571" lon="-0.58034">
        <ele>187.4</ele>
        <time>2012-02-11T14:33:33Z</time>
      </trkpt>
      <trkpt lat="48.65702" lon="-0.58033">
        <ele>187.2</ele>
        <time>2012-02-11T14:33:35Z</time>
      </trkpt>
      <trkpt lat="48.65695" lon="-0.58034">
        <ele>187.2</ele>
        <time>2012-02-11T14:33:37Z</time>
      </trkpt>
      <trkpt lat="48.65688" lon="-0.58035">
        <ele>187.4</ele>
        <time>2012-02-11T14:33:39Z</time>
      </trkpt>
      <trkpt lat="48.65685" lon="-0.58035">
        <ele>187.2</ele>
        <time>2012-02-11T14:33:40Z</time>
      </trkpt>
      <trkpt lat="48.65675" lon="-0.58035">
        <ele>186.8</ele>
        <time>2012-02-11T14:33:43Z</time>
      </trkpt>
      <trkpt lat="48.65668" lon="-0.58036">
        <ele>186.7</ele>
        <time>2012-02-11T14:33:45Z</time>
      </trkpt>
      <trkpt lat="48.65661" lon="-0.58036">
        <ele>186.8</ele>
        <time>2012-02-11T14:33:47Z</time>
      </trkpt>
      <trkpt lat="48.65654" lon="-0.58036">
        <ele>187.3</ele>
        <time>2012-02-11T14:33:49Z</time>
      </trkpt>
      <trkpt lat="48.65647" lon="-0.58036">
        <ele>186.9</ele>
        <time>2012-02-11T14:33:51Z</time>
      </trkpt>
      <trkpt lat="48.6564" lon="-0.58037">
        <ele>187.4</ele>
        <time>2012-02-11T14:33:53Z</time>
      </trkpt>
      <trkpt lat="48.65633" lon="-0.58038">
        <ele>187.5</ele>
        <time>2012-02-11T14:33:55Z</time>
      </trkpt>
      <trkpt lat="48.65627" lon="-0.58037">
        <ele>187.2</ele>
        <time>2012-02-11T14:33:57Z</time>
      </trkpt>
      <trkpt lat="48.6562" lon="-0.58037">
        <ele>186.9</ele>
        <time>2012-02-11T14:33:59Z</time>
      </trkpt>
      <trkpt lat="48.65613" lon="-0.58037">
        <ele>186.9</ele>
        <time>2012-02-11T14:34:01Z</time>
      </trkpt>
      <trkpt lat="48.65606" lon="-0.58038">
        <ele>187.3</ele>
        <time>2012-02-11T14:34:03Z</time>
      </trkpt>
      <trkpt lat="48.65598" lon="-0.58038">
        <ele>186.5</ele>
        <time>2012-02-11T14:34:05Z</time>
      </trkpt>
      <trkpt lat="48.65591" lon="-0.58039">
        <ele>186.1</ele>
        <time>2012-02-11T14:34:07Z</time>
      </trkpt>
      <trkpt lat="48.65584" lon="-0.58039">
        <ele>186.2</ele>
        <time>2012-02-11T14:34:09Z</time>
      </trkpt>
      <trkpt lat="48.65577" lon="-0.5804">
        <ele>186.2</ele>
        <time>2012-02-11T14:34:11Z</time>
      </trkpt>
      <trkpt lat="48.6557" lon="-0.58041">
        <ele>186</ele>
        <time>2012-02-11T14:34:13Z</time>
      </trkpt>
      <trkpt lat="48.65563" lon="-0.58041">
        <ele>186.7</ele>
        <time>2012-02-11T14:34:15Z</time>
      </trkpt>
      <trkpt lat="48.65555" lon="-0.58042">
        <ele>186.3</ele>
        <time>2012-02-11T14:34:17Z</time>
      </trkpt>
      <trkpt lat="48.65547" lon="-0.58043">
        <ele>186.9</ele>
        <time>2012-02-11T14:34:19Z</time>
      </trkpt>
      <trkpt lat="48.6554" lon="-0.58044">
        <ele>186.9</ele>
        <time>2012-02-11T14:34:21Z</time>
      </trkpt>
      <trkpt lat="48.65532" lon="-0.58046">
        <ele>186.6</ele>
        <time>2012-02-11T14:34:23Z</time>
      </trkpt>
      <trkpt lat="48.65525" lon="-0.58047">
        <ele>186.4</ele>
        <time>2012-02-11T14:34:25Z</time>
      </trkpt>
      <trkpt lat="48.65517" lon="-0.58048">
        <ele>186</ele>
        <time>2012-02-11T14:34:27Z</time>
      </trkpt>
      <trkpt lat="48.6551" lon="-0.58049">
        <ele>185.9</ele>
        <time>2012-02-11T14:34:29Z</time>
      </trkpt>
      <trkpt lat="48.65503" lon="-0.5805">
        <ele>186.5</ele>
        <time>2012-02-11T14:34:31Z</time>
      </trkpt>
      <trkpt lat="48.65496" lon="-0.58051">
        <ele>186.3</ele>
        <time>2012-02-11T14:34:33Z</time>
      </trkpt>
      <trkpt lat="48.6549" lon="-0.58053">
        <ele>186.1</ele>
        <time>2012-02-11T14:34:35Z</time>
      </trkpt>
      <trkpt lat="48.65483" lon="-0.58054">
        <ele>186.6</ele>
        <time>2012-02-11T14:34:37Z</time>
      </trkpt>
      <trkpt lat="48.65477" lon="-0.58056">
        <ele>187.1</ele>
        <time>2012-02-11T14:34:39Z</time>
      </trkpt>
      <trkpt lat="48.65469" lon="-0.58057">
        <ele>186.9</ele>
        <time>2012-02-11T14:34:41Z</time>
      </trkpt>
      <trkpt lat="48.65466" lon="-0.58058">
        <ele>186.9</ele>
        <time>2012-02-11T14:34:42Z</time>
      </trkpt>
      <trkpt lat="48.65454" lon="-0.58061">
        <ele>186.9</ele>
        <time>2012-02-11T14:34:45Z</time>
      </trkpt>
      <trkpt lat="48.65446" lon="-0.58063">
        <ele>186.8</ele>
        <time>2012-02-11T14:34:47Z</time>
      </trkpt>
      <trkpt lat="48.65438" lon="-0.58066">
        <ele>186.8</ele>
        <time>2012-02-11T14:34:49Z</time>
      </trkpt>
      <trkpt lat="48.65429" lon="-0.5807">
        <ele>186.9</ele>
        <time>2012-02-11T14:34:51Z</time>
      </trkpt>
      <trkpt lat="48.65421" lon="-0.58072">
        <ele>187</ele>
        <time>2012-02-11T14:34:53Z</time>
      </trkpt>
      <trkpt lat="48.65413" lon="-0.58075">
        <ele>187.1</ele>
        <time>2012-02-11T14:34:55Z</time>
      </trkpt>
      <trkpt lat="48.65404" lon="-0.58079">
        <ele>187</ele>
        <time>2012-02-11T14:34:57Z</time>
      </trkpt>
      <trkpt lat="48.65396" lon="-0.58082">
        <ele>186.7</ele>
        <time>2012-02-11T14:34:59Z</time>
      </trkpt>
      <trkpt lat="48.65389" lon="-0.58085">
        <ele>186.9</ele>
        <time>2012-02-11T14:35:01Z</time>
      </trkpt>
      <trkpt lat="48.65381" lon="-0.58088">
        <ele>187</ele>
        <time>2012-02-11T14:35:03Z</time>
      </trkpt>
      <trkpt lat="48.65373" lon="-0.58091">
        <ele>186.8</ele>
        <time>2012-02-11T14:35:05Z</time>
      </trkpt>
      <trkpt lat="48.65366" lon="-0.58094">
        <ele>186.8</ele>
        <time>2012-02-11T14:35:07Z</time>
      </trkpt>
      <trkpt lat="48.65359" lon="-0.58097">
        <ele>186.7</ele>
        <time>2012-02-11T14:35:09Z</time>
      </trkpt>
      <trkpt lat="48.65351" lon="-0.581">
        <ele>186.7</ele>
        <time>2012-02-11T14:35:11Z</time>
      </trkpt>
      <trkpt lat="48.65344" lon="-0.58103">
        <ele>186.7</ele>
        <time>2012-02-11T14:35:13Z</time>
      </trkpt>
      <trkpt lat="48.65337" lon="-0.58105">
        <ele>186.9</ele>
        <time>2012-02-11T14:35:15Z</time>
      </trkpt>
      <trkpt lat="48.6533" lon="-0.58108">
        <ele>187</ele>
        <time>2012-02-11T14:35:17Z</time>
      </trkpt>
      <trkpt lat="48.65323" lon="-0.5811">
        <ele>186.5</ele>
        <time>2012-02-11T14:35:19Z</time>
      </trkpt>
      <trkpt lat="48.65315" lon="-0.58113">
        <ele>186.9</ele>
        <time>2012-02-11T14:35:23Z</time>
      </trkpt>
      <trkpt lat="48.65308" lon="-0.58116">
        <ele>186.4</ele>
        <time>2012-02-11T14:35:26Z</time>
      </trkpt>
      <trkpt lat="48.65303" lon="-0.58118">
        <ele>185.9</ele>
        <time>2012-02-11T14:35:28Z</time>
      </trkpt>
      <trkpt lat="48.65294" lon="-0.58122">
        <ele>185.8</ele>
        <time>2012-02-11T14:35:31Z</time>
      </trkpt>
      <trkpt lat="48.65286" lon="-0.58126">
        <ele>185.4</ele>
        <time>2012-02-11T14:35:34Z</time>
      </trkpt>
      <trkpt lat="48.65279" lon="-0.58128">
        <ele>185.2</ele>
        <time>2012-02-11T14:35:36Z</time>
      </trkpt>
      <trkpt lat="48.65273" lon="-0.58131">
        <ele>185.5</ele>
        <time>2012-02-11T14:35:38Z</time>
      </trkpt>
      <trkpt lat="48.65265" lon="-0.58133">
        <ele>186.5</ele>
        <time>2012-02-11T14:35:41Z</time>
      </trkpt>
      <trkpt lat="48.65256" lon="-0.58134">
        <ele>185.2</ele>
        <time>2012-02-11T14:37:05Z</time>
      </trkpt>
      <trkpt lat="48.65256" lon="-0.58134">
        <ele>185.2</ele>
        <time>2012-02-11T14:37:06Z</time>
      </trkpt>
      <trkpt lat="48.65246" lon="-0.58137">
        <ele>186.1</ele>
        <time>2012-02-11T14:38:35Z</time>
      </trkpt>
      <trkpt lat="48.65233" lon="-0.58141">
        <ele>185.9</ele>
        <time>2012-02-11T14:38:40Z</time>
      </trkpt>
      <trkpt lat="48.65225" lon="-0.58143">
        <ele>186</ele>
        <time>2012-02-11T14:38:43Z</time>
      </trkpt>
      <trkpt lat="48.65216" lon="-0.58145">
        <ele>185.5</ele>
        <time>2012-02-11T14:38:46Z</time>
      </trkpt>
      <trkpt lat="48.65208" lon="-0.58147">
        <ele>186</ele>
        <time>2012-02-11T14:38:49Z</time>
      </trkpt>
      <trkpt lat="48.652" lon="-0.58148">
        <ele>185.8</ele>
        <time>2012-02-11T14:38:52Z</time>
      </trkpt>
      <trkpt lat="48.65191" lon="-0.58149">
        <ele>185.3</ele>
        <time>2012-02-11T14:38:55Z</time>
      </trkpt>
      <trkpt lat="48.65185" lon="-0.5815">
        <ele>185.5</ele>
        <time>2012-02-11T14:38:57Z</time>
      </trkpt>
      <trkpt lat="48.65179" lon="-0.5815">
        <ele>186.1</ele>
        <time>2012-02-11T14:38:59Z</time>
      </trkpt>
      <trkpt lat="48.65172" lon="-0.5815">
        <ele>186.4</ele>
        <time>2012-02-11T14:39:01Z</time>
      </trkpt>
      <trkpt lat="48.65164" lon="-0.5815">
        <ele>186.5</ele>
        <time>2012-02-11T14:39:03Z</time>
      </trkpt>
      <trkpt lat="48.65156" lon="-0.5815">
        <ele>186.3</ele>
        <time>2012-02-11T14:39:05Z</time>
      </trkpt>
      <trkpt lat="48.65148" lon="-0.5815">
        <ele>186.1</ele>
        <time>2012-02-11T14:39:07Z</time>
      </trkpt>
      <trkpt lat="48.6514" lon="-0.5815">
        <ele>186</ele>
        <time>2012-02-11T14:39:09Z</time>
      </trkpt>
      <trkpt lat="48.65132" lon="-0.58149">
        <ele>186.2</ele>
        <time>2012-02-11T14:39:11Z</time>
      </trkpt>
      <trkpt lat="48.65124" lon="-0.58148">
        <ele>186.6</ele>
        <time>2012-02-11T14:39:13Z</time>
      </trkpt>
      <trkpt lat="48.65116" lon="-0.58148">
        <ele>186.6</ele>
        <time>2012-02-11T14:39:15Z</time>
      </trkpt>
      <trkpt lat="48.65108" lon="-0.58147">
        <ele>186</ele>
        <time>2012-02-11T14:39:17Z</time>
      </trkpt>
      <trkpt lat="48.65101" lon="-0.58146">
        <ele>185.4</ele>
        <time>2012-02-11T14:39:19Z</time>
      </trkpt>
      <trkpt lat="48.65093" lon="-0.58144">
        <ele>185.6</ele>
        <time>2012-02-11T14:39:21Z</time>
      </trkpt>
      <trkpt lat="48.65086" lon="-0.58143">
        <ele>185.5</ele>
        <time>2012-02-11T14:39:23Z</time>
      </trkpt>
      <trkpt lat="48.65079" lon="-0.58142">
        <ele>185.4</ele>
        <time>2012-02-11T14:39:25Z</time>
      </trkpt>
      <trkpt lat="48.65072" lon="-0.5814">
        <ele>185.4</ele>
        <time>2012-02-11T14:39:27Z</time>
      </trkpt>
      <trkpt lat="48.65065" lon="-0.58139">
        <ele>185.4</ele>
        <time>2012-02-11T14:39:29Z</time>
      </trkpt>
      <trkpt lat="48.6506" lon="-0.58137">
        <ele>185.1</ele>
        <time>2012-02-11T14:39:31Z</time>
      </trkpt>
      <trkpt lat="48.65053" lon="-0.58135">
        <ele>185.4</ele>
        <time>2012-02-11T14:39:33Z</time>
      </trkpt>
      <trkpt lat="48.65045" lon="-0.58133">
        <ele>185.7</ele>
        <time>2012-02-11T14:39:36Z</time>
      </trkpt>
      <trkpt lat="48.65042" lon="-0.58132">
        <ele>185.8</ele>
        <time>2012-02-11T14:39:37Z</time>
      </trkpt>
      <trkpt lat="48.65029" lon="-0.58126">
        <ele>185.3</ele>
        <time>2012-02-11T14:39:42Z</time>
      </trkpt>
      <trkpt lat="48.65021" lon="-0.58124">
        <ele>185.5</ele>
        <time>2012-02-11T14:39:45Z</time>
      </trkpt>
      <trkpt lat="48.65012" lon="-0.58119">
        <ele>184.7</ele>
        <time>2012-02-11T14:39:49Z</time>
      </trkpt>
      <trkpt lat="48.65005" lon="-0.58116">
        <ele>184.9</ele>
        <time>2012-02-11T14:39:53Z</time>
      </trkpt>
      <trkpt lat="48.64998" lon="-0.58115">
        <ele>184.8</ele>
        <time>2012-02-11T14:39:56Z</time>
      </trkpt>
      <trkpt lat="48.64991" lon="-0.58112">
        <ele>184.6</ele>
        <time>2012-02-11T14:39:59Z</time>
      </trkpt>
      <trkpt lat="48.64983" lon="-0.58109">
        <ele>184.5</ele>
        <time>2012-02-11T14:40:02Z</time>
      </trkpt>
      <trkpt lat="48.64977" lon="-0.58106">
        <ele>184.8</ele>
        <time>2012-02-11T14:40:04Z</time>
      </trkpt>
      <trkpt lat="48.64969" lon="-0.58101">
        <ele>185.1</ele>
        <time>2012-02-11T14:40:07Z</time>
      </trkpt>
      <trkpt lat="48.64961" lon="-0.58096">
        <ele>185.5</ele>
        <time>2012-02-11T14:40:11Z</time>
      </trkpt>
      <trkpt lat="48.64954" lon="-0.58095">
        <ele>185.5</ele>
        <time>2012-02-11T14:40:15Z</time>
      </trkpt>
      <trkpt lat="48.64946" lon="-0.58093">
        <ele>185</ele>
        <time>2012-02-11T14:40:19Z</time>
      </trkpt>
      <trkpt lat="48.64939" lon="-0.58097">
        <ele>185.6</ele>
        <time>2012-02-11T14:40:26Z</time>
      </trkpt>
      <trkpt lat="48.64932" lon="-0.58092">
        <ele>185.1</ele>
        <time>2012-02-11T14:40:30Z</time>
      </trkpt>
      <trkpt lat="48.64924" lon="-0.58088">
        <ele>184.7</ele>
        <time>2012-02-11T14:40:33Z</time>
      </trkpt>
      <trkpt lat="48.64918" lon="-0.58086">
        <ele>185.1</ele>
        <time>2012-02-11T14:40:35Z</time>
      </trkpt>
      <trkpt lat="48.6491" lon="-0.58084">
        <ele>184.3</ele>
        <time>2012-02-11T14:40:37Z</time>
      </trkpt>
      <trkpt lat="48.64906" lon="-0.58083">
        <ele>184.2</ele>
        <time>2012-02-11T14:40:38Z</time>
      </trkpt>
      <trkpt lat="48.64895" lon="-0.58079">
        <ele>184.3</ele>
        <time>2012-02-11T14:40:41Z</time>
      </trkpt>
      <trkpt lat="48.64888" lon="-0.58076">
        <ele>184.4</ele>
        <time>2012-02-11T14:40:43Z</time>
      </trkpt>
      <trkpt lat="48.64881" lon="-0.58074">
        <ele>185</ele>
        <time>2012-02-11T14:40:45Z</time>
      </trkpt>
      <trkpt lat="48.64873" lon="-0.58071">
        <ele>185.6</ele>
        <time>2012-02-11T14:40:47Z</time>
      </trkpt>
      <trkpt lat="48.64866" lon="-0.58068">
        <ele>185.2</ele>
        <time>2012-02-11T14:40:49Z</time>
      </trkpt>
      <trkpt lat="48.6486" lon="-0.58064">
        <ele>184.5</ele>
        <time>2012-02-11T14:40:51Z</time>
      </trkpt>
      <trkpt lat="48.64853" lon="-0.58061">
        <ele>184.8</ele>
        <time>2012-02-11T14:40:53Z</time>
      </trkpt>
      <trkpt lat="48.64846" lon="-0.58059">
        <ele>185.1</ele>
        <time>2012-02-11T14:40:55Z</time>
      </trkpt>
      <trkpt lat="48.64839" lon="-0.58058">
        <ele>185.3</ele>
        <time>2012-02-11T14:40:57Z</time>
      </trkpt>
      <trkpt lat="48.64833" lon="-0.58057">
        <ele>185</ele>
        <time>2012-02-11T14:40:59Z</time>
      </trkpt>
      <trkpt lat="48.64826" lon="-0.58054">
        <ele>184.5</ele>
        <time>2012-02-11T14:41:01Z</time>
      </trkpt>
      <trkpt lat="48.64819" lon="-0.58052">
        <ele>184.8</ele>
        <time>2012-02-11T14:41:03Z</time>
      </trkpt>
      <trkpt lat="48.64813" lon="-0.58051">
        <ele>184.8</ele>
        <time>2012-02-11T14:41:05Z</time>
      </trkpt>
      <trkpt lat="48.64807" lon="-0.58048">
        <ele>184.9</ele>
        <time>2012-02-11T14:41:07Z</time>
      </trkpt>
      <trkpt lat="48.64801" lon="-0.58046">
        <ele>185</ele>
        <time>2012-02-11T14:41:09Z</time>
      </trkpt>
      <trkpt lat="48.64794" lon="-0.58044">
        <ele>184.5</ele>
        <time>2012-02-11T14:41:11Z</time>
      </trkpt>
      <trkpt lat="48.64787" lon="-0.58041">
        <ele>184</ele>
        <time>2012-02-11T14:41:13Z</time>
      </trkpt>
      <trkpt lat="48.64781" lon="-0.58039">
        <ele>184.4</ele>
        <time>2012-02-11T14:41:15Z</time>
      </trkpt>
      <trkpt lat="48.64775" lon="-0.58037">
        <ele>184</ele>
        <time>2012-02-11T14:41:17Z</time>
      </trkpt>
      <trkpt lat="48.64769" lon="-0.58035">
        <ele>184.2</ele>
        <time>2012-02-11T14:41:19Z</time>
      </trkpt>
      <trkpt lat="48.64763" lon="-0.58032">
        <ele>184.4</ele>
        <time>2012-02-11T14:41:21Z</time>
      </trkpt>
      <trkpt lat="48.64754" lon="-0.58029">
        <ele>183.8</ele>
        <time>2012-02-11T14:41:24Z</time>
      </trkpt>
      <trkpt lat="48.64746" lon="-0.58027">
        <ele>185.1</ele>
        <time>2012-02-11T14:41:27Z</time>
      </trkpt>
      <trkpt lat="48.64737" lon="-0.58025">
        <ele>184.8</ele>
        <time>2012-02-11T14:41:30Z</time>
      </trkpt>
      <trkpt lat="48.64729" lon="-0.58024">
        <ele>184.8</ele>
        <time>2012-02-11T14:41:33Z</time>
      </trkpt>
      <trkpt lat="48.64723" lon="-0.58022">
        <ele>184.6</ele>
        <time>2012-02-11T14:41:35Z</time>
      </trkpt>
      <trkpt lat="48.64717" lon="-0.58019">
        <ele>184.4</ele>
        <time>2012-02-11T14:41:37Z</time>
      </trkpt>
      <trkpt lat="48.6471" lon="-0.58017">
        <ele>184.3</ele>
        <time>2012-02-11T14:41:39Z</time>
      </trkpt>
      <trkpt lat="48.64707" lon="-0.58016">
        <ele>184.5</ele>
        <time>2012-02-11T14:41:40Z</time>
      </trkpt>
      <trkpt lat="48.64696" lon="-0.5801">
        <ele>185.1</ele>
        <time>2012-02-11T14:41:44Z</time>
      </trkpt>
      <trkpt lat="48.64689" lon="-0.58006">
        <ele>185.1</ele>
        <time>2012-02-11T14:41:47Z</time>
      </trkpt>
      <trkpt lat="48.64681" lon="-0.58003">
        <ele>184.6</ele>
        <time>2012-02-11T14:41:50Z</time>
      </trkpt>
      <trkpt lat="48.64673" lon="-0.58">
        <ele>184.6</ele>
        <time>2012-02-11T14:41:53Z</time>
      </trkpt>
      <trkpt lat="48.64666" lon="-0.57998">
        <ele>184.9</ele>
        <time>2012-02-11T14:41:56Z</time>
      </trkpt>
      <trkpt lat="48.64658" lon="-0.57998">
        <ele>185.1</ele>
        <time>2012-02-11T14:41:59Z</time>
      </trkpt>
      <trkpt lat="48.64651" lon="-0.57996">
        <ele>185</ele>
        <time>2012-02-11T14:42:02Z</time>
      </trkpt>
      <trkpt lat="48.64642" lon="-0.57995">
        <ele>185.1</ele>
        <time>2012-02-11T14:42:05Z</time>
      </trkpt>
      <trkpt lat="48.64634" lon="-0.57994">
        <ele>185</ele>
        <time>2012-02-11T14:42:08Z</time>
      </trkpt>
      <trkpt lat="48.64625" lon="-0.57994">
        <ele>184.5</ele>
        <time>2012-02-11T14:42:11Z</time>
      </trkpt>
      <trkpt lat="48.64619" lon="-0.57993">
        <ele>184.3</ele>
        <time>2012-02-11T14:42:13Z</time>
      </trkpt>
      <trkpt lat="48.64613" lon="-0.57993">
        <ele>184.4</ele>
        <time>2012-02-11T14:42:15Z</time>
      </trkpt>
      <trkpt lat="48.64607" lon="-0.57993">
        <ele>184.7</ele>
        <time>2012-02-11T14:42:17Z</time>
      </trkpt>
      <trkpt lat="48.64601" lon="-0.57993">
        <ele>184.5</ele>
        <time>2012-02-11T14:42:19Z</time>
      </trkpt>
      <trkpt lat="48.64592" lon="-0.57992">
        <ele>184.4</ele>
        <time>2012-02-11T14:42:22Z</time>
      </trkpt>
      <trkpt lat="48.64583" lon="-0.57992">
        <ele>184.3</ele>
        <time>2012-02-11T14:42:25Z</time>
      </trkpt>
      <trkpt lat="48.64577" lon="-0.57993">
        <ele>184.6</ele>
        <time>2012-02-11T14:42:27Z</time>
      </trkpt>
      <trkpt lat="48.64568" lon="-0.57994">
        <ele>184.8</ele>
        <time>2012-02-11T14:42:30Z</time>
      </trkpt>
      <trkpt lat="48.64562" lon="-0.57995">
        <ele>184.8</ele>
        <time>2012-02-11T14:42:32Z</time>
      </trkpt>
      <trkpt lat="48.64556" lon="-0.57996">
        <ele>184.6</ele>
        <time>2012-02-11T14:42:34Z</time>
      </trkpt>
      <trkpt lat="48.64549" lon="-0.57997">
        <ele>184.4</ele>
        <time>2012-02-11T14:42:36Z</time>
      </trkpt>
      <trkpt lat="48.64542" lon="-0.57999">
        <ele>184.2</ele>
        <time>2012-02-11T14:42:38Z</time>
      </trkpt>
      <trkpt lat="48.64535" lon="-0.58001">
        <ele>184.6</ele>
        <time>2012-02-11T14:42:40Z</time>
      </trkpt>
      <trkpt lat="48.64531" lon="-0.58003">
        <ele>184.6</ele>
        <time>2012-02-11T14:42:41Z</time>
      </trkpt>
      <trkpt lat="48.64521" lon="-0.58006">
        <ele>184.9</ele>
        <time>2012-02-11T14:42:44Z</time>
      </trkpt>
      <trkpt lat="48.64513" lon="-0.58009">
        <ele>184.6</ele>
        <time>2012-02-11T14:42:46Z</time>
      </trkpt>
      <trkpt lat="48.64506" lon="-0.58012">
        <ele>184.1</ele>
        <time>2012-02-11T14:42:48Z</time>
      </trkpt>
      <trkpt lat="48.64498" lon="-0.58016">
        <ele>183.8</ele>
        <time>2012-02-11T14:42:50Z</time>
      </trkpt>
      <trkpt lat="48.64491" lon="-0.58019">
        <ele>183.7</ele>
        <time>2012-02-11T14:42:52Z</time>
      </trkpt>
      <trkpt lat="48.64484" lon="-0.58023">
        <ele>183.3</ele>
        <time>2012-02-11T14:42:54Z</time>
      </trkpt>
      <trkpt lat="48.64477" lon="-0.58027">
        <ele>183.2</ele>
        <time>2012-02-11T14:42:56Z</time>
      </trkpt>
      <trkpt lat="48.64471" lon="-0.58031">
        <ele>183.2</ele>
        <time>2012-02-11T14:42:58Z</time>
      </trkpt>
      <trkpt lat="48.64464" lon="-0.58035">
        <ele>183.2</ele>
        <time>2012-02-11T14:43:00Z</time>
      </trkpt>
      <trkpt lat="48.64458" lon="-0.5804">
        <ele>183.4</ele>
        <time>2012-02-11T14:43:02Z</time>
      </trkpt>
      <trkpt lat="48.64451" lon="-0.58044">
        <ele>183.1</ele>
        <time>2012-02-11T14:43:04Z</time>
      </trkpt>
      <trkpt lat="48.64445" lon="-0.58049">
        <ele>183.7</ele>
        <time>2012-02-11T14:43:06Z</time>
      </trkpt>
      <trkpt lat="48.6444" lon="-0.58053">
        <ele>184.1</ele>
        <time>2012-02-11T14:43:08Z</time>
      </trkpt>
      <trkpt lat="48.64432" lon="-0.58057">
        <ele>183.7</ele>
        <time>2012-02-11T14:43:11Z</time>
      </trkpt>
      <trkpt lat="48.64424" lon="-0.58053">
        <ele>184.1</ele>
        <time>2012-02-11T14:43:20Z</time>
      </trkpt>
      <trkpt lat="48.6442" lon="-0.58041">
        <ele>183.6</ele>
        <time>2012-02-11T14:43:26Z</time>
      </trkpt>
      <trkpt lat="48.64415" lon="-0.5803">
        <ele>182.6</ele>
        <time>2012-02-11T14:45:50Z</time>
      </trkpt>
      <trkpt lat="48.64415" lon="-0.58027">
        <ele>182.7</ele>
        <time>2012-02-11T14:45:51Z</time>
      </trkpt>
      <trkpt lat="48.64417" lon="-0.58006">
        <ele>183.2</ele>
        <time>2012-02-11T14:46:00Z</time>
      </trkpt>
      <trkpt lat="48.64421" lon="-0.57996">
        <ele>183.3</ele>
        <time>2012-02-11T14:46:05Z</time>
      </trkpt>
      <trkpt lat="48.64426" lon="-0.57986">
        <ele>183.4</ele>
        <time>2012-02-11T14:46:09Z</time>
      </trkpt>
      <trkpt lat="48.6443" lon="-0.57977">
        <ele>182.7</ele>
        <time>2012-02-11T14:46:12Z</time>
      </trkpt>
      <trkpt lat="48.64434" lon="-0.57966">
        <ele>183.3</ele>
        <time>2012-02-11T14:46:15Z</time>
      </trkpt>
      <trkpt lat="48.64439" lon="-0.57955">
        <ele>183.7</ele>
        <time>2012-02-11T14:46:18Z</time>
      </trkpt>
      <trkpt lat="48.64443" lon="-0.57942">
        <ele>183.8</ele>
        <time>2012-02-11T14:46:21Z</time>
      </trkpt>
      <trkpt lat="48.64447" lon="-0.5793">
        <ele>183.8</ele>
        <time>2012-02-11T14:46:24Z</time>
      </trkpt>
      <trkpt lat="48.64449" lon="-0.57921">
        <ele>183.6</ele>
        <time>2012-02-11T14:46:26Z</time>
      </trkpt>
      <trkpt lat="48.64452" lon="-0.57912">
        <ele>183.9</ele>
        <time>2012-02-11T14:46:28Z</time>
      </trkpt>
      <trkpt lat="48.64455" lon="-0.57903">
        <ele>184.1</ele>
        <time>2012-02-11T14:46:30Z</time>
      </trkpt>
      <trkpt lat="48.64458" lon="-0.57894">
        <ele>183.8</ele>
        <time>2012-02-11T14:46:32Z</time>
      </trkpt>
      <trkpt lat="48.6446" lon="-0.57884">
        <ele>183.7</ele>
        <time>2012-02-11T14:46:34Z</time>
      </trkpt>
      <trkpt lat="48.64463" lon="-0.57875">
        <ele>183.9</ele>
        <time>2012-02-11T14:46:36Z</time>
      </trkpt>
      <trkpt lat="48.64465" lon="-0.57866">
        <ele>184.1</ele>
        <time>2012-02-11T14:46:38Z</time>
      </trkpt>
      <trkpt lat="48.64467" lon="-0.57857">
        <ele>184.3</ele>
        <time>2012-02-11T14:46:40Z</time>
      </trkpt>
      <trkpt lat="48.6447" lon="-0.57847">
        <ele>184.4</ele>
        <time>2012-02-11T14:46:42Z</time>
      </trkpt>
      <trkpt lat="48.64472" lon="-0.57837">
        <ele>184.5</ele>
        <time>2012-02-11T14:46:44Z</time>
      </trkpt>
      <trkpt lat="48.64474" lon="-0.57827">
        <ele>184.7</ele>
        <time>2012-02-11T14:46:46Z</time>
      </trkpt>
      <trkpt lat="48.64476" lon="-0.57816">
        <ele>184.5</ele>
        <time>2012-02-11T14:46:48Z</time>
      </trkpt>
      <trkpt lat="48.64478" lon="-0.57806">
        <ele>184</ele>
        <time>2012-02-11T14:46:50Z</time>
      </trkpt>
      <trkpt lat="48.64479" lon="-0.57797">
        <ele>184.5</ele>
        <time>2012-02-11T14:46:52Z</time>
      </trkpt>
      <trkpt lat="48.64479" lon="-0.57791">
        <ele>184.3</ele>
        <time>2012-02-11T14:46:53Z</time>
      </trkpt>
      <trkpt lat="48.64481" lon="-0.57776">
        <ele>184.2</ele>
        <time>2012-02-11T14:46:56Z</time>
      </trkpt>
      <trkpt lat="48.64482" lon="-0.57767">
        <ele>184.2</ele>
        <time>2012-02-11T14:46:58Z</time>
      </trkpt>
      <trkpt lat="48.64484" lon="-0.57756">
        <ele>184.2</ele>
        <time>2012-02-11T14:47:00Z</time>
      </trkpt>
      <trkpt lat="48.64484" lon="-0.57746">
        <ele>184.2</ele>
        <time>2012-02-11T14:47:02Z</time>
      </trkpt>
      <trkpt lat="48.64485" lon="-0.57736">
        <ele>184.3</ele>
        <time>2012-02-11T14:47:04Z</time>
      </trkpt>
      <trkpt lat="48.64486" lon="-0.57726">
        <ele>184.1</ele>
        <time>2012-02-11T14:47:06Z</time>
      </trkpt>
      <trkpt lat="48.64486" lon="-0.57716">
        <ele>184.3</ele>
        <time>2012-02-11T14:47:08Z</time>
      </trkpt>
      <trkpt lat="48.64487" lon="-0.57705">
        <ele>184.3</ele>
        <time>2012-02-11T14:47:10Z</time>
      </trkpt>
      <trkpt lat="48.64487" lon="-0.57695">
        <ele>184.6</ele>
        <time>2012-02-11T14:47:12Z</time>
      </trkpt>
      <trkpt lat="48.64487" lon="-0.57681">
        <ele>184.7</ele>
        <time>2012-02-11T14:47:15Z</time>
      </trkpt>
      <trkpt lat="48.64488" lon="-0.57672">
        <ele>184.6</ele>
        <time>2012-02-11T14:47:17Z</time>
      </trkpt>
      <trkpt lat="48.64488" lon="-0.57662">
        <ele>184.7</ele>
        <time>2012-02-11T14:47:19Z</time>
      </trkpt>
      <trkpt lat="48.64487" lon="-0.57652">
        <ele>184.6</ele>
        <time>2012-02-11T14:47:21Z</time>
      </trkpt>
      <trkpt lat="48.64487" lon="-0.57642">
        <ele>184.4</ele>
        <time>2012-02-11T14:47:23Z</time>
      </trkpt>
      <trkpt lat="48.64487" lon="-0.57633">
        <ele>184.7</ele>
        <time>2012-02-11T14:47:25Z</time>
      </trkpt>
      <trkpt lat="48.64486" lon="-0.57623">
        <ele>185</ele>
        <time>2012-02-11T14:47:27Z</time>
      </trkpt>
      <trkpt lat="48.64486" lon="-0.5761">
        <ele>185.3</ele>
        <time>2012-02-11T14:47:30Z</time>
      </trkpt>
      <trkpt lat="48.64486" lon="-0.57597">
        <ele>185.5</ele>
        <time>2012-02-11T14:47:33Z</time>
      </trkpt>
      <trkpt lat="48.64485" lon="-0.57583">
        <ele>186.2</ele>
        <time>2012-02-11T14:47:36Z</time>
      </trkpt>
      <trkpt lat="48.64485" lon="-0.5757">
        <ele>185.8</ele>
        <time>2012-02-11T14:47:39Z</time>
      </trkpt>
      <trkpt lat="48.64484" lon="-0.57558">
        <ele>185.4</ele>
        <time>2012-02-11T14:47:42Z</time>
      </trkpt>
      <trkpt lat="48.64484" lon="-0.57549">
        <ele>185.4</ele>
        <time>2012-02-11T14:47:44Z</time>
      </trkpt>
      <trkpt lat="48.64483" lon="-0.57539">
        <ele>185.3</ele>
        <time>2012-02-11T14:47:46Z</time>
      </trkpt>
      <trkpt lat="48.64482" lon="-0.57526">
        <ele>185.1</ele>
        <time>2012-02-11T14:47:49Z</time>
      </trkpt>
      <trkpt lat="48.64482" lon="-0.57517">
        <ele>185.6</ele>
        <time>2012-02-11T14:47:51Z</time>
      </trkpt>
      <trkpt lat="48.64482" lon="-0.57507">
        <ele>185.6</ele>
        <time>2012-02-11T14:47:53Z</time>
      </trkpt>
      <trkpt lat="48.64482" lon="-0.57502">
        <ele>185.6</ele>
        <time>2012-02-11T14:47:54Z</time>
      </trkpt>
      <trkpt lat="48.64481" lon="-0.57485">
        <ele>185.8</ele>
        <time>2012-02-11T14:47:58Z</time>
      </trkpt>
      <trkpt lat="48.64481" lon="-0.57472">
        <ele>185.7</ele>
        <time>2012-02-11T14:48:01Z</time>
      </trkpt>
      <trkpt lat="48.64481" lon="-0.57462">
        <ele>185.7</ele>
        <time>2012-02-11T14:48:03Z</time>
      </trkpt>
      <trkpt lat="48.64481" lon="-0.57453">
        <ele>186.1</ele>
        <time>2012-02-11T14:48:05Z</time>
      </trkpt>
      <trkpt lat="48.6448" lon="-0.57444">
        <ele>186.1</ele>
        <time>2012-02-11T14:48:07Z</time>
      </trkpt>
      <trkpt lat="48.64479" lon="-0.57434">
        <ele>186.2</ele>
        <time>2012-02-11T14:48:09Z</time>
      </trkpt>
      <trkpt lat="48.64479" lon="-0.57423">
        <ele>186.4</ele>
        <time>2012-02-11T14:48:11Z</time>
      </trkpt>
      <trkpt lat="48.64478" lon="-0.57413">
        <ele>186.4</ele>
        <time>2012-02-11T14:48:13Z</time>
      </trkpt>
      <trkpt lat="48.64478" lon="-0.57403">
        <ele>186.3</ele>
        <time>2012-02-11T14:48:15Z</time>
      </trkpt>
      <trkpt lat="48.64478" lon="-0.57391">
        <ele>186.2</ele>
        <time>2012-02-11T14:48:18Z</time>
      </trkpt>
      <trkpt lat="48.64474" lon="-0.57379">
        <ele>186.6</ele>
        <time>2012-02-11T14:48:23Z</time>
      </trkpt>
      <trkpt lat="48.64474" lon="-0.57365">
        <ele>186.8</ele>
        <time>2012-02-11T14:48:28Z</time>
      </trkpt>
      <trkpt lat="48.64474" lon="-0.57353">
        <ele>187.1</ele>
        <time>2012-02-11T14:48:32Z</time>
      </trkpt>
      <trkpt lat="48.64472" lon="-0.5734">
        <ele>186.9</ele>
        <time>2012-02-11T14:48:37Z</time>
      </trkpt>
      <trkpt lat="48.64472" lon="-0.57329">
        <ele>186.8</ele>
        <time>2012-02-11T14:48:40Z</time>
      </trkpt>
      <trkpt lat="48.64472" lon="-0.57318">
        <ele>186.4</ele>
        <time>2012-02-11T14:48:42Z</time>
      </trkpt>
      <trkpt lat="48.64471" lon="-0.57308">
        <ele>186</ele>
        <time>2012-02-11T14:48:44Z</time>
      </trkpt>
      <trkpt lat="48.6447" lon="-0.57296">
        <ele>186.4</ele>
        <time>2012-02-11T14:48:47Z</time>
      </trkpt>
      <trkpt lat="48.6447" lon="-0.57286">
        <ele>186.6</ele>
        <time>2012-02-11T14:48:49Z</time>
      </trkpt>
      <trkpt lat="48.6447" lon="-0.57276">
        <ele>186.8</ele>
        <time>2012-02-11T14:48:51Z</time>
      </trkpt>
      <trkpt lat="48.6447" lon="-0.57265">
        <ele>186.2</ele>
        <time>2012-02-11T14:48:53Z</time>
      </trkpt>
      <trkpt lat="48.64469" lon="-0.57255">
        <ele>187.1</ele>
        <time>2012-02-11T14:48:55Z</time>
      </trkpt>
      <trkpt lat="48.64469" lon="-0.5725">
        <ele>187</ele>
        <time>2012-02-11T14:48:56Z</time>
      </trkpt>
      <trkpt lat="48.64468" lon="-0.57234">
        <ele>187.1</ele>
        <time>2012-02-11T14:48:59Z</time>
      </trkpt>
      <trkpt lat="48.64468" lon="-0.57224">
        <ele>187.2</ele>
        <time>2012-02-11T14:49:01Z</time>
      </trkpt>
      <trkpt lat="48.64467" lon="-0.57214">
        <ele>187</ele>
        <time>2012-02-11T14:49:03Z</time>
      </trkpt>
      <trkpt lat="48.64467" lon="-0.57204">
        <ele>186.6</ele>
        <time>2012-02-11T14:49:05Z</time>
      </trkpt>
      <trkpt lat="48.64466" lon="-0.57194">
        <ele>186.5</ele>
        <time>2012-02-11T14:49:07Z</time>
      </trkpt>
      <trkpt lat="48.64466" lon="-0.57183">
        <ele>186.3</ele>
        <time>2012-02-11T14:49:09Z</time>
      </trkpt>
      <trkpt lat="48.64465" lon="-0.57173">
        <ele>186.4</ele>
        <time>2012-02-11T14:49:11Z</time>
      </trkpt>
      <trkpt lat="48.64465" lon="-0.57162">
        <ele>186.7</ele>
        <time>2012-02-11T14:49:13Z</time>
      </trkpt>
      <trkpt lat="48.64464" lon="-0.57152">
        <ele>187</ele>
        <time>2012-02-11T14:49:15Z</time>
      </trkpt>
      <trkpt lat="48.64463" lon="-0.57142">
        <ele>187.3</ele>
        <time>2012-02-11T14:49:17Z</time>
      </trkpt>
      <trkpt lat="48.64463" lon="-0.57131">
        <ele>187.2</ele>
        <time>2012-02-11T14:49:19Z</time>
      </trkpt>
      <trkpt lat="48.64463" lon="-0.5712">
        <ele>186.9</ele>
        <time>2012-02-11T14:49:21Z</time>
      </trkpt>
      <trkpt lat="48.64463" lon="-0.5711">
        <ele>186.8</ele>
        <time>2012-02-11T14:49:23Z</time>
      </trkpt>
      <trkpt lat="48.64462" lon="-0.571">
        <ele>186.8</ele>
        <time>2012-02-11T14:49:25Z</time>
      </trkpt>
      <trkpt lat="48.64462" lon="-0.57089">
        <ele>187.2</ele>
        <time>2012-02-11T14:49:27Z</time>
      </trkpt>
      <trkpt lat="48.64463" lon="-0.57077">
        <ele>187.7</ele>
        <time>2012-02-11T14:49:29Z</time>
      </trkpt>
      <trkpt lat="48.64463" lon="-0.57066">
        <ele>187.8</ele>
        <time>2012-02-11T14:49:31Z</time>
      </trkpt>
      <trkpt lat="48.64463" lon="-0.57055">
        <ele>187.9</ele>
        <time>2012-02-11T14:49:33Z</time>
      </trkpt>
      <trkpt lat="48.64464" lon="-0.57044">
        <ele>187.7</ele>
        <time>2012-02-11T14:49:35Z</time>
      </trkpt>
      <trkpt lat="48.64465" lon="-0.57033">
        <ele>187.3</ele>
        <time>2012-02-11T14:49:37Z</time>
      </trkpt>
      <trkpt lat="48.64466" lon="-0.57023">
        <ele>187</ele>
        <time>2012-02-11T14:49:39Z</time>
      </trkpt>
      <trkpt lat="48.64467" lon="-0.57013">
        <ele>186.8</ele>
        <time>2012-02-11T14:49:41Z</time>
      </trkpt>
      <trkpt lat="48.64468" lon="-0.57002">
        <ele>186.7</ele>
        <time>2012-02-11T14:49:43Z</time>
      </trkpt>
      <trkpt lat="48.64469" lon="-0.56992">
        <ele>186.7</ele>
        <time>2012-02-11T14:49:45Z</time>
      </trkpt>
      <trkpt lat="48.6447" lon="-0.56982">
        <ele>187.3</ele>
        <time>2012-02-11T14:49:47Z</time>
      </trkpt>
      <trkpt lat="48.64472" lon="-0.56973">
        <ele>187.9</ele>
        <time>2012-02-11T14:49:49Z</time>
      </trkpt>
      <trkpt lat="48.64473" lon="-0.56964">
        <ele>188</ele>
        <time>2012-02-11T14:49:51Z</time>
      </trkpt>
      <trkpt lat="48.64474" lon="-0.56954">
        <ele>188</ele>
        <time>2012-02-11T14:49:53Z</time>
      </trkpt>
      <trkpt lat="48.64476" lon="-0.56945">
        <ele>188.3</ele>
        <time>2012-02-11T14:49:55Z</time>
      </trkpt>
      <trkpt lat="48.64477" lon="-0.56936">
        <ele>187.6</ele>
        <time>2012-02-11T14:49:57Z</time>
      </trkpt>
      <trkpt lat="48.64478" lon="-0.56931">
        <ele>188</ele>
        <time>2012-02-11T14:49:58Z</time>
      </trkpt>
      <trkpt lat="48.6448" lon="-0.56917">
        <ele>188.1</ele>
        <time>2012-02-11T14:50:01Z</time>
      </trkpt>
      <trkpt lat="48.64482" lon="-0.56907">
        <ele>188.1</ele>
        <time>2012-02-11T14:50:03Z</time>
      </trkpt>
      <trkpt lat="48.64485" lon="-0.56898">
        <ele>187.9</ele>
        <time>2012-02-11T14:50:05Z</time>
      </trkpt>
      <trkpt lat="48.64486" lon="-0.56888">
        <ele>187.7</ele>
        <time>2012-02-11T14:50:07Z</time>
      </trkpt>
      <trkpt lat="48.64489" lon="-0.56878">
        <ele>187.6</ele>
        <time>2012-02-11T14:50:09Z</time>
      </trkpt>
      <trkpt lat="48.64491" lon="-0.56867">
        <ele>188</ele>
        <time>2012-02-11T14:50:11Z</time>
      </trkpt>
      <trkpt lat="48.64494" lon="-0.56856">
        <ele>188.3</ele>
        <time>2012-02-11T14:50:13Z</time>
      </trkpt>
      <trkpt lat="48.64497" lon="-0.56845">
        <ele>188.1</ele>
        <time>2012-02-11T14:50:15Z</time>
      </trkpt>
      <trkpt lat="48.64499" lon="-0.56835">
        <ele>187.9</ele>
        <time>2012-02-11T14:50:17Z</time>
      </trkpt>
      <trkpt lat="48.64501" lon="-0.56824">
        <ele>187.8</ele>
        <time>2012-02-11T14:50:19Z</time>
      </trkpt>
      <trkpt lat="48.64503" lon="-0.56814">
        <ele>187.8</ele>
        <time>2012-02-11T14:50:21Z</time>
      </trkpt>
      <trkpt lat="48.64506" lon="-0.56804">
        <ele>187.7</ele>
        <time>2012-02-11T14:50:23Z</time>
      </trkpt>
      <trkpt lat="48.64509" lon="-0.56794">
        <ele>188.3</ele>
        <time>2012-02-11T14:50:25Z</time>
      </trkpt>
      <trkpt lat="48.64512" lon="-0.56784">
        <ele>188.6</ele>
        <time>2012-02-11T14:50:27Z</time>
      </trkpt>
      <trkpt lat="48.64514" lon="-0.56775">
        <ele>188.6</ele>
        <time>2012-02-11T14:50:29Z</time>
      </trkpt>
      <trkpt lat="48.64517" lon="-0.56766">
        <ele>188.4</ele>
        <time>2012-02-11T14:50:31Z</time>
      </trkpt>
      <trkpt lat="48.6452" lon="-0.56757">
        <ele>188.2</ele>
        <time>2012-02-11T14:50:33Z</time>
      </trkpt>
      <trkpt lat="48.64524" lon="-0.56749">
        <ele>188</ele>
        <time>2012-02-11T14:50:35Z</time>
      </trkpt>
      <trkpt lat="48.64528" lon="-0.56742">
        <ele>188.7</ele>
        <time>2012-02-11T14:50:37Z</time>
      </trkpt>
      <trkpt lat="48.64531" lon="-0.56733">
        <ele>188.8</ele>
        <time>2012-02-11T14:50:39Z</time>
      </trkpt>
      <trkpt lat="48.64535" lon="-0.56725">
        <ele>188.5</ele>
        <time>2012-02-11T14:50:41Z</time>
      </trkpt>
      <trkpt lat="48.64538" lon="-0.56717">
        <ele>188.4</ele>
        <time>2012-02-11T14:50:43Z</time>
      </trkpt>
      <trkpt lat="48.64541" lon="-0.56708">
        <ele>188.7</ele>
        <time>2012-02-11T14:50:45Z</time>
      </trkpt>
      <trkpt lat="48.64544" lon="-0.567">
        <ele>188.9</ele>
        <time>2012-02-11T14:50:47Z</time>
      </trkpt>
      <trkpt lat="48.64547" lon="-0.56691">
        <ele>189.2</ele>
        <time>2012-02-11T14:50:49Z</time>
      </trkpt>
      <trkpt lat="48.6455" lon="-0.56683">
        <ele>188.7</ele>
        <time>2012-02-11T14:50:51Z</time>
      </trkpt>
      <trkpt lat="48.64552" lon="-0.56674">
        <ele>188.6</ele>
        <time>2012-02-11T14:50:53Z</time>
      </trkpt>
      <trkpt lat="48.64555" lon="-0.56666">
        <ele>188.7</ele>
        <time>2012-02-11T14:50:55Z</time>
      </trkpt>
      <trkpt lat="48.64558" lon="-0.56653">
        <ele>188.6</ele>
        <time>2012-02-11T14:50:58Z</time>
      </trkpt>
      <trkpt lat="48.64559" lon="-0.56649">
        <ele>188.6</ele>
        <time>2012-02-11T14:50:59Z</time>
      </trkpt>
      <trkpt lat="48.64562" lon="-0.56635">
        <ele>189</ele>
        <time>2012-02-11T14:51:02Z</time>
      </trkpt>
      <trkpt lat="48.64565" lon="-0.56625">
        <ele>189.1</ele>
        <time>2012-02-11T14:51:04Z</time>
      </trkpt>
      <trkpt lat="48.64568" lon="-0.56617">
        <ele>189.6</ele>
        <time>2012-02-11T14:51:06Z</time>
      </trkpt>
      <trkpt lat="48.64571" lon="-0.56609">
        <ele>189.4</ele>
        <time>2012-02-11T14:51:08Z</time>
      </trkpt>
      <trkpt lat="48.64574" lon="-0.566">
        <ele>188.9</ele>
        <time>2012-02-11T14:51:10Z</time>
      </trkpt>
      <trkpt lat="48.64577" lon="-0.56593">
        <ele>189.2</ele>
        <time>2012-02-11T14:51:12Z</time>
      </trkpt>
      <trkpt lat="48.64582" lon="-0.56581">
        <ele>189.5</ele>
        <time>2012-02-11T14:51:15Z</time>
      </trkpt>
      <trkpt lat="48.64585" lon="-0.56574">
        <ele>189.6</ele>
        <time>2012-02-11T14:51:17Z</time>
      </trkpt>
      <trkpt lat="48.64589" lon="-0.56566">
        <ele>189.7</ele>
        <time>2012-02-11T14:51:19Z</time>
      </trkpt>
      <trkpt lat="48.64593" lon="-0.56555">
        <ele>189.9</ele>
        <time>2012-02-11T14:51:22Z</time>
      </trkpt>
      <trkpt lat="48.64599" lon="-0.56547">
        <ele>189.5</ele>
        <time>2012-02-11T14:51:25Z</time>
      </trkpt>
      <trkpt lat="48.64606" lon="-0.56541">
        <ele>189</ele>
        <time>2012-02-11T14:51:31Z</time>
      </trkpt>
      <trkpt lat="48.64613" lon="-0.56535">
        <ele>189.3</ele>
        <time>2012-02-11T14:51:38Z</time>
      </trkpt>
      <trkpt lat="48.64619" lon="-0.56525">
        <ele>189.6</ele>
        <time>2012-02-11T14:52:04Z</time>
      </trkpt>
      <trkpt lat="48.6462" lon="-0.56523">
        <ele>189.6</ele>
        <time>2012-02-11T14:52:05Z</time>
      </trkpt>
      <trkpt lat="48.64623" lon="-0.56506">
        <ele>188.7</ele>
        <time>2012-02-11T14:58:05Z</time>
      </trkpt>
      <trkpt lat="48.64624" lon="-0.56503">
        <ele>188.7</ele>
        <time>2012-02-11T14:58:06Z</time>
      </trkpt>
      <trkpt lat="48.64631" lon="-0.56484">
        <ele>189.1</ele>
        <time>2012-02-11T14:58:14Z</time>
      </trkpt>
      <trkpt lat="48.64636" lon="-0.56474">
        <ele>189.5</ele>
        <time>2012-02-11T14:58:18Z</time>
      </trkpt>
      <trkpt lat="48.6464" lon="-0.56465">
        <ele>189.6</ele>
        <time>2012-02-11T14:58:21Z</time>
      </trkpt>
      <trkpt lat="48.64645" lon="-0.56455">
        <ele>189.2</ele>
        <time>2012-02-11T14:58:24Z</time>
      </trkpt>
      <trkpt lat="48.64649" lon="-0.56447">
        <ele>188.9</ele>
        <time>2012-02-11T14:58:26Z</time>
      </trkpt>
      <trkpt lat="48.64652" lon="-0.56438">
        <ele>188.9</ele>
        <time>2012-02-11T14:58:28Z</time>
      </trkpt>
      <trkpt lat="48.64656" lon="-0.56429">
        <ele>189</ele>
        <time>2012-02-11T14:58:30Z</time>
      </trkpt>
      <trkpt lat="48.6466" lon="-0.56419">
        <ele>189.1</ele>
        <time>2012-02-11T14:58:32Z</time>
      </trkpt>
      <trkpt lat="48.64663" lon="-0.56409">
        <ele>190</ele>
        <time>2012-02-11T14:58:34Z</time>
      </trkpt>
      <trkpt lat="48.64666" lon="-0.56398">
        <ele>189.6</ele>
        <time>2012-02-11T14:58:36Z</time>
      </trkpt>
      <trkpt lat="48.6467" lon="-0.56387">
        <ele>189.3</ele>
        <time>2012-02-11T14:58:38Z</time>
      </trkpt>
      <trkpt lat="48.64673" lon="-0.56377">
        <ele>189.2</ele>
        <time>2012-02-11T14:58:40Z</time>
      </trkpt>
      <trkpt lat="48.64676" lon="-0.56367">
        <ele>189.3</ele>
        <time>2012-02-11T14:58:42Z</time>
      </trkpt>
      <trkpt lat="48.6468" lon="-0.56357">
        <ele>189.4</ele>
        <time>2012-02-11T14:58:44Z</time>
      </trkpt>
      <trkpt lat="48.64683" lon="-0.56347">
        <ele>189.4</ele>
        <time>2012-02-11T14:58:46Z</time>
      </trkpt>
      <trkpt lat="48.64686" lon="-0.56338">
        <ele>189.9</ele>
        <time>2012-02-11T14:58:48Z</time>
      </trkpt>
      <trkpt lat="48.64689" lon="-0.56328">
        <ele>190.4</ele>
        <time>2012-02-11T14:58:51Z</time>
      </trkpt>
      <trkpt lat="48.64692" lon="-0.56319">
        <ele>190.1</ele>
        <time>2012-02-11T14:58:53Z</time>
      </trkpt>
      <trkpt lat="48.64695" lon="-0.56309">
        <ele>190.3</ele>
        <time>2012-02-11T14:58:55Z</time>
      </trkpt>
      <trkpt lat="48.64697" lon="-0.56297">
        <ele>190.6</ele>
        <time>2012-02-11T14:58:57Z</time>
      </trkpt>
      <trkpt lat="48.647" lon="-0.56286">
        <ele>190.8</ele>
        <time>2012-02-11T14:58:59Z</time>
      </trkpt>
      <trkpt lat="48.64703" lon="-0.56275">
        <ele>190.7</ele>
        <time>2012-02-11T14:59:01Z</time>
      </trkpt>
      <trkpt lat="48.64705" lon="-0.56264">
        <ele>190.7</ele>
        <time>2012-02-11T14:59:03Z</time>
      </trkpt>
      <trkpt lat="48.64707" lon="-0.56253">
        <ele>190.7</ele>
        <time>2012-02-11T14:59:05Z</time>
      </trkpt>
      <trkpt lat="48.64709" lon="-0.56242">
        <ele>190.3</ele>
        <time>2012-02-11T14:59:07Z</time>
      </trkpt>
      <trkpt lat="48.64709" lon="-0.56237">
        <ele>190.2</ele>
        <time>2012-02-11T14:59:08Z</time>
      </trkpt>
      <trkpt lat="48.64712" lon="-0.56221">
        <ele>190.5</ele>
        <time>2012-02-11T14:59:11Z</time>
      </trkpt>
      <trkpt lat="48.64715" lon="-0.56209">
        <ele>190.3</ele>
        <time>2012-02-11T14:59:13Z</time>
      </trkpt>
      <trkpt lat="48.64716" lon="-0.56198">
        <ele>190.1</ele>
        <time>2012-02-11T14:59:15Z</time>
      </trkpt>
      <trkpt lat="48.64718" lon="-0.56186">
        <ele>191.1</ele>
        <time>2012-02-11T14:59:17Z</time>
      </trkpt>
      <trkpt lat="48.64719" lon="-0.56174">
        <ele>190.9</ele>
        <time>2012-02-11T14:59:19Z</time>
      </trkpt>
      <trkpt lat="48.6472" lon="-0.56162">
        <ele>191.2</ele>
        <time>2012-02-11T14:59:21Z</time>
      </trkpt>
      <trkpt lat="48.64721" lon="-0.56149">
        <ele>191.4</ele>
        <time>2012-02-11T14:59:23Z</time>
      </trkpt>
      <trkpt lat="48.64722" lon="-0.56138">
        <ele>191.4</ele>
        <time>2012-02-11T14:59:25Z</time>
      </trkpt>
      <trkpt lat="48.64723" lon="-0.56126">
        <ele>191.1</ele>
        <time>2012-02-11T14:59:27Z</time>
      </trkpt>
      <trkpt lat="48.64723" lon="-0.56114">
        <ele>191.2</ele>
        <time>2012-02-11T14:59:29Z</time>
      </trkpt>
      <trkpt lat="48.64724" lon="-0.56102">
        <ele>191</ele>
        <time>2012-02-11T14:59:31Z</time>
      </trkpt>
      <trkpt lat="48.64724" lon="-0.56091">
        <ele>191.6</ele>
        <time>2012-02-11T14:59:33Z</time>
      </trkpt>
      <trkpt lat="48.64724" lon="-0.5608">
        <ele>191.8</ele>
        <time>2012-02-11T14:59:35Z</time>
      </trkpt>
      <trkpt lat="48.64724" lon="-0.56069">
        <ele>191.6</ele>
        <time>2012-02-11T14:59:37Z</time>
      </trkpt>
      <trkpt lat="48.64724" lon="-0.56058">
        <ele>191.6</ele>
        <time>2012-02-11T14:59:39Z</time>
      </trkpt>
      <trkpt lat="48.64724" lon="-0.56047">
        <ele>191.8</ele>
        <time>2012-02-11T14:59:41Z</time>
      </trkpt>
      <trkpt lat="48.64724" lon="-0.56037">
        <ele>191.6</ele>
        <time>2012-02-11T14:59:43Z</time>
      </trkpt>
      <trkpt lat="48.64724" lon="-0.56027">
        <ele>191.8</ele>
        <time>2012-02-11T14:59:45Z</time>
      </trkpt>
      <trkpt lat="48.64723" lon="-0.56017">
        <ele>191.9</ele>
        <time>2012-02-11T14:59:47Z</time>
      </trkpt>
      <trkpt lat="48.64723" lon="-0.56007">
        <ele>191.6</ele>
        <time>2012-02-11T14:59:49Z</time>
      </trkpt>
      <trkpt lat="48.64722" lon="-0.55998">
        <ele>191.4</ele>
        <time>2012-02-11T14:59:51Z</time>
      </trkpt>
      <trkpt lat="48.64722" lon="-0.55988">
        <ele>191.5</ele>
        <time>2012-02-11T14:59:53Z</time>
      </trkpt>
      <trkpt lat="48.64721" lon="-0.55978">
        <ele>191.6</ele>
        <time>2012-02-11T14:59:55Z</time>
      </trkpt>
      <trkpt lat="48.6472" lon="-0.55967">
        <ele>191.3</ele>
        <time>2012-02-11T14:59:57Z</time>
      </trkpt>
      <trkpt lat="48.64719" lon="-0.55957">
        <ele>191.6</ele>
        <time>2012-02-11T14:59:59Z</time>
      </trkpt>
      <trkpt lat="48.64719" lon="-0.55946">
        <ele>191.9</ele>
        <time>2012-02-11T15:00:01Z</time>
      </trkpt>
      <trkpt lat="48.64719" lon="-0.55935">
        <ele>192.3</ele>
        <time>2012-02-11T15:00:03Z</time>
      </trkpt>
      <trkpt lat="48.64718" lon="-0.55924">
        <ele>192.7</ele>
        <time>2012-02-11T15:00:05Z</time>
      </trkpt>
      <trkpt lat="48.64717" lon="-0.55913">
        <ele>192.3</ele>
        <time>2012-02-11T15:00:07Z</time>
      </trkpt>
      <trkpt lat="48.64716" lon="-0.55902">
        <ele>192.5</ele>
        <time>2012-02-11T15:00:09Z</time>
      </trkpt>
      <trkpt lat="48.64715" lon="-0.55896">
        <ele>192.4</ele>
        <time>2012-02-11T15:00:10Z</time>
      </trkpt>
      <trkpt lat="48.64714" lon="-0.5588">
        <ele>192.5</ele>
        <time>2012-02-11T15:00:13Z</time>
      </trkpt>
      <trkpt lat="48.64714" lon="-0.55869">
        <ele>192.4</ele>
        <time>2012-02-11T15:00:15Z</time>
      </trkpt>
      <trkpt lat="48.64713" lon="-0.55859">
        <ele>192</ele>
        <time>2012-02-11T15:00:17Z</time>
      </trkpt>
      <trkpt lat="48.64712" lon="-0.55848">
        <ele>191.8</ele>
        <time>2012-02-11T15:00:19Z</time>
      </trkpt>
      <trkpt lat="48.64711" lon="-0.55837">
        <ele>192.3</ele>
        <time>2012-02-11T15:00:21Z</time>
      </trkpt>
      <trkpt lat="48.6471" lon="-0.55826">
        <ele>192.2</ele>
        <time>2012-02-11T15:00:23Z</time>
      </trkpt>
      <trkpt lat="48.64709" lon="-0.55816">
        <ele>192.3</ele>
        <time>2012-02-11T15:00:25Z</time>
      </trkpt>
      <trkpt lat="48.64709" lon="-0.55805">
        <ele>192.6</ele>
        <time>2012-02-11T15:00:27Z</time>
      </trkpt>
      <trkpt lat="48.64708" lon="-0.55794">
        <ele>193</ele>
        <time>2012-02-11T15:00:29Z</time>
      </trkpt>
      <trkpt lat="48.64707" lon="-0.55784">
        <ele>193.1</ele>
        <time>2012-02-11T15:00:31Z</time>
      </trkpt>
      <trkpt lat="48.64706" lon="-0.55773">
        <ele>192.3</ele>
        <time>2012-02-11T15:00:33Z</time>
      </trkpt>
      <trkpt lat="48.64705" lon="-0.55763">
        <ele>192.8</ele>
        <time>2012-02-11T15:00:35Z</time>
      </trkpt>
      <trkpt lat="48.64704" lon="-0.55752">
        <ele>192.8</ele>
        <time>2012-02-11T15:00:37Z</time>
      </trkpt>
      <trkpt lat="48.64703" lon="-0.55741">
        <ele>192.9</ele>
        <time>2012-02-11T15:00:39Z</time>
      </trkpt>
      <trkpt lat="48.64702" lon="-0.55731">
        <ele>193.2</ele>
        <time>2012-02-11T15:00:41Z</time>
      </trkpt>
      <trkpt lat="48.64701" lon="-0.5572">
        <ele>193.4</ele>
        <time>2012-02-11T15:00:43Z</time>
      </trkpt>
      <trkpt lat="48.64699" lon="-0.55709">
        <ele>193.7</ele>
        <time>2012-02-11T15:00:45Z</time>
      </trkpt>
      <trkpt lat="48.64698" lon="-0.55697">
        <ele>193.3</ele>
        <time>2012-02-11T15:00:47Z</time>
      </trkpt>
      <trkpt lat="48.64697" lon="-0.55686">
        <ele>193</ele>
        <time>2012-02-11T15:00:49Z</time>
      </trkpt>
      <trkpt lat="48.64695" lon="-0.55674">
        <ele>193</ele>
        <time>2012-02-11T15:00:51Z</time>
      </trkpt>
      <trkpt lat="48.64694" lon="-0.55664">
        <ele>193.5</ele>
        <time>2012-02-11T15:00:53Z</time>
      </trkpt>
      <trkpt lat="48.64693" lon="-0.55654">
        <ele>193.8</ele>
        <time>2012-02-11T15:00:55Z</time>
      </trkpt>
      <trkpt lat="48.64691" lon="-0.55641">
        <ele>193.7</ele>
        <time>2012-02-11T15:00:58Z</time>
      </trkpt>
      <trkpt lat="48.64689" lon="-0.55633">
        <ele>193.5</ele>
        <time>2012-02-11T15:01:00Z</time>
      </trkpt>
      <trkpt lat="48.64685" lon="-0.55621">
        <ele>194.1</ele>
        <time>2012-02-11T15:01:03Z</time>
      </trkpt>
      <trkpt lat="48.64684" lon="-0.55612">
        <ele>194.1</ele>
        <time>2012-02-11T15:01:05Z</time>
      </trkpt>
      <trkpt lat="48.64683" lon="-0.55603">
        <ele>194.1</ele>
        <time>2012-02-11T15:01:07Z</time>
      </trkpt>
      <trkpt lat="48.64682" lon="-0.55593">
        <ele>194.1</ele>
        <time>2012-02-11T15:01:09Z</time>
      </trkpt>
      <trkpt lat="48.64681" lon="-0.55584">
        <ele>193.9</ele>
        <time>2012-02-11T15:01:11Z</time>
      </trkpt>
      <trkpt lat="48.64681" lon="-0.5558">
        <ele>194.6</ele>
        <time>2012-02-11T15:01:12Z</time>
      </trkpt>
      <trkpt lat="48.64681" lon="-0.55559">
        <ele>194.1</ele>
        <time>2012-02-11T15:01:19Z</time>
      </trkpt>
      <trkpt lat="48.64679" lon="-0.55546">
        <ele>195.1</ele>
        <time>2012-02-11T15:01:52Z</time>
      </trkpt>
      <trkpt lat="48.64674" lon="-0.55539">
        <ele>195.3</ele>
        <time>2012-02-11T15:01:57Z</time>
      </trkpt>
      <trkpt lat="48.64668" lon="-0.55532">
        <ele>195.5</ele>
        <time>2012-02-11T15:02:00Z</time>
      </trkpt>
      <trkpt lat="48.64661" lon="-0.55524">
        <ele>195.6</ele>
        <time>2012-02-11T15:02:03Z</time>
      </trkpt>
      <trkpt lat="48.64656" lon="-0.55518">
        <ele>195.6</ele>
        <time>2012-02-11T15:02:05Z</time>
      </trkpt>
      <trkpt lat="48.64651" lon="-0.55511">
        <ele>195.3</ele>
        <time>2012-02-11T15:02:07Z</time>
      </trkpt>
      <trkpt lat="48.64645" lon="-0.55504">
        <ele>195.3</ele>
        <time>2012-02-11T15:02:09Z</time>
      </trkpt>
      <trkpt lat="48.64639" lon="-0.55498">
        <ele>195.7</ele>
        <time>2012-02-11T15:02:11Z</time>
      </trkpt>
      <trkpt lat="48.64633" lon="-0.55491">
        <ele>196</ele>
        <time>2012-02-11T15:02:13Z</time>
      </trkpt>
      <trkpt lat="48.6463" lon="-0.55487">
        <ele>195.8</ele>
        <time>2012-02-11T15:02:14Z</time>
      </trkpt>
      <trkpt lat="48.64621" lon="-0.55476">
        <ele>195.5</ele>
        <time>2012-02-11T15:02:17Z</time>
      </trkpt>
      <trkpt lat="48.64615" lon="-0.55469">
        <ele>195.8</ele>
        <time>2012-02-11T15:02:19Z</time>
      </trkpt>
      <trkpt lat="48.64609" lon="-0.55462">
        <ele>195.8</ele>
        <time>2012-02-11T15:02:21Z</time>
      </trkpt>
      <trkpt lat="48.64602" lon="-0.55454">
        <ele>195.7</ele>
        <time>2012-02-11T15:02:23Z</time>
      </trkpt>
      <trkpt lat="48.64596" lon="-0.55446">
        <ele>195.7</ele>
        <time>2012-02-11T15:02:25Z</time>
      </trkpt>
      <trkpt lat="48.64589" lon="-0.55439">
        <ele>195.8</ele>
        <time>2012-02-11T15:02:27Z</time>
      </trkpt>
      <trkpt lat="48.64583" lon="-0.55431">
        <ele>196</ele>
        <time>2012-02-11T15:02:29Z</time>
      </trkpt>
      <trkpt lat="48.64576" lon="-0.55423">
        <ele>195.8</ele>
        <time>2012-02-11T15:02:31Z</time>
      </trkpt>
      <trkpt lat="48.64569" lon="-0.55416">
        <ele>196</ele>
        <time>2012-02-11T15:02:33Z</time>
      </trkpt>
      <trkpt lat="48.64562" lon="-0.55409">
        <ele>196</ele>
        <time>2012-02-11T15:02:35Z</time>
      </trkpt>
      <trkpt lat="48.64555" lon="-0.55402">
        <ele>196.3</ele>
        <time>2012-02-11T15:02:37Z</time>
      </trkpt>
      <trkpt lat="48.64548" lon="-0.55396">
        <ele>196.9</ele>
        <time>2012-02-11T15:02:39Z</time>
      </trkpt>
      <trkpt lat="48.6454" lon="-0.5539">
        <ele>196.7</ele>
        <time>2012-02-11T15:02:41Z</time>
      </trkpt>
      <trkpt lat="48.64532" lon="-0.55385">
        <ele>196.2</ele>
        <time>2012-02-11T15:02:43Z</time>
      </trkpt>
      <trkpt lat="48.64525" lon="-0.55381">
        <ele>196.5</ele>
        <time>2012-02-11T15:02:45Z</time>
      </trkpt>
      <trkpt lat="48.64518" lon="-0.55376">
        <ele>196.7</ele>
        <time>2012-02-11T15:02:47Z</time>
      </trkpt>
      <trkpt lat="48.64511" lon="-0.55372">
        <ele>197.2</ele>
        <time>2012-02-11T15:02:49Z</time>
      </trkpt>
      <trkpt lat="48.64505" lon="-0.55368">
        <ele>197.8</ele>
        <time>2012-02-11T15:02:51Z</time>
      </trkpt>
      <trkpt lat="48.64499" lon="-0.55364">
        <ele>197.2</ele>
        <time>2012-02-11T15:02:53Z</time>
      </trkpt>
      <trkpt lat="48.64493" lon="-0.55361">
        <ele>197.5</ele>
        <time>2012-02-11T15:02:55Z</time>
      </trkpt>
      <trkpt lat="48.64487" lon="-0.55357">
        <ele>196.8</ele>
        <time>2012-02-11T15:02:57Z</time>
      </trkpt>
      <trkpt lat="48.6448" lon="-0.55353">
        <ele>196.7</ele>
        <time>2012-02-11T15:02:59Z</time>
      </trkpt>
      <trkpt lat="48.64474" lon="-0.55349">
        <ele>197</ele>
        <time>2012-02-11T15:03:01Z</time>
      </trkpt>
      <trkpt lat="48.64467" lon="-0.55345">
        <ele>197.2</ele>
        <time>2012-02-11T15:03:03Z</time>
      </trkpt>
      <trkpt lat="48.64461" lon="-0.55341">
        <ele>197.7</ele>
        <time>2012-02-11T15:03:05Z</time>
      </trkpt>
      <trkpt lat="48.64454" lon="-0.55337">
        <ele>197.7</ele>
        <time>2012-02-11T15:03:07Z</time>
      </trkpt>
      <trkpt lat="48.64448" lon="-0.55333">
        <ele>198</ele>
        <time>2012-02-11T15:03:09Z</time>
      </trkpt>
      <trkpt lat="48.64442" lon="-0.55329">
        <ele>198.2</ele>
        <time>2012-02-11T15:03:11Z</time>
      </trkpt>
      <trkpt lat="48.64435" lon="-0.55326">
        <ele>198.3</ele>
        <time>2012-02-11T15:03:13Z</time>
      </trkpt>
      <trkpt lat="48.64429" lon="-0.55322">
        <ele>198.2</ele>
        <time>2012-02-11T15:03:15Z</time>
      </trkpt>
      <trkpt lat="48.64425" lon="-0.5532">
        <ele>198.2</ele>
        <time>2012-02-11T15:03:16Z</time>
      </trkpt>
      <trkpt lat="48.64415" lon="-0.55314">
        <ele>198.7</ele>
        <time>2012-02-11T15:03:19Z</time>
      </trkpt>
      <trkpt lat="48.64409" lon="-0.5531">
        <ele>198.7</ele>
        <time>2012-02-11T15:03:21Z</time>
      </trkpt>
      <trkpt lat="48.64402" lon="-0.55306">
        <ele>198.4</ele>
        <time>2012-02-11T15:03:23Z</time>
      </trkpt>
      <trkpt lat="48.64395" lon="-0.55302">
        <ele>198.5</ele>
        <time>2012-02-11T15:03:25Z</time>
      </trkpt>
      <trkpt lat="48.64388" lon="-0.55298">
        <ele>199</ele>
        <time>2012-02-11T15:03:27Z</time>
      </trkpt>
      <trkpt lat="48.6438" lon="-0.55293">
        <ele>199.3</ele>
        <time>2012-02-11T15:03:29Z</time>
      </trkpt>
      <trkpt lat="48.64373" lon="-0.55289">
        <ele>199.3</ele>
        <time>2012-02-11T15:03:31Z</time>
      </trkpt>
      <trkpt lat="48.64366" lon="-0.55285">
        <ele>199.7</ele>
        <time>2012-02-11T15:03:33Z</time>
      </trkpt>
      <trkpt lat="48.64359" lon="-0.5528">
        <ele>199.8</ele>
        <time>2012-02-11T15:03:35Z</time>
      </trkpt>
      <trkpt lat="48.64351" lon="-0.55276">
        <ele>199.8</ele>
        <time>2012-02-11T15:03:37Z</time>
      </trkpt>
      <trkpt lat="48.64344" lon="-0.55272">
        <ele>199.8</ele>
        <time>2012-02-11T15:03:39Z</time>
      </trkpt>
      <trkpt lat="48.64336" lon="-0.55268">
        <ele>199.7</ele>
        <time>2012-02-11T15:03:41Z</time>
      </trkpt>
      <trkpt lat="48.64329" lon="-0.55264">
        <ele>199.3</ele>
        <time>2012-02-11T15:03:43Z</time>
      </trkpt>
      <trkpt lat="48.64321" lon="-0.5526">
        <ele>199.6</ele>
        <time>2012-02-11T15:03:45Z</time>
      </trkpt>
      <trkpt lat="48.64314" lon="-0.55257">
        <ele>199.7</ele>
        <time>2012-02-11T15:03:47Z</time>
      </trkpt>
      <trkpt lat="48.64307" lon="-0.55255">
        <ele>199.6</ele>
        <time>2012-02-11T15:03:49Z</time>
      </trkpt>
      <trkpt lat="48.64299" lon="-0.55252">
        <ele>199.9</ele>
        <time>2012-02-11T15:03:51Z</time>
      </trkpt>
      <trkpt lat="48.64292" lon="-0.55251">
        <ele>200</ele>
        <time>2012-02-11T15:03:53Z</time>
      </trkpt>
      <trkpt lat="48.64285" lon="-0.55251">
        <ele>199.8</ele>
        <time>2012-02-11T15:03:55Z</time>
      </trkpt>
      <trkpt lat="48.64279" lon="-0.55251">
        <ele>199.7</ele>
        <time>2012-02-11T15:03:57Z</time>
      </trkpt>
      <trkpt lat="48.64272" lon="-0.55251">
        <ele>200</ele>
        <time>2012-02-11T15:03:59Z</time>
      </trkpt>
      <trkpt lat="48.64266" lon="-0.55253">
        <ele>200.6</ele>
        <time>2012-02-11T15:04:01Z</time>
      </trkpt>
      <trkpt lat="48.6426" lon="-0.55256">
        <ele>200.8</ele>
        <time>2012-02-11T15:04:03Z</time>
      </trkpt>
      <trkpt lat="48.64253" lon="-0.55258">
        <ele>201.3</ele>
        <time>2012-02-11T15:04:05Z</time>
      </trkpt>
      <trkpt lat="48.64247" lon="-0.55261">
        <ele>201.9</ele>
        <time>2012-02-11T15:04:07Z</time>
      </trkpt>
      <trkpt lat="48.64241" lon="-0.55265">
        <ele>202.1</ele>
        <time>2012-02-11T15:04:09Z</time>
      </trkpt>
      <trkpt lat="48.64235" lon="-0.5527">
        <ele>202.9</ele>
        <time>2012-02-11T15:04:11Z</time>
      </trkpt>
      <trkpt lat="48.64229" lon="-0.55274">
        <ele>203.4</ele>
        <time>2012-02-11T15:04:13Z</time>
      </trkpt>
      <trkpt lat="48.64222" lon="-0.55278">
        <ele>203.8</ele>
        <time>2012-02-11T15:04:16Z</time>
      </trkpt>
      <trkpt lat="48.6422" lon="-0.55278">
        <ele>204.1</ele>
        <time>2012-02-11T15:04:17Z</time>
      </trkpt>
      <trkpt lat="48.64215" lon="-0.55259">
        <ele>204.7</ele>
        <time>2012-02-11T15:04:26Z</time>
      </trkpt>
      <trkpt lat="48.64214" lon="-0.55249">
        <ele>204.3</ele>
        <time>2012-02-11T15:04:29Z</time>
      </trkpt>
      <trkpt lat="48.64212" lon="-0.55237">
        <ele>205.1</ele>
        <time>2012-02-11T15:04:32Z</time>
      </trkpt>
      <trkpt lat="48.6421" lon="-0.55226">
        <ele>205</ele>
        <time>2012-02-11T15:04:35Z</time>
      </trkpt>
      <trkpt lat="48.64208" lon="-0.55215">
        <ele>205.3</ele>
        <time>2012-02-11T15:04:38Z</time>
      </trkpt>
      <trkpt lat="48.64206" lon="-0.55204">
        <ele>205.3</ele>
        <time>2012-02-11T15:04:41Z</time>
      </trkpt>
      <trkpt lat="48.64203" lon="-0.55194">
        <ele>205.4</ele>
        <time>2012-02-11T15:04:44Z</time>
      </trkpt>
      <trkpt lat="48.642" lon="-0.55185">
        <ele>205</ele>
        <time>2012-02-11T15:04:46Z</time>
      </trkpt>
      <trkpt lat="48.64197" lon="-0.55174">
        <ele>205.2</ele>
        <time>2012-02-11T15:04:49Z</time>
      </trkpt>
      <trkpt lat="48.64193" lon="-0.55163">
        <ele>204.9</ele>
        <time>2012-02-11T15:04:52Z</time>
      </trkpt>
      <trkpt lat="48.64191" lon="-0.55154">
        <ele>204.8</ele>
        <time>2012-02-11T15:04:54Z</time>
      </trkpt>
      <trkpt lat="48.64188" lon="-0.55145">
        <ele>204.5</ele>
        <time>2012-02-11T15:04:56Z</time>
      </trkpt>
      <trkpt lat="48.64186" lon="-0.55135">
        <ele>204.7</ele>
        <time>2012-02-11T15:04:58Z</time>
      </trkpt>
      <trkpt lat="48.64186" lon="-0.55122">
        <ele>204.7</ele>
        <time>2012-02-11T15:05:01Z</time>
      </trkpt>
      <trkpt lat="48.64188" lon="-0.5511">
        <ele>204.6</ele>
        <time>2012-02-11T15:05:04Z</time>
      </trkpt>
      <trkpt lat="48.6419" lon="-0.551">
        <ele>204.6</ele>
        <time>2012-02-11T15:05:07Z</time>
      </trkpt>
      <trkpt lat="48.64193" lon="-0.5509">
        <ele>205.6</ele>
        <time>2012-02-11T15:05:10Z</time>
      </trkpt>
      <trkpt lat="48.64197" lon="-0.5508">
        <ele>206.7</ele>
        <time>2012-02-11T15:05:14Z</time>
      </trkpt>
      <trkpt lat="48.64202" lon="-0.5507">
        <ele>207.1</ele>
        <time>2012-02-11T15:05:18Z</time>
      </trkpt>
      <trkpt lat="48.64203" lon="-0.55067">
        <ele>207.7</ele>
        <time>2012-02-11T15:05:19Z</time>
      </trkpt>
      <trkpt lat="48.64206" lon="-0.55046">
        <ele>209.9</ele>
        <time>2012-02-11T15:05:26Z</time>
      </trkpt>
      <trkpt lat="48.64207" lon="-0.55035">
        <ele>210.2</ele>
        <time>2012-02-11T15:05:30Z</time>
      </trkpt>
      <trkpt lat="48.6421" lon="-0.55023">
        <ele>212</ele>
        <time>2012-02-11T15:05:35Z</time>
      </trkpt>
      <trkpt lat="48.64212" lon="-0.55012">
        <ele>213.1</ele>
        <time>2012-02-11T15:05:40Z</time>
      </trkpt>
      <trkpt lat="48.64215" lon="-0.55">
        <ele>214.3</ele>
        <time>2012-02-11T15:05:46Z</time>
      </trkpt>
      <trkpt lat="48.64219" lon="-0.54989">
        <ele>216.6</ele>
        <time>2012-02-11T15:05:57Z</time>
      </trkpt>
      <trkpt lat="48.64221" lon="-0.54976">
        <ele>216.4</ele>
        <time>2012-02-11T15:06:05Z</time>
      </trkpt>
      <trkpt lat="48.64223" lon="-0.54964">
        <ele>217.5</ele>
        <time>2012-02-11T15:06:12Z</time>
      </trkpt>
      <trkpt lat="48.64224" lon="-0.54954">
        <ele>216.5</ele>
        <time>2012-02-11T15:06:16Z</time>
      </trkpt>
      <trkpt lat="48.64226" lon="-0.54944">
        <ele>215.8</ele>
        <time>2012-02-11T15:06:19Z</time>
      </trkpt>
      <trkpt lat="48.64226" lon="-0.5494">
        <ele>215.5</ele>
        <time>2012-02-11T15:06:20Z</time>
      </trkpt>
      <trkpt lat="48.64231" lon="-0.54921">
        <ele>214.8</ele>
        <time>2012-02-11T15:06:26Z</time>
      </trkpt>
      <trkpt lat="48.64234" lon="-0.5491">
        <ele>214.4</ele>
        <time>2012-02-11T15:06:30Z</time>
      </trkpt>
      <trkpt lat="48.64236" lon="-0.54898">
        <ele>213.4</ele>
        <time>2012-02-11T15:06:33Z</time>
      </trkpt>
      <trkpt lat="48.64236" lon="-0.54888">
        <ele>213.1</ele>
        <time>2012-02-11T15:06:35Z</time>
      </trkpt>
      <trkpt lat="48.64237" lon="-0.54877">
        <ele>213.1</ele>
        <time>2012-02-11T15:06:37Z</time>
      </trkpt>
      <trkpt lat="48.64237" lon="-0.54865">
        <ele>212.7</ele>
        <time>2012-02-11T15:06:39Z</time>
      </trkpt>
      <trkpt lat="48.64237" lon="-0.54854">
        <ele>212.2</ele>
        <time>2012-02-11T15:06:41Z</time>
      </trkpt>
      <trkpt lat="48.64236" lon="-0.54843">
        <ele>211.8</ele>
        <time>2012-02-11T15:06:43Z</time>
      </trkpt>
      <trkpt lat="48.64236" lon="-0.54831">
        <ele>211</ele>
        <time>2012-02-11T15:06:46Z</time>
      </trkpt>
      <trkpt lat="48.64235" lon="-0.5482">
        <ele>210.7</ele>
        <time>2012-02-11T15:06:49Z</time>
      </trkpt>
      <trkpt lat="48.64235" lon="-0.54807">
        <ele>210.6</ele>
        <time>2012-02-11T15:06:52Z</time>
      </trkpt>
      <trkpt lat="48.64236" lon="-0.54797">
        <ele>210.2</ele>
        <time>2012-02-11T15:06:54Z</time>
      </trkpt>
      <trkpt lat="48.64236" lon="-0.54787">
        <ele>209.8</ele>
        <time>2012-02-11T15:06:56Z</time>
      </trkpt>
      <trkpt lat="48.64235" lon="-0.54776">
        <ele>209.5</ele>
        <time>2012-02-11T15:06:58Z</time>
      </trkpt>
      <trkpt lat="48.64235" lon="-0.54767">
        <ele>209.3</ele>
        <time>2012-02-11T15:07:00Z</time>
      </trkpt>
      <trkpt lat="48.64235" lon="-0.54757">
        <ele>209.2</ele>
        <time>2012-02-11T15:07:02Z</time>
      </trkpt>
      <trkpt lat="48.64235" lon="-0.54748">
        <ele>209.4</ele>
        <time>2012-02-11T15:07:04Z</time>
      </trkpt>
      <trkpt lat="48.64235" lon="-0.54738">
        <ele>209.3</ele>
        <time>2012-02-11T15:07:06Z</time>
      </trkpt>
      <trkpt lat="48.64236" lon="-0.54728">
        <ele>209.1</ele>
        <time>2012-02-11T15:07:08Z</time>
      </trkpt>
      <trkpt lat="48.64236" lon="-0.54717">
        <ele>209</ele>
        <time>2012-02-11T15:07:10Z</time>
      </trkpt>
      <trkpt lat="48.64236" lon="-0.54706">
        <ele>209</ele>
        <time>2012-02-11T15:07:12Z</time>
      </trkpt>
      <trkpt lat="48.64237" lon="-0.54695">
        <ele>208.4</ele>
        <time>2012-02-11T15:07:14Z</time>
      </trkpt>
      <trkpt lat="48.64237" lon="-0.54685">
        <ele>208.7</ele>
        <time>2012-02-11T15:07:16Z</time>
      </trkpt>
      <trkpt lat="48.64236" lon="-0.54671">
        <ele>209.1</ele>
        <time>2012-02-11T15:07:19Z</time>
      </trkpt>
      <trkpt lat="48.64236" lon="-0.54662">
        <ele>209.2</ele>
        <time>2012-02-11T15:07:21Z</time>
      </trkpt>
      <trkpt lat="48.64236" lon="-0.54658">
        <ele>209</ele>
        <time>2012-02-11T15:07:22Z</time>
      </trkpt>
      <trkpt lat="48.64236" lon="-0.54643">
        <ele>208.6</ele>
        <time>2012-02-11T15:07:25Z</time>
      </trkpt>
      <trkpt lat="48.64236" lon="-0.54633">
        <ele>208.7</ele>
        <time>2012-02-11T15:07:27Z</time>
      </trkpt>
      <trkpt lat="48.64235" lon="-0.54624">
        <ele>208.9</ele>
        <time>2012-02-11T15:07:29Z</time>
      </trkpt>
      <trkpt lat="48.64236" lon="-0.54611">
        <ele>208.7</ele>
        <time>2012-02-11T15:07:32Z</time>
      </trkpt>
      <trkpt lat="48.64236" lon="-0.54598">
        <ele>209.2</ele>
        <time>2012-02-11T15:07:35Z</time>
      </trkpt>
      <trkpt lat="48.64236" lon="-0.54586">
        <ele>208.9</ele>
        <time>2012-02-11T15:07:38Z</time>
      </trkpt>
      <trkpt lat="48.64236" lon="-0.54574">
        <ele>209.6</ele>
        <time>2012-02-11T15:07:41Z</time>
      </trkpt>
      <trkpt lat="48.64237" lon="-0.54563">
        <ele>209.5</ele>
        <time>2012-02-11T15:07:44Z</time>
      </trkpt>
      <trkpt lat="48.64237" lon="-0.54551">
        <ele>209.8</ele>
        <time>2012-02-11T15:07:47Z</time>
      </trkpt>
      <trkpt lat="48.64237" lon="-0.54537">
        <ele>209.2</ele>
        <time>2012-02-11T15:07:50Z</time>
      </trkpt>
      <trkpt lat="48.64237" lon="-0.54528">
        <ele>209</ele>
        <time>2012-02-11T15:07:52Z</time>
      </trkpt>
      <trkpt lat="48.64237" lon="-0.54518">
        <ele>209.6</ele>
        <time>2012-02-11T15:07:54Z</time>
      </trkpt>
      <trkpt lat="48.64236" lon="-0.54509">
        <ele>209.2</ele>
        <time>2012-02-11T15:07:56Z</time>
      </trkpt>
      <trkpt lat="48.64236" lon="-0.54499">
        <ele>209</ele>
        <time>2012-02-11T15:07:58Z</time>
      </trkpt>
      <trkpt lat="48.64236" lon="-0.5449">
        <ele>209.2</ele>
        <time>2012-02-11T15:08:00Z</time>
      </trkpt>
      <trkpt lat="48.64236" lon="-0.5448">
        <ele>209.2</ele>
        <time>2012-02-11T15:08:02Z</time>
      </trkpt>
      <trkpt lat="48.64236" lon="-0.54471">
        <ele>209.2</ele>
        <time>2012-02-11T15:08:04Z</time>
      </trkpt>
      <trkpt lat="48.64236" lon="-0.54461">
        <ele>209.2</ele>
        <time>2012-02-11T15:08:06Z</time>
      </trkpt>
      <trkpt lat="48.64237" lon="-0.54451">
        <ele>210.1</ele>
        <time>2012-02-11T15:08:08Z</time>
      </trkpt>
      <trkpt lat="48.64238" lon="-0.54441">
        <ele>210.6</ele>
        <time>2012-02-11T15:08:10Z</time>
      </trkpt>
      <trkpt lat="48.6424" lon="-0.54432">
        <ele>211.1</ele>
        <time>2012-02-11T15:08:12Z</time>
      </trkpt>
      <trkpt lat="48.64243" lon="-0.54419">
        <ele>211.4</ele>
        <time>2012-02-11T15:08:15Z</time>
      </trkpt>
      <trkpt lat="48.64246" lon="-0.54407">
        <ele>211.6</ele>
        <time>2012-02-11T15:08:18Z</time>
      </trkpt>
      <trkpt lat="48.64248" lon="-0.54396">
        <ele>211.5</ele>
        <time>2012-02-11T15:08:21Z</time>
      </trkpt>
      <trkpt lat="48.64248" lon="-0.54383">
        <ele>211.5</ele>
        <time>2012-02-11T15:08:27Z</time>
      </trkpt>
      <trkpt lat="48.64247" lon="-0.54381">
        <ele>211.4</ele>
        <time>2012-02-11T15:08:28Z</time>
      </trkpt>
      <trkpt lat="48.64239" lon="-0.54378">
        <ele>213</ele>
        <time>2012-02-11T15:10:24Z</time>
      </trkpt>
      <trkpt lat="48.64229" lon="-0.54364">
        <ele>213.2</ele>
        <time>2012-02-11T15:10:31Z</time>
      </trkpt>
      <trkpt lat="48.64227" lon="-0.54351">
        <ele>213.6</ele>
        <time>2012-02-11T15:10:34Z</time>
      </trkpt>
      <trkpt lat="48.64226" lon="-0.54339">
        <ele>213.7</ele>
        <time>2012-02-11T15:10:37Z</time>
      </trkpt>
      <trkpt lat="48.64226" lon="-0.54327">
        <ele>214.3</ele>
        <time>2012-02-11T15:10:40Z</time>
      </trkpt>
      <trkpt lat="48.64226" lon="-0.54314">
        <ele>213.1</ele>
        <time>2012-02-11T15:10:44Z</time>
      </trkpt>
      <trkpt lat="48.64217" lon="-0.5431">
        <ele>213.7</ele>
        <time>2012-02-11T15:11:17Z</time>
      </trkpt>
      <trkpt lat="48.6421" lon="-0.54318">
        <ele>214.4</ele>
        <time>2012-02-11T15:11:21Z</time>
      </trkpt>
      <trkpt lat="48.64204" lon="-0.54324">
        <ele>215</ele>
        <time>2012-02-11T15:11:24Z</time>
      </trkpt>
      <trkpt lat="48.64202" lon="-0.54326">
        <ele>215.2</ele>
        <time>2012-02-11T15:11:25Z</time>
      </trkpt>
      <trkpt lat="48.64192" lon="-0.54343">
        <ele>217.9</ele>
        <time>2012-02-11T15:11:33Z</time>
      </trkpt>
      <trkpt lat="48.64187" lon="-0.54351">
        <ele>219.5</ele>
        <time>2012-02-11T15:11:37Z</time>
      </trkpt>
      <trkpt lat="48.64181" lon="-0.54359">
        <ele>221.3</ele>
        <time>2012-02-11T15:11:41Z</time>
      </trkpt>
      <trkpt lat="48.64174" lon="-0.54367">
        <ele>223</ele>
        <time>2012-02-11T15:11:47Z</time>
      </trkpt>
      <trkpt lat="48.64168" lon="-0.54376">
        <ele>223.4</ele>
        <time>2012-02-11T15:11:54Z</time>
      </trkpt>
      <trkpt lat="48.64162" lon="-0.54385">
        <ele>226.1</ele>
        <time>2012-02-11T15:12:00Z</time>
      </trkpt>
      <trkpt lat="48.64156" lon="-0.54391">
        <ele>227.7</ele>
        <time>2012-02-11T15:12:05Z</time>
      </trkpt>
      <trkpt lat="48.64149" lon="-0.54398">
        <ele>229.8</ele>
        <time>2012-02-11T15:12:11Z</time>
      </trkpt>
      <trkpt lat="48.64142" lon="-0.54406">
        <ele>231.2</ele>
        <time>2012-02-11T15:12:17Z</time>
      </trkpt>
      <trkpt lat="48.64135" lon="-0.54414">
        <ele>232.2</ele>
        <time>2012-02-11T15:12:23Z</time>
      </trkpt>
      <trkpt lat="48.64129" lon="-0.54421">
        <ele>234.2</ele>
        <time>2012-02-11T15:12:28Z</time>
      </trkpt>
      <trkpt lat="48.64127" lon="-0.54422">
        <ele>234.3</ele>
        <time>2012-02-11T15:12:29Z</time>
      </trkpt>
      <trkpt lat="48.64114" lon="-0.54436">
        <ele>236.4</ele>
        <time>2012-02-11T15:12:40Z</time>
      </trkpt>
      <trkpt lat="48.64108" lon="-0.54442">
        <ele>236.6</ele>
        <time>2012-02-11T15:12:46Z</time>
      </trkpt>
      <trkpt lat="48.64102" lon="-0.5445">
        <ele>238.3</ele>
        <time>2012-02-11T15:12:52Z</time>
      </trkpt>
      <trkpt lat="48.64096" lon="-0.54458">
        <ele>239.2</ele>
        <time>2012-02-11T15:12:58Z</time>
      </trkpt>
      <trkpt lat="48.64089" lon="-0.54467">
        <ele>240.9</ele>
        <time>2012-02-11T15:13:04Z</time>
      </trkpt>
      <trkpt lat="48.64082" lon="-0.54475">
        <ele>242</ele>
        <time>2012-02-11T15:13:10Z</time>
      </trkpt>
      <trkpt lat="48.64075" lon="-0.54483">
        <ele>242.6</ele>
        <time>2012-02-11T15:13:16Z</time>
      </trkpt>
      <trkpt lat="48.64069" lon="-0.54491">
        <ele>243.4</ele>
        <time>2012-02-11T15:13:22Z</time>
      </trkpt>
      <trkpt lat="48.64063" lon="-0.54498">
        <ele>243.5</ele>
        <time>2012-02-11T15:13:27Z</time>
      </trkpt>
      <trkpt lat="48.64056" lon="-0.54506">
        <ele>244.5</ele>
        <time>2012-02-11T15:13:32Z</time>
      </trkpt>
      <trkpt lat="48.64054" lon="-0.54507">
        <ele>244.7</ele>
        <time>2012-02-11T15:13:33Z</time>
      </trkpt>
      <trkpt lat="48.64044" lon="-0.54519">
        <ele>245.2</ele>
        <time>2012-02-11T15:13:40Z</time>
      </trkpt>
      <trkpt lat="48.64037" lon="-0.54526">
        <ele>245</ele>
        <time>2012-02-11T15:13:45Z</time>
      </trkpt>
      <trkpt lat="48.6403" lon="-0.54533">
        <ele>246</ele>
        <time>2012-02-11T15:13:50Z</time>
      </trkpt>
      <trkpt lat="48.64022" lon="-0.54539">
        <ele>246.4</ele>
        <time>2012-02-11T15:14:01Z</time>
      </trkpt>
      <trkpt lat="48.64014" lon="-0.54543">
        <ele>246.7</ele>
        <time>2012-02-11T15:15:50Z</time>
      </trkpt>
      <trkpt lat="48.64013" lon="-0.54542">
        <ele>247</ele>
        <time>2012-02-11T15:15:51Z</time>
      </trkpt>
      <trkpt lat="48.6401" lon="-0.54521">
        <ele>246.9</ele>
        <time>2012-02-11T15:15:58Z</time>
      </trkpt>
      <trkpt lat="48.6401" lon="-0.54511">
        <ele>247</ele>
        <time>2012-02-11T15:16:01Z</time>
      </trkpt>
      <trkpt lat="48.64009" lon="-0.545">
        <ele>247.3</ele>
        <time>2012-02-11T15:16:04Z</time>
      </trkpt>
      <trkpt lat="48.64008" lon="-0.54489">
        <ele>247.4</ele>
        <time>2012-02-11T15:16:07Z</time>
      </trkpt>
      <trkpt lat="48.64008" lon="-0.54476">
        <ele>247.2</ele>
        <time>2012-02-11T15:16:10Z</time>
      </trkpt>
      <trkpt lat="48.64007" lon="-0.54464">
        <ele>247.7</ele>
        <time>2012-02-11T15:16:13Z</time>
      </trkpt>
      <trkpt lat="48.64006" lon="-0.54451">
        <ele>247.8</ele>
        <time>2012-02-11T15:16:16Z</time>
      </trkpt>
      <trkpt lat="48.64006" lon="-0.54438">
        <ele>249.3</ele>
        <time>2012-02-11T15:16:20Z</time>
      </trkpt>
      <trkpt lat="48.64006" lon="-0.54426">
        <ele>249.9</ele>
        <time>2012-02-11T15:16:23Z</time>
      </trkpt>
      <trkpt lat="48.64005" lon="-0.54414">
        <ele>250.5</ele>
        <time>2012-02-11T15:16:26Z</time>
      </trkpt>
      <trkpt lat="48.64005" lon="-0.54401">
        <ele>250.5</ele>
        <time>2012-02-11T15:16:29Z</time>
      </trkpt>
      <trkpt lat="48.64006" lon="-0.54391">
        <ele>251.2</ele>
        <time>2012-02-11T15:16:32Z</time>
      </trkpt>
      <trkpt lat="48.64004" lon="-0.5438">
        <ele>251.5</ele>
        <time>2012-02-11T15:16:35Z</time>
      </trkpt>
      <trkpt lat="48.64004" lon="-0.5437">
        <ele>251.8</ele>
        <time>2012-02-11T15:16:38Z</time>
      </trkpt>
      <trkpt lat="48.64004" lon="-0.54358">
        <ele>252.5</ele>
        <time>2012-02-11T15:16:41Z</time>
      </trkpt>
      <trkpt lat="48.64004" lon="-0.54347">
        <ele>252.8</ele>
        <time>2012-02-11T15:16:44Z</time>
      </trkpt>
      <trkpt lat="48.64004" lon="-0.54334">
        <ele>252.6</ele>
        <time>2012-02-11T15:16:47Z</time>
      </trkpt>
      <trkpt lat="48.64003" lon="-0.54324">
        <ele>252.6</ele>
        <time>2012-02-11T15:16:49Z</time>
      </trkpt>
      <trkpt lat="48.64003" lon="-0.54314">
        <ele>253</ele>
        <time>2012-02-11T15:16:51Z</time>
      </trkpt>
      <trkpt lat="48.64003" lon="-0.54309">
        <ele>253</ele>
        <time>2012-02-11T15:16:52Z</time>
      </trkpt>
      <trkpt lat="48.64003" lon="-0.54293">
        <ele>252</ele>
        <time>2012-02-11T15:16:55Z</time>
      </trkpt>
      <trkpt lat="48.64002" lon="-0.54281">
        <ele>251.3</ele>
        <time>2012-02-11T15:16:58Z</time>
      </trkpt>
      <trkpt lat="48.64002" lon="-0.54268">
        <ele>250.7</ele>
        <time>2012-02-11T15:17:03Z</time>
      </trkpt>
      <trkpt lat="48.64001" lon="-0.54257">
        <ele>251</ele>
        <time>2012-02-11T15:17:06Z</time>
      </trkpt>
      <trkpt lat="48.64001" lon="-0.54248">
        <ele>251</ele>
        <time>2012-02-11T15:17:08Z</time>
      </trkpt>
      <trkpt lat="48.64" lon="-0.54237">
        <ele>251.2</ele>
        <time>2012-02-11T15:17:10Z</time>
      </trkpt>
      <trkpt lat="48.63999" lon="-0.54225">
        <ele>250.9</ele>
        <time>2012-02-11T15:17:13Z</time>
      </trkpt>
      <trkpt lat="48.63999" lon="-0.54215">
        <ele>250.9</ele>
        <time>2012-02-11T15:17:16Z</time>
      </trkpt>
      <trkpt lat="48.63999" lon="-0.54204">
        <ele>251.1</ele>
        <time>2012-02-11T15:17:19Z</time>
      </trkpt>
      <trkpt lat="48.63998" lon="-0.54192">
        <ele>250.9</ele>
        <time>2012-02-11T15:17:22Z</time>
      </trkpt>
      <trkpt lat="48.63998" lon="-0.54178">
        <ele>250.9</ele>
        <time>2012-02-11T15:17:25Z</time>
      </trkpt>
      <trkpt lat="48.63997" lon="-0.54165">
        <ele>251.1</ele>
        <time>2012-02-11T15:17:28Z</time>
      </trkpt>
      <trkpt lat="48.63996" lon="-0.54155">
        <ele>251.4</ele>
        <time>2012-02-11T15:17:30Z</time>
      </trkpt>
      <trkpt lat="48.63996" lon="-0.54142">
        <ele>251.4</ele>
        <time>2012-02-11T15:17:33Z</time>
      </trkpt>
      <trkpt lat="48.63996" lon="-0.54128">
        <ele>251.6</ele>
        <time>2012-02-11T15:17:36Z</time>
      </trkpt>
      <trkpt lat="48.63996" lon="-0.54116">
        <ele>251.6</ele>
        <time>2012-02-11T15:17:39Z</time>
      </trkpt>
      <trkpt lat="48.63996" lon="-0.54103">
        <ele>251.5</ele>
        <time>2012-02-11T15:17:42Z</time>
      </trkpt>
      <trkpt lat="48.63996" lon="-0.54091">
        <ele>251.6</ele>
        <time>2012-02-11T15:17:45Z</time>
      </trkpt>
      <trkpt lat="48.63995" lon="-0.54078">
        <ele>250.9</ele>
        <time>2012-02-11T15:17:48Z</time>
      </trkpt>
      <trkpt lat="48.63995" lon="-0.54069">
        <ele>251.6</ele>
        <time>2012-02-11T15:17:50Z</time>
      </trkpt>
      <trkpt lat="48.63994" lon="-0.5406">
        <ele>252</ele>
        <time>2012-02-11T15:17:52Z</time>
      </trkpt>
      <trkpt lat="48.63994" lon="-0.54056">
        <ele>251.7</ele>
        <time>2012-02-11T15:17:53Z</time>
      </trkpt>
      <trkpt lat="48.63993" lon="-0.54034">
        <ele>252.2</ele>
        <time>2012-02-11T15:17:58Z</time>
      </trkpt>
      <trkpt lat="48.63993" lon="-0.54021">
        <ele>252.2</ele>
        <time>2012-02-11T15:18:01Z</time>
      </trkpt>
      <trkpt lat="48.63993" lon="-0.54011">
        <ele>252.2</ele>
        <time>2012-02-11T15:18:03Z</time>
      </trkpt>
      <trkpt lat="48.63992" lon="-0.53998">
        <ele>252.5</ele>
        <time>2012-02-11T15:18:06Z</time>
      </trkpt>
      <trkpt lat="48.63992" lon="-0.53986">
        <ele>253</ele>
        <time>2012-02-11T15:18:09Z</time>
      </trkpt>
      <trkpt lat="48.63991" lon="-0.53974">
        <ele>253.5</ele>
        <time>2012-02-11T15:18:12Z</time>
      </trkpt>
      <trkpt lat="48.6399" lon="-0.53963">
        <ele>253.8</ele>
        <time>2012-02-11T15:18:15Z</time>
      </trkpt>
      <trkpt lat="48.63991" lon="-0.53951">
        <ele>253.9</ele>
        <time>2012-02-11T15:18:18Z</time>
      </trkpt>
      <trkpt lat="48.6399" lon="-0.53938">
        <ele>254.1</ele>
        <time>2012-02-11T15:18:21Z</time>
      </trkpt>
      <trkpt lat="48.6399" lon="-0.53927">
        <ele>254.6</ele>
        <time>2012-02-11T15:18:24Z</time>
      </trkpt>
      <trkpt lat="48.63989" lon="-0.53914">
        <ele>255.6</ele>
        <time>2012-02-11T15:18:27Z</time>
      </trkpt>
      <trkpt lat="48.63988" lon="-0.53901">
        <ele>255.5</ele>
        <time>2012-02-11T15:18:30Z</time>
      </trkpt>
      <trkpt lat="48.63989" lon="-0.53892">
        <ele>255.2</ele>
        <time>2012-02-11T15:18:32Z</time>
      </trkpt>
      <trkpt lat="48.63989" lon="-0.53879">
        <ele>255.7</ele>
        <time>2012-02-11T15:18:35Z</time>
      </trkpt>
      <trkpt lat="48.63988" lon="-0.53867">
        <ele>256.1</ele>
        <time>2012-02-11T15:18:38Z</time>
      </trkpt>
      <trkpt lat="48.63987" lon="-0.53856">
        <ele>255.9</ele>
        <time>2012-02-11T15:18:41Z</time>
      </trkpt>
      <trkpt lat="48.63986" lon="-0.53844">
        <ele>255.7</ele>
        <time>2012-02-11T15:18:44Z</time>
      </trkpt>
      <trkpt lat="48.63986" lon="-0.53835">
        <ele>255.6</ele>
        <time>2012-02-11T15:18:46Z</time>
      </trkpt>
      <trkpt lat="48.63986" lon="-0.53825">
        <ele>255.7</ele>
        <time>2012-02-11T15:18:48Z</time>
      </trkpt>
      <trkpt lat="48.63986" lon="-0.53812">
        <ele>256.3</ele>
        <time>2012-02-11T15:18:51Z</time>
      </trkpt>
      <trkpt lat="48.63985" lon="-0.53803">
        <ele>256.1</ele>
        <time>2012-02-11T15:18:53Z</time>
      </trkpt>
      <trkpt lat="48.63985" lon="-0.53798">
        <ele>255.9</ele>
        <time>2012-02-11T15:18:54Z</time>
      </trkpt>
      <trkpt lat="48.63984" lon="-0.53779">
        <ele>257</ele>
        <time>2012-02-11T15:18:59Z</time>
      </trkpt>
      <trkpt lat="48.63983" lon="-0.53767">
        <ele>256.6</ele>
        <time>2012-02-11T15:19:02Z</time>
      </trkpt>
      <trkpt lat="48.63983" lon="-0.53755">
        <ele>256.6</ele>
        <time>2012-02-11T15:19:05Z</time>
      </trkpt>
      <trkpt lat="48.63982" lon="-0.53742">
        <ele>257.1</ele>
        <time>2012-02-11T15:19:08Z</time>
      </trkpt>
      <trkpt lat="48.63981" lon="-0.53732">
        <ele>256.9</ele>
        <time>2012-02-11T15:19:10Z</time>
      </trkpt>
      <trkpt lat="48.63981" lon="-0.53719">
        <ele>257</ele>
        <time>2012-02-11T15:19:13Z</time>
      </trkpt>
      <trkpt lat="48.63981" lon="-0.53707">
        <ele>257.2</ele>
        <time>2012-02-11T15:19:16Z</time>
      </trkpt>
      <trkpt lat="48.63981" lon="-0.53696">
        <ele>257.4</ele>
        <time>2012-02-11T15:19:18Z</time>
      </trkpt>
      <trkpt lat="48.63979" lon="-0.53686">
        <ele>257.3</ele>
        <time>2012-02-11T15:19:20Z</time>
      </trkpt>
      <trkpt lat="48.63979" lon="-0.53675">
        <ele>257.4</ele>
        <time>2012-02-11T15:19:22Z</time>
      </trkpt>
      <trkpt lat="48.63979" lon="-0.53665">
        <ele>257.4</ele>
        <time>2012-02-11T15:19:24Z</time>
      </trkpt>
      <trkpt lat="48.63978" lon="-0.53653">
        <ele>257.5</ele>
        <time>2012-02-11T15:19:27Z</time>
      </trkpt>
      <trkpt lat="48.63977" lon="-0.53641">
        <ele>256.9</ele>
        <time>2012-02-11T15:19:31Z</time>
      </trkpt>
      <trkpt lat="48.63978" lon="-0.5363">
        <ele>257.1</ele>
        <time>2012-02-11T15:19:34Z</time>
      </trkpt>
      <trkpt lat="48.63977" lon="-0.53618">
        <ele>257.2</ele>
        <time>2012-02-11T15:19:37Z</time>
      </trkpt>
      <trkpt lat="48.63977" lon="-0.53608">
        <ele>257.1</ele>
        <time>2012-02-11T15:19:39Z</time>
      </trkpt>
      <trkpt lat="48.63977" lon="-0.53599">
        <ele>257</ele>
        <time>2012-02-11T15:19:41Z</time>
      </trkpt>
      <trkpt lat="48.63977" lon="-0.53589">
        <ele>256.6</ele>
        <time>2012-02-11T15:19:43Z</time>
      </trkpt>
      <trkpt lat="48.63977" lon="-0.5358">
        <ele>256.7</ele>
        <time>2012-02-11T15:19:45Z</time>
      </trkpt>
      <trkpt lat="48.63976" lon="-0.53568">
        <ele>256.7</ele>
        <time>2012-02-11T15:19:47Z</time>
      </trkpt>
      <trkpt lat="48.63976" lon="-0.53558">
        <ele>256.4</ele>
        <time>2012-02-11T15:19:49Z</time>
      </trkpt>
      <trkpt lat="48.63975" lon="-0.53548">
        <ele>256.4</ele>
        <time>2012-02-11T15:19:51Z</time>
      </trkpt>
      <trkpt lat="48.63975" lon="-0.53538">
        <ele>256.8</ele>
        <time>2012-02-11T15:19:53Z</time>
      </trkpt>
      <trkpt lat="48.63974" lon="-0.53528">
        <ele>256.6</ele>
        <time>2012-02-11T15:19:55Z</time>
      </trkpt>
      <trkpt lat="48.63974" lon="-0.53524">
        <ele>256.6</ele>
        <time>2012-02-11T15:19:56Z</time>
      </trkpt>
      <trkpt lat="48.63973" lon="-0.53509">
        <ele>256.1</ele>
        <time>2012-02-11T15:19:59Z</time>
      </trkpt>
      <trkpt lat="48.63973" lon="-0.535">
        <ele>256.7</ele>
        <time>2012-02-11T15:20:01Z</time>
      </trkpt>
      <trkpt lat="48.63972" lon="-0.5349">
        <ele>257.2</ele>
        <time>2012-02-11T15:20:03Z</time>
      </trkpt>
      <trkpt lat="48.63972" lon="-0.53477">
        <ele>257.3</ele>
        <time>2012-02-11T15:20:06Z</time>
      </trkpt>
      <trkpt lat="48.63972" lon="-0.53465">
        <ele>257.3</ele>
        <time>2012-02-11T15:20:09Z</time>
      </trkpt>
      <trkpt lat="48.63973" lon="-0.53455">
        <ele>257.3</ele>
        <time>2012-02-11T15:20:12Z</time>
      </trkpt>
      <trkpt lat="48.63973" lon="-0.53441">
        <ele>256.7</ele>
        <time>2012-02-11T15:20:15Z</time>
      </trkpt>
      <trkpt lat="48.63972" lon="-0.53432">
        <ele>257</ele>
        <time>2012-02-11T15:20:17Z</time>
      </trkpt>
      <trkpt lat="48.63972" lon="-0.53422">
        <ele>257.5</ele>
        <time>2012-02-11T15:20:19Z</time>
      </trkpt>
      <trkpt lat="48.63972" lon="-0.53413">
        <ele>257.6</ele>
        <time>2012-02-11T15:20:21Z</time>
      </trkpt>
      <trkpt lat="48.63971" lon="-0.534">
        <ele>257.7</ele>
        <time>2012-02-11T15:20:24Z</time>
      </trkpt>
      <trkpt lat="48.63972" lon="-0.53387">
        <ele>257.1</ele>
        <time>2012-02-11T15:20:27Z</time>
      </trkpt>
      <trkpt lat="48.63971" lon="-0.53378">
        <ele>257.9</ele>
        <time>2012-02-11T15:20:29Z</time>
      </trkpt>
      <trkpt lat="48.63972" lon="-0.53365">
        <ele>257.9</ele>
        <time>2012-02-11T15:20:32Z</time>
      </trkpt>
      <trkpt lat="48.63971" lon="-0.53355">
        <ele>258.1</ele>
        <time>2012-02-11T15:20:34Z</time>
      </trkpt>
      <trkpt lat="48.63971" lon="-0.53346">
        <ele>258.3</ele>
        <time>2012-02-11T15:20:36Z</time>
      </trkpt>
      <trkpt lat="48.63971" lon="-0.53333">
        <ele>258.2</ele>
        <time>2012-02-11T15:20:39Z</time>
      </trkpt>
      <trkpt lat="48.63971" lon="-0.5332">
        <ele>258.2</ele>
        <time>2012-02-11T15:20:42Z</time>
      </trkpt>
      <trkpt lat="48.6397" lon="-0.53307">
        <ele>258.1</ele>
        <time>2012-02-11T15:20:45Z</time>
      </trkpt>
      <trkpt lat="48.63969" lon="-0.53297">
        <ele>258.1</ele>
        <time>2012-02-11T15:20:47Z</time>
      </trkpt>
      <trkpt lat="48.63968" lon="-0.53287">
        <ele>258.1</ele>
        <time>2012-02-11T15:20:49Z</time>
      </trkpt>
      <trkpt lat="48.63968" lon="-0.53277">
        <ele>258.2</ele>
        <time>2012-02-11T15:20:51Z</time>
      </trkpt>
      <trkpt lat="48.63967" lon="-0.53268">
        <ele>258.4</ele>
        <time>2012-02-11T15:20:53Z</time>
      </trkpt>
      <trkpt lat="48.63967" lon="-0.53258">
        <ele>258.4</ele>
        <time>2012-02-11T15:20:55Z</time>
      </trkpt>
      <trkpt lat="48.63967" lon="-0.53248">
        <ele>258.7</ele>
        <time>2012-02-11T15:20:57Z</time>
      </trkpt>
      <trkpt lat="48.63967" lon="-0.53243">
        <ele>258.9</ele>
        <time>2012-02-11T15:20:58Z</time>
      </trkpt>
      <trkpt lat="48.63966" lon="-0.53228">
        <ele>259.4</ele>
        <time>2012-02-11T15:21:01Z</time>
      </trkpt>
      <trkpt lat="48.63965" lon="-0.53218">
        <ele>259.4</ele>
        <time>2012-02-11T15:21:03Z</time>
      </trkpt>
      <trkpt lat="48.63965" lon="-0.53207">
        <ele>259.2</ele>
        <time>2012-02-11T15:21:05Z</time>
      </trkpt>
      <trkpt lat="48.63964" lon="-0.53197">
        <ele>259.5</ele>
        <time>2012-02-11T15:21:07Z</time>
      </trkpt>
      <trkpt lat="48.63964" lon="-0.53188">
        <ele>259.9</ele>
        <time>2012-02-11T15:21:09Z</time>
      </trkpt>
      <trkpt lat="48.63964" lon="-0.53178">
        <ele>260.4</ele>
        <time>2012-02-11T15:21:11Z</time>
      </trkpt>
      <trkpt lat="48.63963" lon="-0.53169">
        <ele>260.7</ele>
        <time>2012-02-11T15:21:13Z</time>
      </trkpt>
      <trkpt lat="48.63962" lon="-0.53159">
        <ele>260.9</ele>
        <time>2012-02-11T15:21:15Z</time>
      </trkpt>
      <trkpt lat="48.63962" lon="-0.53146">
        <ele>261.1</ele>
        <time>2012-02-11T15:21:18Z</time>
      </trkpt>
      <trkpt lat="48.63962" lon="-0.53133">
        <ele>261.6</ele>
        <time>2012-02-11T15:21:21Z</time>
      </trkpt>
      <trkpt lat="48.63962" lon="-0.53123">
        <ele>261.7</ele>
        <time>2012-02-11T15:21:23Z</time>
      </trkpt>
      <trkpt lat="48.63961" lon="-0.5311">
        <ele>262.3</ele>
        <time>2012-02-11T15:21:26Z</time>
      </trkpt>
      <trkpt lat="48.63961" lon="-0.53101">
        <ele>262</ele>
        <time>2012-02-11T15:21:28Z</time>
      </trkpt>
      <trkpt lat="48.6396" lon="-0.53091">
        <ele>261.9</ele>
        <time>2012-02-11T15:21:30Z</time>
      </trkpt>
      <trkpt lat="48.63959" lon="-0.53078">
        <ele>262.1</ele>
        <time>2012-02-11T15:21:33Z</time>
      </trkpt>
      <trkpt lat="48.63958" lon="-0.53069">
        <ele>262.4</ele>
        <time>2012-02-11T15:21:35Z</time>
      </trkpt>
      <trkpt lat="48.63958" lon="-0.53057">
        <ele>263</ele>
        <time>2012-02-11T15:21:38Z</time>
      </trkpt>
      <trkpt lat="48.63957" lon="-0.53044">
        <ele>263.2</ele>
        <time>2012-02-11T15:21:41Z</time>
      </trkpt>
      <trkpt lat="48.63957" lon="-0.53032">
        <ele>263.2</ele>
        <time>2012-02-11T15:21:44Z</time>
      </trkpt>
      <trkpt lat="48.63955" lon="-0.53021">
        <ele>263</ele>
        <time>2012-02-11T15:21:47Z</time>
      </trkpt>
      <trkpt lat="48.63955" lon="-0.53007">
        <ele>262.7</ele>
        <time>2012-02-11T15:21:50Z</time>
      </trkpt>
      <trkpt lat="48.63955" lon="-0.52996">
        <ele>262.5</ele>
        <time>2012-02-11T15:21:53Z</time>
      </trkpt>
      <trkpt lat="48.63954" lon="-0.52983">
        <ele>262</ele>
        <time>2012-02-11T15:21:56Z</time>
      </trkpt>
      <trkpt lat="48.63953" lon="-0.52974">
        <ele>261.9</ele>
        <time>2012-02-11T15:21:58Z</time>
      </trkpt>
      <trkpt lat="48.63953" lon="-0.52969">
        <ele>261.9</ele>
        <time>2012-02-11T15:21:59Z</time>
      </trkpt>
      <trkpt lat="48.63951" lon="-0.52948">
        <ele>260.8</ele>
        <time>2012-02-11T15:22:05Z</time>
      </trkpt>
      <trkpt lat="48.63951" lon="-0.52936">
        <ele>260.2</ele>
        <time>2012-02-11T15:22:14Z</time>
      </trkpt>
      <trkpt lat="48.63949" lon="-0.52923">
        <ele>260.9</ele>
        <time>2012-02-11T15:22:20Z</time>
      </trkpt>
      <trkpt lat="48.6395" lon="-0.5291">
        <ele>261.5</ele>
        <time>2012-02-11T15:22:29Z</time>
      </trkpt>
      <trkpt lat="48.6395" lon="-0.52898">
        <ele>261.2</ele>
        <time>2012-02-11T15:22:41Z</time>
      </trkpt>
      <trkpt lat="48.6395" lon="-0.52887">
        <ele>261.5</ele>
        <time>2012-02-11T15:22:45Z</time>
      </trkpt>
      <trkpt lat="48.63949" lon="-0.52874">
        <ele>261.3</ele>
        <time>2012-02-11T15:22:49Z</time>
      </trkpt>
      <trkpt lat="48.63949" lon="-0.52863">
        <ele>262</ele>
        <time>2012-02-11T15:22:53Z</time>
      </trkpt>
      <trkpt lat="48.63947" lon="-0.52851">
        <ele>262.1</ele>
        <time>2012-02-11T15:22:58Z</time>
      </trkpt>
      <trkpt lat="48.63947" lon="-0.52839">
        <ele>262.2</ele>
        <time>2012-02-11T15:23:02Z</time>
      </trkpt>
      <trkpt lat="48.63946" lon="-0.52836">
        <ele>262.5</ele>
        <time>2012-02-11T15:23:03Z</time>
      </trkpt>
      <trkpt lat="48.63941" lon="-0.52814">
        <ele>264.8</ele>
        <time>2012-02-11T15:23:19Z</time>
      </trkpt>
      <trkpt lat="48.63939" lon="-0.52803">
        <ele>265.2</ele>
        <time>2012-02-11T15:23:27Z</time>
      </trkpt>
      <trkpt lat="48.63939" lon="-0.52789">
        <ele>265.2</ele>
        <time>2012-02-11T15:23:32Z</time>
      </trkpt>
      <trkpt lat="48.63938" lon="-0.52776">
        <ele>265.2</ele>
        <time>2012-02-11T15:23:36Z</time>
      </trkpt>
      <trkpt lat="48.63938" lon="-0.52764">
        <ele>265.2</ele>
        <time>2012-02-11T15:23:40Z</time>
      </trkpt>
      <trkpt lat="48.63937" lon="-0.52752">
        <ele>266.2</ele>
        <time>2012-02-11T15:23:44Z</time>
      </trkpt>
      <trkpt lat="48.63936" lon="-0.5274">
        <ele>267.6</ele>
        <time>2012-02-11T15:23:49Z</time>
      </trkpt>
      <trkpt lat="48.63939" lon="-0.52727">
        <ele>267.7</ele>
        <time>2012-02-11T15:23:56Z</time>
      </trkpt>
      <trkpt lat="48.63938" lon="-0.52715">
        <ele>267.3</ele>
        <time>2012-02-11T15:24:01Z</time>
      </trkpt>
      <trkpt lat="48.63939" lon="-0.52702">
        <ele>268.2</ele>
        <time>2012-02-11T15:24:06Z</time>
      </trkpt>
      <trkpt lat="48.63939" lon="-0.527">
        <ele>268.1</ele>
        <time>2012-02-11T15:24:07Z</time>
      </trkpt>
      <trkpt lat="48.63938" lon="-0.52678">
        <ele>268.8</ele>
        <time>2012-02-11T15:24:16Z</time>
      </trkpt>
      <trkpt lat="48.63938" lon="-0.52666">
        <ele>269.4</ele>
        <time>2012-02-11T15:24:20Z</time>
      </trkpt>
      <trkpt lat="48.63938" lon="-0.52654">
        <ele>270.2</ele>
        <time>2012-02-11T15:24:24Z</time>
      </trkpt>
      <trkpt lat="48.63938" lon="-0.52643">
        <ele>270.6</ele>
        <time>2012-02-11T15:24:28Z</time>
      </trkpt>
      <trkpt lat="48.63937" lon="-0.5263">
        <ele>271.2</ele>
        <time>2012-02-11T15:24:32Z</time>
      </trkpt>
      <trkpt lat="48.63937" lon="-0.52618">
        <ele>271.9</ele>
        <time>2012-02-11T15:24:36Z</time>
      </trkpt>
      <trkpt lat="48.63936" lon="-0.52605">
        <ele>272.4</ele>
        <time>2012-02-11T15:24:40Z</time>
      </trkpt>
      <trkpt lat="48.63936" lon="-0.52593">
        <ele>273.6</ele>
        <time>2012-02-11T15:24:44Z</time>
      </trkpt>
      <trkpt lat="48.63937" lon="-0.5258">
        <ele>274.7</ele>
        <time>2012-02-11T15:24:48Z</time>
      </trkpt>
      <trkpt lat="48.63936" lon="-0.52568">
        <ele>274.3</ele>
        <time>2012-02-11T15:24:52Z</time>
      </trkpt>
      <trkpt lat="48.63934" lon="-0.52554">
        <ele>275</ele>
        <time>2012-02-11T15:24:56Z</time>
      </trkpt>
      <trkpt lat="48.63934" lon="-0.52541">
        <ele>275.5</ele>
        <time>2012-02-11T15:25:00Z</time>
      </trkpt>
      <trkpt lat="48.63933" lon="-0.52531">
        <ele>275.9</ele>
        <time>2012-02-11T15:25:03Z</time>
      </trkpt>
      <trkpt lat="48.63933" lon="-0.52521">
        <ele>276.3</ele>
        <time>2012-02-11T15:25:06Z</time>
      </trkpt>
      <trkpt lat="48.63933" lon="-0.5251">
        <ele>277.1</ele>
        <time>2012-02-11T15:25:09Z</time>
      </trkpt>
      <trkpt lat="48.63932" lon="-0.52507">
        <ele>277.4</ele>
        <time>2012-02-11T15:25:10Z</time>
      </trkpt>
      <trkpt lat="48.63931" lon="-0.52487">
        <ele>278.9</ele>
        <time>2012-02-11T15:25:16Z</time>
      </trkpt>
      <trkpt lat="48.63931" lon="-0.52477">
        <ele>279.5</ele>
        <time>2012-02-11T15:25:19Z</time>
      </trkpt>
      <trkpt lat="48.6393" lon="-0.52465">
        <ele>279.6</ele>
        <time>2012-02-11T15:25:22Z</time>
      </trkpt>
      <trkpt lat="48.63929" lon="-0.52454">
        <ele>279.3</ele>
        <time>2012-02-11T15:25:25Z</time>
      </trkpt>
      <trkpt lat="48.63928" lon="-0.52443">
        <ele>279.7</ele>
        <time>2012-02-11T15:25:28Z</time>
      </trkpt>
      <trkpt lat="48.63928" lon="-0.52432">
        <ele>280.6</ele>
        <time>2012-02-11T15:25:31Z</time>
      </trkpt>
      <trkpt lat="48.63928" lon="-0.52419">
        <ele>281.2</ele>
        <time>2012-02-11T15:25:35Z</time>
      </trkpt>
      <trkpt lat="48.63928" lon="-0.52408">
        <ele>281.9</ele>
        <time>2012-02-11T15:25:38Z</time>
      </trkpt>
      <trkpt lat="48.63927" lon="-0.52397">
        <ele>282.1</ele>
        <time>2012-02-11T15:25:41Z</time>
      </trkpt>
      <trkpt lat="48.63927" lon="-0.52387">
        <ele>282.5</ele>
        <time>2012-02-11T15:25:44Z</time>
      </trkpt>
      <trkpt lat="48.63927" lon="-0.52375">
        <ele>283.2</ele>
        <time>2012-02-11T15:25:47Z</time>
      </trkpt>
      <trkpt lat="48.63926" lon="-0.52364">
        <ele>283.4</ele>
        <time>2012-02-11T15:25:50Z</time>
      </trkpt>
      <trkpt lat="48.63927" lon="-0.52353">
        <ele>283.5</ele>
        <time>2012-02-11T15:25:53Z</time>
      </trkpt>
      <trkpt lat="48.63926" lon="-0.52342">
        <ele>283.7</ele>
        <time>2012-02-11T15:25:56Z</time>
      </trkpt>
      <trkpt lat="48.63926" lon="-0.5233">
        <ele>284.1</ele>
        <time>2012-02-11T15:25:59Z</time>
      </trkpt>
      <trkpt lat="48.63926" lon="-0.52318">
        <ele>284.6</ele>
        <time>2012-02-11T15:26:02Z</time>
      </trkpt>
      <trkpt lat="48.63926" lon="-0.52305">
        <ele>284.3</ele>
        <time>2012-02-11T15:26:05Z</time>
      </trkpt>
      <trkpt lat="48.63925" lon="-0.52293">
        <ele>284.9</ele>
        <time>2012-02-11T15:26:08Z</time>
      </trkpt>
      <trkpt lat="48.63924" lon="-0.5228">
        <ele>286.4</ele>
        <time>2012-02-11T15:26:11Z</time>
      </trkpt>
      <trkpt lat="48.63924" lon="-0.52276">
        <ele>286.3</ele>
        <time>2012-02-11T15:26:12Z</time>
      </trkpt>
      <trkpt lat="48.63924" lon="-0.52255">
        <ele>286.6</ele>
        <time>2012-02-11T15:26:17Z</time>
      </trkpt>
      <trkpt lat="48.63925" lon="-0.52242">
        <ele>287.1</ele>
        <time>2012-02-11T15:26:20Z</time>
      </trkpt>
      <trkpt lat="48.63925" lon="-0.52229">
        <ele>287.2</ele>
        <time>2012-02-11T15:26:23Z</time>
      </trkpt>
      <trkpt lat="48.63924" lon="-0.52217">
        <ele>288</ele>
        <time>2012-02-11T15:26:26Z</time>
      </trkpt>
      <trkpt lat="48.63923" lon="-0.52203">
        <ele>288.3</ele>
        <time>2012-02-11T15:26:29Z</time>
      </trkpt>
      <trkpt lat="48.63923" lon="-0.52192">
        <ele>288.8</ele>
        <time>2012-02-11T15:26:32Z</time>
      </trkpt>
      <trkpt lat="48.63921" lon="-0.52179">
        <ele>288.4</ele>
        <time>2012-02-11T15:26:37Z</time>
      </trkpt>
      <trkpt lat="48.63918" lon="-0.52167">
        <ele>289.1</ele>
        <time>2012-02-11T15:26:50Z</time>
      </trkpt>
      <trkpt lat="48.63915" lon="-0.52154">
        <ele>289.2</ele>
        <time>2012-02-11T15:27:13Z</time>
      </trkpt>
      <trkpt lat="48.63915" lon="-0.52154">
        <ele>289.2</ele>
        <time>2012-02-11T15:27:14Z</time>
      </trkpt>
      <trkpt lat="48.63909" lon="-0.52131">
        <ele>288.9</ele>
        <time>2012-02-11T15:31:48Z</time>
      </trkpt>
      <trkpt lat="48.63909" lon="-0.52129">
        <ele>288.4</ele>
        <time>2012-02-11T15:31:49Z</time>
      </trkpt>
      <trkpt lat="48.63908" lon="-0.52106">
        <ele>288.9</ele>
        <time>2012-02-11T15:31:57Z</time>
      </trkpt>
      <trkpt lat="48.63908" lon="-0.52096">
        <ele>288.2</ele>
        <time>2012-02-11T15:32:00Z</time>
      </trkpt>
      <trkpt lat="48.63908" lon="-0.52084">
        <ele>288.3</ele>
        <time>2012-02-11T15:32:04Z</time>
      </trkpt>
      <trkpt lat="48.63908" lon="-0.52072">
        <ele>288.7</ele>
        <time>2012-02-11T15:32:09Z</time>
      </trkpt>
      <trkpt lat="48.63908" lon="-0.52059">
        <ele>289.2</ele>
        <time>2012-02-11T15:32:13Z</time>
      </trkpt>
      <trkpt lat="48.63907" lon="-0.52047">
        <ele>289.1</ele>
        <time>2012-02-11T15:32:17Z</time>
      </trkpt>
      <trkpt lat="48.63908" lon="-0.52035">
        <ele>288.3</ele>
        <time>2012-02-11T15:32:21Z</time>
      </trkpt>
      <trkpt lat="48.6391" lon="-0.52023">
        <ele>288.3</ele>
        <time>2012-02-11T15:32:27Z</time>
      </trkpt>
      <trkpt lat="48.63915" lon="-0.52013">
        <ele>288.7</ele>
        <time>2012-02-11T15:32:32Z</time>
      </trkpt>
      <trkpt lat="48.63921" lon="-0.52005">
        <ele>290</ele>
        <time>2012-02-11T15:32:38Z</time>
      </trkpt>
      <trkpt lat="48.63929" lon="-0.51998">
        <ele>290.9</ele>
        <time>2012-02-11T15:32:43Z</time>
      </trkpt>
      <trkpt lat="48.63936" lon="-0.51992">
        <ele>291.3</ele>
        <time>2012-02-11T15:32:48Z</time>
      </trkpt>
      <trkpt lat="48.63942" lon="-0.51983">
        <ele>292.3</ele>
        <time>2012-02-11T15:32:53Z</time>
      </trkpt>
      <trkpt lat="48.63943" lon="-0.5198">
        <ele>292.3</ele>
        <time>2012-02-11T15:32:54Z</time>
      </trkpt>
      <trkpt lat="48.63951" lon="-0.51966">
        <ele>292.6</ele>
        <time>2012-02-11T15:33:00Z</time>
      </trkpt>
      <trkpt lat="48.63956" lon="-0.51958">
        <ele>292.9</ele>
        <time>2012-02-11T15:33:03Z</time>
      </trkpt>
      <trkpt lat="48.63961" lon="-0.51951">
        <ele>293.3</ele>
        <time>2012-02-11T15:33:06Z</time>
      </trkpt>
      <trkpt lat="48.63967" lon="-0.51943">
        <ele>293.5</ele>
        <time>2012-02-11T15:33:10Z</time>
      </trkpt>
      <trkpt lat="48.63972" lon="-0.51936">
        <ele>293.4</ele>
        <time>2012-02-11T15:33:13Z</time>
      </trkpt>
      <trkpt lat="48.63977" lon="-0.51928">
        <ele>294.7</ele>
        <time>2012-02-11T15:33:16Z</time>
      </trkpt>
      <trkpt lat="48.63983" lon="-0.51919">
        <ele>294.7</ele>
        <time>2012-02-11T15:33:20Z</time>
      </trkpt>
      <trkpt lat="48.63989" lon="-0.5191">
        <ele>294.2</ele>
        <time>2012-02-11T15:33:23Z</time>
      </trkpt>
      <trkpt lat="48.63994" lon="-0.519">
        <ele>295.3</ele>
        <time>2012-02-11T15:33:26Z</time>
      </trkpt>
      <trkpt lat="48.63999" lon="-0.51889">
        <ele>296.1</ele>
        <time>2012-02-11T15:33:30Z</time>
      </trkpt>
      <trkpt lat="48.64004" lon="-0.51878">
        <ele>297.7</ele>
        <time>2012-02-11T15:33:35Z</time>
      </trkpt>
      <trkpt lat="48.64005" lon="-0.51865">
        <ele>298.1</ele>
        <time>2012-02-11T15:33:40Z</time>
      </trkpt>
      <trkpt lat="48.64008" lon="-0.51853">
        <ele>299.2</ele>
        <time>2012-02-11T15:33:45Z</time>
      </trkpt>
      <trkpt lat="48.64008" lon="-0.51842">
        <ele>299.3</ele>
        <time>2012-02-11T15:33:49Z</time>
      </trkpt>
      <trkpt lat="48.64009" lon="-0.51829">
        <ele>299.8</ele>
        <time>2012-02-11T15:33:54Z</time>
      </trkpt>
      <trkpt lat="48.64009" lon="-0.51827">
        <ele>299.8</ele>
        <time>2012-02-11T15:33:55Z</time>
      </trkpt>
      <trkpt lat="48.64008" lon="-0.51804">
        <ele>300.9</ele>
        <time>2012-02-11T15:34:04Z</time>
      </trkpt>
      <trkpt lat="48.64005" lon="-0.51791">
        <ele>302.5</ele>
        <time>2012-02-11T15:34:09Z</time>
      </trkpt>
      <trkpt lat="48.64003" lon="-0.51778">
        <ele>302.8</ele>
        <time>2012-02-11T15:34:14Z</time>
      </trkpt>
      <trkpt lat="48.64002" lon="-0.51765">
        <ele>304.3</ele>
        <time>2012-02-11T15:34:19Z</time>
      </trkpt>
      <trkpt lat="48.64002" lon="-0.51754">
        <ele>304.2</ele>
        <time>2012-02-11T15:34:23Z</time>
      </trkpt>
      <trkpt lat="48.64002" lon="-0.51742">
        <ele>304.4</ele>
        <time>2012-02-11T15:34:27Z</time>
      </trkpt>
      <trkpt lat="48.64001" lon="-0.51729">
        <ele>305.2</ele>
        <time>2012-02-11T15:34:32Z</time>
      </trkpt>
      <trkpt lat="48.63999" lon="-0.51716">
        <ele>305.5</ele>
        <time>2012-02-11T15:34:37Z</time>
      </trkpt>
      <trkpt lat="48.63998" lon="-0.51704">
        <ele>306.4</ele>
        <time>2012-02-11T15:34:42Z</time>
      </trkpt>
      <trkpt lat="48.63996" lon="-0.51692">
        <ele>307.4</ele>
        <time>2012-02-11T15:34:47Z</time>
      </trkpt>
      <trkpt lat="48.63994" lon="-0.51681">
        <ele>308.4</ele>
        <time>2012-02-11T15:34:51Z</time>
      </trkpt>
      <trkpt lat="48.63991" lon="-0.51672">
        <ele>309</ele>
        <time>2012-02-11T15:34:54Z</time>
      </trkpt>
      <trkpt lat="48.63988" lon="-0.5166">
        <ele>309.3</ele>
        <time>2012-02-11T15:34:58Z</time>
      </trkpt>
      <trkpt lat="48.63987" lon="-0.51658">
        <ele>309.4</ele>
        <time>2012-02-11T15:34:59Z</time>
      </trkpt>
      <trkpt lat="48.63983" lon="-0.51638">
        <ele>310.3</ele>
        <time>2012-02-11T15:35:07Z</time>
      </trkpt>
      <trkpt lat="48.6398" lon="-0.51626">
        <ele>310.3</ele>
        <time>2012-02-11T15:35:11Z</time>
      </trkpt>
      <trkpt lat="48.63979" lon="-0.51613">
        <ele>311.5</ele>
        <time>2012-02-11T15:35:16Z</time>
      </trkpt>
      <trkpt lat="48.63976" lon="-0.51601">
        <ele>312.3</ele>
        <time>2012-02-11T15:35:20Z</time>
      </trkpt>
      <trkpt lat="48.63975" lon="-0.51588">
        <ele>312.5</ele>
        <time>2012-02-11T15:35:24Z</time>
      </trkpt>
      <trkpt lat="48.63974" lon="-0.51578">
        <ele>313.9</ele>
        <time>2012-02-11T15:35:28Z</time>
      </trkpt>
      <trkpt lat="48.63972" lon="-0.51566">
        <ele>315.7</ele>
        <time>2012-02-11T15:35:32Z</time>
      </trkpt>
      <trkpt lat="48.6397" lon="-0.51553">
        <ele>316.4</ele>
        <time>2012-02-11T15:35:37Z</time>
      </trkpt>
      <trkpt lat="48.63967" lon="-0.5154">
        <ele>317.1</ele>
        <time>2012-02-11T15:35:42Z</time>
      </trkpt>
      <trkpt lat="48.63963" lon="-0.5153">
        <ele>317.7</ele>
        <time>2012-02-11T15:35:46Z</time>
      </trkpt>
      <trkpt lat="48.63961" lon="-0.51517">
        <ele>318.3</ele>
        <time>2012-02-11T15:35:51Z</time>
      </trkpt>
      <trkpt lat="48.63957" lon="-0.51506">
        <ele>318.9</ele>
        <time>2012-02-11T15:36:10Z</time>
      </trkpt>
      <trkpt lat="48.63956" lon="-0.51505">
        <ele>318.9</ele>
        <time>2012-02-11T15:36:11Z</time>
      </trkpt>
      <trkpt lat="48.63958" lon="-0.51506">
        <ele>319.7</ele>
        <time>2012-02-11T15:36:49Z</time>
      </trkpt>
      <trkpt lat="48.63965" lon="-0.51515">
        <ele>318.3</ele>
        <time>2012-02-11T15:37:03Z</time>
      </trkpt>
      <trkpt lat="48.63971" lon="-0.51523">
        <ele>318.2</ele>
        <time>2012-02-11T15:37:08Z</time>
      </trkpt>
      <trkpt lat="48.63977" lon="-0.51533">
        <ele>318.6</ele>
        <time>2012-02-11T15:37:12Z</time>
      </trkpt>
      <trkpt lat="48.63978" lon="-0.51536">
        <ele>318.6</ele>
        <time>2012-02-11T15:37:13Z</time>
      </trkpt>
      <trkpt lat="48.63985" lon="-0.51551">
        <ele>318.2</ele>
        <time>2012-02-11T15:37:20Z</time>
      </trkpt>
      <trkpt lat="48.63988" lon="-0.51562">
        <ele>318.3</ele>
        <time>2012-02-11T15:37:23Z</time>
      </trkpt>
      <trkpt lat="48.63993" lon="-0.51573">
        <ele>317.9</ele>
        <time>2012-02-11T15:37:26Z</time>
      </trkpt>
      <trkpt lat="48.63996" lon="-0.51582">
        <ele>317</ele>
        <time>2012-02-11T15:37:29Z</time>
      </trkpt>
      <trkpt lat="48.64" lon="-0.51593">
        <ele>316</ele>
        <time>2012-02-11T15:37:32Z</time>
      </trkpt>
      <trkpt lat="48.64005" lon="-0.51602">
        <ele>315.6</ele>
        <time>2012-02-11T15:37:35Z</time>
      </trkpt>
      <trkpt lat="48.64013" lon="-0.51606">
        <ele>314.9</ele>
        <time>2012-02-11T15:37:40Z</time>
      </trkpt>
      <trkpt lat="48.64021" lon="-0.516">
        <ele>316</ele>
        <time>2012-02-11T15:37:46Z</time>
      </trkpt>
      <trkpt lat="48.64027" lon="-0.51593">
        <ele>318.6</ele>
        <time>2012-02-11T15:37:51Z</time>
      </trkpt>
      <trkpt lat="48.64034" lon="-0.51601">
        <ele>319.2</ele>
        <time>2012-02-11T15:37:55Z</time>
      </trkpt>
      <trkpt lat="48.64039" lon="-0.51609">
        <ele>319.5</ele>
        <time>2012-02-11T15:37:58Z</time>
      </trkpt>
      <trkpt lat="48.64045" lon="-0.51617">
        <ele>319.4</ele>
        <time>2012-02-11T15:38:01Z</time>
      </trkpt>
      <trkpt lat="48.64051" lon="-0.51625">
        <ele>319.5</ele>
        <time>2012-02-11T15:38:04Z</time>
      </trkpt>
      <trkpt lat="48.64057" lon="-0.51633">
        <ele>319.6</ele>
        <time>2012-02-11T15:38:07Z</time>
      </trkpt>
      <trkpt lat="48.64063" lon="-0.51643">
        <ele>318.4</ele>
        <time>2012-02-11T15:38:10Z</time>
      </trkpt>
      <trkpt lat="48.64069" lon="-0.51652">
        <ele>318.2</ele>
        <time>2012-02-11T15:38:13Z</time>
      </trkpt>
      <trkpt lat="48.6407" lon="-0.51656">
        <ele>318.1</ele>
        <time>2012-02-11T15:38:14Z</time>
      </trkpt>
      <trkpt lat="48.64075" lon="-0.5167">
        <ele>317.2</ele>
        <time>2012-02-11T15:38:17Z</time>
      </trkpt>
      <trkpt lat="48.64079" lon="-0.5168">
        <ele>317.1</ele>
        <time>2012-02-11T15:38:19Z</time>
      </trkpt>
      <trkpt lat="48.64082" lon="-0.51686">
        <ele>316.4</ele>
        <time>2012-02-11T15:38:20Z</time>
      </trkpt>
      <trkpt lat="48.64084" lon="-0.51692">
        <ele>315.8</ele>
        <time>2012-02-11T15:38:21Z</time>
      </trkpt>
      <trkpt lat="48.64087" lon="-0.51699">
        <ele>315</ele>
        <time>2012-02-11T15:38:22Z</time>
      </trkpt>
      <trkpt lat="48.64089" lon="-0.51706">
        <ele>314.5</ele>
        <time>2012-02-11T15:38:23Z</time>
      </trkpt>
      <trkpt lat="48.64091" lon="-0.51713">
        <ele>314</ele>
        <time>2012-02-11T15:38:24Z</time>
      </trkpt>
      <trkpt lat="48.64093" lon="-0.51719">
        <ele>313.4</ele>
        <time>2012-02-11T15:38:25Z</time>
      </trkpt>
      <trkpt lat="48.64097" lon="-0.51732">
        <ele>312.2</ele>
        <time>2012-02-11T15:38:27Z</time>
      </trkpt>
      <trkpt lat="48.641" lon="-0.51742">
        <ele>311.2</ele>
        <time>2012-02-11T15:38:29Z</time>
      </trkpt>
      <trkpt lat="48.64105" lon="-0.5175">
        <ele>310.6</ele>
        <time>2012-02-11T15:38:31Z</time>
      </trkpt>
      <trkpt lat="48.64109" lon="-0.51761">
        <ele>308.9</ele>
        <time>2012-02-11T15:38:34Z</time>
      </trkpt>
      <trkpt lat="48.64117" lon="-0.51766">
        <ele>307.7</ele>
        <time>2012-02-11T15:38:38Z</time>
      </trkpt>
      <trkpt lat="48.64126" lon="-0.51766">
        <ele>306.9</ele>
        <time>2012-02-11T15:38:42Z</time>
      </trkpt>
      <trkpt lat="48.64133" lon="-0.5177">
        <ele>308.3</ele>
        <time>2012-02-11T15:38:46Z</time>
      </trkpt>
      <trkpt lat="48.6414" lon="-0.51774">
        <ele>308.7</ele>
        <time>2012-02-11T15:38:49Z</time>
      </trkpt>
      <trkpt lat="48.64147" lon="-0.51779">
        <ele>309</ele>
        <time>2012-02-11T15:38:52Z</time>
      </trkpt>
      <trkpt lat="48.64154" lon="-0.51784">
        <ele>309.4</ele>
        <time>2012-02-11T15:38:55Z</time>
      </trkpt>
      <trkpt lat="48.64162" lon="-0.5179">
        <ele>309.3</ele>
        <time>2012-02-11T15:38:58Z</time>
      </trkpt>
      <trkpt lat="48.6417" lon="-0.51795">
        <ele>309.4</ele>
        <time>2012-02-11T15:39:01Z</time>
      </trkpt>
      <trkpt lat="48.64177" lon="-0.51799">
        <ele>309.8</ele>
        <time>2012-02-11T15:39:04Z</time>
      </trkpt>
      <trkpt lat="48.64183" lon="-0.51804">
        <ele>310</ele>
        <time>2012-02-11T15:39:07Z</time>
      </trkpt>
      <trkpt lat="48.6419" lon="-0.51809">
        <ele>309.7</ele>
        <time>2012-02-11T15:39:10Z</time>
      </trkpt>
      <trkpt lat="48.64198" lon="-0.51813">
        <ele>309.8</ele>
        <time>2012-02-11T15:39:13Z</time>
      </trkpt>
      <trkpt lat="48.64205" lon="-0.51816">
        <ele>310</ele>
        <time>2012-02-11T15:39:16Z</time>
      </trkpt>
      <trkpt lat="48.64208" lon="-0.51817">
        <ele>310.1</ele>
        <time>2012-02-11T15:39:17Z</time>
      </trkpt>
      <trkpt lat="48.64218" lon="-0.51819">
        <ele>310.2</ele>
        <time>2012-02-11T15:39:20Z</time>
      </trkpt>
      <trkpt lat="48.64224" lon="-0.51818">
        <ele>310.4</ele>
        <time>2012-02-11T15:39:22Z</time>
      </trkpt>
      <trkpt lat="48.64231" lon="-0.51818">
        <ele>310.8</ele>
        <time>2012-02-11T15:39:24Z</time>
      </trkpt>
      <trkpt lat="48.64238" lon="-0.51818">
        <ele>311</ele>
        <time>2012-02-11T15:39:26Z</time>
      </trkpt>
      <trkpt lat="48.64245" lon="-0.51818">
        <ele>311.5</ele>
        <time>2012-02-11T15:39:28Z</time>
      </trkpt>
      <trkpt lat="48.64252" lon="-0.51818">
        <ele>312</ele>
        <time>2012-02-11T15:39:30Z</time>
      </trkpt>
      <trkpt lat="48.64258" lon="-0.51818">
        <ele>312.1</ele>
        <time>2012-02-11T15:39:32Z</time>
      </trkpt>
      <trkpt lat="48.64265" lon="-0.51817">
        <ele>312.3</ele>
        <time>2012-02-11T15:39:34Z</time>
      </trkpt>
      <trkpt lat="48.64271" lon="-0.51817">
        <ele>312.3</ele>
        <time>2012-02-11T15:39:36Z</time>
      </trkpt>
      <trkpt lat="48.64278" lon="-0.51816">
        <ele>312.4</ele>
        <time>2012-02-11T15:39:38Z</time>
      </trkpt>
      <trkpt lat="48.64284" lon="-0.51816">
        <ele>312.6</ele>
        <time>2012-02-11T15:39:40Z</time>
      </trkpt>
      <trkpt lat="48.64291" lon="-0.51816">
        <ele>312.5</ele>
        <time>2012-02-11T15:39:42Z</time>
      </trkpt>
      <trkpt lat="48.64297" lon="-0.51815">
        <ele>312.8</ele>
        <time>2012-02-11T15:39:44Z</time>
      </trkpt>
      <trkpt lat="48.64303" lon="-0.51815">
        <ele>312.5</ele>
        <time>2012-02-11T15:39:46Z</time>
      </trkpt>
      <trkpt lat="48.64309" lon="-0.51814">
        <ele>312.3</ele>
        <time>2012-02-11T15:39:48Z</time>
      </trkpt>
      <trkpt lat="48.64315" lon="-0.51813">
        <ele>312.1</ele>
        <time>2012-02-11T15:39:50Z</time>
      </trkpt>
      <trkpt lat="48.64323" lon="-0.5181">
        <ele>311.7</ele>
        <time>2012-02-11T15:39:53Z</time>
      </trkpt>
      <trkpt lat="48.64332" lon="-0.51808">
        <ele>311.9</ele>
        <time>2012-02-11T15:39:56Z</time>
      </trkpt>
      <trkpt lat="48.64338" lon="-0.51808">
        <ele>311.7</ele>
        <time>2012-02-11T15:39:58Z</time>
      </trkpt>
      <trkpt lat="48.64345" lon="-0.51809">
        <ele>311.6</ele>
        <time>2012-02-11T15:40:00Z</time>
      </trkpt>
      <trkpt lat="48.64352" lon="-0.51811">
        <ele>311.2</ele>
        <time>2012-02-11T15:40:02Z</time>
      </trkpt>
      <trkpt lat="48.6436" lon="-0.51814">
        <ele>310.2</ele>
        <time>2012-02-11T15:40:04Z</time>
      </trkpt>
      <trkpt lat="48.64368" lon="-0.51815">
        <ele>309.3</ele>
        <time>2012-02-11T15:40:06Z</time>
      </trkpt>
      <trkpt lat="48.64372" lon="-0.51814">
        <ele>309</ele>
        <time>2012-02-11T15:40:07Z</time>
      </trkpt>
      <trkpt lat="48.64377" lon="-0.51813">
        <ele>308.8</ele>
        <time>2012-02-11T15:40:08Z</time>
      </trkpt>
      <trkpt lat="48.64382" lon="-0.51811">
        <ele>308.4</ele>
        <time>2012-02-11T15:40:09Z</time>
      </trkpt>
      <trkpt lat="48.64386" lon="-0.51809">
        <ele>308.2</ele>
        <time>2012-02-11T15:40:10Z</time>
      </trkpt>
      <trkpt lat="48.64391" lon="-0.51807">
        <ele>308</ele>
        <time>2012-02-11T15:40:11Z</time>
      </trkpt>
      <trkpt lat="48.64396" lon="-0.51804">
        <ele>307.5</ele>
        <time>2012-02-11T15:40:12Z</time>
      </trkpt>
      <trkpt lat="48.64401" lon="-0.51801">
        <ele>307.1</ele>
        <time>2012-02-11T15:40:13Z</time>
      </trkpt>
      <trkpt lat="48.64405" lon="-0.51797">
        <ele>306.8</ele>
        <time>2012-02-11T15:40:14Z</time>
      </trkpt>
      <trkpt lat="48.64409" lon="-0.51793">
        <ele>306.5</ele>
        <time>2012-02-11T15:40:15Z</time>
      </trkpt>
      <trkpt lat="48.64414" lon="-0.5179">
        <ele>305.5</ele>
        <time>2012-02-11T15:40:16Z</time>
      </trkpt>
      <trkpt lat="48.64418" lon="-0.51786">
        <ele>304.7</ele>
        <time>2012-02-11T15:40:17Z</time>
      </trkpt>
      <trkpt lat="48.64423" lon="-0.51782">
        <ele>304.1</ele>
        <time>2012-02-11T15:40:18Z</time>
      </trkpt>
      <trkpt lat="48.64428" lon="-0.51779">
        <ele>303.5</ele>
        <time>2012-02-11T15:40:19Z</time>
      </trkpt>
      <trkpt lat="48.64433" lon="-0.51775">
        <ele>303.1</ele>
        <time>2012-02-11T15:40:20Z</time>
      </trkpt>
      <trkpt lat="48.64437" lon="-0.51769">
        <ele>302.8</ele>
        <time>2012-02-11T15:40:21Z</time>
      </trkpt>
      <trkpt lat="48.64441" lon="-0.51763">
        <ele>302.6</ele>
        <time>2012-02-11T15:40:22Z</time>
      </trkpt>
      <trkpt lat="48.64444" lon="-0.51758">
        <ele>302.2</ele>
        <time>2012-02-11T15:40:23Z</time>
      </trkpt>
      <trkpt lat="48.64448" lon="-0.51746">
        <ele>301.6</ele>
        <time>2012-02-11T15:40:25Z</time>
      </trkpt>
      <trkpt lat="48.64452" lon="-0.51736">
        <ele>301.1</ele>
        <time>2012-02-11T15:40:27Z</time>
      </trkpt>
      <trkpt lat="48.64454" lon="-0.51726">
        <ele>300.6</ele>
        <time>2012-02-11T15:40:29Z</time>
      </trkpt>
      <trkpt lat="48.64457" lon="-0.51714">
        <ele>299.8</ele>
        <time>2012-02-11T15:40:32Z</time>
      </trkpt>
      <trkpt lat="48.64464" lon="-0.51709">
        <ele>297.9</ele>
        <time>2012-02-11T15:40:37Z</time>
      </trkpt>
      <trkpt lat="48.64472" lon="-0.51712">
        <ele>297.3</ele>
        <time>2012-02-11T15:40:42Z</time>
      </trkpt>
      <trkpt lat="48.64479" lon="-0.51715">
        <ele>297.9</ele>
        <time>2012-02-11T15:40:55Z</time>
      </trkpt>
      <trkpt lat="48.64485" lon="-0.51722">
        <ele>297.9</ele>
        <time>2012-02-11T15:40:59Z</time>
      </trkpt>
      <trkpt lat="48.64491" lon="-0.51731">
        <ele>297.3</ele>
        <time>2012-02-11T15:41:03Z</time>
      </trkpt>
      <trkpt lat="48.64498" lon="-0.51737">
        <ele>295</ele>
        <time>2012-02-11T15:41:07Z</time>
      </trkpt>
      <trkpt lat="48.64506" lon="-0.51734">
        <ele>293.4</ele>
        <time>2012-02-11T15:41:11Z</time>
      </trkpt>
      <trkpt lat="48.64514" lon="-0.51728">
        <ele>291.9</ele>
        <time>2012-02-11T15:41:14Z</time>
      </trkpt>
      <trkpt lat="48.64521" lon="-0.51725">
        <ele>290.8</ele>
        <time>2012-02-11T15:41:17Z</time>
      </trkpt>
      <trkpt lat="48.6453" lon="-0.51724">
        <ele>290</ele>
        <time>2012-02-11T15:41:20Z</time>
      </trkpt>
      <trkpt lat="48.64532" lon="-0.51723">
        <ele>289.7</ele>
        <time>2012-02-11T15:41:21Z</time>
      </trkpt>
      <trkpt lat="48.64545" lon="-0.51732">
        <ele>285.7</ele>
        <time>2012-02-11T15:41:28Z</time>
      </trkpt>
      <trkpt lat="48.64551" lon="-0.5174">
        <ele>284.8</ele>
        <time>2012-02-11T15:41:31Z</time>
      </trkpt>
      <trkpt lat="48.64558" lon="-0.51732">
        <ele>284.3</ele>
        <time>2012-02-11T15:41:39Z</time>
      </trkpt>
      <trkpt lat="48.64564" lon="-0.51724">
        <ele>284.2</ele>
        <time>2012-02-11T15:41:45Z</time>
      </trkpt>
      <trkpt lat="48.64569" lon="-0.51715">
        <ele>283.7</ele>
        <time>2012-02-11T15:41:48Z</time>
      </trkpt>
      <trkpt lat="48.64574" lon="-0.51707">
        <ele>283.2</ele>
        <time>2012-02-11T15:41:52Z</time>
      </trkpt>
      <trkpt lat="48.64582" lon="-0.51707">
        <ele>282.3</ele>
        <time>2012-02-11T15:41:56Z</time>
      </trkpt>
      <trkpt lat="48.64589" lon="-0.51709">
        <ele>281.3</ele>
        <time>2012-02-11T15:41:59Z</time>
      </trkpt>
      <trkpt lat="48.64597" lon="-0.51708">
        <ele>278.6</ele>
        <time>2012-02-11T15:42:03Z</time>
      </trkpt>
      <trkpt lat="48.64604" lon="-0.51709">
        <ele>276</ele>
        <time>2012-02-11T15:42:14Z</time>
      </trkpt>
      <trkpt lat="48.64609" lon="-0.51698">
        <ele>275.1</ele>
        <time>2012-02-11T15:42:21Z</time>
      </trkpt>
      <trkpt lat="48.6461" lon="-0.51696">
        <ele>274.9</ele>
        <time>2012-02-11T15:42:22Z</time>
      </trkpt>
      <trkpt lat="48.6462" lon="-0.51685">
        <ele>274.8</ele>
        <time>2012-02-11T15:42:27Z</time>
      </trkpt>
      <trkpt lat="48.64625" lon="-0.5168">
        <ele>274.2</ele>
        <time>2012-02-11T15:42:29Z</time>
      </trkpt>
      <trkpt lat="48.64631" lon="-0.51674">
        <ele>273.4</ele>
        <time>2012-02-11T15:42:31Z</time>
      </trkpt>
      <trkpt lat="48.64638" lon="-0.51667">
        <ele>272.2</ele>
        <time>2012-02-11T15:42:33Z</time>
      </trkpt>
      <trkpt lat="48.64645" lon="-0.51659">
        <ele>269.8</ele>
        <time>2012-02-11T15:42:35Z</time>
      </trkpt>
      <trkpt lat="48.64649" lon="-0.51651">
        <ele>268.1</ele>
        <time>2012-02-11T15:42:37Z</time>
      </trkpt>
      <trkpt lat="48.64653" lon="-0.51641">
        <ele>266.9</ele>
        <time>2012-02-11T15:42:39Z</time>
      </trkpt>
      <trkpt lat="48.64656" lon="-0.5163">
        <ele>265.6</ele>
        <time>2012-02-11T15:42:41Z</time>
      </trkpt>
      <trkpt lat="48.64659" lon="-0.5162">
        <ele>264.7</ele>
        <time>2012-02-11T15:42:43Z</time>
      </trkpt>
      <trkpt lat="48.64665" lon="-0.5161">
        <ele>263.6</ele>
        <time>2012-02-11T15:42:46Z</time>
      </trkpt>
      <trkpt lat="48.64671" lon="-0.51601">
        <ele>262.7</ele>
        <time>2012-02-11T15:42:51Z</time>
      </trkpt>
      <trkpt lat="48.64669" lon="-0.51613">
        <ele>262.2</ele>
        <time>2012-02-11T15:43:11Z</time>
      </trkpt>
      <trkpt lat="48.64666" lon="-0.51625">
        <ele>262</ele>
        <time>2012-02-11T15:43:16Z</time>
      </trkpt>
      <trkpt lat="48.64663" lon="-0.51638">
        <ele>264.2</ele>
        <time>2012-02-11T15:43:22Z</time>
      </trkpt>
      <trkpt lat="48.64662" lon="-0.5164">
        <ele>264.5</ele>
        <time>2012-02-11T15:43:23Z</time>
      </trkpt>
      <trkpt lat="48.64652" lon="-0.51657">
        <ele>266.7</ele>
        <time>2012-02-11T15:43:34Z</time>
      </trkpt>
      <trkpt lat="48.64645" lon="-0.51665">
        <ele>267.6</ele>
        <time>2012-02-11T15:43:40Z</time>
      </trkpt>
      <trkpt lat="48.64638" lon="-0.51673">
        <ele>270.6</ele>
        <time>2012-02-11T15:43:48Z</time>
      </trkpt>
      <trkpt lat="48.64632" lon="-0.5168">
        <ele>272.6</ele>
        <time>2012-02-11T15:43:55Z</time>
      </trkpt>
      <trkpt lat="48.64626" lon="-0.51688">
        <ele>274.2</ele>
        <time>2012-02-11T15:44:01Z</time>
      </trkpt>
      <trkpt lat="48.64624" lon="-0.51701">
        <ele>275.1</ele>
        <time>2012-02-11T15:44:08Z</time>
      </trkpt>
      <trkpt lat="48.64628" lon="-0.51689">
        <ele>274.9</ele>
        <time>2012-02-11T15:44:35Z</time>
      </trkpt>
      <trkpt lat="48.6463" lon="-0.51686">
        <ele>274.9</ele>
        <time>2012-02-11T15:44:36Z</time>
      </trkpt>
      <trkpt lat="48.64639" lon="-0.51678">
        <ele>272.5</ele>
        <time>2012-02-11T15:44:39Z</time>
      </trkpt>
      <trkpt lat="48.64645" lon="-0.5167">
        <ele>271.2</ele>
        <time>2012-02-11T15:44:41Z</time>
      </trkpt>
      <trkpt lat="48.64652" lon="-0.51663">
        <ele>269.2</ele>
        <time>2012-02-11T15:44:43Z</time>
      </trkpt>
      <trkpt lat="48.64656" lon="-0.51654">
        <ele>268</ele>
        <time>2012-02-11T15:44:45Z</time>
      </trkpt>
      <trkpt lat="48.64658" lon="-0.51644">
        <ele>266.8</ele>
        <time>2012-02-11T15:44:47Z</time>
      </trkpt>
      <trkpt lat="48.6466" lon="-0.51637">
        <ele>266.3</ele>
        <time>2012-02-11T15:44:48Z</time>
      </trkpt>
      <trkpt lat="48.64662" lon="-0.51631">
        <ele>265.7</ele>
        <time>2012-02-11T15:44:49Z</time>
      </trkpt>
      <trkpt lat="48.64666" lon="-0.51619">
        <ele>265</ele>
        <time>2012-02-11T15:44:51Z</time>
      </trkpt>
      <trkpt lat="48.64675" lon="-0.51624">
        <ele>261.9</ele>
        <time>2012-02-11T15:45:08Z</time>
      </trkpt>
      <trkpt lat="48.64676" lon="-0.51633">
        <ele>261.6</ele>
        <time>2012-02-11T15:45:11Z</time>
      </trkpt>
      <trkpt lat="48.64677" lon="-0.51644">
        <ele>261</ele>
        <time>2012-02-11T15:45:14Z</time>
      </trkpt>
      <trkpt lat="48.64677" lon="-0.51656">
        <ele>260.6</ele>
        <time>2012-02-11T15:45:17Z</time>
      </trkpt>
      <trkpt lat="48.64675" lon="-0.51667">
        <ele>260.2</ele>
        <time>2012-02-11T15:45:20Z</time>
      </trkpt>
      <trkpt lat="48.64672" lon="-0.5168">
        <ele>259.9</ele>
        <time>2012-02-11T15:45:23Z</time>
      </trkpt>
      <trkpt lat="48.6467" lon="-0.5169">
        <ele>260</ele>
        <time>2012-02-11T15:45:25Z</time>
      </trkpt>
      <trkpt lat="48.64669" lon="-0.517">
        <ele>259.9</ele>
        <time>2012-02-11T15:45:27Z</time>
      </trkpt>
      <trkpt lat="48.6467" lon="-0.51711">
        <ele>259.7</ele>
        <time>2012-02-11T15:45:30Z</time>
      </trkpt>
      <trkpt lat="48.64676" lon="-0.51721">
        <ele>258.9</ele>
        <time>2012-02-11T15:45:34Z</time>
      </trkpt>
      <trkpt lat="48.64678" lon="-0.51734">
        <ele>257.9</ele>
        <time>2012-02-11T15:45:37Z</time>
      </trkpt>
      <trkpt lat="48.64679" lon="-0.51736">
        <ele>257.4</ele>
        <time>2012-02-11T15:45:38Z</time>
      </trkpt>
      <trkpt lat="48.64693" lon="-0.51742">
        <ele>253.6</ele>
        <time>2012-02-11T15:46:28Z</time>
      </trkpt>
      <trkpt lat="48.64694" lon="-0.51729">
        <ele>253.5</ele>
        <time>2012-02-11T15:46:37Z</time>
      </trkpt>
      <trkpt lat="48.64695" lon="-0.51718">
        <ele>254.1</ele>
        <time>2012-02-11T15:46:41Z</time>
      </trkpt>
      <trkpt lat="48.64695" lon="-0.51715">
        <ele>254.3</ele>
        <time>2012-02-11T15:46:42Z</time>
      </trkpt>
      <trkpt lat="48.64697" lon="-0.51692">
        <ele>256</ele>
        <time>2012-02-11T15:46:49Z</time>
      </trkpt>
      <trkpt lat="48.64699" lon="-0.51682">
        <ele>256.6</ele>
        <time>2012-02-11T15:46:52Z</time>
      </trkpt>
      <trkpt lat="48.64699" lon="-0.51672">
        <ele>256.9</ele>
        <time>2012-02-11T15:46:55Z</time>
      </trkpt>
      <trkpt lat="48.647" lon="-0.51661">
        <ele>257.4</ele>
        <time>2012-02-11T15:46:58Z</time>
      </trkpt>
      <trkpt lat="48.64701" lon="-0.51648">
        <ele>258</ele>
        <time>2012-02-11T15:47:02Z</time>
      </trkpt>
      <trkpt lat="48.64701" lon="-0.51635">
        <ele>258.1</ele>
        <time>2012-02-11T15:47:06Z</time>
      </trkpt>
      <trkpt lat="48.64701" lon="-0.51622">
        <ele>258.8</ele>
        <time>2012-02-11T15:47:10Z</time>
      </trkpt>
      <trkpt lat="48.64703" lon="-0.5161">
        <ele>259</ele>
        <time>2012-02-11T15:47:14Z</time>
      </trkpt>
      <trkpt lat="48.64703" lon="-0.51598">
        <ele>259.4</ele>
        <time>2012-02-11T15:47:17Z</time>
      </trkpt>
      <trkpt lat="48.64703" lon="-0.51586">
        <ele>260.2</ele>
        <time>2012-02-11T15:47:20Z</time>
      </trkpt>
      <trkpt lat="48.64703" lon="-0.51573">
        <ele>261.5</ele>
        <time>2012-02-11T15:47:23Z</time>
      </trkpt>
      <trkpt lat="48.64704" lon="-0.5156">
        <ele>261.6</ele>
        <time>2012-02-11T15:47:26Z</time>
      </trkpt>
      <trkpt lat="48.64705" lon="-0.51548">
        <ele>262.3</ele>
        <time>2012-02-11T15:47:29Z</time>
      </trkpt>
      <trkpt lat="48.64705" lon="-0.51536">
        <ele>262.8</ele>
        <time>2012-02-11T15:47:32Z</time>
      </trkpt>
      <trkpt lat="48.64706" lon="-0.51525">
        <ele>263.1</ele>
        <time>2012-02-11T15:47:35Z</time>
      </trkpt>
      <trkpt lat="48.64708" lon="-0.51514">
        <ele>263.3</ele>
        <time>2012-02-11T15:47:38Z</time>
      </trkpt>
      <trkpt lat="48.64709" lon="-0.51503">
        <ele>263.9</ele>
        <time>2012-02-11T15:47:41Z</time>
      </trkpt>
      <trkpt lat="48.6471" lon="-0.51493">
        <ele>264.5</ele>
        <time>2012-02-11T15:47:44Z</time>
      </trkpt>
      <trkpt lat="48.64711" lon="-0.51489">
        <ele>264.8</ele>
        <time>2012-02-11T15:47:45Z</time>
      </trkpt>
      <trkpt lat="48.64712" lon="-0.5147">
        <ele>265.7</ele>
        <time>2012-02-11T15:47:50Z</time>
      </trkpt>
      <trkpt lat="48.64713" lon="-0.51459">
        <ele>265.9</ele>
        <time>2012-02-11T15:47:53Z</time>
      </trkpt>
      <trkpt lat="48.64713" lon="-0.51447">
        <ele>265.8</ele>
        <time>2012-02-11T15:47:56Z</time>
      </trkpt>
      <trkpt lat="48.64714" lon="-0.51436">
        <ele>266.7</ele>
        <time>2012-02-11T15:47:59Z</time>
      </trkpt>
      <trkpt lat="48.64714" lon="-0.51424">
        <ele>267.1</ele>
        <time>2012-02-11T15:48:02Z</time>
      </trkpt>
      <trkpt lat="48.64716" lon="-0.51413">
        <ele>267.7</ele>
        <time>2012-02-11T15:48:05Z</time>
      </trkpt>
      <trkpt lat="48.64717" lon="-0.51402">
        <ele>268.5</ele>
        <time>2012-02-11T15:48:08Z</time>
      </trkpt>
      <trkpt lat="48.64718" lon="-0.51389">
        <ele>269.2</ele>
        <time>2012-02-11T15:48:12Z</time>
      </trkpt>
      <trkpt lat="48.64717" lon="-0.51378">
        <ele>269.8</ele>
        <time>2012-02-11T15:48:18Z</time>
      </trkpt>
      <trkpt lat="48.64717" lon="-0.51368">
        <ele>270.1</ele>
        <time>2012-02-11T15:48:21Z</time>
      </trkpt>
      <trkpt lat="48.64718" lon="-0.51356">
        <ele>270.5</ele>
        <time>2012-02-11T15:48:24Z</time>
      </trkpt>
      <trkpt lat="48.64719" lon="-0.51347">
        <ele>270.9</ele>
        <time>2012-02-11T15:48:26Z</time>
      </trkpt>
      <trkpt lat="48.6472" lon="-0.51338">
        <ele>271.2</ele>
        <time>2012-02-11T15:48:28Z</time>
      </trkpt>
      <trkpt lat="48.64721" lon="-0.51324">
        <ele>271.1</ele>
        <time>2012-02-11T15:48:31Z</time>
      </trkpt>
      <trkpt lat="48.64724" lon="-0.51312">
        <ele>272.2</ele>
        <time>2012-02-11T15:48:34Z</time>
      </trkpt>
      <trkpt lat="48.64726" lon="-0.513">
        <ele>272.4</ele>
        <time>2012-02-11T15:48:37Z</time>
      </trkpt>
      <trkpt lat="48.64729" lon="-0.5129">
        <ele>273</ele>
        <time>2012-02-11T15:48:40Z</time>
      </trkpt>
      <trkpt lat="48.64731" lon="-0.51278">
        <ele>273.2</ele>
        <time>2012-02-11T15:48:44Z</time>
      </trkpt>
      <trkpt lat="48.64735" lon="-0.51268">
        <ele>274.6</ele>
        <time>2012-02-11T15:48:48Z</time>
      </trkpt>
      <trkpt lat="48.64735" lon="-0.51266">
        <ele>274.6</ele>
        <time>2012-02-11T15:48:49Z</time>
      </trkpt>
      <trkpt lat="48.64749" lon="-0.51262">
        <ele>275.5</ele>
        <time>2012-02-11T15:49:00Z</time>
      </trkpt>
      <trkpt lat="48.64755" lon="-0.51268">
        <ele>276.1</ele>
        <time>2012-02-11T15:49:04Z</time>
      </trkpt>
      <trkpt lat="48.64763" lon="-0.51274">
        <ele>276</ele>
        <time>2012-02-11T15:49:08Z</time>
      </trkpt>
      <trkpt lat="48.6477" lon="-0.51281">
        <ele>276.3</ele>
        <time>2012-02-11T15:49:12Z</time>
      </trkpt>
      <trkpt lat="48.64777" lon="-0.51287">
        <ele>277.2</ele>
        <time>2012-02-11T15:49:16Z</time>
      </trkpt>
      <trkpt lat="48.64784" lon="-0.51294">
        <ele>278</ele>
        <time>2012-02-11T15:49:22Z</time>
      </trkpt>
      <trkpt lat="48.64791" lon="-0.51302">
        <ele>278.6</ele>
        <time>2012-02-11T15:49:27Z</time>
      </trkpt>
      <trkpt lat="48.64797" lon="-0.51307">
        <ele>279.2</ele>
        <time>2012-02-11T15:49:31Z</time>
      </trkpt>
      <trkpt lat="48.64804" lon="-0.51313">
        <ele>279.5</ele>
        <time>2012-02-11T15:49:35Z</time>
      </trkpt>
      <trkpt lat="48.64811" lon="-0.5132">
        <ele>280.1</ele>
        <time>2012-02-11T15:49:40Z</time>
      </trkpt>
      <trkpt lat="48.64818" lon="-0.51326">
        <ele>280.4</ele>
        <time>2012-02-11T15:49:45Z</time>
      </trkpt>
      <trkpt lat="48.64826" lon="-0.51334">
        <ele>281.9</ele>
        <time>2012-02-11T15:49:54Z</time>
      </trkpt>
      <trkpt lat="48.64827" lon="-0.51334">
        <ele>282</ele>
        <time>2012-02-11T15:49:55Z</time>
      </trkpt>
      <trkpt lat="48.64839" lon="-0.51343">
        <ele>282.6</ele>
        <time>2012-02-11T15:50:02Z</time>
      </trkpt>
      <trkpt lat="48.64845" lon="-0.51348">
        <ele>283.1</ele>
        <time>2012-02-11T15:50:05Z</time>
      </trkpt>
      <trkpt lat="48.64854" lon="-0.51352">
        <ele>284</ele>
        <time>2012-02-11T15:50:09Z</time>
      </trkpt>
      <trkpt lat="48.6486" lon="-0.51357">
        <ele>285</ele>
        <time>2012-02-11T15:50:12Z</time>
      </trkpt>
      <trkpt lat="48.64867" lon="-0.51363">
        <ele>285.5</ele>
        <time>2012-02-11T15:50:15Z</time>
      </trkpt>
      <trkpt lat="48.64875" lon="-0.51367">
        <ele>285.7</ele>
        <time>2012-02-11T15:50:19Z</time>
      </trkpt>
      <trkpt lat="48.64883" lon="-0.51371">
        <ele>286.7</ele>
        <time>2012-02-11T15:50:23Z</time>
      </trkpt>
      <trkpt lat="48.64891" lon="-0.51374">
        <ele>286</ele>
        <time>2012-02-11T15:50:27Z</time>
      </trkpt>
      <trkpt lat="48.64899" lon="-0.51377">
        <ele>287.1</ele>
        <time>2012-02-11T15:50:31Z</time>
      </trkpt>
      <trkpt lat="48.64906" lon="-0.51379">
        <ele>287.9</ele>
        <time>2012-02-11T15:50:35Z</time>
      </trkpt>
      <trkpt lat="48.64915" lon="-0.51383">
        <ele>289</ele>
        <time>2012-02-11T15:50:40Z</time>
      </trkpt>
      <trkpt lat="48.64921" lon="-0.51386">
        <ele>290.1</ele>
        <time>2012-02-11T15:50:45Z</time>
      </trkpt>
      <trkpt lat="48.64929" lon="-0.51386">
        <ele>290.6</ele>
        <time>2012-02-11T15:50:49Z</time>
      </trkpt>
      <trkpt lat="48.64937" lon="-0.51389">
        <ele>291.6</ele>
        <time>2012-02-11T15:50:53Z</time>
      </trkpt>
      <trkpt lat="48.64944" lon="-0.51392">
        <ele>292.3</ele>
        <time>2012-02-11T15:50:56Z</time>
      </trkpt>
      <trkpt lat="48.64947" lon="-0.51393">
        <ele>292.4</ele>
        <time>2012-02-11T15:50:57Z</time>
      </trkpt>
      <trkpt lat="48.64958" lon="-0.514">
        <ele>293.4</ele>
        <time>2012-02-11T15:51:02Z</time>
      </trkpt>
      <trkpt lat="48.64966" lon="-0.51405">
        <ele>293.7</ele>
        <time>2012-02-11T15:51:05Z</time>
      </trkpt>
      <trkpt lat="48.64973" lon="-0.51413">
        <ele>294.3</ele>
        <time>2012-02-11T15:51:08Z</time>
      </trkpt>
      <trkpt lat="48.64978" lon="-0.51421">
        <ele>295.3</ele>
        <time>2012-02-11T15:51:11Z</time>
      </trkpt>
      <trkpt lat="48.64984" lon="-0.51431">
        <ele>295.4</ele>
        <time>2012-02-11T15:51:14Z</time>
      </trkpt>
      <trkpt lat="48.64989" lon="-0.5144">
        <ele>295.4</ele>
        <time>2012-02-11T15:51:17Z</time>
      </trkpt>
      <trkpt lat="48.64994" lon="-0.5145">
        <ele>295.9</ele>
        <time>2012-02-11T15:51:20Z</time>
      </trkpt>
      <trkpt lat="48.64998" lon="-0.5146">
        <ele>296.1</ele>
        <time>2012-02-11T15:51:23Z</time>
      </trkpt>
      <trkpt lat="48.65004" lon="-0.51469">
        <ele>296.5</ele>
        <time>2012-02-11T15:51:26Z</time>
      </trkpt>
      <trkpt lat="48.6501" lon="-0.51477">
        <ele>297</ele>
        <time>2012-02-11T15:51:29Z</time>
      </trkpt>
      <trkpt lat="48.65016" lon="-0.51485">
        <ele>297.1</ele>
        <time>2012-02-11T15:51:32Z</time>
      </trkpt>
      <trkpt lat="48.65021" lon="-0.51492">
        <ele>297.6</ele>
        <time>2012-02-11T15:51:35Z</time>
      </trkpt>
      <trkpt lat="48.65029" lon="-0.51499">
        <ele>298.4</ele>
        <time>2012-02-11T15:51:39Z</time>
      </trkpt>
      <trkpt lat="48.65036" lon="-0.51502">
        <ele>299.6</ele>
        <time>2012-02-11T15:51:43Z</time>
      </trkpt>
      <trkpt lat="48.65044" lon="-0.51504">
        <ele>300</ele>
        <time>2012-02-11T15:51:47Z</time>
      </trkpt>
      <trkpt lat="48.65053" lon="-0.51505">
        <ele>299.8</ele>
        <time>2012-02-11T15:51:51Z</time>
      </trkpt>
      <trkpt lat="48.65061" lon="-0.51503">
        <ele>301.1</ele>
        <time>2012-02-11T15:51:58Z</time>
      </trkpt>
      <trkpt lat="48.65063" lon="-0.51503">
        <ele>300.9</ele>
        <time>2012-02-11T15:51:59Z</time>
      </trkpt>
      <trkpt lat="48.65078" lon="-0.51509">
        <ele>301.8</ele>
        <time>2012-02-11T15:52:07Z</time>
      </trkpt>
      <trkpt lat="48.65085" lon="-0.51509">
        <ele>301.9</ele>
        <time>2012-02-11T15:52:10Z</time>
      </trkpt>
      <trkpt lat="48.65092" lon="-0.51509">
        <ele>302</ele>
        <time>2012-02-11T15:52:13Z</time>
      </trkpt>
      <trkpt lat="48.65099" lon="-0.51509">
        <ele>301.5</ele>
        <time>2012-02-11T15:52:16Z</time>
      </trkpt>
      <trkpt lat="48.65106" lon="-0.51511">
        <ele>301.7</ele>
        <time>2012-02-11T15:52:19Z</time>
      </trkpt>
      <trkpt lat="48.65114" lon="-0.51512">
        <ele>301.5</ele>
        <time>2012-02-11T15:52:22Z</time>
      </trkpt>
      <trkpt lat="48.65121" lon="-0.51514">
        <ele>301.6</ele>
        <time>2012-02-11T15:52:25Z</time>
      </trkpt>
      <trkpt lat="48.65129" lon="-0.51514">
        <ele>301.4</ele>
        <time>2012-02-11T15:52:28Z</time>
      </trkpt>
      <trkpt lat="48.65136" lon="-0.51515">
        <ele>300.5</ele>
        <time>2012-02-11T15:52:31Z</time>
      </trkpt>
      <trkpt lat="48.65144" lon="-0.51518">
        <ele>300.3</ele>
        <time>2012-02-11T15:52:34Z</time>
      </trkpt>
      <trkpt lat="48.65151" lon="-0.51519">
        <ele>300</ele>
        <time>2012-02-11T15:52:36Z</time>
      </trkpt>
      <trkpt lat="48.65158" lon="-0.51519">
        <ele>299.8</ele>
        <time>2012-02-11T15:52:39Z</time>
      </trkpt>
      <trkpt lat="48.65166" lon="-0.5152">
        <ele>299.2</ele>
        <time>2012-02-11T15:52:42Z</time>
      </trkpt>
      <trkpt lat="48.65174" lon="-0.51523">
        <ele>299.1</ele>
        <time>2012-02-11T15:52:45Z</time>
      </trkpt>
      <trkpt lat="48.65182" lon="-0.51524">
        <ele>299.2</ele>
        <time>2012-02-11T15:52:48Z</time>
      </trkpt>
      <trkpt lat="48.65189" lon="-0.51525">
        <ele>298.7</ele>
        <time>2012-02-11T15:52:51Z</time>
      </trkpt>
      <trkpt lat="48.65197" lon="-0.51528">
        <ele>298.3</ele>
        <time>2012-02-11T15:52:54Z</time>
      </trkpt>
      <trkpt lat="48.65204" lon="-0.51528">
        <ele>298.7</ele>
        <time>2012-02-11T15:52:57Z</time>
      </trkpt>
      <trkpt lat="48.65212" lon="-0.51529">
        <ele>298.9</ele>
        <time>2012-02-11T15:53:01Z</time>
      </trkpt>
      <trkpt lat="48.65215" lon="-0.51529">
        <ele>298.8</ele>
        <time>2012-02-11T15:53:02Z</time>
      </trkpt>
      <trkpt lat="48.65227" lon="-0.51532">
        <ele>299.4</ele>
        <time>2012-02-11T15:53:07Z</time>
      </trkpt>
      <trkpt lat="48.65235" lon="-0.51536">
        <ele>299.4</ele>
        <time>2012-02-11T15:53:10Z</time>
      </trkpt>
      <trkpt lat="48.65242" lon="-0.51536">
        <ele>300.1</ele>
        <time>2012-02-11T15:53:13Z</time>
      </trkpt>
      <trkpt lat="48.65251" lon="-0.51536">
        <ele>301</ele>
        <time>2012-02-11T15:53:17Z</time>
      </trkpt>
      <trkpt lat="48.6526" lon="-0.51535">
        <ele>301.8</ele>
        <time>2012-02-11T15:53:21Z</time>
      </trkpt>
      <trkpt lat="48.65268" lon="-0.51532">
        <ele>302.2</ele>
        <time>2012-02-11T15:53:25Z</time>
      </trkpt>
      <trkpt lat="48.65275" lon="-0.5153">
        <ele>302.4</ele>
        <time>2012-02-11T15:53:28Z</time>
      </trkpt>
      <trkpt lat="48.65282" lon="-0.51527">
        <ele>303.5</ele>
        <time>2012-02-11T15:53:31Z</time>
      </trkpt>
      <trkpt lat="48.65289" lon="-0.51525">
        <ele>303.9</ele>
        <time>2012-02-11T15:53:34Z</time>
      </trkpt>
      <trkpt lat="48.65296" lon="-0.51523">
        <ele>303.7</ele>
        <time>2012-02-11T15:53:37Z</time>
      </trkpt>
      <trkpt lat="48.65303" lon="-0.5152">
        <ele>304.1</ele>
        <time>2012-02-11T15:53:40Z</time>
      </trkpt>
      <trkpt lat="48.65311" lon="-0.51516">
        <ele>304.3</ele>
        <time>2012-02-11T15:53:43Z</time>
      </trkpt>
      <trkpt lat="48.65317" lon="-0.51514">
        <ele>304.4</ele>
        <time>2012-02-11T15:53:45Z</time>
      </trkpt>
      <trkpt lat="48.65323" lon="-0.51511">
        <ele>303.7</ele>
        <time>2012-02-11T15:53:47Z</time>
      </trkpt>
      <trkpt lat="48.65329" lon="-0.51509">
        <ele>303.3</ele>
        <time>2012-02-11T15:53:49Z</time>
      </trkpt>
      <trkpt lat="48.65337" lon="-0.5151">
        <ele>301.9</ele>
        <time>2012-02-11T15:53:51Z</time>
      </trkpt>
      <trkpt lat="48.65346" lon="-0.51511">
        <ele>300.8</ele>
        <time>2012-02-11T15:53:53Z</time>
      </trkpt>
      <trkpt lat="48.6535" lon="-0.51514">
        <ele>300.3</ele>
        <time>2012-02-11T15:53:54Z</time>
      </trkpt>
      <trkpt lat="48.65355" lon="-0.51517">
        <ele>299.5</ele>
        <time>2012-02-11T15:53:55Z</time>
      </trkpt>
      <trkpt lat="48.6536" lon="-0.51521">
        <ele>299</ele>
        <time>2012-02-11T15:53:56Z</time>
      </trkpt>
      <trkpt lat="48.65364" lon="-0.51524">
        <ele>298.6</ele>
        <time>2012-02-11T15:53:57Z</time>
      </trkpt>
      <trkpt lat="48.65369" lon="-0.51527">
        <ele>297.9</ele>
        <time>2012-02-11T15:53:58Z</time>
      </trkpt>
      <trkpt lat="48.65373" lon="-0.5153">
        <ele>297.5</ele>
        <time>2012-02-11T15:53:59Z</time>
      </trkpt>
      <trkpt lat="48.65377" lon="-0.51534">
        <ele>296.9</ele>
        <time>2012-02-11T15:54:00Z</time>
      </trkpt>
      <trkpt lat="48.65381" lon="-0.51537">
        <ele>296.5</ele>
        <time>2012-02-11T15:54:01Z</time>
      </trkpt>
      <trkpt lat="48.65386" lon="-0.51541">
        <ele>296.4</ele>
        <time>2012-02-11T15:54:02Z</time>
      </trkpt>
      <trkpt lat="48.65389" lon="-0.51544">
        <ele>296.3</ele>
        <time>2012-02-11T15:54:03Z</time>
      </trkpt>
      <trkpt lat="48.65401" lon="-0.51552">
        <ele>296</ele>
        <time>2012-02-11T15:54:06Z</time>
      </trkpt>
      <trkpt lat="48.65408" lon="-0.51556">
        <ele>295.8</ele>
        <time>2012-02-11T15:54:08Z</time>
      </trkpt>
      <trkpt lat="48.65416" lon="-0.5156">
        <ele>295.4</ele>
        <time>2012-02-11T15:54:10Z</time>
      </trkpt>
      <trkpt lat="48.65423" lon="-0.51564">
        <ele>295.3</ele>
        <time>2012-02-11T15:54:12Z</time>
      </trkpt>
      <trkpt lat="48.6543" lon="-0.51568">
        <ele>295.1</ele>
        <time>2012-02-11T15:54:14Z</time>
      </trkpt>
      <trkpt lat="48.65438" lon="-0.51572">
        <ele>295.1</ele>
        <time>2012-02-11T15:54:16Z</time>
      </trkpt>
      <trkpt lat="48.65445" lon="-0.51576">
        <ele>295.1</ele>
        <time>2012-02-11T15:54:18Z</time>
      </trkpt>
      <trkpt lat="48.65451" lon="-0.5158">
        <ele>294.7</ele>
        <time>2012-02-11T15:54:20Z</time>
      </trkpt>
      <trkpt lat="48.65457" lon="-0.51583">
        <ele>294.8</ele>
        <time>2012-02-11T15:54:22Z</time>
      </trkpt>
      <trkpt lat="48.65463" lon="-0.51586">
        <ele>295</ele>
        <time>2012-02-11T15:54:24Z</time>
      </trkpt>
      <trkpt lat="48.65469" lon="-0.5159">
        <ele>295</ele>
        <time>2012-02-11T15:54:26Z</time>
      </trkpt>
      <trkpt lat="48.65475" lon="-0.51595">
        <ele>295.1</ele>
        <time>2012-02-11T15:54:28Z</time>
      </trkpt>
      <trkpt lat="48.65481" lon="-0.51601">
        <ele>295.2</ele>
        <time>2012-02-11T15:54:30Z</time>
      </trkpt>
      <trkpt lat="48.65487" lon="-0.51609">
        <ele>295</ele>
        <time>2012-02-11T15:54:32Z</time>
      </trkpt>
      <trkpt lat="48.65491" lon="-0.51617">
        <ele>294.9</ele>
        <time>2012-02-11T15:54:34Z</time>
      </trkpt>
      <trkpt lat="48.65496" lon="-0.51626">
        <ele>294.6</ele>
        <time>2012-02-11T15:54:36Z</time>
      </trkpt>
      <trkpt lat="48.655" lon="-0.51634">
        <ele>294.5</ele>
        <time>2012-02-11T15:54:38Z</time>
      </trkpt>
      <trkpt lat="48.65504" lon="-0.51642">
        <ele>294.8</ele>
        <time>2012-02-11T15:54:40Z</time>
      </trkpt>
      <trkpt lat="48.65509" lon="-0.5165">
        <ele>295</ele>
        <time>2012-02-11T15:54:42Z</time>
      </trkpt>
      <trkpt lat="48.65513" lon="-0.51658">
        <ele>295.3</ele>
        <time>2012-02-11T15:54:44Z</time>
      </trkpt>
      <trkpt lat="48.65517" lon="-0.51666">
        <ele>295.3</ele>
        <time>2012-02-11T15:54:46Z</time>
      </trkpt>
      <trkpt lat="48.65522" lon="-0.51674">
        <ele>295.5</ele>
        <time>2012-02-11T15:54:48Z</time>
      </trkpt>
      <trkpt lat="48.65526" lon="-0.51681">
        <ele>295.7</ele>
        <time>2012-02-11T15:54:50Z</time>
      </trkpt>
      <trkpt lat="48.6553" lon="-0.51689">
        <ele>296.1</ele>
        <time>2012-02-11T15:54:52Z</time>
      </trkpt>
      <trkpt lat="48.65534" lon="-0.51697">
        <ele>296.6</ele>
        <time>2012-02-11T15:54:54Z</time>
      </trkpt>
      <trkpt lat="48.65539" lon="-0.51703">
        <ele>296.7</ele>
        <time>2012-02-11T15:54:56Z</time>
      </trkpt>
      <trkpt lat="48.65546" lon="-0.5171">
        <ele>296.4</ele>
        <time>2012-02-11T15:54:58Z</time>
      </trkpt>
      <trkpt lat="48.65553" lon="-0.51717">
        <ele>296.1</ele>
        <time>2012-02-11T15:55:00Z</time>
      </trkpt>
      <trkpt lat="48.65557" lon="-0.5172">
        <ele>296</ele>
        <time>2012-02-11T15:55:01Z</time>
      </trkpt>
      <trkpt lat="48.65561" lon="-0.51725">
        <ele>296.2</ele>
        <time>2012-02-11T15:55:02Z</time>
      </trkpt>
      <trkpt lat="48.65565" lon="-0.51729">
        <ele>296.3</ele>
        <time>2012-02-11T15:55:03Z</time>
      </trkpt>
      <trkpt lat="48.65569" lon="-0.51732">
        <ele>296.6</ele>
        <time>2012-02-11T15:55:04Z</time>
      </trkpt>
      <trkpt lat="48.6558" lon="-0.51742">
        <ele>296</ele>
        <time>2012-02-11T15:55:07Z</time>
      </trkpt>
      <trkpt lat="48.65588" lon="-0.51747">
        <ele>295.8</ele>
        <time>2012-02-11T15:55:09Z</time>
      </trkpt>
      <trkpt lat="48.65595" lon="-0.51754">
        <ele>295.8</ele>
        <time>2012-02-11T15:55:11Z</time>
      </trkpt>
      <trkpt lat="48.65603" lon="-0.5176">
        <ele>296</ele>
        <time>2012-02-11T15:55:13Z</time>
      </trkpt>
      <trkpt lat="48.65611" lon="-0.51765">
        <ele>296.4</ele>
        <time>2012-02-11T15:55:15Z</time>
      </trkpt>
      <trkpt lat="48.65619" lon="-0.51771">
        <ele>296</ele>
        <time>2012-02-11T15:55:17Z</time>
      </trkpt>
      <trkpt lat="48.65627" lon="-0.51776">
        <ele>295.9</ele>
        <time>2012-02-11T15:55:19Z</time>
      </trkpt>
      <trkpt lat="48.65631" lon="-0.51779">
        <ele>295.8</ele>
        <time>2012-02-11T15:55:20Z</time>
      </trkpt>
      <trkpt lat="48.65636" lon="-0.51781">
        <ele>295.8</ele>
        <time>2012-02-11T15:55:21Z</time>
      </trkpt>
      <trkpt lat="48.6564" lon="-0.51784">
        <ele>295.8</ele>
        <time>2012-02-11T15:55:22Z</time>
      </trkpt>
      <trkpt lat="48.65644" lon="-0.51787">
        <ele>295.4</ele>
        <time>2012-02-11T15:55:23Z</time>
      </trkpt>
      <trkpt lat="48.65648" lon="-0.5179">
        <ele>295.1</ele>
        <time>2012-02-11T15:55:24Z</time>
      </trkpt>
      <trkpt lat="48.65652" lon="-0.51793">
        <ele>295.1</ele>
        <time>2012-02-11T15:55:25Z</time>
      </trkpt>
      <trkpt lat="48.65656" lon="-0.51795">
        <ele>295.1</ele>
        <time>2012-02-11T15:55:26Z</time>
      </trkpt>
      <trkpt lat="48.65661" lon="-0.51798">
        <ele>295.1</ele>
        <time>2012-02-11T15:55:27Z</time>
      </trkpt>
      <trkpt lat="48.65665" lon="-0.518">
        <ele>294.9</ele>
        <time>2012-02-11T15:55:28Z</time>
      </trkpt>
      <trkpt lat="48.65669" lon="-0.51803">
        <ele>294.7</ele>
        <time>2012-02-11T15:55:29Z</time>
      </trkpt>
      <trkpt lat="48.65674" lon="-0.51806">
        <ele>294.6</ele>
        <time>2012-02-11T15:55:30Z</time>
      </trkpt>
      <trkpt lat="48.65678" lon="-0.51808">
        <ele>294.4</ele>
        <time>2012-02-11T15:55:31Z</time>
      </trkpt>
      <trkpt lat="48.65682" lon="-0.51811">
        <ele>293.9</ele>
        <time>2012-02-11T15:55:32Z</time>
      </trkpt>
      <trkpt lat="48.65686" lon="-0.51814">
        <ele>293.4</ele>
        <time>2012-02-11T15:55:33Z</time>
      </trkpt>
      <trkpt lat="48.65691" lon="-0.51816">
        <ele>293.1</ele>
        <time>2012-02-11T15:55:34Z</time>
      </trkpt>
      <trkpt lat="48.65695" lon="-0.51819">
        <ele>293.3</ele>
        <time>2012-02-11T15:55:35Z</time>
      </trkpt>
      <trkpt lat="48.657" lon="-0.51821">
        <ele>293.4</ele>
        <time>2012-02-11T15:55:36Z</time>
      </trkpt>
      <trkpt lat="48.65705" lon="-0.51824">
        <ele>293.1</ele>
        <time>2012-02-11T15:55:37Z</time>
      </trkpt>
      <trkpt lat="48.65709" lon="-0.51826">
        <ele>292.9</ele>
        <time>2012-02-11T15:55:38Z</time>
      </trkpt>
      <trkpt lat="48.65714" lon="-0.51828">
        <ele>292.8</ele>
        <time>2012-02-11T15:55:39Z</time>
      </trkpt>
      <trkpt lat="48.65719" lon="-0.51831">
        <ele>292.7</ele>
        <time>2012-02-11T15:55:40Z</time>
      </trkpt>
      <trkpt lat="48.65724" lon="-0.51833">
        <ele>292.7</ele>
        <time>2012-02-11T15:55:41Z</time>
      </trkpt>
      <trkpt lat="48.65732" lon="-0.51835">
        <ele>292.2</ele>
        <time>2012-02-11T15:55:43Z</time>
      </trkpt>
      <trkpt lat="48.6574" lon="-0.51836">
        <ele>292.1</ele>
        <time>2012-02-11T15:55:45Z</time>
      </trkpt>
      <trkpt lat="48.65749" lon="-0.51834">
        <ele>292.1</ele>
        <time>2012-02-11T15:55:47Z</time>
      </trkpt>
      <trkpt lat="48.65756" lon="-0.51838">
        <ele>291.7</ele>
        <time>2012-02-11T15:55:50Z</time>
      </trkpt>
      <trkpt lat="48.65763" lon="-0.51846">
        <ele>291.3</ele>
        <time>2012-02-11T15:55:53Z</time>
      </trkpt>
      <trkpt lat="48.65769" lon="-0.51849">
        <ele>291</ele>
        <time>2012-02-11T15:55:55Z</time>
      </trkpt>
      <trkpt lat="48.65777" lon="-0.51852">
        <ele>290.4</ele>
        <time>2012-02-11T15:55:57Z</time>
      </trkpt>
      <trkpt lat="48.65786" lon="-0.51856">
        <ele>289.9</ele>
        <time>2012-02-11T15:55:59Z</time>
      </trkpt>
      <trkpt lat="48.65794" lon="-0.51859">
        <ele>290.1</ele>
        <time>2012-02-11T15:56:01Z</time>
      </trkpt>
      <trkpt lat="48.65799" lon="-0.51861">
        <ele>290.4</ele>
        <time>2012-02-11T15:56:02Z</time>
      </trkpt>
      <trkpt lat="48.65803" lon="-0.51862">
        <ele>290.2</ele>
        <time>2012-02-11T15:56:03Z</time>
      </trkpt>
      <trkpt lat="48.65808" lon="-0.51865">
        <ele>290.1</ele>
        <time>2012-02-11T15:56:04Z</time>
      </trkpt>
      <trkpt lat="48.65814" lon="-0.51866">
        <ele>290</ele>
        <time>2012-02-11T15:56:05Z</time>
      </trkpt>
      <trkpt lat="48.65819" lon="-0.51867">
        <ele>289.7</ele>
        <time>2012-02-11T15:56:06Z</time>
      </trkpt>
      <trkpt lat="48.65827" lon="-0.51868">
        <ele>288.9</ele>
        <time>2012-02-11T15:56:08Z</time>
      </trkpt>
      <trkpt lat="48.65835" lon="-0.51867">
        <ele>287.7</ele>
        <time>2012-02-11T15:56:11Z</time>
      </trkpt>
      <trkpt lat="48.65843" lon="-0.51868">
        <ele>287.1</ele>
        <time>2012-02-11T15:56:14Z</time>
      </trkpt>
      <trkpt lat="48.6585" lon="-0.51868">
        <ele>286.3</ele>
        <time>2012-02-11T15:56:16Z</time>
      </trkpt>
      <trkpt lat="48.65858" lon="-0.5187">
        <ele>285.7</ele>
        <time>2012-02-11T15:56:18Z</time>
      </trkpt>
      <trkpt lat="48.65866" lon="-0.51872">
        <ele>284.8</ele>
        <time>2012-02-11T15:56:20Z</time>
      </trkpt>
      <trkpt lat="48.65873" lon="-0.51873">
        <ele>284.1</ele>
        <time>2012-02-11T15:56:22Z</time>
      </trkpt>
      <trkpt lat="48.65881" lon="-0.51876">
        <ele>283.6</ele>
        <time>2012-02-11T15:56:24Z</time>
      </trkpt>
      <trkpt lat="48.6589" lon="-0.51877">
        <ele>282.5</ele>
        <time>2012-02-11T15:56:26Z</time>
      </trkpt>
      <trkpt lat="48.65894" lon="-0.51878">
        <ele>281.3</ele>
        <time>2012-02-11T15:56:27Z</time>
      </trkpt>
      <trkpt lat="48.65899" lon="-0.51878">
        <ele>280.4</ele>
        <time>2012-02-11T15:56:28Z</time>
      </trkpt>
      <trkpt lat="48.65904" lon="-0.51879">
        <ele>279.3</ele>
        <time>2012-02-11T15:56:29Z</time>
      </trkpt>
      <trkpt lat="48.65909" lon="-0.51879">
        <ele>278.5</ele>
        <time>2012-02-11T15:56:30Z</time>
      </trkpt>
      <trkpt lat="48.65914" lon="-0.5188">
        <ele>277.9</ele>
        <time>2012-02-11T15:56:31Z</time>
      </trkpt>
      <trkpt lat="48.65922" lon="-0.51881">
        <ele>276.4</ele>
        <time>2012-02-11T15:56:33Z</time>
      </trkpt>
      <trkpt lat="48.65927" lon="-0.51882">
        <ele>275.6</ele>
        <time>2012-02-11T15:56:34Z</time>
      </trkpt>
      <trkpt lat="48.65932" lon="-0.51883">
        <ele>275</ele>
        <time>2012-02-11T15:56:35Z</time>
      </trkpt>
      <trkpt lat="48.65936" lon="-0.51884">
        <ele>274.5</ele>
        <time>2012-02-11T15:56:36Z</time>
      </trkpt>
      <trkpt lat="48.65944" lon="-0.51887">
        <ele>273.2</ele>
        <time>2012-02-11T15:56:38Z</time>
      </trkpt>
      <trkpt lat="48.65952" lon="-0.51889">
        <ele>271.7</ele>
        <time>2012-02-11T15:56:40Z</time>
      </trkpt>
      <trkpt lat="48.65958" lon="-0.5189">
        <ele>270.6</ele>
        <time>2012-02-11T15:56:42Z</time>
      </trkpt>
      <trkpt lat="48.65967" lon="-0.51893">
        <ele>270.3</ele>
        <time>2012-02-11T15:56:45Z</time>
      </trkpt>
      <trkpt lat="48.65973" lon="-0.51902">
        <ele>269.4</ele>
        <time>2012-02-11T15:56:48Z</time>
      </trkpt>
      <trkpt lat="48.65977" lon="-0.51911">
        <ele>269.4</ele>
        <time>2012-02-11T15:56:50Z</time>
      </trkpt>
      <trkpt lat="48.65983" lon="-0.5192">
        <ele>268.9</ele>
        <time>2012-02-11T15:56:52Z</time>
      </trkpt>
      <trkpt lat="48.6599" lon="-0.51928">
        <ele>268.3</ele>
        <time>2012-02-11T15:56:54Z</time>
      </trkpt>
      <trkpt lat="48.65999" lon="-0.51932">
        <ele>267.6</ele>
        <time>2012-02-11T15:56:56Z</time>
      </trkpt>
      <trkpt lat="48.66007" lon="-0.51935">
        <ele>267.1</ele>
        <time>2012-02-11T15:56:58Z</time>
      </trkpt>
      <trkpt lat="48.66015" lon="-0.51937">
        <ele>267.2</ele>
        <time>2012-02-11T15:57:00Z</time>
      </trkpt>
      <trkpt lat="48.66023" lon="-0.51938">
        <ele>267.4</ele>
        <time>2012-02-11T15:57:02Z</time>
      </trkpt>
      <trkpt lat="48.6603" lon="-0.51939">
        <ele>266.9</ele>
        <time>2012-02-11T15:57:04Z</time>
      </trkpt>
      <trkpt lat="48.66037" lon="-0.51939">
        <ele>267</ele>
        <time>2012-02-11T15:57:06Z</time>
      </trkpt>
      <trkpt lat="48.66044" lon="-0.51938">
        <ele>267.6</ele>
        <time>2012-02-11T15:57:08Z</time>
      </trkpt>
      <trkpt lat="48.66047" lon="-0.51937">
        <ele>267.8</ele>
        <time>2012-02-11T15:57:09Z</time>
      </trkpt>
      <trkpt lat="48.66056" lon="-0.51951">
        <ele>269.2</ele>
        <time>2012-02-11T15:57:14Z</time>
      </trkpt>
      <trkpt lat="48.66057" lon="-0.51963">
        <ele>269.6</ele>
        <time>2012-02-11T15:57:17Z</time>
      </trkpt>
      <trkpt lat="48.66057" lon="-0.51973">
        <ele>269.7</ele>
        <time>2012-02-11T15:57:19Z</time>
      </trkpt>
      <trkpt lat="48.66056" lon="-0.51984">
        <ele>269.5</ele>
        <time>2012-02-11T15:57:21Z</time>
      </trkpt>
      <trkpt lat="48.66055" lon="-0.51994">
        <ele>269</ele>
        <time>2012-02-11T15:57:23Z</time>
      </trkpt>
      <trkpt lat="48.66054" lon="-0.52007">
        <ele>267.3</ele>
        <time>2012-02-11T15:57:26Z</time>
      </trkpt>
      <trkpt lat="48.66052" lon="-0.52018">
        <ele>266.6</ele>
        <time>2012-02-11T15:57:29Z</time>
      </trkpt>
      <trkpt lat="48.66051" lon="-0.52031">
        <ele>264.9</ele>
        <time>2012-02-11T15:57:34Z</time>
      </trkpt>
      <trkpt lat="48.66051" lon="-0.52043">
        <ele>263</ele>
        <time>2012-02-11T15:57:40Z</time>
      </trkpt>
      <trkpt lat="48.66059" lon="-0.52048">
        <ele>261.9</ele>
        <time>2012-02-11T15:57:47Z</time>
      </trkpt>
      <trkpt lat="48.66065" lon="-0.52054">
        <ele>261.7</ele>
        <time>2012-02-11T15:57:52Z</time>
      </trkpt>
      <trkpt lat="48.6607" lon="-0.52063">
        <ele>261.9</ele>
        <time>2012-02-11T15:57:57Z</time>
      </trkpt>
      <trkpt lat="48.66074" lon="-0.52073">
        <ele>262.5</ele>
        <time>2012-02-11T15:58:02Z</time>
      </trkpt>
      <trkpt lat="48.6608" lon="-0.52081">
        <ele>264.1</ele>
        <time>2012-02-11T15:58:07Z</time>
      </trkpt>
      <trkpt lat="48.66085" lon="-0.52092">
        <ele>267.2</ele>
        <time>2012-02-11T15:58:35Z</time>
      </trkpt>
      <trkpt lat="48.66086" lon="-0.52093">
        <ele>267.3</ele>
        <time>2012-02-11T15:58:36Z</time>
      </trkpt>
      <trkpt lat="48.66098" lon="-0.52109">
        <ele>271.6</ele>
        <time>2012-02-11T15:59:02Z</time>
      </trkpt>
      <trkpt lat="48.66105" lon="-0.52118">
        <ele>272.8</ele>
        <time>2012-02-11T15:59:11Z</time>
      </trkpt>
      <trkpt lat="48.66111" lon="-0.52127">
        <ele>274.8</ele>
        <time>2012-02-11T15:59:30Z</time>
      </trkpt>
      <trkpt lat="48.66117" lon="-0.52133">
        <ele>275.5</ele>
        <time>2012-02-11T15:59:36Z</time>
      </trkpt>
      <trkpt lat="48.66125" lon="-0.52139">
        <ele>277.3</ele>
        <time>2012-02-11T15:59:42Z</time>
      </trkpt>
      <trkpt lat="48.66126" lon="-0.5214">
        <ele>277.4</ele>
        <time>2012-02-11T15:59:43Z</time>
      </trkpt>
      <trkpt lat="48.6614" lon="-0.5213">
        <ele>278.9</ele>
        <time>2012-02-11T16:00:00Z</time>
      </trkpt>
      <trkpt lat="48.66148" lon="-0.52131">
        <ele>279.7</ele>
        <time>2012-02-11T16:00:05Z</time>
      </trkpt>
      <trkpt lat="48.66156" lon="-0.5213">
        <ele>281.1</ele>
        <time>2012-02-11T16:00:15Z</time>
      </trkpt>
      <trkpt lat="48.66164" lon="-0.52128">
        <ele>281.2</ele>
        <time>2012-02-11T16:00:23Z</time>
      </trkpt>
      <trkpt lat="48.66172" lon="-0.52127">
        <ele>281.5</ele>
        <time>2012-02-11T16:00:31Z</time>
      </trkpt>
      <trkpt lat="48.66176" lon="-0.52137">
        <ele>282.2</ele>
        <time>2012-02-11T16:00:38Z</time>
      </trkpt>
      <trkpt lat="48.66178" lon="-0.52149">
        <ele>281</ele>
        <time>2012-02-11T16:00:42Z</time>
      </trkpt>
      <trkpt lat="48.66179" lon="-0.5216">
        <ele>280.3</ele>
        <time>2012-02-11T16:00:45Z</time>
      </trkpt>
      <trkpt lat="48.6618" lon="-0.52164">
        <ele>280</ele>
        <time>2012-02-11T16:00:46Z</time>
      </trkpt>
      <trkpt lat="48.66185" lon="-0.52183">
        <ele>278</ele>
        <time>2012-02-11T16:00:51Z</time>
      </trkpt>
      <trkpt lat="48.66188" lon="-0.52191">
        <ele>277.2</ele>
        <time>2012-02-11T16:00:53Z</time>
      </trkpt>
      <trkpt lat="48.66192" lon="-0.522">
        <ele>276.2</ele>
        <time>2012-02-11T16:00:55Z</time>
      </trkpt>
      <trkpt lat="48.66197" lon="-0.52207">
        <ele>274.7</ele>
        <time>2012-02-11T16:00:57Z</time>
      </trkpt>
      <trkpt lat="48.66203" lon="-0.52215">
        <ele>273</ele>
        <time>2012-02-11T16:01:00Z</time>
      </trkpt>
      <trkpt lat="48.6621" lon="-0.52221">
        <ele>271.6</ele>
        <time>2012-02-11T16:01:04Z</time>
      </trkpt>
      <trkpt lat="48.66219" lon="-0.52225">
        <ele>271.9</ele>
        <time>2012-02-11T16:01:09Z</time>
      </trkpt>
      <trkpt lat="48.66227" lon="-0.52229">
        <ele>271.9</ele>
        <time>2012-02-11T16:01:14Z</time>
      </trkpt>
      <trkpt lat="48.66236" lon="-0.5223">
        <ele>272.3</ele>
        <time>2012-02-11T16:01:19Z</time>
      </trkpt>
      <trkpt lat="48.66244" lon="-0.52231">
        <ele>273.5</ele>
        <time>2012-02-11T16:01:24Z</time>
      </trkpt>
      <trkpt lat="48.66251" lon="-0.52234">
        <ele>273.6</ele>
        <time>2012-02-11T16:01:29Z</time>
      </trkpt>
      <trkpt lat="48.6626" lon="-0.52236">
        <ele>275.2</ele>
        <time>2012-02-11T16:01:35Z</time>
      </trkpt>
      <trkpt lat="48.66268" lon="-0.52235">
        <ele>275.4</ele>
        <time>2012-02-11T16:01:42Z</time>
      </trkpt>
      <trkpt lat="48.66274" lon="-0.52225">
        <ele>278.3</ele>
        <time>2012-02-11T16:01:59Z</time>
      </trkpt>
      <trkpt lat="48.66274" lon="-0.52224">
        <ele>278.3</ele>
        <time>2012-02-11T16:02:00Z</time>
      </trkpt>
      <trkpt lat="48.66284" lon="-0.52203">
        <ele>282.8</ele>
        <time>2012-02-11T16:02:27Z</time>
      </trkpt>
      <trkpt lat="48.66291" lon="-0.52195">
        <ele>285.4</ele>
        <time>2012-02-11T16:02:47Z</time>
      </trkpt>
      <trkpt lat="48.66298" lon="-0.52201">
        <ele>285</ele>
        <time>2012-02-11T16:02:55Z</time>
      </trkpt>
      <trkpt lat="48.66306" lon="-0.52206">
        <ele>285.4</ele>
        <time>2012-02-11T16:03:01Z</time>
      </trkpt>
      <trkpt lat="48.66308" lon="-0.52207">
        <ele>285.3</ele>
        <time>2012-02-11T16:03:02Z</time>
      </trkpt>
      <trkpt lat="48.6632" lon="-0.52216">
        <ele>285.5</ele>
        <time>2012-02-11T16:03:08Z</time>
      </trkpt>
      <trkpt lat="48.66326" lon="-0.52221">
        <ele>285.1</ele>
        <time>2012-02-11T16:03:11Z</time>
      </trkpt>
      <trkpt lat="48.66333" lon="-0.52227">
        <ele>285.7</ele>
        <time>2012-02-11T16:03:14Z</time>
      </trkpt>
      <trkpt lat="48.6634" lon="-0.52233">
        <ele>285.3</ele>
        <time>2012-02-11T16:03:17Z</time>
      </trkpt>
      <trkpt lat="48.66348" lon="-0.52239">
        <ele>285.5</ele>
        <time>2012-02-11T16:03:20Z</time>
      </trkpt>
      <trkpt lat="48.66356" lon="-0.52245">
        <ele>285.3</ele>
        <time>2012-02-11T16:03:23Z</time>
      </trkpt>
      <trkpt lat="48.66362" lon="-0.52249">
        <ele>285</ele>
        <time>2012-02-11T16:03:25Z</time>
      </trkpt>
      <trkpt lat="48.66368" lon="-0.52253">
        <ele>284.9</ele>
        <time>2012-02-11T16:03:27Z</time>
      </trkpt>
      <trkpt lat="48.66374" lon="-0.52257">
        <ele>284.7</ele>
        <time>2012-02-11T16:03:29Z</time>
      </trkpt>
      <trkpt lat="48.66379" lon="-0.52262">
        <ele>284.4</ele>
        <time>2012-02-11T16:03:31Z</time>
      </trkpt>
      <trkpt lat="48.66385" lon="-0.52266">
        <ele>284.8</ele>
        <time>2012-02-11T16:03:33Z</time>
      </trkpt>
      <trkpt lat="48.66392" lon="-0.52273">
        <ele>284.6</ele>
        <time>2012-02-11T16:03:36Z</time>
      </trkpt>
      <trkpt lat="48.66397" lon="-0.52279">
        <ele>285.2</ele>
        <time>2012-02-11T16:03:38Z</time>
      </trkpt>
      <trkpt lat="48.66403" lon="-0.52286">
        <ele>284.6</ele>
        <time>2012-02-11T16:03:40Z</time>
      </trkpt>
      <trkpt lat="48.66409" lon="-0.52293">
        <ele>284</ele>
        <time>2012-02-11T16:03:42Z</time>
      </trkpt>
      <trkpt lat="48.66416" lon="-0.52299">
        <ele>283.5</ele>
        <time>2012-02-11T16:03:44Z</time>
      </trkpt>
      <trkpt lat="48.66424" lon="-0.52306">
        <ele>283.3</ele>
        <time>2012-02-11T16:03:46Z</time>
      </trkpt>
      <trkpt lat="48.66431" lon="-0.52312">
        <ele>283</ele>
        <time>2012-02-11T16:03:48Z</time>
      </trkpt>
      <trkpt lat="48.66439" lon="-0.52319">
        <ele>282.6</ele>
        <time>2012-02-11T16:03:50Z</time>
      </trkpt>
      <trkpt lat="48.66446" lon="-0.52326">
        <ele>282.4</ele>
        <time>2012-02-11T16:03:52Z</time>
      </trkpt>
      <trkpt lat="48.66454" lon="-0.52332">
        <ele>282.6</ele>
        <time>2012-02-11T16:03:54Z</time>
      </trkpt>
      <trkpt lat="48.66461" lon="-0.52339">
        <ele>282.6</ele>
        <time>2012-02-11T16:03:56Z</time>
      </trkpt>
      <trkpt lat="48.66469" lon="-0.52346">
        <ele>282.6</ele>
        <time>2012-02-11T16:03:58Z</time>
      </trkpt>
      <trkpt lat="48.66476" lon="-0.52352">
        <ele>282.9</ele>
        <time>2012-02-11T16:04:00Z</time>
      </trkpt>
      <trkpt lat="48.66484" lon="-0.52359">
        <ele>283.2</ele>
        <time>2012-02-11T16:04:02Z</time>
      </trkpt>
      <trkpt lat="48.66491" lon="-0.52365">
        <ele>283.3</ele>
        <time>2012-02-11T16:04:04Z</time>
      </trkpt>
      <trkpt lat="48.66494" lon="-0.52368">
        <ele>283.3</ele>
        <time>2012-02-11T16:04:05Z</time>
      </trkpt>
      <trkpt lat="48.66504" lon="-0.52377">
        <ele>283.4</ele>
        <time>2012-02-11T16:04:08Z</time>
      </trkpt>
      <trkpt lat="48.66511" lon="-0.52383">
        <ele>283.9</ele>
        <time>2012-02-11T16:04:10Z</time>
      </trkpt>
      <trkpt lat="48.66518" lon="-0.5239">
        <ele>284.2</ele>
        <time>2012-02-11T16:04:12Z</time>
      </trkpt>
      <trkpt lat="48.66525" lon="-0.52396">
        <ele>284.2</ele>
        <time>2012-02-11T16:04:14Z</time>
      </trkpt>
      <trkpt lat="48.66532" lon="-0.52402">
        <ele>284.3</ele>
        <time>2012-02-11T16:04:16Z</time>
      </trkpt>
      <trkpt lat="48.66539" lon="-0.52409">
        <ele>284.6</ele>
        <time>2012-02-11T16:04:18Z</time>
      </trkpt>
      <trkpt lat="48.66546" lon="-0.52415">
        <ele>284.8</ele>
        <time>2012-02-11T16:04:20Z</time>
      </trkpt>
      <trkpt lat="48.66553" lon="-0.52421">
        <ele>285</ele>
        <time>2012-02-11T16:04:22Z</time>
      </trkpt>
      <trkpt lat="48.66559" lon="-0.52427">
        <ele>285.2</ele>
        <time>2012-02-11T16:04:24Z</time>
      </trkpt>
      <trkpt lat="48.66565" lon="-0.52433">
        <ele>285.6</ele>
        <time>2012-02-11T16:04:26Z</time>
      </trkpt>
      <trkpt lat="48.66572" lon="-0.5244">
        <ele>286.1</ele>
        <time>2012-02-11T16:04:28Z</time>
      </trkpt>
      <trkpt lat="48.66578" lon="-0.52446">
        <ele>286.6</ele>
        <time>2012-02-11T16:04:30Z</time>
      </trkpt>
      <trkpt lat="48.66584" lon="-0.52452">
        <ele>286.6</ele>
        <time>2012-02-11T16:04:32Z</time>
      </trkpt>
      <trkpt lat="48.6659" lon="-0.5246">
        <ele>286.7</ele>
        <time>2012-02-11T16:04:34Z</time>
      </trkpt>
      <trkpt lat="48.66596" lon="-0.52467">
        <ele>286.7</ele>
        <time>2012-02-11T16:04:36Z</time>
      </trkpt>
      <trkpt lat="48.66602" lon="-0.52475">
        <ele>286.5</ele>
        <time>2012-02-11T16:04:38Z</time>
      </trkpt>
      <trkpt lat="48.66608" lon="-0.52483">
        <ele>286.5</ele>
        <time>2012-02-11T16:04:40Z</time>
      </trkpt>
      <trkpt lat="48.66614" lon="-0.5249">
        <ele>287.2</ele>
        <time>2012-02-11T16:04:42Z</time>
      </trkpt>
      <trkpt lat="48.6662" lon="-0.52498">
        <ele>287.7</ele>
        <time>2012-02-11T16:04:44Z</time>
      </trkpt>
      <trkpt lat="48.66626" lon="-0.52506">
        <ele>288.1</ele>
        <time>2012-02-11T16:04:46Z</time>
      </trkpt>
      <trkpt lat="48.66632" lon="-0.52513">
        <ele>288.3</ele>
        <time>2012-02-11T16:04:48Z</time>
      </trkpt>
      <trkpt lat="48.66638" lon="-0.52521">
        <ele>288.9</ele>
        <time>2012-02-11T16:04:50Z</time>
      </trkpt>
      <trkpt lat="48.66644" lon="-0.52529">
        <ele>289.2</ele>
        <time>2012-02-11T16:04:52Z</time>
      </trkpt>
      <trkpt lat="48.6665" lon="-0.52537">
        <ele>289.1</ele>
        <time>2012-02-11T16:04:54Z</time>
      </trkpt>
      <trkpt lat="48.66656" lon="-0.52544">
        <ele>289.2</ele>
        <time>2012-02-11T16:04:56Z</time>
      </trkpt>
      <trkpt lat="48.66661" lon="-0.52551">
        <ele>289.2</ele>
        <time>2012-02-11T16:04:58Z</time>
      </trkpt>
      <trkpt lat="48.66667" lon="-0.52559">
        <ele>289</ele>
        <time>2012-02-11T16:05:00Z</time>
      </trkpt>
      <trkpt lat="48.66673" lon="-0.52566">
        <ele>289</ele>
        <time>2012-02-11T16:05:02Z</time>
      </trkpt>
      <trkpt lat="48.66679" lon="-0.52574">
        <ele>288.8</ele>
        <time>2012-02-11T16:05:04Z</time>
      </trkpt>
      <trkpt lat="48.66685" lon="-0.52581">
        <ele>288.6</ele>
        <time>2012-02-11T16:05:06Z</time>
      </trkpt>
      <trkpt lat="48.66688" lon="-0.52585">
        <ele>288.4</ele>
        <time>2012-02-11T16:05:07Z</time>
      </trkpt>
      <trkpt lat="48.66697" lon="-0.52596">
        <ele>288.2</ele>
        <time>2012-02-11T16:05:10Z</time>
      </trkpt>
      <trkpt lat="48.66703" lon="-0.52604">
        <ele>288.9</ele>
        <time>2012-02-11T16:05:12Z</time>
      </trkpt>
      <trkpt lat="48.66709" lon="-0.5261">
        <ele>289</ele>
        <time>2012-02-11T16:05:14Z</time>
      </trkpt>
      <trkpt lat="48.66716" lon="-0.52616">
        <ele>288.7</ele>
        <time>2012-02-11T16:05:16Z</time>
      </trkpt>
      <trkpt lat="48.66722" lon="-0.52623">
        <ele>288.6</ele>
        <time>2012-02-11T16:05:18Z</time>
      </trkpt>
      <trkpt lat="48.66729" lon="-0.52629">
        <ele>289</ele>
        <time>2012-02-11T16:05:20Z</time>
      </trkpt>
      <trkpt lat="48.66737" lon="-0.52634">
        <ele>288.9</ele>
        <time>2012-02-11T16:05:22Z</time>
      </trkpt>
      <trkpt lat="48.66744" lon="-0.52642">
        <ele>288.4</ele>
        <time>2012-02-11T16:05:24Z</time>
      </trkpt>
      <trkpt lat="48.66749" lon="-0.52646">
        <ele>288.2</ele>
        <time>2012-02-11T16:05:25Z</time>
      </trkpt>
      <trkpt lat="48.66752" lon="-0.52651">
        <ele>287.9</ele>
        <time>2012-02-11T16:05:26Z</time>
      </trkpt>
      <trkpt lat="48.66756" lon="-0.52656">
        <ele>287.6</ele>
        <time>2012-02-11T16:05:27Z</time>
      </trkpt>
      <trkpt lat="48.6676" lon="-0.52662">
        <ele>287.3</ele>
        <time>2012-02-11T16:05:28Z</time>
      </trkpt>
      <trkpt lat="48.66763" lon="-0.52668">
        <ele>287</ele>
        <time>2012-02-11T16:05:29Z</time>
      </trkpt>
      <trkpt lat="48.66767" lon="-0.52674">
        <ele>286.5</ele>
        <time>2012-02-11T16:05:30Z</time>
      </trkpt>
      <trkpt lat="48.6677" lon="-0.5268">
        <ele>286.2</ele>
        <time>2012-02-11T16:05:31Z</time>
      </trkpt>
      <trkpt lat="48.66774" lon="-0.52686">
        <ele>285.9</ele>
        <time>2012-02-11T16:05:32Z</time>
      </trkpt>
      <trkpt lat="48.66777" lon="-0.52693">
        <ele>285.7</ele>
        <time>2012-02-11T16:05:33Z</time>
      </trkpt>
      <trkpt lat="48.6678" lon="-0.527">
        <ele>285.6</ele>
        <time>2012-02-11T16:05:34Z</time>
      </trkpt>
      <trkpt lat="48.66783" lon="-0.52706">
        <ele>285.4</ele>
        <time>2012-02-11T16:05:35Z</time>
      </trkpt>
      <trkpt lat="48.66786" lon="-0.52713">
        <ele>285.1</ele>
        <time>2012-02-11T16:05:36Z</time>
      </trkpt>
      <trkpt lat="48.66789" lon="-0.52719">
        <ele>285</ele>
        <time>2012-02-11T16:05:37Z</time>
      </trkpt>
      <trkpt lat="48.66792" lon="-0.52726">
        <ele>284.7</ele>
        <time>2012-02-11T16:05:38Z</time>
      </trkpt>
      <trkpt lat="48.66795" lon="-0.52732">
        <ele>284.5</ele>
        <time>2012-02-11T16:05:39Z</time>
      </trkpt>
      <trkpt lat="48.66799" lon="-0.52738">
        <ele>284.4</ele>
        <time>2012-02-11T16:05:40Z</time>
      </trkpt>
      <trkpt lat="48.66803" lon="-0.52744">
        <ele>284.3</ele>
        <time>2012-02-11T16:05:41Z</time>
      </trkpt>
      <trkpt lat="48.66806" lon="-0.52749">
        <ele>284.3</ele>
        <time>2012-02-11T16:05:42Z</time>
      </trkpt>
      <trkpt lat="48.6681" lon="-0.52755">
        <ele>284.3</ele>
        <time>2012-02-11T16:05:43Z</time>
      </trkpt>
      <trkpt lat="48.66814" lon="-0.5276">
        <ele>284.3</ele>
        <time>2012-02-11T16:05:44Z</time>
      </trkpt>
      <trkpt lat="48.66817" lon="-0.52765">
        <ele>283.9</ele>
        <time>2012-02-11T16:05:45Z</time>
      </trkpt>
      <trkpt lat="48.66821" lon="-0.5277">
        <ele>283.6</ele>
        <time>2012-02-11T16:05:46Z</time>
      </trkpt>
      <trkpt lat="48.66825" lon="-0.52774">
        <ele>283.5</ele>
        <time>2012-02-11T16:05:47Z</time>
      </trkpt>
      <trkpt lat="48.66828" lon="-0.52779">
        <ele>283.4</ele>
        <time>2012-02-11T16:05:48Z</time>
      </trkpt>
      <trkpt lat="48.66832" lon="-0.52785">
        <ele>283</ele>
        <time>2012-02-11T16:05:49Z</time>
      </trkpt>
      <trkpt lat="48.66835" lon="-0.5279">
        <ele>282.8</ele>
        <time>2012-02-11T16:05:50Z</time>
      </trkpt>
      <trkpt lat="48.66839" lon="-0.52795">
        <ele>282.6</ele>
        <time>2012-02-11T16:05:51Z</time>
      </trkpt>
      <trkpt lat="48.66842" lon="-0.528">
        <ele>282.4</ele>
        <time>2012-02-11T16:05:52Z</time>
      </trkpt>
      <trkpt lat="48.66846" lon="-0.52805">
        <ele>282.4</ele>
        <time>2012-02-11T16:05:53Z</time>
      </trkpt>
      <trkpt lat="48.66849" lon="-0.52809">
        <ele>282.4</ele>
        <time>2012-02-11T16:05:54Z</time>
      </trkpt>
      <trkpt lat="48.66853" lon="-0.52814">
        <ele>282.4</ele>
        <time>2012-02-11T16:05:55Z</time>
      </trkpt>
      <trkpt lat="48.66857" lon="-0.52819">
        <ele>282.3</ele>
        <time>2012-02-11T16:05:56Z</time>
      </trkpt>
      <trkpt lat="48.6686" lon="-0.52824">
        <ele>282.3</ele>
        <time>2012-02-11T16:05:57Z</time>
      </trkpt>
      <trkpt lat="48.66864" lon="-0.52829">
        <ele>282.3</ele>
        <time>2012-02-11T16:05:58Z</time>
      </trkpt>
      <trkpt lat="48.66868" lon="-0.52834">
        <ele>282.2</ele>
        <time>2012-02-11T16:05:59Z</time>
      </trkpt>
      <trkpt lat="48.66872" lon="-0.52839">
        <ele>282.1</ele>
        <time>2012-02-11T16:06:00Z</time>
      </trkpt>
      <trkpt lat="48.66875" lon="-0.52845">
        <ele>282</ele>
        <time>2012-02-11T16:06:01Z</time>
      </trkpt>
      <trkpt lat="48.66878" lon="-0.52851">
        <ele>281.9</ele>
        <time>2012-02-11T16:06:02Z</time>
      </trkpt>
      <trkpt lat="48.66882" lon="-0.52858">
        <ele>281.9</ele>
        <time>2012-02-11T16:06:03Z</time>
      </trkpt>
      <trkpt lat="48.66885" lon="-0.52864">
        <ele>281.5</ele>
        <time>2012-02-11T16:06:04Z</time>
      </trkpt>
      <trkpt lat="48.66888" lon="-0.52871">
        <ele>281.3</ele>
        <time>2012-02-11T16:06:05Z</time>
      </trkpt>
      <trkpt lat="48.66892" lon="-0.52877">
        <ele>281</ele>
        <time>2012-02-11T16:06:06Z</time>
      </trkpt>
      <trkpt lat="48.66895" lon="-0.52884">
        <ele>280.9</ele>
        <time>2012-02-11T16:06:07Z</time>
      </trkpt>
      <trkpt lat="48.66898" lon="-0.5289">
        <ele>280.6</ele>
        <time>2012-02-11T16:06:08Z</time>
      </trkpt>
      <trkpt lat="48.66902" lon="-0.52897">
        <ele>280.4</ele>
        <time>2012-02-11T16:06:09Z</time>
      </trkpt>
      <trkpt lat="48.66905" lon="-0.52903">
        <ele>280.2</ele>
        <time>2012-02-11T16:06:10Z</time>
      </trkpt>
      <trkpt lat="48.66909" lon="-0.52908">
        <ele>279.6</ele>
        <time>2012-02-11T16:06:11Z</time>
      </trkpt>
      <trkpt lat="48.66912" lon="-0.52914">
        <ele>279.1</ele>
        <time>2012-02-11T16:06:12Z</time>
      </trkpt>
      <trkpt lat="48.66916" lon="-0.52919">
        <ele>278.9</ele>
        <time>2012-02-11T16:06:13Z</time>
      </trkpt>
      <trkpt lat="48.6692" lon="-0.52924">
        <ele>278.6</ele>
        <time>2012-02-11T16:06:14Z</time>
      </trkpt>
      <trkpt lat="48.66925" lon="-0.52929">
        <ele>278.5</ele>
        <time>2012-02-11T16:06:15Z</time>
      </trkpt>
      <trkpt lat="48.66929" lon="-0.52935">
        <ele>278.4</ele>
        <time>2012-02-11T16:06:16Z</time>
      </trkpt>
      <trkpt lat="48.66933" lon="-0.5294">
        <ele>278.3</ele>
        <time>2012-02-11T16:06:17Z</time>
      </trkpt>
      <trkpt lat="48.66937" lon="-0.52945">
        <ele>277.8</ele>
        <time>2012-02-11T16:06:18Z</time>
      </trkpt>
      <trkpt lat="48.66941" lon="-0.5295">
        <ele>277.4</ele>
        <time>2012-02-11T16:06:19Z</time>
      </trkpt>
      <trkpt lat="48.66945" lon="-0.52955">
        <ele>277.3</ele>
        <time>2012-02-11T16:06:20Z</time>
      </trkpt>
      <trkpt lat="48.6695" lon="-0.5296">
        <ele>277.2</ele>
        <time>2012-02-11T16:06:21Z</time>
      </trkpt>
      <trkpt lat="48.66954" lon="-0.52965">
        <ele>277.1</ele>
        <time>2012-02-11T16:06:22Z</time>
      </trkpt>
      <trkpt lat="48.66959" lon="-0.5297">
        <ele>276.7</ele>
        <time>2012-02-11T16:06:23Z</time>
      </trkpt>
      <trkpt lat="48.66963" lon="-0.52976">
        <ele>276.4</ele>
        <time>2012-02-11T16:06:24Z</time>
      </trkpt>
      <trkpt lat="48.66967" lon="-0.52981">
        <ele>276.1</ele>
        <time>2012-02-11T16:06:25Z</time>
      </trkpt>
      <trkpt lat="48.66972" lon="-0.52986">
        <ele>275.9</ele>
        <time>2012-02-11T16:06:26Z</time>
      </trkpt>
      <trkpt lat="48.66976" lon="-0.52991">
        <ele>275.4</ele>
        <time>2012-02-11T16:06:27Z</time>
      </trkpt>
      <trkpt lat="48.6698" lon="-0.52996">
        <ele>274.9</ele>
        <time>2012-02-11T16:06:28Z</time>
      </trkpt>
      <trkpt lat="48.66984" lon="-0.53002">
        <ele>274.6</ele>
        <time>2012-02-11T16:06:29Z</time>
      </trkpt>
      <trkpt lat="48.66987" lon="-0.53008">
        <ele>274.4</ele>
        <time>2012-02-11T16:06:30Z</time>
      </trkpt>
      <trkpt lat="48.66991" lon="-0.53015">
        <ele>274.2</ele>
        <time>2012-02-11T16:06:31Z</time>
      </trkpt>
      <trkpt lat="48.66995" lon="-0.53021">
        <ele>273.5</ele>
        <time>2012-02-11T16:06:32Z</time>
      </trkpt>
      <trkpt lat="48.66999" lon="-0.53028">
        <ele>273.1</ele>
        <time>2012-02-11T16:06:33Z</time>
      </trkpt>
      <trkpt lat="48.67003" lon="-0.53035">
        <ele>272.7</ele>
        <time>2012-02-11T16:06:34Z</time>
      </trkpt>
      <trkpt lat="48.67007" lon="-0.53042">
        <ele>272.4</ele>
        <time>2012-02-11T16:06:35Z</time>
      </trkpt>
      <trkpt lat="48.67011" lon="-0.53048">
        <ele>272.2</ele>
        <time>2012-02-11T16:06:36Z</time>
      </trkpt>
      <trkpt lat="48.67015" lon="-0.53054">
        <ele>271.6</ele>
        <time>2012-02-11T16:06:37Z</time>
      </trkpt>
      <trkpt lat="48.67018" lon="-0.53059">
        <ele>271.1</ele>
        <time>2012-02-11T16:06:38Z</time>
      </trkpt>
      <trkpt lat="48.67024" lon="-0.53067">
        <ele>270.2</ele>
        <time>2012-02-11T16:06:40Z</time>
      </trkpt>
      <trkpt lat="48.67029" lon="-0.53073">
        <ele>269.3</ele>
        <time>2012-02-11T16:06:42Z</time>
      </trkpt>
      <trkpt lat="48.67035" lon="-0.53081">
        <ele>268.2</ele>
        <time>2012-02-11T16:06:45Z</time>
      </trkpt>
      <trkpt lat="48.67041" lon="-0.53091">
        <ele>267.3</ele>
        <time>2012-02-11T16:06:49Z</time>
      </trkpt>
      <trkpt lat="48.67047" lon="-0.53101">
        <ele>266.3</ele>
        <time>2012-02-11T16:06:53Z</time>
      </trkpt>
      <trkpt lat="48.67053" lon="-0.53111">
        <ele>266.2</ele>
        <time>2012-02-11T16:06:56Z</time>
      </trkpt>
      <trkpt lat="48.67057" lon="-0.53118">
        <ele>265.7</ele>
        <time>2012-02-11T16:06:58Z</time>
      </trkpt>
      <trkpt lat="48.67063" lon="-0.53126">
        <ele>265</ele>
        <time>2012-02-11T16:07:00Z</time>
      </trkpt>
      <trkpt lat="48.67068" lon="-0.53134">
        <ele>265.5</ele>
        <time>2012-02-11T16:07:02Z</time>
      </trkpt>
      <trkpt lat="48.67074" lon="-0.53144">
        <ele>265.4</ele>
        <time>2012-02-11T16:07:04Z</time>
      </trkpt>
      <trkpt lat="48.6708" lon="-0.53153">
        <ele>264.8</ele>
        <time>2012-02-11T16:07:06Z</time>
      </trkpt>
      <trkpt lat="48.67085" lon="-0.53163">
        <ele>264.5</ele>
        <time>2012-02-11T16:07:08Z</time>
      </trkpt>
      <trkpt lat="48.67088" lon="-0.53168">
        <ele>264.4</ele>
        <time>2012-02-11T16:07:09Z</time>
      </trkpt>
      <trkpt lat="48.67096" lon="-0.53183">
        <ele>263.6</ele>
        <time>2012-02-11T16:07:12Z</time>
      </trkpt>
      <trkpt lat="48.67101" lon="-0.53193">
        <ele>263.4</ele>
        <time>2012-02-11T16:07:14Z</time>
      </trkpt>
      <trkpt lat="48.67106" lon="-0.53204">
        <ele>263.5</ele>
        <time>2012-02-11T16:07:16Z</time>
      </trkpt>
      <trkpt lat="48.6711" lon="-0.53216">
        <ele>263.4</ele>
        <time>2012-02-11T16:07:18Z</time>
      </trkpt>
      <trkpt lat="48.67114" lon="-0.53227">
        <ele>263.3</ele>
        <time>2012-02-11T16:07:20Z</time>
      </trkpt>
      <trkpt lat="48.67119" lon="-0.53238">
        <ele>262.9</ele>
        <time>2012-02-11T16:07:22Z</time>
      </trkpt>
      <trkpt lat="48.67124" lon="-0.53249">
        <ele>262.3</ele>
        <time>2012-02-11T16:07:24Z</time>
      </trkpt>
      <trkpt lat="48.67129" lon="-0.5326">
        <ele>261.8</ele>
        <time>2012-02-11T16:07:26Z</time>
      </trkpt>
      <trkpt lat="48.67134" lon="-0.53271">
        <ele>261.8</ele>
        <time>2012-02-11T16:07:28Z</time>
      </trkpt>
      <trkpt lat="48.67139" lon="-0.5328">
        <ele>261.8</ele>
        <time>2012-02-11T16:07:30Z</time>
      </trkpt>
      <trkpt lat="48.67143" lon="-0.53288">
        <ele>261.5</ele>
        <time>2012-02-11T16:07:32Z</time>
      </trkpt>
      <trkpt lat="48.67148" lon="-0.53295">
        <ele>261.1</ele>
        <time>2012-02-11T16:07:34Z</time>
      </trkpt>
      <trkpt lat="48.67152" lon="-0.53303">
        <ele>261</ele>
        <time>2012-02-11T16:07:36Z</time>
      </trkpt>
      <trkpt lat="48.67157" lon="-0.53312">
        <ele>261</ele>
        <time>2012-02-11T16:07:38Z</time>
      </trkpt>
      <trkpt lat="48.67162" lon="-0.5332">
        <ele>260.3</ele>
        <time>2012-02-11T16:07:40Z</time>
      </trkpt>
      <trkpt lat="48.67166" lon="-0.53328">
        <ele>260.7</ele>
        <time>2012-02-11T16:07:42Z</time>
      </trkpt>
      <trkpt lat="48.6717" lon="-0.53337">
        <ele>260.3</ele>
        <time>2012-02-11T16:07:44Z</time>
      </trkpt>
      <trkpt lat="48.67174" lon="-0.53345">
        <ele>260.1</ele>
        <time>2012-02-11T16:07:46Z</time>
      </trkpt>
      <trkpt lat="48.67178" lon="-0.53353">
        <ele>260.2</ele>
        <time>2012-02-11T16:07:48Z</time>
      </trkpt>
      <trkpt lat="48.67182" lon="-0.53364">
        <ele>260.1</ele>
        <time>2012-02-11T16:07:50Z</time>
      </trkpt>
      <trkpt lat="48.67185" lon="-0.53374">
        <ele>259.6</ele>
        <time>2012-02-11T16:07:52Z</time>
      </trkpt>
      <trkpt lat="48.67188" lon="-0.53385">
        <ele>259.5</ele>
        <time>2012-02-11T16:07:54Z</time>
      </trkpt>
      <trkpt lat="48.67192" lon="-0.53397">
        <ele>259.2</ele>
        <time>2012-02-11T16:07:56Z</time>
      </trkpt>
      <trkpt lat="48.67196" lon="-0.53408">
        <ele>258.9</ele>
        <time>2012-02-11T16:07:58Z</time>
      </trkpt>
      <trkpt lat="48.67201" lon="-0.53419">
        <ele>258.4</ele>
        <time>2012-02-11T16:08:00Z</time>
      </trkpt>
      <trkpt lat="48.67208" lon="-0.53428">
        <ele>258</ele>
        <time>2012-02-11T16:08:02Z</time>
      </trkpt>
      <trkpt lat="48.67216" lon="-0.53435">
        <ele>257.7</ele>
        <time>2012-02-11T16:08:04Z</time>
      </trkpt>
      <trkpt lat="48.67223" lon="-0.5344">
        <ele>257.5</ele>
        <time>2012-02-11T16:08:06Z</time>
      </trkpt>
      <trkpt lat="48.67229" lon="-0.53446">
        <ele>256.9</ele>
        <time>2012-02-11T16:08:08Z</time>
      </trkpt>
      <trkpt lat="48.67235" lon="-0.53454">
        <ele>256.3</ele>
        <time>2012-02-11T16:08:11Z</time>
      </trkpt>
      <trkpt lat="48.67238" lon="-0.53457">
        <ele>255.6</ele>
        <time>2012-02-11T16:08:12Z</time>
      </trkpt>
      <trkpt lat="48.67245" lon="-0.53466">
        <ele>254.9</ele>
        <time>2012-02-11T16:08:15Z</time>
      </trkpt>
      <trkpt lat="48.67251" lon="-0.53474">
        <ele>255.1</ele>
        <time>2012-02-11T16:08:18Z</time>
      </trkpt>
      <trkpt lat="48.67256" lon="-0.53484">
        <ele>255.3</ele>
        <time>2012-02-11T16:08:22Z</time>
      </trkpt>
      <trkpt lat="48.67261" lon="-0.53492">
        <ele>254.1</ele>
        <time>2012-02-11T16:08:37Z</time>
      </trkpt>
      <trkpt lat="48.67267" lon="-0.53499">
        <ele>254.8</ele>
        <time>2012-02-11T16:08:40Z</time>
      </trkpt>
      <trkpt lat="48.67273" lon="-0.53508">
        <ele>254.5</ele>
        <time>2012-02-11T16:08:43Z</time>
      </trkpt>
      <trkpt lat="48.67279" lon="-0.53517">
        <ele>254.6</ele>
        <time>2012-02-11T16:08:46Z</time>
      </trkpt>
      <trkpt lat="48.67283" lon="-0.53524">
        <ele>255.1</ele>
        <time>2012-02-11T16:08:48Z</time>
      </trkpt>
      <trkpt lat="48.67288" lon="-0.53531">
        <ele>255.1</ele>
        <time>2012-02-11T16:08:50Z</time>
      </trkpt>
      <trkpt lat="48.67292" lon="-0.53539">
        <ele>255.1</ele>
        <time>2012-02-11T16:08:52Z</time>
      </trkpt>
      <trkpt lat="48.67297" lon="-0.53546">
        <ele>255.5</ele>
        <time>2012-02-11T16:08:54Z</time>
      </trkpt>
      <trkpt lat="48.67302" lon="-0.53554">
        <ele>255.7</ele>
        <time>2012-02-11T16:08:56Z</time>
      </trkpt>
      <trkpt lat="48.67307" lon="-0.53562">
        <ele>255.2</ele>
        <time>2012-02-11T16:08:58Z</time>
      </trkpt>
      <trkpt lat="48.67312" lon="-0.53572">
        <ele>254.4</ele>
        <time>2012-02-11T16:09:00Z</time>
      </trkpt>
      <trkpt lat="48.67317" lon="-0.53581">
        <ele>254.3</ele>
        <time>2012-02-11T16:09:02Z</time>
      </trkpt>
      <trkpt lat="48.67322" lon="-0.53591">
        <ele>254.5</ele>
        <time>2012-02-11T16:09:04Z</time>
      </trkpt>
      <trkpt lat="48.67326" lon="-0.53601">
        <ele>254.4</ele>
        <time>2012-02-11T16:09:06Z</time>
      </trkpt>
      <trkpt lat="48.6733" lon="-0.5361">
        <ele>254.4</ele>
        <time>2012-02-11T16:09:08Z</time>
      </trkpt>
      <trkpt lat="48.67334" lon="-0.53619">
        <ele>255</ele>
        <time>2012-02-11T16:09:10Z</time>
      </trkpt>
      <trkpt lat="48.67338" lon="-0.53629">
        <ele>255.1</ele>
        <time>2012-02-11T16:09:12Z</time>
      </trkpt>
      <trkpt lat="48.67342" lon="-0.53638">
        <ele>254.9</ele>
        <time>2012-02-11T16:09:14Z</time>
      </trkpt>
      <trkpt lat="48.67344" lon="-0.53642">
        <ele>254.8</ele>
        <time>2012-02-11T16:09:15Z</time>
      </trkpt>
      <trkpt lat="48.6735" lon="-0.53656">
        <ele>254.6</ele>
        <time>2012-02-11T16:09:18Z</time>
      </trkpt>
      <trkpt lat="48.67354" lon="-0.53665">
        <ele>254.6</ele>
        <time>2012-02-11T16:09:20Z</time>
      </trkpt>
      <trkpt lat="48.67359" lon="-0.53674">
        <ele>254.7</ele>
        <time>2012-02-11T16:09:22Z</time>
      </trkpt>
      <trkpt lat="48.67363" lon="-0.53683">
        <ele>255</ele>
        <time>2012-02-11T16:09:24Z</time>
      </trkpt>
      <trkpt lat="48.67367" lon="-0.53693">
        <ele>255</ele>
        <time>2012-02-11T16:09:26Z</time>
      </trkpt>
      <trkpt lat="48.67371" lon="-0.53702">
        <ele>255</ele>
        <time>2012-02-11T16:09:28Z</time>
      </trkpt>
      <trkpt lat="48.67376" lon="-0.53712">
        <ele>255.2</ele>
        <time>2012-02-11T16:09:30Z</time>
      </trkpt>
      <trkpt lat="48.67381" lon="-0.53721">
        <ele>255.3</ele>
        <time>2012-02-11T16:09:32Z</time>
      </trkpt>
      <trkpt lat="48.67387" lon="-0.53729">
        <ele>255</ele>
        <time>2012-02-11T16:09:34Z</time>
      </trkpt>
      <trkpt lat="48.67392" lon="-0.53737">
        <ele>255.3</ele>
        <time>2012-02-11T16:09:36Z</time>
      </trkpt>
      <trkpt lat="48.67397" lon="-0.53745">
        <ele>255.5</ele>
        <time>2012-02-11T16:09:38Z</time>
      </trkpt>
      <trkpt lat="48.67403" lon="-0.53753">
        <ele>255.8</ele>
        <time>2012-02-11T16:09:40Z</time>
      </trkpt>
      <trkpt lat="48.67408" lon="-0.53761">
        <ele>256.3</ele>
        <time>2012-02-11T16:09:42Z</time>
      </trkpt>
      <trkpt lat="48.67412" lon="-0.53769">
        <ele>256.6</ele>
        <time>2012-02-11T16:09:44Z</time>
      </trkpt>
      <trkpt lat="48.67417" lon="-0.53778">
        <ele>256.6</ele>
        <time>2012-02-11T16:09:46Z</time>
      </trkpt>
      <trkpt lat="48.67421" lon="-0.53788">
        <ele>256.5</ele>
        <time>2012-02-11T16:09:48Z</time>
      </trkpt>
      <trkpt lat="48.67425" lon="-0.53797">
        <ele>256.5</ele>
        <time>2012-02-11T16:09:50Z</time>
      </trkpt>
      <trkpt lat="48.67429" lon="-0.53807">
        <ele>256.8</ele>
        <time>2012-02-11T16:09:52Z</time>
      </trkpt>
      <trkpt lat="48.67433" lon="-0.53815">
        <ele>257.3</ele>
        <time>2012-02-11T16:09:54Z</time>
      </trkpt>
      <trkpt lat="48.67438" lon="-0.53822">
        <ele>257.7</ele>
        <time>2012-02-11T16:09:56Z</time>
      </trkpt>
      <trkpt lat="48.67443" lon="-0.53829">
        <ele>257.7</ele>
        <time>2012-02-11T16:09:58Z</time>
      </trkpt>
      <trkpt lat="48.67449" lon="-0.53836">
        <ele>258</ele>
        <time>2012-02-11T16:10:00Z</time>
      </trkpt>
      <trkpt lat="48.67454" lon="-0.53844">
        <ele>258.7</ele>
        <time>2012-02-11T16:10:02Z</time>
      </trkpt>
      <trkpt lat="48.67459" lon="-0.53851">
        <ele>258.8</ele>
        <time>2012-02-11T16:10:04Z</time>
      </trkpt>
      <trkpt lat="48.67464" lon="-0.53858">
        <ele>259</ele>
        <time>2012-02-11T16:10:06Z</time>
      </trkpt>
      <trkpt lat="48.67469" lon="-0.53866">
        <ele>259.2</ele>
        <time>2012-02-11T16:10:08Z</time>
      </trkpt>
      <trkpt lat="48.67474" lon="-0.53874">
        <ele>259.3</ele>
        <time>2012-02-11T16:10:10Z</time>
      </trkpt>
      <trkpt lat="48.67479" lon="-0.53883">
        <ele>259.4</ele>
        <time>2012-02-11T16:10:12Z</time>
      </trkpt>
      <trkpt lat="48.67485" lon="-0.53891">
        <ele>260.2</ele>
        <time>2012-02-11T16:10:14Z</time>
      </trkpt>
      <trkpt lat="48.6749" lon="-0.53898">
        <ele>260</ele>
        <time>2012-02-11T16:10:16Z</time>
      </trkpt>
      <trkpt lat="48.67492" lon="-0.53901">
        <ele>260</ele>
        <time>2012-02-11T16:10:17Z</time>
      </trkpt>
      <trkpt lat="48.67501" lon="-0.53913">
        <ele>260.1</ele>
        <time>2012-02-11T16:10:20Z</time>
      </trkpt>
      <trkpt lat="48.67506" lon="-0.53922">
        <ele>260.2</ele>
        <time>2012-02-11T16:10:22Z</time>
      </trkpt>
      <trkpt lat="48.67511" lon="-0.53931">
        <ele>260.6</ele>
        <time>2012-02-11T16:10:24Z</time>
      </trkpt>
      <trkpt lat="48.67516" lon="-0.5394">
        <ele>261.4</ele>
        <time>2012-02-11T16:10:26Z</time>
      </trkpt>
      <trkpt lat="48.6752" lon="-0.5395">
        <ele>261.3</ele>
        <time>2012-02-11T16:10:28Z</time>
      </trkpt>
      <trkpt lat="48.67525" lon="-0.53959">
        <ele>261.2</ele>
        <time>2012-02-11T16:10:30Z</time>
      </trkpt>
      <trkpt lat="48.67529" lon="-0.53969">
        <ele>261</ele>
        <time>2012-02-11T16:10:32Z</time>
      </trkpt>
      <trkpt lat="48.67534" lon="-0.53978">
        <ele>261</ele>
        <time>2012-02-11T16:10:34Z</time>
      </trkpt>
      <trkpt lat="48.67539" lon="-0.53988">
        <ele>261</ele>
        <time>2012-02-11T16:10:36Z</time>
      </trkpt>
      <trkpt lat="48.67543" lon="-0.53997">
        <ele>261.1</ele>
        <time>2012-02-11T16:10:38Z</time>
      </trkpt>
      <trkpt lat="48.67548" lon="-0.54005">
        <ele>260.4</ele>
        <time>2012-02-11T16:10:40Z</time>
      </trkpt>
      <trkpt lat="48.67553" lon="-0.54014">
        <ele>260.6</ele>
        <time>2012-02-11T16:10:42Z</time>
      </trkpt>
      <trkpt lat="48.67559" lon="-0.54022">
        <ele>260.6</ele>
        <time>2012-02-11T16:10:44Z</time>
      </trkpt>
      <trkpt lat="48.67564" lon="-0.54029">
        <ele>260.4</ele>
        <time>2012-02-11T16:10:46Z</time>
      </trkpt>
      <trkpt lat="48.67569" lon="-0.54038">
        <ele>260.6</ele>
        <time>2012-02-11T16:10:48Z</time>
      </trkpt>
      <trkpt lat="48.67574" lon="-0.54046">
        <ele>261</ele>
        <time>2012-02-11T16:10:50Z</time>
      </trkpt>
      <trkpt lat="48.67578" lon="-0.54055">
        <ele>260.6</ele>
        <time>2012-02-11T16:10:52Z</time>
      </trkpt>
      <trkpt lat="48.67582" lon="-0.54063">
        <ele>260.7</ele>
        <time>2012-02-11T16:10:54Z</time>
      </trkpt>
      <trkpt lat="48.67586" lon="-0.54072">
        <ele>260.6</ele>
        <time>2012-02-11T16:10:56Z</time>
      </trkpt>
      <trkpt lat="48.6759" lon="-0.54079">
        <ele>260.8</ele>
        <time>2012-02-11T16:10:58Z</time>
      </trkpt>
      <trkpt lat="48.67595" lon="-0.54086">
        <ele>261.2</ele>
        <time>2012-02-11T16:11:00Z</time>
      </trkpt>
      <trkpt lat="48.676" lon="-0.54095">
        <ele>261.6</ele>
        <time>2012-02-11T16:11:02Z</time>
      </trkpt>
      <trkpt lat="48.67605" lon="-0.54102">
        <ele>261.5</ele>
        <time>2012-02-11T16:11:04Z</time>
      </trkpt>
      <trkpt lat="48.67609" lon="-0.5411">
        <ele>261.9</ele>
        <time>2012-02-11T16:11:06Z</time>
      </trkpt>
      <trkpt lat="48.67613" lon="-0.54117">
        <ele>261.8</ele>
        <time>2012-02-11T16:11:08Z</time>
      </trkpt>
      <trkpt lat="48.67617" lon="-0.54126">
        <ele>261.9</ele>
        <time>2012-02-11T16:11:10Z</time>
      </trkpt>
      <trkpt lat="48.67621" lon="-0.54134">
        <ele>262</ele>
        <time>2012-02-11T16:11:12Z</time>
      </trkpt>
      <trkpt lat="48.67626" lon="-0.54142">
        <ele>262.1</ele>
        <time>2012-02-11T16:11:14Z</time>
      </trkpt>
      <trkpt lat="48.67631" lon="-0.5415">
        <ele>262</ele>
        <time>2012-02-11T16:11:16Z</time>
      </trkpt>
      <trkpt lat="48.67636" lon="-0.54157">
        <ele>262.4</ele>
        <time>2012-02-11T16:11:18Z</time>
      </trkpt>
      <trkpt lat="48.67638" lon="-0.54161">
        <ele>262.4</ele>
        <time>2012-02-11T16:11:19Z</time>
      </trkpt>
      <trkpt lat="48.67645" lon="-0.54173">
        <ele>262.7</ele>
        <time>2012-02-11T16:11:22Z</time>
      </trkpt>
      <trkpt lat="48.6765" lon="-0.54181">
        <ele>262.7</ele>
        <time>2012-02-11T16:11:24Z</time>
      </trkpt>
      <trkpt lat="48.67655" lon="-0.54189">
        <ele>262.8</ele>
        <time>2012-02-11T16:11:26Z</time>
      </trkpt>
      <trkpt lat="48.6766" lon="-0.54197">
        <ele>262.9</ele>
        <time>2012-02-11T16:11:28Z</time>
      </trkpt>
      <trkpt lat="48.67663" lon="-0.54206">
        <ele>262.9</ele>
        <time>2012-02-11T16:11:30Z</time>
      </trkpt>
      <trkpt lat="48.67668" lon="-0.54215">
        <ele>262.8</ele>
        <time>2012-02-11T16:11:32Z</time>
      </trkpt>
      <trkpt lat="48.67672" lon="-0.54223">
        <ele>263</ele>
        <time>2012-02-11T16:11:34Z</time>
      </trkpt>
      <trkpt lat="48.67676" lon="-0.54232">
        <ele>263.4</ele>
        <time>2012-02-11T16:11:36Z</time>
      </trkpt>
      <trkpt lat="48.6768" lon="-0.5424">
        <ele>263.4</ele>
        <time>2012-02-11T16:11:38Z</time>
      </trkpt>
      <trkpt lat="48.67685" lon="-0.54248">
        <ele>263.1</ele>
        <time>2012-02-11T16:11:40Z</time>
      </trkpt>
      <trkpt lat="48.67689" lon="-0.54256">
        <ele>263.3</ele>
        <time>2012-02-11T16:11:42Z</time>
      </trkpt>
      <trkpt lat="48.67693" lon="-0.54265">
        <ele>263.9</ele>
        <time>2012-02-11T16:11:44Z</time>
      </trkpt>
      <trkpt lat="48.67698" lon="-0.54274">
        <ele>264.1</ele>
        <time>2012-02-11T16:11:46Z</time>
      </trkpt>
      <trkpt lat="48.67702" lon="-0.54284">
        <ele>264.1</ele>
        <time>2012-02-11T16:11:48Z</time>
      </trkpt>
      <trkpt lat="48.67707" lon="-0.54292">
        <ele>264.2</ele>
        <time>2012-02-11T16:11:50Z</time>
      </trkpt>
      <trkpt lat="48.67711" lon="-0.54302">
        <ele>264</ele>
        <time>2012-02-11T16:11:52Z</time>
      </trkpt>
      <trkpt lat="48.67715" lon="-0.54311">
        <ele>263.7</ele>
        <time>2012-02-11T16:11:54Z</time>
      </trkpt>
      <trkpt lat="48.67719" lon="-0.54321">
        <ele>263.7</ele>
        <time>2012-02-11T16:11:56Z</time>
      </trkpt>
      <trkpt lat="48.67723" lon="-0.54332">
        <ele>263.5</ele>
        <time>2012-02-11T16:11:58Z</time>
      </trkpt>
      <trkpt lat="48.67726" lon="-0.54344">
        <ele>263.5</ele>
        <time>2012-02-11T16:12:00Z</time>
      </trkpt>
      <trkpt lat="48.6773" lon="-0.54355">
        <ele>263.8</ele>
        <time>2012-02-11T16:12:02Z</time>
      </trkpt>
      <trkpt lat="48.67733" lon="-0.54366">
        <ele>263.9</ele>
        <time>2012-02-11T16:12:04Z</time>
      </trkpt>
      <trkpt lat="48.67735" lon="-0.54377">
        <ele>263.9</ele>
        <time>2012-02-11T16:12:06Z</time>
      </trkpt>
      <trkpt lat="48.67738" lon="-0.54386">
        <ele>264.5</ele>
        <time>2012-02-11T16:12:08Z</time>
      </trkpt>
      <trkpt lat="48.67741" lon="-0.54399">
        <ele>263.9</ele>
        <time>2012-02-11T16:12:11Z</time>
      </trkpt>
      <trkpt lat="48.67737" lon="-0.54409">
        <ele>262.9</ele>
        <time>2012-02-11T16:12:15Z</time>
      </trkpt>
      <trkpt lat="48.6773" lon="-0.54413">
        <ele>263.7</ele>
        <time>2012-02-11T16:12:18Z</time>
      </trkpt>
      <trkpt lat="48.67722" lon="-0.54416">
        <ele>264.3</ele>
        <time>2012-02-11T16:12:21Z</time>
      </trkpt>
      <trkpt lat="48.6772" lon="-0.54417">
        <ele>264.4</ele>
        <time>2012-02-11T16:12:22Z</time>
      </trkpt>
      <trkpt lat="48.67708" lon="-0.54422">
        <ele>264.6</ele>
        <time>2012-02-11T16:12:27Z</time>
      </trkpt>
      <trkpt lat="48.677" lon="-0.54426">
        <ele>265.6</ele>
        <time>2012-02-11T16:12:30Z</time>
      </trkpt>
      <trkpt lat="48.67693" lon="-0.54428">
        <ele>266</ele>
        <time>2012-02-11T16:12:33Z</time>
      </trkpt>
      <trkpt lat="48.67685" lon="-0.5443">
        <ele>265.8</ele>
        <time>2012-02-11T16:12:36Z</time>
      </trkpt>
      <trkpt lat="48.67677" lon="-0.54433">
        <ele>266.8</ele>
        <time>2012-02-11T16:12:39Z</time>
      </trkpt>
      <trkpt lat="48.67669" lon="-0.54435">
        <ele>267.4</ele>
        <time>2012-02-11T16:12:42Z</time>
      </trkpt>
      <trkpt lat="48.6766" lon="-0.54436">
        <ele>267.6</ele>
        <time>2012-02-11T16:12:45Z</time>
      </trkpt>
      <trkpt lat="48.67652" lon="-0.54439">
        <ele>267.7</ele>
        <time>2012-02-11T16:12:48Z</time>
      </trkpt>
      <trkpt lat="48.67643" lon="-0.54441">
        <ele>267.6</ele>
        <time>2012-02-11T16:12:51Z</time>
      </trkpt>
      <trkpt lat="48.67635" lon="-0.54444">
        <ele>267.8</ele>
        <time>2012-02-11T16:12:54Z</time>
      </trkpt>
      <trkpt lat="48.67628" lon="-0.54446">
        <ele>268.1</ele>
        <time>2012-02-11T16:12:56Z</time>
      </trkpt>
      <trkpt lat="48.67621" lon="-0.54448">
        <ele>268.1</ele>
        <time>2012-02-11T16:12:58Z</time>
      </trkpt>
      <trkpt lat="48.67614" lon="-0.54451">
        <ele>267.8</ele>
        <time>2012-02-11T16:13:00Z</time>
      </trkpt>
      <trkpt lat="48.67608" lon="-0.54452">
        <ele>267.3</ele>
        <time>2012-02-11T16:13:02Z</time>
      </trkpt>
      <trkpt lat="48.67601" lon="-0.54454">
        <ele>267.1</ele>
        <time>2012-02-11T16:13:04Z</time>
      </trkpt>
      <trkpt lat="48.67594" lon="-0.54456">
        <ele>267.7</ele>
        <time>2012-02-11T16:13:06Z</time>
      </trkpt>
      <trkpt lat="48.67587" lon="-0.54457">
        <ele>268.3</ele>
        <time>2012-02-11T16:13:08Z</time>
      </trkpt>
      <trkpt lat="48.67579" lon="-0.54458">
        <ele>268.5</ele>
        <time>2012-02-11T16:13:10Z</time>
      </trkpt>
      <trkpt lat="48.67571" lon="-0.54459">
        <ele>267.7</ele>
        <time>2012-02-11T16:13:12Z</time>
      </trkpt>
      <trkpt lat="48.67564" lon="-0.54461">
        <ele>267.1</ele>
        <time>2012-02-11T16:13:14Z</time>
      </trkpt>
      <trkpt lat="48.67557" lon="-0.54462">
        <ele>267.1</ele>
        <time>2012-02-11T16:13:16Z</time>
      </trkpt>
      <trkpt lat="48.67548" lon="-0.54463">
        <ele>267.1</ele>
        <time>2012-02-11T16:13:19Z</time>
      </trkpt>
      <trkpt lat="48.6754" lon="-0.54464">
        <ele>266.9</ele>
        <time>2012-02-11T16:13:22Z</time>
      </trkpt>
      <trkpt lat="48.67538" lon="-0.54465">
        <ele>266.9</ele>
        <time>2012-02-11T16:13:23Z</time>
      </trkpt>
      <trkpt lat="48.67526" lon="-0.54468">
        <ele>266.6</ele>
        <time>2012-02-11T16:13:27Z</time>
      </trkpt>
      <trkpt lat="48.6752" lon="-0.54469">
        <ele>266.8</ele>
        <time>2012-02-11T16:13:29Z</time>
      </trkpt>
      <trkpt lat="48.67514" lon="-0.5447">
        <ele>266</ele>
        <time>2012-02-11T16:13:31Z</time>
      </trkpt>
      <trkpt lat="48.67505" lon="-0.54472">
        <ele>265.7</ele>
        <time>2012-02-11T16:13:34Z</time>
      </trkpt>
      <trkpt lat="48.67497" lon="-0.54473">
        <ele>265.9</ele>
        <time>2012-02-11T16:13:36Z</time>
      </trkpt>
      <trkpt lat="48.67491" lon="-0.54474">
        <ele>265.8</ele>
        <time>2012-02-11T16:13:38Z</time>
      </trkpt>
      <trkpt lat="48.67484" lon="-0.54475">
        <ele>265.2</ele>
        <time>2012-02-11T16:13:40Z</time>
      </trkpt>
      <trkpt lat="48.67475" lon="-0.54476">
        <ele>264.3</ele>
        <time>2012-02-11T16:13:43Z</time>
      </trkpt>
      <trkpt lat="48.67468" lon="-0.54477">
        <ele>263.5</ele>
        <time>2012-02-11T16:13:45Z</time>
      </trkpt>
      <trkpt lat="48.67461" lon="-0.54478">
        <ele>263.6</ele>
        <time>2012-02-11T16:13:47Z</time>
      </trkpt>
      <trkpt lat="48.67454" lon="-0.54479">
        <ele>263.5</ele>
        <time>2012-02-11T16:13:49Z</time>
      </trkpt>
      <trkpt lat="48.67447" lon="-0.54481">
        <ele>263.3</ele>
        <time>2012-02-11T16:13:51Z</time>
      </trkpt>
      <trkpt lat="48.67441" lon="-0.54483">
        <ele>263</ele>
        <time>2012-02-11T16:13:53Z</time>
      </trkpt>
      <trkpt lat="48.67434" lon="-0.54485">
        <ele>262.7</ele>
        <time>2012-02-11T16:13:55Z</time>
      </trkpt>
      <trkpt lat="48.67425" lon="-0.54487">
        <ele>261.9</ele>
        <time>2012-02-11T16:13:57Z</time>
      </trkpt>
      <trkpt lat="48.67417" lon="-0.54488">
        <ele>261.9</ele>
        <time>2012-02-11T16:13:59Z</time>
      </trkpt>
      <trkpt lat="48.67409" lon="-0.54489">
        <ele>261.9</ele>
        <time>2012-02-11T16:14:01Z</time>
      </trkpt>
      <trkpt lat="48.67401" lon="-0.54491">
        <ele>261.8</ele>
        <time>2012-02-11T16:14:03Z</time>
      </trkpt>
      <trkpt lat="48.67393" lon="-0.54493">
        <ele>261.2</ele>
        <time>2012-02-11T16:14:05Z</time>
      </trkpt>
      <trkpt lat="48.67385" lon="-0.54493">
        <ele>260.5</ele>
        <time>2012-02-11T16:14:07Z</time>
      </trkpt>
      <trkpt lat="48.67378" lon="-0.54495">
        <ele>259.9</ele>
        <time>2012-02-11T16:14:09Z</time>
      </trkpt>
      <trkpt lat="48.67371" lon="-0.54497">
        <ele>259.3</ele>
        <time>2012-02-11T16:14:11Z</time>
      </trkpt>
      <trkpt lat="48.67364" lon="-0.54498">
        <ele>259.4</ele>
        <time>2012-02-11T16:14:13Z</time>
      </trkpt>
      <trkpt lat="48.67356" lon="-0.545">
        <ele>259.2</ele>
        <time>2012-02-11T16:14:15Z</time>
      </trkpt>
      <trkpt lat="48.67348" lon="-0.54501">
        <ele>258.9</ele>
        <time>2012-02-11T16:14:17Z</time>
      </trkpt>
      <trkpt lat="48.67342" lon="-0.54502">
        <ele>258.6</ele>
        <time>2012-02-11T16:14:19Z</time>
      </trkpt>
      <trkpt lat="48.67333" lon="-0.54499">
        <ele>257.4</ele>
        <time>2012-02-11T16:14:23Z</time>
      </trkpt>
      <trkpt lat="48.67332" lon="-0.54498">
        <ele>257.5</ele>
        <time>2012-02-11T16:14:24Z</time>
      </trkpt>
      <trkpt lat="48.67328" lon="-0.54477">
        <ele>256.7</ele>
        <time>2012-02-11T16:14:35Z</time>
      </trkpt>
      <trkpt lat="48.67327" lon="-0.54467">
        <ele>257.1</ele>
        <time>2012-02-11T16:14:38Z</time>
      </trkpt>
      <trkpt lat="48.67326" lon="-0.54458">
        <ele>256.7</ele>
        <time>2012-02-11T16:14:40Z</time>
      </trkpt>
      <trkpt lat="48.67324" lon="-0.54447">
        <ele>256.3</ele>
        <time>2012-02-11T16:14:42Z</time>
      </trkpt>
      <trkpt lat="48.67322" lon="-0.54435">
        <ele>255.1</ele>
        <time>2012-02-11T16:14:44Z</time>
      </trkpt>
      <trkpt lat="48.6732" lon="-0.54423">
        <ele>254.5</ele>
        <time>2012-02-11T16:14:46Z</time>
      </trkpt>
      <trkpt lat="48.67319" lon="-0.54412">
        <ele>254</ele>
        <time>2012-02-11T16:14:48Z</time>
      </trkpt>
      <trkpt lat="48.67317" lon="-0.54401">
        <ele>253.7</ele>
        <time>2012-02-11T16:14:50Z</time>
      </trkpt>
      <trkpt lat="48.67315" lon="-0.54391">
        <ele>253.7</ele>
        <time>2012-02-11T16:14:52Z</time>
      </trkpt>
      <trkpt lat="48.67313" lon="-0.5438">
        <ele>253.3</ele>
        <time>2012-02-11T16:14:54Z</time>
      </trkpt>
      <trkpt lat="48.67312" lon="-0.54371">
        <ele>252.5</ele>
        <time>2012-02-11T16:14:56Z</time>
      </trkpt>
      <trkpt lat="48.6731" lon="-0.54362">
        <ele>252.1</ele>
        <time>2012-02-11T16:14:58Z</time>
      </trkpt>
      <trkpt lat="48.67308" lon="-0.54353">
        <ele>252.6</ele>
        <time>2012-02-11T16:15:00Z</time>
      </trkpt>
      <trkpt lat="48.67307" lon="-0.54343">
        <ele>253.2</ele>
        <time>2012-02-11T16:15:02Z</time>
      </trkpt>
      <trkpt lat="48.67305" lon="-0.54334">
        <ele>253.4</ele>
        <time>2012-02-11T16:15:04Z</time>
      </trkpt>
      <trkpt lat="48.67304" lon="-0.54325">
        <ele>254.1</ele>
        <time>2012-02-11T16:15:06Z</time>
      </trkpt>
      <trkpt lat="48.67302" lon="-0.54316">
        <ele>254.2</ele>
        <time>2012-02-11T16:15:08Z</time>
      </trkpt>
      <trkpt lat="48.673" lon="-0.54303">
        <ele>254.2</ele>
        <time>2012-02-11T16:15:11Z</time>
      </trkpt>
      <trkpt lat="48.67299" lon="-0.54294">
        <ele>254.5</ele>
        <time>2012-02-11T16:15:13Z</time>
      </trkpt>
      <trkpt lat="48.67298" lon="-0.54285">
        <ele>255.4</ele>
        <time>2012-02-11T16:15:15Z</time>
      </trkpt>
      <trkpt lat="48.67296" lon="-0.54276">
        <ele>255.7</ele>
        <time>2012-02-11T16:15:17Z</time>
      </trkpt>
      <trkpt lat="48.67295" lon="-0.54267">
        <ele>255.7</ele>
        <time>2012-02-11T16:15:19Z</time>
      </trkpt>
      <trkpt lat="48.67293" lon="-0.54254">
        <ele>255.5</ele>
        <time>2012-02-11T16:15:22Z</time>
      </trkpt>
      <trkpt lat="48.67291" lon="-0.54245">
        <ele>255.7</ele>
        <time>2012-02-11T16:15:24Z</time>
      </trkpt>
      <trkpt lat="48.67289" lon="-0.54232">
        <ele>255.9</ele>
        <time>2012-02-11T16:15:27Z</time>
      </trkpt>
      <trkpt lat="48.67289" lon="-0.54227">
        <ele>256</ele>
        <time>2012-02-11T16:15:28Z</time>
      </trkpt>
      <trkpt lat="48.67286" lon="-0.54214">
        <ele>256.3</ele>
        <time>2012-02-11T16:15:31Z</time>
      </trkpt>
      <trkpt lat="48.67284" lon="-0.54205">
        <ele>256.5</ele>
        <time>2012-02-11T16:15:33Z</time>
      </trkpt>
      <trkpt lat="48.67283" lon="-0.54197">
        <ele>256.5</ele>
        <time>2012-02-11T16:15:35Z</time>
      </trkpt>
      <trkpt lat="48.67281" lon="-0.54188">
        <ele>256.9</ele>
        <time>2012-02-11T16:15:37Z</time>
      </trkpt>
      <trkpt lat="48.67278" lon="-0.54179">
        <ele>257.2</ele>
        <time>2012-02-11T16:15:39Z</time>
      </trkpt>
      <trkpt lat="48.67277" lon="-0.54171">
        <ele>257.2</ele>
        <time>2012-02-11T16:15:41Z</time>
      </trkpt>
      <trkpt lat="48.67275" lon="-0.54162">
        <ele>257.3</ele>
        <time>2012-02-11T16:15:43Z</time>
      </trkpt>
      <trkpt lat="48.67272" lon="-0.54153">
        <ele>257.6</ele>
        <time>2012-02-11T16:15:45Z</time>
      </trkpt>
      <trkpt lat="48.6727" lon="-0.54145">
        <ele>257.6</ele>
        <time>2012-02-11T16:15:47Z</time>
      </trkpt>
      <trkpt lat="48.67267" lon="-0.54132">
        <ele>257.2</ele>
        <time>2012-02-11T16:15:50Z</time>
      </trkpt>
      <trkpt lat="48.67264" lon="-0.5412">
        <ele>256.8</ele>
        <time>2012-02-11T16:15:53Z</time>
      </trkpt>
      <trkpt lat="48.67261" lon="-0.54108">
        <ele>257</ele>
        <time>2012-02-11T16:15:56Z</time>
      </trkpt>
      <trkpt lat="48.67258" lon="-0.54097">
        <ele>257.5</ele>
        <time>2012-02-11T16:15:59Z</time>
      </trkpt>
      <trkpt lat="48.67254" lon="-0.54086">
        <ele>257.8</ele>
        <time>2012-02-11T16:16:02Z</time>
      </trkpt>
      <trkpt lat="48.67251" lon="-0.54075">
        <ele>257.2</ele>
        <time>2012-02-11T16:16:05Z</time>
      </trkpt>
      <trkpt lat="48.67246" lon="-0.54065">
        <ele>257.5</ele>
        <time>2012-02-11T16:16:08Z</time>
      </trkpt>
      <trkpt lat="48.67241" lon="-0.54057">
        <ele>256.8</ele>
        <time>2012-02-11T16:16:11Z</time>
      </trkpt>
      <trkpt lat="48.67234" lon="-0.54051">
        <ele>256</ele>
        <time>2012-02-11T16:16:14Z</time>
      </trkpt>
      <trkpt lat="48.67226" lon="-0.54047">
        <ele>255.7</ele>
        <time>2012-02-11T16:16:17Z</time>
      </trkpt>
      <trkpt lat="48.67219" lon="-0.54045">
        <ele>254.9</ele>
        <time>2012-02-11T16:16:19Z</time>
      </trkpt>
      <trkpt lat="48.67212" lon="-0.54044">
        <ele>254.7</ele>
        <time>2012-02-11T16:16:21Z</time>
      </trkpt>
      <trkpt lat="48.67205" lon="-0.54041">
        <ele>254.6</ele>
        <time>2012-02-11T16:16:23Z</time>
      </trkpt>
      <trkpt lat="48.67198" lon="-0.54038">
        <ele>254</ele>
        <time>2012-02-11T16:16:25Z</time>
      </trkpt>
      <trkpt lat="48.6719" lon="-0.54036">
        <ele>253.3</ele>
        <time>2012-02-11T16:16:27Z</time>
      </trkpt>
      <trkpt lat="48.67187" lon="-0.54035">
        <ele>253.1</ele>
        <time>2012-02-11T16:16:28Z</time>
      </trkpt>
      <trkpt lat="48.67176" lon="-0.54032">
        <ele>252.8</ele>
        <time>2012-02-11T16:16:31Z</time>
      </trkpt>
      <trkpt lat="48.67168" lon="-0.5403">
        <ele>252.7</ele>
        <time>2012-02-11T16:16:33Z</time>
      </trkpt>
      <trkpt lat="48.6716" lon="-0.54028">
        <ele>252.3</ele>
        <time>2012-02-11T16:16:35Z</time>
      </trkpt>
      <trkpt lat="48.67152" lon="-0.54025">
        <ele>252</ele>
        <time>2012-02-11T16:16:37Z</time>
      </trkpt>
      <trkpt lat="48.67143" lon="-0.54023">
        <ele>251.8</ele>
        <time>2012-02-11T16:16:39Z</time>
      </trkpt>
      <trkpt lat="48.67139" lon="-0.54022">
        <ele>251.8</ele>
        <time>2012-02-11T16:16:40Z</time>
      </trkpt>
      <trkpt lat="48.67134" lon="-0.54021">
        <ele>251.7</ele>
        <time>2012-02-11T16:16:41Z</time>
      </trkpt>
      <trkpt lat="48.67129" lon="-0.5402">
        <ele>251.3</ele>
        <time>2012-02-11T16:16:42Z</time>
      </trkpt>
      <trkpt lat="48.67124" lon="-0.54019">
        <ele>250.9</ele>
        <time>2012-02-11T16:16:43Z</time>
      </trkpt>
      <trkpt lat="48.67118" lon="-0.54018">
        <ele>250.4</ele>
        <time>2012-02-11T16:16:44Z</time>
      </trkpt>
      <trkpt lat="48.67112" lon="-0.54017">
        <ele>250.1</ele>
        <time>2012-02-11T16:16:45Z</time>
      </trkpt>
      <trkpt lat="48.67106" lon="-0.54017">
        <ele>249.8</ele>
        <time>2012-02-11T16:16:46Z</time>
      </trkpt>
      <trkpt lat="48.671" lon="-0.54016">
        <ele>249.3</ele>
        <time>2012-02-11T16:16:47Z</time>
      </trkpt>
      <trkpt lat="48.67094" lon="-0.54016">
        <ele>249</ele>
        <time>2012-02-11T16:16:48Z</time>
      </trkpt>
      <trkpt lat="48.67089" lon="-0.54016">
        <ele>248.9</ele>
        <time>2012-02-11T16:16:49Z</time>
      </trkpt>
      <trkpt lat="48.67084" lon="-0.54016">
        <ele>248.8</ele>
        <time>2012-02-11T16:16:50Z</time>
      </trkpt>
      <trkpt lat="48.67075" lon="-0.54017">
        <ele>248.4</ele>
        <time>2012-02-11T16:16:52Z</time>
      </trkpt>
      <trkpt lat="48.67067" lon="-0.54017">
        <ele>248.1</ele>
        <time>2012-02-11T16:16:54Z</time>
      </trkpt>
      <trkpt lat="48.6706" lon="-0.54018">
        <ele>248.1</ele>
        <time>2012-02-11T16:16:56Z</time>
      </trkpt>
      <trkpt lat="48.67054" lon="-0.54019">
        <ele>248.4</ele>
        <time>2012-02-11T16:16:58Z</time>
      </trkpt>
      <trkpt lat="48.67047" lon="-0.5402">
        <ele>249.1</ele>
        <time>2012-02-11T16:17:00Z</time>
      </trkpt>
      <trkpt lat="48.67041" lon="-0.5402">
        <ele>249.5</ele>
        <time>2012-02-11T16:17:02Z</time>
      </trkpt>
      <trkpt lat="48.67035" lon="-0.5402">
        <ele>249.3</ele>
        <time>2012-02-11T16:17:04Z</time>
      </trkpt>
      <trkpt lat="48.67029" lon="-0.5402">
        <ele>249.2</ele>
        <time>2012-02-11T16:17:06Z</time>
      </trkpt>
      <trkpt lat="48.6702" lon="-0.54017">
        <ele>249.9</ele>
        <time>2012-02-11T16:17:09Z</time>
      </trkpt>
      <trkpt lat="48.67012" lon="-0.54011">
        <ele>249.9</ele>
        <time>2012-02-11T16:17:12Z</time>
      </trkpt>
      <trkpt lat="48.67007" lon="-0.54007">
        <ele>249.9</ele>
        <time>2012-02-11T16:17:14Z</time>
      </trkpt>
      <trkpt lat="48.67002" lon="-0.54001">
        <ele>249.5</ele>
        <time>2012-02-11T16:17:16Z</time>
      </trkpt>
      <trkpt lat="48.66996" lon="-0.53996">
        <ele>249.9</ele>
        <time>2012-02-11T16:17:18Z</time>
      </trkpt>
      <trkpt lat="48.66991" lon="-0.53991">
        <ele>250.3</ele>
        <time>2012-02-11T16:17:20Z</time>
      </trkpt>
      <trkpt lat="48.66986" lon="-0.53986">
        <ele>250.1</ele>
        <time>2012-02-11T16:17:22Z</time>
      </trkpt>
      <trkpt lat="48.66981" lon="-0.53981">
        <ele>249.7</ele>
        <time>2012-02-11T16:17:24Z</time>
      </trkpt>
      <trkpt lat="48.66975" lon="-0.53975">
        <ele>250.5</ele>
        <time>2012-02-11T16:17:26Z</time>
      </trkpt>
      <trkpt lat="48.6697" lon="-0.53969">
        <ele>250.4</ele>
        <time>2012-02-11T16:17:28Z</time>
      </trkpt>
      <trkpt lat="48.66964" lon="-0.53963">
        <ele>249.8</ele>
        <time>2012-02-11T16:17:30Z</time>
      </trkpt>
      <trkpt lat="48.66961" lon="-0.5396">
        <ele>249.7</ele>
        <time>2012-02-11T16:17:31Z</time>
      </trkpt>
      <trkpt lat="48.66951" lon="-0.5395">
        <ele>249.8</ele>
        <time>2012-02-11T16:17:34Z</time>
      </trkpt>
      <trkpt lat="48.66943" lon="-0.53943">
        <ele>249.5</ele>
        <time>2012-02-11T16:17:36Z</time>
      </trkpt>
      <trkpt lat="48.66939" lon="-0.53939">
        <ele>249.4</ele>
        <time>2012-02-11T16:17:37Z</time>
      </trkpt>
      <trkpt lat="48.66931" lon="-0.53934">
        <ele>249.1</ele>
        <time>2012-02-11T16:17:39Z</time>
      </trkpt>
      <trkpt lat="48.66923" lon="-0.53935">
        <ele>248.9</ele>
        <time>2012-02-11T16:17:41Z</time>
      </trkpt>
      <trkpt lat="48.66918" lon="-0.53942">
        <ele>248.8</ele>
        <time>2012-02-11T16:17:43Z</time>
      </trkpt>
      <trkpt lat="48.66911" lon="-0.53948">
        <ele>249</ele>
        <time>2012-02-11T16:17:46Z</time>
      </trkpt>
      <trkpt lat="48.66905" lon="-0.53952">
        <ele>247.8</ele>
        <time>2012-02-11T16:17:49Z</time>
      </trkpt>
      <trkpt lat="48.66897" lon="-0.53955">
        <ele>246.9</ele>
        <time>2012-02-11T16:17:52Z</time>
      </trkpt>
      <trkpt lat="48.66888" lon="-0.53953">
        <ele>246.2</ele>
        <time>2012-02-11T16:17:55Z</time>
      </trkpt>
      <trkpt lat="48.66882" lon="-0.53952">
        <ele>246.2</ele>
        <time>2012-02-11T16:17:57Z</time>
      </trkpt>
      <trkpt lat="48.66875" lon="-0.53951">
        <ele>246.3</ele>
        <time>2012-02-11T16:17:59Z</time>
      </trkpt>
      <trkpt lat="48.66867" lon="-0.5395">
        <ele>245.9</ele>
        <time>2012-02-11T16:18:01Z</time>
      </trkpt>
      <trkpt lat="48.6686" lon="-0.53948">
        <ele>245.9</ele>
        <time>2012-02-11T16:18:03Z</time>
      </trkpt>
      <trkpt lat="48.66853" lon="-0.53948">
        <ele>245.9</ele>
        <time>2012-02-11T16:18:05Z</time>
      </trkpt>
      <trkpt lat="48.66847" lon="-0.53947">
        <ele>245.7</ele>
        <time>2012-02-11T16:18:07Z</time>
      </trkpt>
      <trkpt lat="48.6684" lon="-0.53944">
        <ele>245.5</ele>
        <time>2012-02-11T16:18:09Z</time>
      </trkpt>
      <trkpt lat="48.66832" lon="-0.53941">
        <ele>245</ele>
        <time>2012-02-11T16:18:11Z</time>
      </trkpt>
      <trkpt lat="48.66825" lon="-0.53938">
        <ele>244.8</ele>
        <time>2012-02-11T16:18:13Z</time>
      </trkpt>
      <trkpt lat="48.66817" lon="-0.53934">
        <ele>244.7</ele>
        <time>2012-02-11T16:18:15Z</time>
      </trkpt>
      <trkpt lat="48.66808" lon="-0.53931">
        <ele>244.6</ele>
        <time>2012-02-11T16:18:17Z</time>
      </trkpt>
      <trkpt lat="48.66804" lon="-0.53928">
        <ele>244.6</ele>
        <time>2012-02-11T16:18:18Z</time>
      </trkpt>
      <trkpt lat="48.668" lon="-0.53926">
        <ele>244</ele>
        <time>2012-02-11T16:18:19Z</time>
      </trkpt>
      <trkpt lat="48.66795" lon="-0.53923">
        <ele>243.5</ele>
        <time>2012-02-11T16:18:20Z</time>
      </trkpt>
      <trkpt lat="48.6679" lon="-0.5392">
        <ele>243.1</ele>
        <time>2012-02-11T16:18:21Z</time>
      </trkpt>
      <trkpt lat="48.66786" lon="-0.53917">
        <ele>243</ele>
        <time>2012-02-11T16:18:22Z</time>
      </trkpt>
      <trkpt lat="48.66781" lon="-0.53914">
        <ele>242.9</ele>
        <time>2012-02-11T16:18:23Z</time>
      </trkpt>
      <trkpt lat="48.66776" lon="-0.53911">
        <ele>242.4</ele>
        <time>2012-02-11T16:18:24Z</time>
      </trkpt>
      <trkpt lat="48.66771" lon="-0.53907">
        <ele>242</ele>
        <time>2012-02-11T16:18:25Z</time>
      </trkpt>
      <trkpt lat="48.66765" lon="-0.53903">
        <ele>241.3</ele>
        <time>2012-02-11T16:18:26Z</time>
      </trkpt>
      <trkpt lat="48.6676" lon="-0.539">
        <ele>240.8</ele>
        <time>2012-02-11T16:18:27Z</time>
      </trkpt>
      <trkpt lat="48.66755" lon="-0.53895">
        <ele>240.5</ele>
        <time>2012-02-11T16:18:28Z</time>
      </trkpt>
      <trkpt lat="48.66749" lon="-0.53891">
        <ele>239.8</ele>
        <time>2012-02-11T16:18:29Z</time>
      </trkpt>
      <trkpt lat="48.66744" lon="-0.53887">
        <ele>239.4</ele>
        <time>2012-02-11T16:18:30Z</time>
      </trkpt>
      <trkpt lat="48.66738" lon="-0.53883">
        <ele>238.9</ele>
        <time>2012-02-11T16:18:31Z</time>
      </trkpt>
      <trkpt lat="48.66733" lon="-0.53878">
        <ele>238.5</ele>
        <time>2012-02-11T16:18:32Z</time>
      </trkpt>
      <trkpt lat="48.66728" lon="-0.53874">
        <ele>237.8</ele>
        <time>2012-02-11T16:18:33Z</time>
      </trkpt>
      <trkpt lat="48.66723" lon="-0.5387">
        <ele>237.4</ele>
        <time>2012-02-11T16:18:34Z</time>
      </trkpt>
      <trkpt lat="48.66718" lon="-0.53866">
        <ele>237</ele>
        <time>2012-02-11T16:18:35Z</time>
      </trkpt>
      <trkpt lat="48.66713" lon="-0.53861">
        <ele>235.8</ele>
        <time>2012-02-11T16:18:36Z</time>
      </trkpt>
      <trkpt lat="48.66708" lon="-0.53859">
        <ele>235</ele>
        <time>2012-02-11T16:18:37Z</time>
      </trkpt>
      <trkpt lat="48.66704" lon="-0.53856">
        <ele>234.2</ele>
        <time>2012-02-11T16:18:38Z</time>
      </trkpt>
      <trkpt lat="48.667" lon="-0.53852">
        <ele>233.7</ele>
        <time>2012-02-11T16:18:39Z</time>
      </trkpt>
      <trkpt lat="48.66695" lon="-0.53848">
        <ele>233.3</ele>
        <time>2012-02-11T16:18:40Z</time>
      </trkpt>
      <trkpt lat="48.6669" lon="-0.53845">
        <ele>232.3</ele>
        <time>2012-02-11T16:18:41Z</time>
      </trkpt>
      <trkpt lat="48.66685" lon="-0.53843">
        <ele>231.5</ele>
        <time>2012-02-11T16:18:42Z</time>
      </trkpt>
      <trkpt lat="48.66681" lon="-0.53842">
        <ele>230.6</ele>
        <time>2012-02-11T16:18:43Z</time>
      </trkpt>
      <trkpt lat="48.66676" lon="-0.5384">
        <ele>229.9</ele>
        <time>2012-02-11T16:18:44Z</time>
      </trkpt>
      <trkpt lat="48.66672" lon="-0.53837">
        <ele>229.2</ele>
        <time>2012-02-11T16:18:45Z</time>
      </trkpt>
      <trkpt lat="48.66668" lon="-0.53833">
        <ele>228.7</ele>
        <time>2012-02-11T16:18:46Z</time>
      </trkpt>
      <trkpt lat="48.66664" lon="-0.53828">
        <ele>228.3</ele>
        <time>2012-02-11T16:18:47Z</time>
      </trkpt>
      <trkpt lat="48.6666" lon="-0.53824">
        <ele>227.6</ele>
        <time>2012-02-11T16:18:48Z</time>
      </trkpt>
      <trkpt lat="48.66651" lon="-0.53823">
        <ele>226.6</ele>
        <time>2012-02-11T16:18:50Z</time>
      </trkpt>
      <trkpt lat="48.66645" lon="-0.53831">
        <ele>225.6</ele>
        <time>2012-02-11T16:18:52Z</time>
      </trkpt>
      <trkpt lat="48.66639" lon="-0.53839">
        <ele>224.9</ele>
        <time>2012-02-11T16:18:54Z</time>
      </trkpt>
      <trkpt lat="48.66632" lon="-0.53846">
        <ele>224.5</ele>
        <time>2012-02-11T16:18:56Z</time>
      </trkpt>
      <trkpt lat="48.66625" lon="-0.53854">
        <ele>223.6</ele>
        <time>2012-02-11T16:18:58Z</time>
      </trkpt>
      <trkpt lat="48.66618" lon="-0.53863">
        <ele>223.2</ele>
        <time>2012-02-11T16:19:00Z</time>
      </trkpt>
      <trkpt lat="48.66612" lon="-0.53871">
        <ele>222.9</ele>
        <time>2012-02-11T16:19:02Z</time>
      </trkpt>
      <trkpt lat="48.66607" lon="-0.53878">
        <ele>222.7</ele>
        <time>2012-02-11T16:19:04Z</time>
      </trkpt>
      <trkpt lat="48.66601" lon="-0.53882">
        <ele>222.7</ele>
        <time>2012-02-11T16:19:06Z</time>
      </trkpt>
      <trkpt lat="48.66595" lon="-0.53891">
        <ele>222.3</ele>
        <time>2012-02-11T16:19:09Z</time>
      </trkpt>
      <trkpt lat="48.66594" lon="-0.539">
        <ele>222</ele>
        <time>2012-02-11T16:19:11Z</time>
      </trkpt>
      <trkpt lat="48.66591" lon="-0.5391">
        <ele>222.4</ele>
        <time>2012-02-11T16:19:13Z</time>
      </trkpt>
      <trkpt lat="48.66589" lon="-0.53921">
        <ele>222.6</ele>
        <time>2012-02-11T16:19:15Z</time>
      </trkpt>
      <trkpt lat="48.66587" lon="-0.53931">
        <ele>222.8</ele>
        <time>2012-02-11T16:19:17Z</time>
      </trkpt>
      <trkpt lat="48.66585" lon="-0.53942">
        <ele>223.1</ele>
        <time>2012-02-11T16:19:19Z</time>
      </trkpt>
      <trkpt lat="48.66583" lon="-0.53952">
        <ele>223.5</ele>
        <time>2012-02-11T16:19:21Z</time>
      </trkpt>
      <trkpt lat="48.66581" lon="-0.53962">
        <ele>223.6</ele>
        <time>2012-02-11T16:19:23Z</time>
      </trkpt>
      <trkpt lat="48.6658" lon="-0.53971">
        <ele>223.7</ele>
        <time>2012-02-11T16:19:25Z</time>
      </trkpt>
      <trkpt lat="48.66578" lon="-0.53981">
        <ele>223.7</ele>
        <time>2012-02-11T16:19:27Z</time>
      </trkpt>
      <trkpt lat="48.66576" lon="-0.53991">
        <ele>224.9</ele>
        <time>2012-02-11T16:19:29Z</time>
      </trkpt>
      <trkpt lat="48.66575" lon="-0.54002">
        <ele>225.4</ele>
        <time>2012-02-11T16:19:31Z</time>
      </trkpt>
      <trkpt lat="48.66574" lon="-0.54012">
        <ele>225.5</ele>
        <time>2012-02-11T16:19:33Z</time>
      </trkpt>
      <trkpt lat="48.66573" lon="-0.54017">
        <ele>225.5</ele>
        <time>2012-02-11T16:19:34Z</time>
      </trkpt>
      <trkpt lat="48.66571" lon="-0.54032">
        <ele>226.2</ele>
        <time>2012-02-11T16:19:37Z</time>
      </trkpt>
      <trkpt lat="48.66569" lon="-0.54042">
        <ele>226.8</ele>
        <time>2012-02-11T16:19:39Z</time>
      </trkpt>
      <trkpt lat="48.66567" lon="-0.54053">
        <ele>226.8</ele>
        <time>2012-02-11T16:19:41Z</time>
      </trkpt>
      <trkpt lat="48.66566" lon="-0.54063">
        <ele>226.9</ele>
        <time>2012-02-11T16:19:43Z</time>
      </trkpt>
      <trkpt lat="48.66565" lon="-0.54073">
        <ele>227.5</ele>
        <time>2012-02-11T16:19:45Z</time>
      </trkpt>
      <trkpt lat="48.66563" lon="-0.54083">
        <ele>227.8</ele>
        <time>2012-02-11T16:19:47Z</time>
      </trkpt>
      <trkpt lat="48.66562" lon="-0.54094">
        <ele>227.7</ele>
        <time>2012-02-11T16:19:49Z</time>
      </trkpt>
      <trkpt lat="48.66561" lon="-0.54105">
        <ele>227.6</ele>
        <time>2012-02-11T16:19:51Z</time>
      </trkpt>
      <trkpt lat="48.6656" lon="-0.54117">
        <ele>228</ele>
        <time>2012-02-11T16:19:53Z</time>
      </trkpt>
      <trkpt lat="48.66559" lon="-0.54128">
        <ele>228.4</ele>
        <time>2012-02-11T16:19:55Z</time>
      </trkpt>
      <trkpt lat="48.66557" lon="-0.54138">
        <ele>229</ele>
        <time>2012-02-11T16:19:57Z</time>
      </trkpt>
      <trkpt lat="48.66556" lon="-0.54149">
        <ele>229.9</ele>
        <time>2012-02-11T16:19:59Z</time>
      </trkpt>
      <trkpt lat="48.66555" lon="-0.5416">
        <ele>230.2</ele>
        <time>2012-02-11T16:20:01Z</time>
      </trkpt>
      <trkpt lat="48.66554" lon="-0.54171">
        <ele>229.9</ele>
        <time>2012-02-11T16:20:03Z</time>
      </trkpt>
      <trkpt lat="48.66552" lon="-0.54181">
        <ele>230.4</ele>
        <time>2012-02-11T16:20:05Z</time>
      </trkpt>
      <trkpt lat="48.66551" lon="-0.54191">
        <ele>230.6</ele>
        <time>2012-02-11T16:20:07Z</time>
      </trkpt>
      <trkpt lat="48.6655" lon="-0.54202">
        <ele>230.9</ele>
        <time>2012-02-11T16:20:09Z</time>
      </trkpt>
      <trkpt lat="48.66548" lon="-0.54212">
        <ele>231.1</ele>
        <time>2012-02-11T16:20:11Z</time>
      </trkpt>
      <trkpt lat="48.66547" lon="-0.54223">
        <ele>231.6</ele>
        <time>2012-02-11T16:20:13Z</time>
      </trkpt>
      <trkpt lat="48.66546" lon="-0.54233">
        <ele>232.1</ele>
        <time>2012-02-11T16:20:15Z</time>
      </trkpt>
      <trkpt lat="48.66545" lon="-0.54243">
        <ele>232.4</ele>
        <time>2012-02-11T16:20:17Z</time>
      </trkpt>
      <trkpt lat="48.66543" lon="-0.54252">
        <ele>232.7</ele>
        <time>2012-02-11T16:20:19Z</time>
      </trkpt>
      <trkpt lat="48.6654" lon="-0.54263">
        <ele>233.5</ele>
        <time>2012-02-11T16:20:22Z</time>
      </trkpt>
      <trkpt lat="48.66531" lon="-0.54267">
        <ele>233.6</ele>
        <time>2012-02-11T16:20:25Z</time>
      </trkpt>
      <trkpt lat="48.66524" lon="-0.5427">
        <ele>233.4</ele>
        <time>2012-02-11T16:20:27Z</time>
      </trkpt>
      <trkpt lat="48.66519" lon="-0.54271">
        <ele>233.2</ele>
        <time>2012-02-11T16:20:28Z</time>
      </trkpt>
      <trkpt lat="48.66515" lon="-0.54273">
        <ele>233.1</ele>
        <time>2012-02-11T16:20:29Z</time>
      </trkpt>
      <trkpt lat="48.6651" lon="-0.54275">
        <ele>233</ele>
        <time>2012-02-11T16:20:30Z</time>
      </trkpt>
      <trkpt lat="48.66506" lon="-0.54277">
        <ele>232.9</ele>
        <time>2012-02-11T16:20:31Z</time>
      </trkpt>
      <trkpt lat="48.66502" lon="-0.5428">
        <ele>232.5</ele>
        <time>2012-02-11T16:20:32Z</time>
      </trkpt>
      <trkpt lat="48.66497" lon="-0.54282">
        <ele>232.2</ele>
        <time>2012-02-11T16:20:33Z</time>
      </trkpt>
      <trkpt lat="48.66492" lon="-0.54283">
        <ele>232</ele>
        <time>2012-02-11T16:20:34Z</time>
      </trkpt>
      <trkpt lat="48.66486" lon="-0.54285">
        <ele>231.6</ele>
        <time>2012-02-11T16:20:35Z</time>
      </trkpt>
      <trkpt lat="48.66481" lon="-0.54286">
        <ele>231.2</ele>
        <time>2012-02-11T16:20:36Z</time>
      </trkpt>
      <trkpt lat="48.66476" lon="-0.54288">
        <ele>230.7</ele>
        <time>2012-02-11T16:20:37Z</time>
      </trkpt>
      <trkpt lat="48.6647" lon="-0.5429">
        <ele>230.3</ele>
        <time>2012-02-11T16:20:38Z</time>
      </trkpt>
      <trkpt lat="48.66465" lon="-0.54291">
        <ele>229.6</ele>
        <time>2012-02-11T16:20:39Z</time>
      </trkpt>
      <trkpt lat="48.6646" lon="-0.54292">
        <ele>229.1</ele>
        <time>2012-02-11T16:20:40Z</time>
      </trkpt>
      <trkpt lat="48.66455" lon="-0.54293">
        <ele>228.8</ele>
        <time>2012-02-11T16:20:41Z</time>
      </trkpt>
      <trkpt lat="48.6645" lon="-0.54294">
        <ele>227.9</ele>
        <time>2012-02-11T16:20:42Z</time>
      </trkpt>
      <trkpt lat="48.66445" lon="-0.54295">
        <ele>227.3</ele>
        <time>2012-02-11T16:20:43Z</time>
      </trkpt>
      <trkpt lat="48.6644" lon="-0.54294">
        <ele>227</ele>
        <time>2012-02-11T16:20:44Z</time>
      </trkpt>
      <trkpt lat="48.66435" lon="-0.54294">
        <ele>226.8</ele>
        <time>2012-02-11T16:20:45Z</time>
      </trkpt>
      <trkpt lat="48.6643" lon="-0.54293">
        <ele>226.1</ele>
        <time>2012-02-11T16:20:46Z</time>
      </trkpt>
      <trkpt lat="48.66425" lon="-0.54293">
        <ele>225.5</ele>
        <time>2012-02-11T16:20:47Z</time>
      </trkpt>
      <trkpt lat="48.66419" lon="-0.54292">
        <ele>225.1</ele>
        <time>2012-02-11T16:20:48Z</time>
      </trkpt>
      <trkpt lat="48.66413" lon="-0.54292">
        <ele>224.5</ele>
        <time>2012-02-11T16:20:49Z</time>
      </trkpt>
      <trkpt lat="48.66408" lon="-0.54291">
        <ele>224.1</ele>
        <time>2012-02-11T16:20:50Z</time>
      </trkpt>
      <trkpt lat="48.66402" lon="-0.5429">
        <ele>223.7</ele>
        <time>2012-02-11T16:20:51Z</time>
      </trkpt>
      <trkpt lat="48.66397" lon="-0.54291">
        <ele>223.4</ele>
        <time>2012-02-11T16:20:52Z</time>
      </trkpt>
      <trkpt lat="48.66391" lon="-0.54291">
        <ele>222.5</ele>
        <time>2012-02-11T16:20:53Z</time>
      </trkpt>
      <trkpt lat="48.66386" lon="-0.54293">
        <ele>221.7</ele>
        <time>2012-02-11T16:20:54Z</time>
      </trkpt>
      <trkpt lat="48.66381" lon="-0.54293">
        <ele>221.2</ele>
        <time>2012-02-11T16:20:55Z</time>
      </trkpt>
      <trkpt lat="48.66375" lon="-0.54293">
        <ele>220.9</ele>
        <time>2012-02-11T16:20:56Z</time>
      </trkpt>
      <trkpt lat="48.6637" lon="-0.54294">
        <ele>220.6</ele>
        <time>2012-02-11T16:20:57Z</time>
      </trkpt>
      <trkpt lat="48.66365" lon="-0.54294">
        <ele>220</ele>
        <time>2012-02-11T16:20:58Z</time>
      </trkpt>
      <trkpt lat="48.6636" lon="-0.54294">
        <ele>219.5</ele>
        <time>2012-02-11T16:20:59Z</time>
      </trkpt>
      <trkpt lat="48.66355" lon="-0.54293">
        <ele>219.2</ele>
        <time>2012-02-11T16:21:00Z</time>
      </trkpt>
      <trkpt lat="48.6635" lon="-0.54293">
        <ele>219.3</ele>
        <time>2012-02-11T16:21:01Z</time>
      </trkpt>
      <trkpt lat="48.66345" lon="-0.54293">
        <ele>219.4</ele>
        <time>2012-02-11T16:21:02Z</time>
      </trkpt>
      <trkpt lat="48.66339" lon="-0.54293">
        <ele>218.6</ele>
        <time>2012-02-11T16:21:03Z</time>
      </trkpt>
      <trkpt lat="48.66334" lon="-0.54293">
        <ele>218</ele>
        <time>2012-02-11T16:21:04Z</time>
      </trkpt>
      <trkpt lat="48.66329" lon="-0.54294">
        <ele>217.6</ele>
        <time>2012-02-11T16:21:05Z</time>
      </trkpt>
      <trkpt lat="48.66324" lon="-0.54295">
        <ele>217.4</ele>
        <time>2012-02-11T16:21:06Z</time>
      </trkpt>
      <trkpt lat="48.66319" lon="-0.54296">
        <ele>217.2</ele>
        <time>2012-02-11T16:21:07Z</time>
      </trkpt>
      <trkpt lat="48.66313" lon="-0.54297">
        <ele>217.2</ele>
        <time>2012-02-11T16:21:08Z</time>
      </trkpt>
      <trkpt lat="48.66308" lon="-0.54297">
        <ele>217.2</ele>
        <time>2012-02-11T16:21:09Z</time>
      </trkpt>
      <trkpt lat="48.66302" lon="-0.54297">
        <ele>216.8</ele>
        <time>2012-02-11T16:21:10Z</time>
      </trkpt>
      <trkpt lat="48.66297" lon="-0.54297">
        <ele>216.6</ele>
        <time>2012-02-11T16:21:11Z</time>
      </trkpt>
      <trkpt lat="48.66291" lon="-0.54298">
        <ele>216.2</ele>
        <time>2012-02-11T16:21:12Z</time>
      </trkpt>
      <trkpt lat="48.66286" lon="-0.54299">
        <ele>215.9</ele>
        <time>2012-02-11T16:21:13Z</time>
      </trkpt>
      <trkpt lat="48.66281" lon="-0.543">
        <ele>215.7</ele>
        <time>2012-02-11T16:21:14Z</time>
      </trkpt>
      <trkpt lat="48.66276" lon="-0.54302">
        <ele>215.9</ele>
        <time>2012-02-11T16:21:15Z</time>
      </trkpt>
      <trkpt lat="48.66271" lon="-0.54303">
        <ele>216</ele>
        <time>2012-02-11T16:21:16Z</time>
      </trkpt>
      <trkpt lat="48.66266" lon="-0.54304">
        <ele>215.5</ele>
        <time>2012-02-11T16:21:17Z</time>
      </trkpt>
      <trkpt lat="48.66261" lon="-0.54304">
        <ele>215.2</ele>
        <time>2012-02-11T16:21:18Z</time>
      </trkpt>
      <trkpt lat="48.66256" lon="-0.54304">
        <ele>215</ele>
        <time>2012-02-11T16:21:19Z</time>
      </trkpt>
      <trkpt lat="48.66251" lon="-0.54306">
        <ele>214.7</ele>
        <time>2012-02-11T16:21:20Z</time>
      </trkpt>
      <trkpt lat="48.66246" lon="-0.54306">
        <ele>214.5</ele>
        <time>2012-02-11T16:21:21Z</time>
      </trkpt>
      <trkpt lat="48.66241" lon="-0.54307">
        <ele>214</ele>
        <time>2012-02-11T16:21:22Z</time>
      </trkpt>
      <trkpt lat="48.66236" lon="-0.54308">
        <ele>213.6</ele>
        <time>2012-02-11T16:21:23Z</time>
      </trkpt>
      <trkpt lat="48.66231" lon="-0.54309">
        <ele>213.6</ele>
        <time>2012-02-11T16:21:24Z</time>
      </trkpt>
      <trkpt lat="48.66225" lon="-0.54309">
        <ele>213.7</ele>
        <time>2012-02-11T16:21:25Z</time>
      </trkpt>
      <trkpt lat="48.6622" lon="-0.5431">
        <ele>213.7</ele>
        <time>2012-02-11T16:21:26Z</time>
      </trkpt>
      <trkpt lat="48.66215" lon="-0.5431">
        <ele>213.6</ele>
        <time>2012-02-11T16:21:27Z</time>
      </trkpt>
      <trkpt lat="48.6621" lon="-0.54311">
        <ele>213.5</ele>
        <time>2012-02-11T16:21:28Z</time>
      </trkpt>
      <trkpt lat="48.66205" lon="-0.54312">
        <ele>213.2</ele>
        <time>2012-02-11T16:21:29Z</time>
      </trkpt>
      <trkpt lat="48.662" lon="-0.54313">
        <ele>213</ele>
        <time>2012-02-11T16:21:30Z</time>
      </trkpt>
      <trkpt lat="48.66194" lon="-0.54313">
        <ele>212.3</ele>
        <time>2012-02-11T16:21:31Z</time>
      </trkpt>
      <trkpt lat="48.66189" lon="-0.54314">
        <ele>211.7</ele>
        <time>2012-02-11T16:21:32Z</time>
      </trkpt>
      <trkpt lat="48.66184" lon="-0.54315">
        <ele>211.3</ele>
        <time>2012-02-11T16:21:33Z</time>
      </trkpt>
      <trkpt lat="48.66179" lon="-0.54315">
        <ele>211.3</ele>
        <time>2012-02-11T16:21:34Z</time>
      </trkpt>
      <trkpt lat="48.66174" lon="-0.54316">
        <ele>211.3</ele>
        <time>2012-02-11T16:21:35Z</time>
      </trkpt>
      <trkpt lat="48.66169" lon="-0.54317">
        <ele>211.2</ele>
        <time>2012-02-11T16:21:36Z</time>
      </trkpt>
      <trkpt lat="48.66163" lon="-0.54317">
        <ele>211.2</ele>
        <time>2012-02-11T16:21:37Z</time>
      </trkpt>
      <trkpt lat="48.66158" lon="-0.54318">
        <ele>211.2</ele>
        <time>2012-02-11T16:21:38Z</time>
      </trkpt>
      <trkpt lat="48.66153" lon="-0.54319">
        <ele>211</ele>
        <time>2012-02-11T16:21:39Z</time>
      </trkpt>
      <trkpt lat="48.66145" lon="-0.5432">
        <ele>210.5</ele>
        <time>2012-02-11T16:21:41Z</time>
      </trkpt>
      <trkpt lat="48.66137" lon="-0.54322">
        <ele>210.3</ele>
        <time>2012-02-11T16:21:43Z</time>
      </trkpt>
      <trkpt lat="48.66132" lon="-0.54332">
        <ele>210.2</ele>
        <time>2012-02-11T16:21:46Z</time>
      </trkpt>
      <trkpt lat="48.66131" lon="-0.54342">
        <ele>209.6</ele>
        <time>2012-02-11T16:21:48Z</time>
      </trkpt>
      <trkpt lat="48.66131" lon="-0.54353">
        <ele>209.5</ele>
        <time>2012-02-11T16:21:50Z</time>
      </trkpt>
      <trkpt lat="48.66131" lon="-0.54365">
        <ele>209.8</ele>
        <time>2012-02-11T16:21:52Z</time>
      </trkpt>
      <trkpt lat="48.66131" lon="-0.54377">
        <ele>209.2</ele>
        <time>2012-02-11T16:21:54Z</time>
      </trkpt>
      <trkpt lat="48.66131" lon="-0.54389">
        <ele>209.6</ele>
        <time>2012-02-11T16:21:56Z</time>
      </trkpt>
      <trkpt lat="48.6613" lon="-0.54401">
        <ele>209.4</ele>
        <time>2012-02-11T16:21:58Z</time>
      </trkpt>
      <trkpt lat="48.6613" lon="-0.54413">
        <ele>208.9</ele>
        <time>2012-02-11T16:22:00Z</time>
      </trkpt>
      <trkpt lat="48.66129" lon="-0.54426">
        <ele>208.7</ele>
        <time>2012-02-11T16:22:02Z</time>
      </trkpt>
      <trkpt lat="48.66127" lon="-0.54439">
        <ele>208.4</ele>
        <time>2012-02-11T16:22:04Z</time>
      </trkpt>
      <trkpt lat="48.66127" lon="-0.54445">
        <ele>208.1</ele>
        <time>2012-02-11T16:22:05Z</time>
      </trkpt>
      <trkpt lat="48.66126" lon="-0.54452">
        <ele>207.8</ele>
        <time>2012-02-11T16:22:06Z</time>
      </trkpt>
      <trkpt lat="48.66125" lon="-0.54459">
        <ele>207.6</ele>
        <time>2012-02-11T16:22:07Z</time>
      </trkpt>
      <trkpt lat="48.66124" lon="-0.54472">
        <ele>207.3</ele>
        <time>2012-02-11T16:22:09Z</time>
      </trkpt>
      <trkpt lat="48.66121" lon="-0.54485">
        <ele>207.1</ele>
        <time>2012-02-11T16:22:11Z</time>
      </trkpt>
      <trkpt lat="48.66118" lon="-0.54497">
        <ele>207.2</ele>
        <time>2012-02-11T16:22:13Z</time>
      </trkpt>
      <trkpt lat="48.66116" lon="-0.54509">
        <ele>206.3</ele>
        <time>2012-02-11T16:22:15Z</time>
      </trkpt>
      <trkpt lat="48.66115" lon="-0.54522">
        <ele>205.7</ele>
        <time>2012-02-11T16:22:17Z</time>
      </trkpt>
      <trkpt lat="48.66116" lon="-0.54534">
        <ele>205.5</ele>
        <time>2012-02-11T16:22:19Z</time>
      </trkpt>
      <trkpt lat="48.66116" lon="-0.54546">
        <ele>205.6</ele>
        <time>2012-02-11T16:22:21Z</time>
      </trkpt>
      <trkpt lat="48.66116" lon="-0.54556">
        <ele>205.7</ele>
        <time>2012-02-11T16:22:23Z</time>
      </trkpt>
      <trkpt lat="48.66118" lon="-0.54567">
        <ele>205.2</ele>
        <time>2012-02-11T16:22:26Z</time>
      </trkpt>
      <trkpt lat="48.66125" lon="-0.54572">
        <ele>205.7</ele>
        <time>2012-02-11T16:22:30Z</time>
      </trkpt>
      <trkpt lat="48.66132" lon="-0.54573">
        <ele>205.9</ele>
        <time>2012-02-11T16:22:33Z</time>
      </trkpt>
      <trkpt lat="48.6614" lon="-0.54572">
        <ele>206.1</ele>
        <time>2012-02-11T16:22:36Z</time>
      </trkpt>
      <trkpt lat="48.66147" lon="-0.54571">
        <ele>206.7</ele>
        <time>2012-02-11T16:22:39Z</time>
      </trkpt>
      <trkpt lat="48.6615" lon="-0.54571">
        <ele>207</ele>
        <time>2012-02-11T16:22:40Z</time>
      </trkpt>
      <trkpt lat="48.66163" lon="-0.54575">
        <ele>207.4</ele>
        <time>2012-02-11T16:22:46Z</time>
      </trkpt>
      <trkpt lat="48.66168" lon="-0.54585">
        <ele>207.8</ele>
        <time>2012-02-11T16:22:52Z</time>
      </trkpt>
      <trkpt lat="48.66169" lon="-0.54589">
        <ele>208.3</ele>
        <time>2012-02-11T16:23:11Z</time>
      </trkpt>
      <trkpt lat="48.66169" lon="-0.54589">
        <ele>208.3</ele>
        <time>2012-02-11T16:23:11Z</time>
      </trkpt>
    </trkseg>
  </trk>
</gpx>